<?xml version='1.0' encoding='UTF-8'?><gpx version="1.1" creator="JPX - https://github.com/jenetics/jpx" xmlns="http://www.topografix.com/GPX/1/1"><trk><trkseg><trkpt lat="45.9434336" lon="8.4267485"><ele>201.0</ele><time>2026-04-25T08:57:38.217Z</time></trkpt><trkpt lat="45.9435197" lon="8.4267436"><ele>201.0</ele><time>2026-04-25T08:57:39.24Z</time></trkpt><trkpt lat="45.9436492" lon="8.4267321"><ele>201.0</ele><time>2026-04-25T08:57:42.245Z</time></trkpt><trkpt lat="45.943706" lon="8.4266922"><ele>201.0</ele><time>2026-04-25T08:57:45.274Z</time></trkpt><trkpt lat="45.9437932" lon="8.4266453"><ele>201.0</ele><time>2026-04-25T08:57:48.285Z</time></trkpt><trkpt lat="45.9438677" lon="8.4266318"><ele>201.0</ele><time>2026-04-25T08:57:50.282Z</time></trkpt><trkpt lat="45.9439337" lon="8.4266189"><ele>201.0</ele><time>2026-04-25T08:57:52.275Z</time></trkpt><trkpt lat="45.9440845" lon="8.4265756"><ele>201.0</ele><time>2026-04-25T08:57:54.271Z</time></trkpt><trkpt lat="45.9442659" lon="8.4265493"><ele>201.0</ele><time>2026-04-25T08:57:55.25Z</time></trkpt><trkpt lat="45.9446197" lon="8.4264957"><ele>201.0</ele><time>2026-04-25T08:57:56.259Z</time></trkpt><trkpt lat="45.9449108" lon="8.4264385"><ele>201.0</ele><time>2026-04-25T08:57:57.256Z</time></trkpt><trkpt lat="45.9451408" lon="8.4264138"><ele>201.0</ele><time>2026-04-25T08:57:58.264Z</time></trkpt><trkpt lat="45.9452693" lon="8.4264067"><ele>201.0</ele><time>2026-04-25T08:57:59.165Z</time></trkpt><trkpt lat="45.9454136" lon="8.4263982"><ele>201.0</ele><time>2026-04-25T08:58:00.173Z</time></trkpt><trkpt lat="45.9455383" lon="8.426398"><ele>201.0</ele><time>2026-04-25T08:58:01.177Z</time></trkpt><trkpt lat="45.9456832" lon="8.4264081"><ele>201.0</ele><time>2026-04-25T08:58:02.173Z</time></trkpt><trkpt lat="45.9458047" lon="8.4264327"><ele>201.0</ele><time>2026-04-25T08:58:03.167Z</time></trkpt><trkpt lat="45.9459164" lon="8.4264532"><ele>201.0</ele><time>2026-04-25T08:58:04.172Z</time></trkpt><trkpt lat="45.9460145" lon="8.4264817"><ele>201.0</ele><time>2026-04-25T08:58:05.171Z</time></trkpt><trkpt lat="45.946093" lon="8.4265114"><ele>201.0</ele><time>2026-04-25T08:58:06.197Z</time></trkpt><trkpt lat="45.9461638" lon="8.4265437"><ele>200.75</ele><time>2026-04-25T08:58:07.17Z</time></trkpt><trkpt lat="45.9462493" lon="8.4265628"><ele>200.5</ele><time>2026-04-25T08:58:08.185Z</time></trkpt><trkpt lat="45.9463772" lon="8.4265528"><ele>200.25</ele><time>2026-04-25T08:58:09.182Z</time></trkpt><trkpt lat="45.9465443" lon="8.4265514"><ele>200.0</ele><time>2026-04-25T08:58:10.178Z</time></trkpt><trkpt lat="45.9466832" lon="8.4265216"><ele>200.5</ele><time>2026-04-25T08:58:11.172Z</time></trkpt><trkpt lat="45.9468023" lon="8.4264863"><ele>201.0</ele><time>2026-04-25T08:58:12.171Z</time></trkpt><trkpt lat="45.9469186" lon="8.4264656"><ele>201.5</ele><time>2026-04-25T08:58:13.17Z</time></trkpt><trkpt lat="45.9470445" lon="8.4264356"><ele>202.0</ele><time>2026-04-25T08:58:14.172Z</time></trkpt><trkpt lat="45.9471979" lon="8.4264106"><ele>202.0</ele><time>2026-04-25T08:58:15.176Z</time></trkpt><trkpt lat="45.9473712" lon="8.4263852"><ele>202.0</ele><time>2026-04-25T08:58:16.168Z</time></trkpt><trkpt lat="45.947556" lon="8.4263747"><ele>202.0</ele><time>2026-04-25T08:58:17.168Z</time></trkpt><trkpt lat="45.9476886" lon="8.4263566"><ele>202.0</ele><time>2026-04-25T08:58:18.167Z</time></trkpt><trkpt lat="45.9478193" lon="8.4263487"><ele>202.0</ele><time>2026-04-25T08:58:19.174Z</time></trkpt><trkpt lat="45.9479027" lon="8.4263145"><ele>202.0</ele><time>2026-04-25T08:58:20.16Z</time></trkpt><trkpt lat="45.9479884" lon="8.4262683"><ele>202.0</ele><time>2026-04-25T08:58:21.171Z</time></trkpt><trkpt lat="45.948096" lon="8.4262402"><ele>202.0</ele><time>2026-04-25T08:58:22.163Z</time></trkpt><trkpt lat="45.9482148" lon="8.4262455"><ele>202.0</ele><time>2026-04-25T08:58:23.17Z</time></trkpt><trkpt lat="45.9483406" lon="8.42624"><ele>202.0</ele><time>2026-04-25T08:58:24.162Z</time></trkpt><trkpt lat="45.9484548" lon="8.4262407"><ele>202.0</ele><time>2026-04-25T08:58:25.16Z</time></trkpt><trkpt lat="45.9485647" lon="8.426229"><ele>202.0</ele><time>2026-04-25T08:58:26.157Z</time></trkpt><trkpt lat="45.9486778" lon="8.426219"><ele>202.2</ele><time>2026-04-25T08:58:27.162Z</time></trkpt><trkpt lat="45.9487794" lon="8.426195"><ele>202.39999999999998</ele><time>2026-04-25T08:58:28.159Z</time></trkpt><trkpt lat="45.9488668" lon="8.4261614"><ele>202.60000000000002</ele><time>2026-04-25T08:58:29.168Z</time></trkpt><trkpt lat="45.948936" lon="8.4261356"><ele>202.8</ele><time>2026-04-25T08:58:31.16Z</time></trkpt><trkpt lat="45.9489561" lon="8.4263052"><ele>203.0</ele><time>2026-04-25T08:58:34.166Z</time></trkpt><trkpt lat="45.9489717" lon="8.4264235"><ele>203.0</ele><time>2026-04-25T08:58:36.188Z</time></trkpt><trkpt lat="45.9490728" lon="8.4264489"><ele>203.0</ele><time>2026-04-25T08:58:38.15Z</time></trkpt><trkpt lat="45.9491822" lon="8.4264469"><ele>203.0</ele><time>2026-04-25T08:58:39.162Z</time></trkpt><trkpt lat="45.9493154" lon="8.4264587"><ele>203.0</ele><time>2026-04-25T08:58:40.156Z</time></trkpt><trkpt lat="45.9494403" lon="8.4264755"><ele>202.8</ele><time>2026-04-25T08:58:41.149Z</time></trkpt><trkpt lat="45.949548" lon="8.4264904"><ele>202.60000000000002</ele><time>2026-04-25T08:58:42.154Z</time></trkpt><trkpt lat="45.9496382" lon="8.4265008"><ele>202.39999999999998</ele><time>2026-04-25T08:58:43.15Z</time></trkpt><trkpt lat="45.9497301" lon="8.4264996"><ele>202.2</ele><time>2026-04-25T08:58:44.15Z</time></trkpt><trkpt lat="45.9498298" lon="8.4264899"><ele>202.0</ele><time>2026-04-25T08:58:45.152Z</time></trkpt><trkpt lat="45.9499208" lon="8.426507"><ele>202.0</ele><time>2026-04-25T08:58:46.154Z</time></trkpt><trkpt lat="45.9500207" lon="8.426578"><ele>202.0</ele><time>2026-04-25T08:58:48.153Z</time></trkpt><trkpt lat="45.950034" lon="8.4267328"><ele>202.0</ele><time>2026-04-25T08:58:50.144Z</time></trkpt><trkpt lat="45.9500216" lon="8.4269368"><ele>202.0</ele><time>2026-04-25T08:58:53.159Z</time></trkpt><trkpt lat="45.9500124" lon="8.4270363"><ele>202.0</ele><time>2026-04-25T08:58:55.177Z</time></trkpt><trkpt lat="45.9500182" lon="8.4272034"><ele>202.0</ele><time>2026-04-25T08:58:58.184Z</time></trkpt><trkpt lat="45.9500056" lon="8.4273448"><ele>202.0</ele><time>2026-04-25T08:59:00.191Z</time></trkpt><trkpt lat="45.9499859" lon="8.4274709"><ele>202.0</ele><time>2026-04-25T08:59:22.191Z</time></trkpt><trkpt lat="45.9499682" lon="8.4276727"><ele>202.0</ele><time>2026-04-25T08:59:24.171Z</time></trkpt><trkpt lat="45.9499708" lon="8.4278658"><ele>201.99999999999997</ele><time>2026-04-25T08:59:26.154Z</time></trkpt><trkpt lat="45.9499607" lon="8.4279687"><ele>202.0</ele><time>2026-04-25T08:59:27.168Z</time></trkpt><trkpt lat="45.9499465" lon="8.4280631"><ele>202.0</ele><time>2026-04-25T08:59:28.171Z</time></trkpt><trkpt lat="45.9499094" lon="8.428233"><ele>202.0</ele><time>2026-04-25T08:59:30.171Z</time></trkpt><trkpt lat="45.9498622" lon="8.42832"><ele>201.99999999999997</ele><time>2026-04-25T08:59:31.17Z</time></trkpt><trkpt lat="45.9498324" lon="8.4284236"><ele>202.0</ele><time>2026-04-25T08:59:32.17Z</time></trkpt><trkpt lat="45.9498158" lon="8.4285422"><ele>202.0</ele><time>2026-04-25T08:59:33.168Z</time></trkpt><trkpt lat="45.9498114" lon="8.4286612"><ele>202.0</ele><time>2026-04-25T08:59:34.177Z</time></trkpt><trkpt lat="45.9497957" lon="8.4288127"><ele>202.0</ele><time>2026-04-25T08:59:36.189Z</time></trkpt><trkpt lat="45.9497406" lon="8.4289738"><ele>202.0</ele><time>2026-04-25T08:59:38.162Z</time></trkpt><trkpt lat="45.9496807" lon="8.4290848"><ele>202.0</ele><time>2026-04-25T08:59:39.183Z</time></trkpt><trkpt lat="45.9496241" lon="8.4291893"><ele>201.8</ele><time>2026-04-25T08:59:40.17Z</time></trkpt><trkpt lat="45.94957" lon="8.4292794"><ele>201.6</ele><time>2026-04-25T08:59:41.185Z</time></trkpt><trkpt lat="45.9495114" lon="8.4293619"><ele>201.4</ele><time>2026-04-25T08:59:42.178Z</time></trkpt><trkpt lat="45.9494378" lon="8.4294349"><ele>201.20000000000002</ele><time>2026-04-25T08:59:43.175Z</time></trkpt><trkpt lat="45.9493572" lon="8.4295057"><ele>201.0</ele><time>2026-04-25T08:59:44.176Z</time></trkpt><trkpt lat="45.9492696" lon="8.4295779"><ele>201.60000000000002</ele><time>2026-04-25T08:59:45.172Z</time></trkpt><trkpt lat="45.9491888" lon="8.4296782"><ele>202.2</ele><time>2026-04-25T08:59:46.17Z</time></trkpt><trkpt lat="45.9491165" lon="8.4297835"><ele>202.8</ele><time>2026-04-25T08:59:47.173Z</time></trkpt><trkpt lat="45.9490537" lon="8.4299198"><ele>203.39999999999998</ele><time>2026-04-25T08:59:48.167Z</time></trkpt><trkpt lat="45.9489878" lon="8.4300625"><ele>204.0</ele><time>2026-04-25T08:59:49.181Z</time></trkpt><trkpt lat="45.9489356" lon="8.4302072"><ele>204.0</ele><time>2026-04-25T08:59:50.168Z</time></trkpt><trkpt lat="45.9488948" lon="8.4303252"><ele>204.0</ele><time>2026-04-25T08:59:51.175Z</time></trkpt><trkpt lat="45.9488521" lon="8.4304126"><ele>204.0</ele><time>2026-04-25T08:59:52.183Z</time></trkpt><trkpt lat="45.9488055" lon="8.4304995"><ele>204.0</ele><time>2026-04-25T08:59:53.178Z</time></trkpt><trkpt lat="45.9487564" lon="8.4305946"><ele>204.0</ele><time>2026-04-25T08:59:54.17Z</time></trkpt><trkpt lat="45.9487113" lon="8.4306821"><ele>204.0</ele><time>2026-04-25T08:59:55.178Z</time></trkpt><trkpt lat="45.948639" lon="8.4307954"><ele>204.0</ele><time>2026-04-25T08:59:57.17Z</time></trkpt><trkpt lat="45.9487148" lon="8.4308813"><ele>204.0</ele><time>2026-04-25T09:00:01.197Z</time></trkpt><trkpt lat="45.9487931" lon="8.4309039"><ele>204.0</ele><time>2026-04-25T09:00:02.196Z</time></trkpt><trkpt lat="45.9488912" lon="8.430949"><ele>204.0</ele><time>2026-04-25T09:00:03.182Z</time></trkpt><trkpt lat="45.9489812" lon="8.4310326"><ele>204.0</ele><time>2026-04-25T09:00:04.17Z</time></trkpt><trkpt lat="45.9490517" lon="8.4310945"><ele>204.0</ele><time>2026-04-25T09:00:05.189Z</time></trkpt><trkpt lat="45.9491374" lon="8.4311291"><ele>204.0</ele><time>2026-04-25T09:00:07.176Z</time></trkpt><trkpt lat="45.9492168" lon="8.4311138"><ele>204.0</ele><time>2026-04-25T09:00:09.19Z</time></trkpt><trkpt lat="45.9492561" lon="8.4311872"><ele>204.0</ele><time>2026-04-25T09:00:11.182Z</time></trkpt><trkpt lat="45.9493553" lon="8.4313209"><ele>204.0</ele><time>2026-04-25T09:00:13.172Z</time></trkpt><trkpt lat="45.9494565" lon="8.4313825"><ele>204.0</ele><time>2026-04-25T09:00:14.171Z</time></trkpt><trkpt lat="45.9495513" lon="8.4314262"><ele>204.0</ele><time>2026-04-25T09:00:15.168Z</time></trkpt><trkpt lat="45.9496482" lon="8.4314589"><ele>204.0</ele><time>2026-04-25T09:00:16.181Z</time></trkpt><trkpt lat="45.9497419" lon="8.4314909"><ele>204.0</ele><time>2026-04-25T09:00:17.173Z</time></trkpt><trkpt lat="45.9498235" lon="8.4315403"><ele>204.0</ele><time>2026-04-25T09:00:18.171Z</time></trkpt><trkpt lat="45.9499063" lon="8.4315935"><ele>204.0</ele><time>2026-04-25T09:00:19.176Z</time></trkpt><trkpt lat="45.949991" lon="8.4316342"><ele>204.0</ele><time>2026-04-25T09:00:20.171Z</time></trkpt><trkpt lat="45.9500879" lon="8.4316739"><ele>204.0</ele><time>2026-04-25T09:00:21.174Z</time></trkpt><trkpt lat="45.9501768" lon="8.4317208"><ele>204.0</ele><time>2026-04-25T09:00:22.163Z</time></trkpt><trkpt lat="45.9502574" lon="8.4317501"><ele>204.0</ele><time>2026-04-25T09:00:23.167Z</time></trkpt><trkpt lat="45.9503285" lon="8.4317561"><ele>204.0</ele><time>2026-04-25T09:00:24.177Z</time></trkpt><trkpt lat="45.9504279" lon="8.4316958"><ele>203.6</ele><time>2026-04-25T09:00:26.174Z</time></trkpt><trkpt lat="45.950472" lon="8.4316169"><ele>203.2</ele><time>2026-04-25T09:00:27.175Z</time></trkpt><trkpt lat="45.9505229" lon="8.4315216"><ele>202.79999999999998</ele><time>2026-04-25T09:00:28.166Z</time></trkpt><trkpt lat="45.9505918" lon="8.4314114"><ele>202.39999999999998</ele><time>2026-04-25T09:00:29.166Z</time></trkpt><trkpt lat="45.9506637" lon="8.4313007"><ele>202.0</ele><time>2026-04-25T09:00:30.167Z</time></trkpt><trkpt lat="45.9507425" lon="8.4311949"><ele>203.0</ele><time>2026-04-25T09:00:31.165Z</time></trkpt><trkpt lat="45.9508129" lon="8.4310784"><ele>204.0</ele><time>2026-04-25T09:00:32.168Z</time></trkpt><trkpt lat="45.9508814" lon="8.4309677"><ele>205.0</ele><time>2026-04-25T09:00:33.171Z</time></trkpt><trkpt lat="45.9509412" lon="8.4308728"><ele>206.0</ele><time>2026-04-25T09:00:34.165Z</time></trkpt><trkpt lat="45.9509974" lon="8.4307645"><ele>207.0</ele><time>2026-04-25T09:00:35.162Z</time></trkpt><trkpt lat="45.9510607" lon="8.4306509"><ele>207.0</ele><time>2026-04-25T09:00:36.166Z</time></trkpt><trkpt lat="45.9511196" lon="8.430548"><ele>207.0</ele><time>2026-04-25T09:00:37.184Z</time></trkpt><trkpt lat="45.9511686" lon="8.4304589"><ele>207.0</ele><time>2026-04-25T09:00:38.169Z</time></trkpt><trkpt lat="45.951215" lon="8.4303525"><ele>207.0</ele><time>2026-04-25T09:00:40.166Z</time></trkpt><trkpt lat="45.9513121" lon="8.4304142"><ele>207.0</ele><time>2026-04-25T09:00:42.163Z</time></trkpt><trkpt lat="45.9513868" lon="8.4304109"><ele>207.0</ele><time>2026-04-25T09:00:44.173Z</time></trkpt><trkpt lat="45.9514485" lon="8.4305128"><ele>207.0</ele><time>2026-04-25T09:00:46.174Z</time></trkpt><trkpt lat="45.9514675" lon="8.4306145"><ele>207.0</ele><time>2026-04-25T09:00:47.165Z</time></trkpt><trkpt lat="45.9515364" lon="8.430766"><ele>207.0</ele><time>2026-04-25T09:00:49.163Z</time></trkpt><trkpt lat="45.9515858" lon="8.4308434"><ele>207.0</ele><time>2026-04-25T09:00:50.173Z</time></trkpt><trkpt lat="45.9516145" lon="8.4309292"><ele>207.0</ele><time>2026-04-25T09:00:51.159Z</time></trkpt><trkpt lat="45.9516407" lon="8.4310266"><ele>207.0</ele><time>2026-04-25T09:00:52.162Z</time></trkpt><trkpt lat="45.9516827" lon="8.4310963"><ele>207.0</ele><time>2026-04-25T09:00:53.159Z</time></trkpt><trkpt lat="45.9517667" lon="8.4312163"><ele>207.0</ele><time>2026-04-25T09:00:55.163Z</time></trkpt><trkpt lat="45.9518158" lon="8.4312747"><ele>207.0</ele><time>2026-04-25T09:00:56.154Z</time></trkpt><trkpt lat="45.9518766" lon="8.431419"><ele>207.0</ele><time>2026-04-25T09:00:58.163Z</time></trkpt><trkpt lat="45.9519581" lon="8.4315229"><ele>207.0</ele><time>2026-04-25T09:01:00.158Z</time></trkpt><trkpt lat="45.952047" lon="8.4315687"><ele>207.0</ele><time>2026-04-25T09:01:01.155Z</time></trkpt><trkpt lat="45.9521533" lon="8.4316005"><ele>207.0</ele><time>2026-04-25T09:01:02.163Z</time></trkpt><trkpt lat="45.9522349" lon="8.4316155"><ele>207.0</ele><time>2026-04-25T09:01:03.16Z</time></trkpt><trkpt lat="45.9523135" lon="8.4316092"><ele>207.0</ele><time>2026-04-25T09:01:04.163Z</time></trkpt><trkpt lat="45.9524087" lon="8.4315788"><ele>207.0</ele><time>2026-04-25T09:01:05.165Z</time></trkpt><trkpt lat="45.9525091" lon="8.4315353"><ele>207.0</ele><time>2026-04-25T09:01:06.157Z</time></trkpt><trkpt lat="45.9525896" lon="8.4315255"><ele>207.0</ele><time>2026-04-25T09:01:07.16Z</time></trkpt><trkpt lat="45.9526642" lon="8.4315605"><ele>207.0</ele><time>2026-04-25T09:01:08.157Z</time></trkpt><trkpt lat="45.9527544" lon="8.4316163"><ele>207.0</ele><time>2026-04-25T09:01:09.154Z</time></trkpt><trkpt lat="45.9528621" lon="8.4316598"><ele>207.0</ele><time>2026-04-25T09:01:10.164Z</time></trkpt><trkpt lat="45.9529898" lon="8.431702"><ele>207.0</ele><time>2026-04-25T09:01:11.172Z</time></trkpt><trkpt lat="45.9531035" lon="8.431736"><ele>207.0</ele><time>2026-04-25T09:01:12.165Z</time></trkpt><trkpt lat="45.9532248" lon="8.4317659"><ele>207.0</ele><time>2026-04-25T09:01:13.172Z</time></trkpt><trkpt lat="45.9533463" lon="8.4317783"><ele>207.0</ele><time>2026-04-25T09:01:14.165Z</time></trkpt><trkpt lat="45.9534565" lon="8.4317934"><ele>206.2</ele><time>2026-04-25T09:01:15.16Z</time></trkpt><trkpt lat="45.9535468" lon="8.4318052"><ele>205.39999999999998</ele><time>2026-04-25T09:01:16.173Z</time></trkpt><trkpt lat="45.953634" lon="8.4318179"><ele>204.60000000000002</ele><time>2026-04-25T09:01:17.168Z</time></trkpt><trkpt lat="45.9537376" lon="8.4318334"><ele>203.8</ele><time>2026-04-25T09:01:18.166Z</time></trkpt><trkpt lat="45.9538376" lon="8.4318429"><ele>203.0</ele><time>2026-04-25T09:01:19.162Z</time></trkpt><trkpt lat="45.9539208" lon="8.4318577"><ele>203.0</ele><time>2026-04-25T09:01:20.165Z</time></trkpt><trkpt lat="45.9540146" lon="8.4318754"><ele>203.0</ele><time>2026-04-25T09:01:22.163Z</time></trkpt><trkpt lat="45.954112" lon="8.4318804"><ele>203.0</ele><time>2026-04-25T09:01:26.185Z</time></trkpt><trkpt lat="45.9542051" lon="8.431928"><ele>203.0</ele><time>2026-04-25T09:01:27.175Z</time></trkpt><trkpt lat="45.954321" lon="8.4319894"><ele>203.0</ele><time>2026-04-25T09:01:28.171Z</time></trkpt><trkpt lat="45.9544409" lon="8.4320562"><ele>202.75</ele><time>2026-04-25T09:01:29.163Z</time></trkpt><trkpt lat="45.9545689" lon="8.4321212"><ele>202.5</ele><time>2026-04-25T09:01:30.177Z</time></trkpt><trkpt lat="45.9546824" lon="8.4321727"><ele>202.25</ele><time>2026-04-25T09:01:31.168Z</time></trkpt><trkpt lat="45.9547822" lon="8.4322202"><ele>202.0</ele><time>2026-04-25T09:01:32.167Z</time></trkpt><trkpt lat="45.9549122" lon="8.4322422"><ele>202.6</ele><time>2026-04-25T09:01:33.168Z</time></trkpt><trkpt lat="45.9550411" lon="8.4322566"><ele>203.2</ele><time>2026-04-25T09:01:34.17Z</time></trkpt><trkpt lat="45.9551476" lon="8.4322856"><ele>203.8</ele><time>2026-04-25T09:01:35.172Z</time></trkpt><trkpt lat="45.9552556" lon="8.4323058"><ele>204.4</ele><time>2026-04-25T09:01:36.173Z</time></trkpt><trkpt lat="45.9553549" lon="8.4323264"><ele>205.0</ele><time>2026-04-25T09:01:37.172Z</time></trkpt><trkpt lat="45.9554612" lon="8.4323645"><ele>205.0</ele><time>2026-04-25T09:01:38.178Z</time></trkpt><trkpt lat="45.9555687" lon="8.4324113"><ele>205.0</ele><time>2026-04-25T09:01:39.169Z</time></trkpt><trkpt lat="45.955679" lon="8.4324573"><ele>205.0</ele><time>2026-04-25T09:01:40.168Z</time></trkpt><trkpt lat="45.9557761" lon="8.4324984"><ele>205.0</ele><time>2026-04-25T09:01:41.169Z</time></trkpt><trkpt lat="45.9558844" lon="8.4325302"><ele>205.0</ele><time>2026-04-25T09:01:42.186Z</time></trkpt><trkpt lat="45.9560072" lon="8.4325445"><ele>205.2</ele><time>2026-04-25T09:01:43.171Z</time></trkpt><trkpt lat="45.9561182" lon="8.4325788"><ele>205.4</ele><time>2026-04-25T09:01:44.175Z</time></trkpt><trkpt lat="45.9562132" lon="8.4326085"><ele>205.60000000000002</ele><time>2026-04-25T09:01:45.178Z</time></trkpt><trkpt lat="45.9563195" lon="8.4326333"><ele>205.8</ele><time>2026-04-25T09:01:46.17Z</time></trkpt><trkpt lat="45.956423" lon="8.4326678"><ele>206.0</ele><time>2026-04-25T09:01:47.167Z</time></trkpt><trkpt lat="45.9565329" lon="8.432706"><ele>206.0</ele><time>2026-04-25T09:01:48.166Z</time></trkpt><trkpt lat="45.9566442" lon="8.4327382"><ele>206.0</ele><time>2026-04-25T09:01:49.173Z</time></trkpt><trkpt lat="45.9567529" lon="8.4327713"><ele>206.0</ele><time>2026-04-25T09:01:50.173Z</time></trkpt><trkpt lat="45.9568663" lon="8.4328134"><ele>206.0</ele><time>2026-04-25T09:01:51.175Z</time></trkpt><trkpt lat="45.9569799" lon="8.4328595"><ele>205.60000000000002</ele><time>2026-04-25T09:01:52.165Z</time></trkpt><trkpt lat="45.9570944" lon="8.4328941"><ele>205.2</ele><time>2026-04-25T09:01:53.171Z</time></trkpt><trkpt lat="45.9571908" lon="8.4329346"><ele>204.8</ele><time>2026-04-25T09:01:54.165Z</time></trkpt><trkpt lat="45.9572945" lon="8.4329726"><ele>204.39999999999998</ele><time>2026-04-25T09:01:55.174Z</time></trkpt><trkpt lat="45.9574088" lon="8.4330217"><ele>204.0</ele><time>2026-04-25T09:01:56.174Z</time></trkpt><trkpt lat="45.9575141" lon="8.4331006"><ele>204.0</ele><time>2026-04-25T09:01:57.176Z</time></trkpt><trkpt lat="45.9576122" lon="8.4331779"><ele>204.0</ele><time>2026-04-25T09:01:58.177Z</time></trkpt><trkpt lat="45.9577159" lon="8.4332337"><ele>204.0</ele><time>2026-04-25T09:01:59.17Z</time></trkpt><trkpt lat="45.9578329" lon="8.4332732"><ele>204.0</ele><time>2026-04-25T09:02:00.178Z</time></trkpt><trkpt lat="45.957946" lon="8.4333144"><ele>204.0</ele><time>2026-04-25T09:02:01.181Z</time></trkpt><trkpt lat="45.958048" lon="8.4333538"><ele>204.0</ele><time>2026-04-25T09:02:02.174Z</time></trkpt><trkpt lat="45.9581607" lon="8.4333978"><ele>204.0</ele><time>2026-04-25T09:02:03.179Z</time></trkpt><trkpt lat="45.9582844" lon="8.4334458"><ele>204.0</ele><time>2026-04-25T09:02:04.179Z</time></trkpt><trkpt lat="45.9583828" lon="8.4334731"><ele>204.5</ele><time>2026-04-25T09:02:05.177Z</time></trkpt><trkpt lat="45.9584674" lon="8.4334866"><ele>205.0</ele><time>2026-04-25T09:02:06.171Z</time></trkpt><trkpt lat="45.9585325" lon="8.4334715"><ele>205.5</ele><time>2026-04-25T09:02:07.182Z</time></trkpt><trkpt lat="45.9586061" lon="8.4334195"><ele>206.0</ele><time>2026-04-25T09:02:08.193Z</time></trkpt><trkpt lat="45.9586811" lon="8.4333477"><ele>206.5</ele><time>2026-04-25T09:02:09.177Z</time></trkpt><trkpt lat="45.9587419" lon="8.4332245"><ele>207.0</ele><time>2026-04-25T09:02:10.183Z</time></trkpt><trkpt lat="45.9588076" lon="8.4331154"><ele>207.00000000000003</ele><time>2026-04-25T09:02:11.179Z</time></trkpt><trkpt lat="45.9588507" lon="8.4330423"><ele>207.0</ele><time>2026-04-25T09:02:12.184Z</time></trkpt><trkpt lat="45.9589061" lon="8.4329929"><ele>207.0</ele><time>2026-04-25T09:02:13.178Z</time></trkpt><trkpt lat="45.9589869" lon="8.4329481"><ele>207.0</ele><time>2026-04-25T09:02:14.188Z</time></trkpt><trkpt lat="45.9590724" lon="8.4329252"><ele>207.0</ele><time>2026-04-25T09:02:15.177Z</time></trkpt><trkpt lat="45.9591433" lon="8.4329254"><ele>207.00000000000003</ele><time>2026-04-25T09:02:16.178Z</time></trkpt><trkpt lat="45.9592142" lon="8.4329373"><ele>207.0</ele><time>2026-04-25T09:02:17.187Z</time></trkpt><trkpt lat="45.9592927" lon="8.4329619"><ele>207.5</ele><time>2026-04-25T09:02:18.194Z</time></trkpt><trkpt lat="45.9593668" lon="8.4329927"><ele>208.0</ele><time>2026-04-25T09:02:19.189Z</time></trkpt><trkpt lat="45.9594455" lon="8.4330277"><ele>208.5</ele><time>2026-04-25T09:02:20.185Z</time></trkpt><trkpt lat="45.9595209" lon="8.4330474"><ele>209.0</ele><time>2026-04-25T09:02:21.195Z</time></trkpt><trkpt lat="45.9596058" lon="8.4330443"><ele>209.5</ele><time>2026-04-25T09:02:22.192Z</time></trkpt><trkpt lat="45.9596933" lon="8.4330115"><ele>210.0</ele><time>2026-04-25T09:02:23.179Z</time></trkpt><trkpt lat="45.9598025" lon="8.4329832"><ele>209.5</ele><time>2026-04-25T09:02:24.183Z</time></trkpt><trkpt lat="45.9599138" lon="8.4329512"><ele>209.0</ele><time>2026-04-25T09:02:25.181Z</time></trkpt><trkpt lat="45.9600227" lon="8.432932"><ele>208.5</ele><time>2026-04-25T09:02:26.182Z</time></trkpt><trkpt lat="45.9601357" lon="8.4328975"><ele>208.0</ele><time>2026-04-25T09:02:27.189Z</time></trkpt><trkpt lat="45.9602563" lon="8.4328578"><ele>208.0</ele><time>2026-04-25T09:02:28.179Z</time></trkpt><trkpt lat="45.960364" lon="8.4328316"><ele>208.0</ele><time>2026-04-25T09:02:29.172Z</time></trkpt><trkpt lat="45.9604436" lon="8.4327923"><ele>208.0</ele><time>2026-04-25T09:02:30.179Z</time></trkpt><trkpt lat="45.9605266" lon="8.4327659"><ele>208.0</ele><time>2026-04-25T09:02:31.178Z</time></trkpt><trkpt lat="45.9606176" lon="8.4327506"><ele>208.0</ele><time>2026-04-25T09:02:32.185Z</time></trkpt><trkpt lat="45.9607163" lon="8.4327427"><ele>208.0</ele><time>2026-04-25T09:02:33.176Z</time></trkpt><trkpt lat="45.9608193" lon="8.4327163"><ele>208.0</ele><time>2026-04-25T09:02:34.177Z</time></trkpt><trkpt lat="45.9609248" lon="8.4326943"><ele>208.0</ele><time>2026-04-25T09:02:35.177Z</time></trkpt><trkpt lat="45.9610279" lon="8.4326457"><ele>208.0</ele><time>2026-04-25T09:02:36.179Z</time></trkpt><trkpt lat="45.961139" lon="8.4326094"><ele>208.0</ele><time>2026-04-25T09:02:37.175Z</time></trkpt><trkpt lat="45.9612414" lon="8.4325717"><ele>208.25</ele><time>2026-04-25T09:02:38.185Z</time></trkpt><trkpt lat="45.961338" lon="8.4325321"><ele>208.5</ele><time>2026-04-25T09:02:39.181Z</time></trkpt><trkpt lat="45.9614529" lon="8.4324862"><ele>208.75</ele><time>2026-04-25T09:02:40.178Z</time></trkpt><trkpt lat="45.9615628" lon="8.4324344"><ele>209.0</ele><time>2026-04-25T09:02:41.187Z</time></trkpt><trkpt lat="45.9616889" lon="8.4323798"><ele>209.0</ele><time>2026-04-25T09:02:42.186Z</time></trkpt><trkpt lat="45.9617997" lon="8.4323283"><ele>209.0</ele><time>2026-04-25T09:02:43.181Z</time></trkpt><trkpt lat="45.9618921" lon="8.4323118"><ele>209.0</ele><time>2026-04-25T09:02:44.176Z</time></trkpt><trkpt lat="45.9619762" lon="8.4322713"><ele>209.0</ele><time>2026-04-25T09:02:45.194Z</time></trkpt><trkpt lat="45.9620735" lon="8.4322416"><ele>209.0</ele><time>2026-04-25T09:02:46.178Z</time></trkpt><trkpt lat="45.9621792" lon="8.4321734"><ele>208.75</ele><time>2026-04-25T09:02:47.179Z</time></trkpt><trkpt lat="45.9622957" lon="8.4321028"><ele>208.5</ele><time>2026-04-25T09:02:48.175Z</time></trkpt><trkpt lat="45.9624223" lon="8.4320246"><ele>208.25</ele><time>2026-04-25T09:02:49.186Z</time></trkpt><trkpt lat="45.9625399" lon="8.431964"><ele>208.0</ele><time>2026-04-25T09:02:50.183Z</time></trkpt><trkpt lat="45.9626571" lon="8.4318798"><ele>208.4</ele><time>2026-04-25T09:02:51.185Z</time></trkpt><trkpt lat="45.9627696" lon="8.4318148"><ele>208.8</ele><time>2026-04-25T09:02:52.186Z</time></trkpt><trkpt lat="45.9628682" lon="8.4317474"><ele>209.2</ele><time>2026-04-25T09:02:53.187Z</time></trkpt><trkpt lat="45.9629665" lon="8.431677"><ele>209.6</ele><time>2026-04-25T09:02:54.187Z</time></trkpt><trkpt lat="45.963065" lon="8.431611"><ele>210.0</ele><time>2026-04-25T09:02:55.185Z</time></trkpt><trkpt lat="45.9631776" lon="8.4315455"><ele>210.0</ele><time>2026-04-25T09:02:56.187Z</time></trkpt><trkpt lat="45.9632846" lon="8.4314834"><ele>210.0</ele><time>2026-04-25T09:02:57.185Z</time></trkpt><trkpt lat="45.9633727" lon="8.4314309"><ele>210.0</ele><time>2026-04-25T09:02:58.188Z</time></trkpt><trkpt lat="45.9634509" lon="8.4313801"><ele>210.0</ele><time>2026-04-25T09:02:59.185Z</time></trkpt><trkpt lat="45.963512" lon="8.4313553"><ele>210.0</ele><time>2026-04-25T09:03:00.184Z</time></trkpt><trkpt lat="45.9635728" lon="8.4313241"><ele>210.0</ele><time>2026-04-25T09:03:01.179Z</time></trkpt><trkpt lat="45.9636479" lon="8.4312774"><ele>210.16666666666666</ele><time>2026-04-25T09:03:03.181Z</time></trkpt><trkpt lat="45.9637384" lon="8.4312637"><ele>210.33333333333331</ele><time>2026-04-25T09:03:06.199Z</time></trkpt><trkpt lat="45.9637792" lon="8.4313512"><ele>210.5</ele><time>2026-04-25T09:03:12.186Z</time></trkpt><trkpt lat="45.9636914" lon="8.4314144"><ele>210.66666666666666</ele><time>2026-04-25T09:03:15.189Z</time></trkpt><trkpt lat="45.9636228" lon="8.4314449"><ele>210.83333333333331</ele><time>2026-04-25T09:03:16.201Z</time></trkpt><trkpt lat="45.9635592" lon="8.4314766"><ele>211.0</ele><time>2026-04-25T09:03:17.184Z</time></trkpt><trkpt lat="45.9634778" lon="8.4315561"><ele>209.83333333333331</ele><time>2026-04-25T09:03:19.182Z</time></trkpt><trkpt lat="45.963522" lon="8.431645"><ele>208.66666666666666</ele><time>2026-04-25T09:03:21.201Z</time></trkpt><trkpt lat="45.9636063" lon="8.4315946"><ele>207.5</ele><time>2026-04-25T09:03:23.193Z</time></trkpt><trkpt lat="45.9636546" lon="8.4315286"><ele>206.33333333333331</ele><time>2026-04-25T09:03:24.195Z</time></trkpt><trkpt lat="45.9637179" lon="8.4314693"><ele>205.16666666666666</ele><time>2026-04-25T09:03:25.176Z</time></trkpt><trkpt lat="45.963848" lon="8.4314032"><ele>204.0</ele><time>2026-04-25T09:03:27.187Z</time></trkpt><trkpt lat="45.9639157" lon="8.4313871"><ele>204.0</ele><time>2026-04-25T09:03:28.182Z</time></trkpt><trkpt lat="45.9639901" lon="8.4313714"><ele>204.0</ele><time>2026-04-25T09:03:29.181Z</time></trkpt><trkpt lat="45.9640873" lon="8.4313246"><ele>204.0</ele><time>2026-04-25T09:03:30.181Z</time></trkpt><trkpt lat="45.9641917" lon="8.4312557"><ele>204.0</ele><time>2026-04-25T09:03:31.183Z</time></trkpt><trkpt lat="45.9642863" lon="8.431169"><ele>204.0</ele><time>2026-04-25T09:03:32.178Z</time></trkpt><trkpt lat="45.9643677" lon="8.4310922"><ele>204.83333333333334</ele><time>2026-04-25T09:03:33.186Z</time></trkpt><trkpt lat="45.9644368" lon="8.4310237"><ele>205.66666666666669</ele><time>2026-04-25T09:03:34.187Z</time></trkpt><trkpt lat="45.964495" lon="8.4309694"><ele>206.5</ele><time>2026-04-25T09:03:35.189Z</time></trkpt><trkpt lat="45.9645945" lon="8.4309137"><ele>207.33333333333334</ele><time>2026-04-25T09:03:37.181Z</time></trkpt><trkpt lat="45.9646587" lon="8.4308834"><ele>208.16666666666669</ele><time>2026-04-25T09:03:38.175Z</time></trkpt><trkpt lat="45.9647657" lon="8.4308142"><ele>209.0</ele><time>2026-04-25T09:03:39.191Z</time></trkpt><trkpt lat="45.9648963" lon="8.4307545"><ele>209.0</ele><time>2026-04-25T09:03:40.187Z</time></trkpt><trkpt lat="45.9650196" lon="8.430696"><ele>209.0</ele><time>2026-04-25T09:03:41.178Z</time></trkpt><trkpt lat="45.9651092" lon="8.4306459"><ele>209.0</ele><time>2026-04-25T09:03:42.174Z</time></trkpt><trkpt lat="45.965186" lon="8.4305962"><ele>209.0</ele><time>2026-04-25T09:03:43.183Z</time></trkpt><trkpt lat="45.9652505" lon="8.4305345"><ele>209.0</ele><time>2026-04-25T09:03:44.182Z</time></trkpt><trkpt lat="45.965321" lon="8.4304804"><ele>209.2</ele><time>2026-04-25T09:03:45.193Z</time></trkpt><trkpt lat="45.9653891" lon="8.4304259"><ele>209.39999999999998</ele><time>2026-04-25T09:03:46.187Z</time></trkpt><trkpt lat="45.9654705" lon="8.4303705"><ele>209.6</ele><time>2026-04-25T09:03:47.194Z</time></trkpt><trkpt lat="45.9655508" lon="8.4303274"><ele>209.8</ele><time>2026-04-25T09:03:48.182Z</time></trkpt><trkpt lat="45.9656402" lon="8.4302833"><ele>210.0</ele><time>2026-04-25T09:03:49.189Z</time></trkpt><trkpt lat="45.9657529" lon="8.4302306"><ele>210.0</ele><time>2026-04-25T09:03:50.19Z</time></trkpt><trkpt lat="45.965853" lon="8.4301821"><ele>210.0</ele><time>2026-04-25T09:03:51.178Z</time></trkpt><trkpt lat="45.9659469" lon="8.4301387"><ele>210.0</ele><time>2026-04-25T09:03:52.189Z</time></trkpt><trkpt lat="45.9660366" lon="8.4300966"><ele>210.0</ele><time>2026-04-25T09:03:53.175Z</time></trkpt><trkpt lat="45.966118" lon="8.4300454"><ele>210.0</ele><time>2026-04-25T09:03:54.175Z</time></trkpt><trkpt lat="45.9661848" lon="8.4299586"><ele>210.4</ele><time>2026-04-25T09:03:55.17Z</time></trkpt><trkpt lat="45.9662448" lon="8.4298781"><ele>210.8</ele><time>2026-04-25T09:03:56.178Z</time></trkpt><trkpt lat="45.9663118" lon="8.4298246"><ele>211.2</ele><time>2026-04-25T09:03:57.19Z</time></trkpt><trkpt lat="45.9663734" lon="8.4297698"><ele>211.6</ele><time>2026-04-25T09:03:58.178Z</time></trkpt><trkpt lat="45.9664897" lon="8.4296433"><ele>212.0</ele><time>2026-04-25T09:04:00.182Z</time></trkpt><trkpt lat="45.9665745" lon="8.4295749"><ele>212.00000000000003</ele><time>2026-04-25T09:04:01.187Z</time></trkpt><trkpt lat="45.966679" lon="8.4295262"><ele>212.0</ele><time>2026-04-25T09:04:02.174Z</time></trkpt><trkpt lat="45.9667713" lon="8.4294557"><ele>212.0</ele><time>2026-04-25T09:04:03.189Z</time></trkpt><trkpt lat="45.9668389" lon="8.429401"><ele>212.0</ele><time>2026-04-25T09:04:04.178Z</time></trkpt><trkpt lat="45.966901" lon="8.4293714"><ele>212.00000000000003</ele><time>2026-04-25T09:04:05.186Z</time></trkpt><trkpt lat="45.9669846" lon="8.4293203"><ele>212.0</ele><time>2026-04-25T09:04:06.179Z</time></trkpt><trkpt lat="45.96709" lon="8.4292548"><ele>211.2</ele><time>2026-04-25T09:04:07.178Z</time></trkpt><trkpt lat="45.9672053" lon="8.4291804"><ele>210.39999999999998</ele><time>2026-04-25T09:04:08.188Z</time></trkpt><trkpt lat="45.9672982" lon="8.4291107"><ele>209.60000000000002</ele><time>2026-04-25T09:04:09.184Z</time></trkpt><trkpt lat="45.9673801" lon="8.4290495"><ele>208.8</ele><time>2026-04-25T09:04:10.202Z</time></trkpt><trkpt lat="45.9674519" lon="8.4289843"><ele>208.0</ele><time>2026-04-25T09:04:11.182Z</time></trkpt><trkpt lat="45.9675197" lon="8.4289236"><ele>207.4</ele><time>2026-04-25T09:04:12.186Z</time></trkpt><trkpt lat="45.967596" lon="8.4288716"><ele>206.8</ele><time>2026-04-25T09:04:13.181Z</time></trkpt><trkpt lat="45.9676963" lon="8.4288342"><ele>206.2</ele><time>2026-04-25T09:04:14.177Z</time></trkpt><trkpt lat="45.9678253" lon="8.4287928"><ele>205.6</ele><time>2026-04-25T09:04:15.183Z</time></trkpt><trkpt lat="45.9679225" lon="8.4287398"><ele>205.0</ele><time>2026-04-25T09:04:16.189Z</time></trkpt><trkpt lat="45.9680123" lon="8.4286948"><ele>205.0</ele><time>2026-04-25T09:04:17.182Z</time></trkpt><trkpt lat="45.9681052" lon="8.4286079"><ele>205.0</ele><time>2026-04-25T09:04:19.186Z</time></trkpt><trkpt lat="45.9681368" lon="8.4284276"><ele>205.0</ele><time>2026-04-25T09:04:21.176Z</time></trkpt><trkpt lat="45.9681386" lon="8.4283163"><ele>205.0</ele><time>2026-04-25T09:04:22.181Z</time></trkpt><trkpt lat="45.9681506" lon="8.4281926"><ele>205.0</ele><time>2026-04-25T09:04:24.181Z</time></trkpt><trkpt lat="45.9682415" lon="8.428081"><ele>205.0</ele><time>2026-04-25T09:04:26.186Z</time></trkpt><trkpt lat="45.9683011" lon="8.4280414"><ele>205.0</ele><time>2026-04-25T09:04:27.175Z</time></trkpt><trkpt lat="45.9683697" lon="8.4280139"><ele>205.0</ele><time>2026-04-25T09:04:28.077Z</time></trkpt><trkpt lat="45.9684692" lon="8.4279493"><ele>205.0</ele><time>2026-04-25T09:04:29.866Z</time></trkpt><trkpt lat="45.9684919" lon="8.4278289"><ele>205.0</ele><time>2026-04-25T09:04:31.679Z</time></trkpt><trkpt lat="45.9684357" lon="8.4276485"><ele>204.83333333333331</ele><time>2026-04-25T09:04:33.468Z</time></trkpt><trkpt lat="45.9684022" lon="8.427559"><ele>204.66666666666666</ele><time>2026-04-25T09:04:34.378Z</time></trkpt><trkpt lat="45.9683784" lon="8.4274526"><ele>204.5</ele><time>2026-04-25T09:04:35.381Z</time></trkpt><trkpt lat="45.9683666" lon="8.4273402"><ele>204.33333333333331</ele><time>2026-04-25T09:04:36.374Z</time></trkpt><trkpt lat="45.9683623" lon="8.4272267"><ele>204.16666666666666</ele><time>2026-04-25T09:04:37.383Z</time></trkpt><trkpt lat="45.968351" lon="8.427085"><ele>204.0</ele><time>2026-04-25T09:04:38.381Z</time></trkpt><trkpt lat="45.9683359" lon="8.4269495"><ele>204.39999999999998</ele><time>2026-04-25T09:04:39.284Z</time></trkpt><trkpt lat="45.9683091" lon="8.4268286"><ele>204.8</ele><time>2026-04-25T09:04:40.191Z</time></trkpt><trkpt lat="45.9682634" lon="8.4266998"><ele>205.2</ele><time>2026-04-25T09:04:41.187Z</time></trkpt><trkpt lat="45.9682162" lon="8.4265542"><ele>205.60000000000002</ele><time>2026-04-25T09:04:42.194Z</time></trkpt><trkpt lat="45.9681922" lon="8.4264245"><ele>206.0</ele><time>2026-04-25T09:04:43.191Z</time></trkpt><trkpt lat="45.9681826" lon="8.426291"><ele>206.00000000000003</ele><time>2026-04-25T09:04:44.19Z</time></trkpt><trkpt lat="45.9681724" lon="8.4261742"><ele>206.0</ele><time>2026-04-25T09:04:45.182Z</time></trkpt><trkpt lat="45.9681595" lon="8.4260627"><ele>206.0</ele><time>2026-04-25T09:04:46.199Z</time></trkpt><trkpt lat="45.9681527" lon="8.4259721"><ele>206.0</ele><time>2026-04-25T09:04:47.177Z</time></trkpt><trkpt lat="45.9681236" lon="8.4258063"><ele>206.00000000000003</ele><time>2026-04-25T09:04:49.188Z</time></trkpt><trkpt lat="45.9681504" lon="8.4256652"><ele>206.0</ele><time>2026-04-25T09:04:51.197Z</time></trkpt><trkpt lat="45.9682113" lon="8.4256135"><ele>206.0</ele><time>2026-04-25T09:04:52.184Z</time></trkpt><trkpt lat="45.9682933" lon="8.4255705"><ele>206.0</ele><time>2026-04-25T09:04:53.185Z</time></trkpt><trkpt lat="45.968396" lon="8.4255232"><ele>206.0</ele><time>2026-04-25T09:04:54.192Z</time></trkpt><trkpt lat="45.9685242" lon="8.4254491"><ele>206.0</ele><time>2026-04-25T09:04:55.187Z</time></trkpt><trkpt lat="45.9686638" lon="8.4253544"><ele>205.75</ele><time>2026-04-25T09:04:56.187Z</time></trkpt><trkpt lat="45.9687902" lon="8.4252537"><ele>205.5</ele><time>2026-04-25T09:04:57.188Z</time></trkpt><trkpt lat="45.9688979" lon="8.4251617"><ele>205.25</ele><time>2026-04-25T09:04:58.19Z</time></trkpt><trkpt lat="45.9689974" lon="8.4250853"><ele>205.0</ele><time>2026-04-25T09:04:59.188Z</time></trkpt><trkpt lat="45.9690875" lon="8.4250165"><ele>205.0</ele><time>2026-04-25T09:05:00.186Z</time></trkpt><trkpt lat="45.9691889" lon="8.4249443"><ele>205.0</ele><time>2026-04-25T09:05:01.186Z</time></trkpt><trkpt lat="45.9693041" lon="8.4248634"><ele>205.0</ele><time>2026-04-25T09:05:02.184Z</time></trkpt><trkpt lat="45.9694138" lon="8.4247909"><ele>205.0</ele><time>2026-04-25T09:05:03.183Z</time></trkpt><trkpt lat="45.9695039" lon="8.4247003"><ele>205.4</ele><time>2026-04-25T09:05:04.181Z</time></trkpt><trkpt lat="45.9696006" lon="8.4246284"><ele>205.8</ele><time>2026-04-25T09:05:05.188Z</time></trkpt><trkpt lat="45.969689" lon="8.4245613"><ele>206.2</ele><time>2026-04-25T09:05:06.187Z</time></trkpt><trkpt lat="45.9697738" lon="8.4244951"><ele>206.6</ele><time>2026-04-25T09:05:07.187Z</time></trkpt><trkpt lat="45.9698597" lon="8.4244235"><ele>207.0</ele><time>2026-04-25T09:05:08.189Z</time></trkpt><trkpt lat="45.9699578" lon="8.4243554"><ele>207.25</ele><time>2026-04-25T09:05:09.188Z</time></trkpt><trkpt lat="45.9700632" lon="8.4242938"><ele>207.5</ele><time>2026-04-25T09:05:10.197Z</time></trkpt><trkpt lat="45.9701684" lon="8.4242304"><ele>207.75</ele><time>2026-04-25T09:05:11.191Z</time></trkpt><trkpt lat="45.9702951" lon="8.4241443"><ele>208.0</ele><time>2026-04-25T09:05:12.186Z</time></trkpt><trkpt lat="45.9703986" lon="8.4240596"><ele>208.0</ele><time>2026-04-25T09:05:13.178Z</time></trkpt><trkpt lat="45.9704991" lon="8.4239848"><ele>208.0</ele><time>2026-04-25T09:05:14.183Z</time></trkpt><trkpt lat="45.9705929" lon="8.423894"><ele>208.0</ele><time>2026-04-25T09:05:15.19Z</time></trkpt><trkpt lat="45.9706904" lon="8.4237952"><ele>208.0</ele><time>2026-04-25T09:05:16.185Z</time></trkpt><trkpt lat="45.9707868" lon="8.4236993"><ele>207.75</ele><time>2026-04-25T09:05:17.2Z</time></trkpt><trkpt lat="45.9708973" lon="8.4236076"><ele>207.5</ele><time>2026-04-25T09:05:18.188Z</time></trkpt><trkpt lat="45.9710032" lon="8.4235098"><ele>207.25</ele><time>2026-04-25T09:05:19.188Z</time></trkpt><trkpt lat="45.9711097" lon="8.4233991"><ele>207.0</ele><time>2026-04-25T09:05:20.192Z</time></trkpt><trkpt lat="45.9712148" lon="8.4232857"><ele>207.0</ele><time>2026-04-25T09:05:21.261Z</time></trkpt><trkpt lat="45.9713176" lon="8.4231732"><ele>207.0</ele><time>2026-04-25T09:05:22.269Z</time></trkpt><trkpt lat="45.9714222" lon="8.4230587"><ele>207.0</ele><time>2026-04-25T09:05:23.265Z</time></trkpt><trkpt lat="45.9715278" lon="8.4229457"><ele>207.0</ele><time>2026-04-25T09:05:24.267Z</time></trkpt><trkpt lat="45.9716265" lon="8.4228356"><ele>206.6</ele><time>2026-04-25T09:05:25.263Z</time></trkpt><trkpt lat="45.9717189" lon="8.4227332"><ele>206.2</ele><time>2026-04-25T09:05:26.256Z</time></trkpt><trkpt lat="45.9718078" lon="8.4226366"><ele>205.8</ele><time>2026-04-25T09:05:27.264Z</time></trkpt><trkpt lat="45.971886" lon="8.4225465"><ele>205.4</ele><time>2026-04-25T09:05:28.266Z</time></trkpt><trkpt lat="45.9719694" lon="8.4224507"><ele>205.0</ele><time>2026-04-25T09:05:29.264Z</time></trkpt><trkpt lat="45.9720546" lon="8.4223482"><ele>205.0</ele><time>2026-04-25T09:05:30.255Z</time></trkpt><trkpt lat="45.9721339" lon="8.4221716"><ele>205.0</ele><time>2026-04-25T09:05:31.252Z</time></trkpt><trkpt lat="45.9722341" lon="8.4219519"><ele>205.0</ele><time>2026-04-25T09:05:32.158Z</time></trkpt><trkpt lat="45.9723502" lon="8.4216954"><ele>205.66666666666666</ele><time>2026-04-25T09:05:33.16Z</time></trkpt><trkpt lat="45.9724635" lon="8.4214618"><ele>206.33333333333331</ele><time>2026-04-25T09:05:34.158Z</time></trkpt><trkpt lat="45.9725603" lon="8.4212838"><ele>207.0</ele><time>2026-04-25T09:05:35.169Z</time></trkpt><trkpt lat="45.9726525" lon="8.4211185"><ele>207.0</ele><time>2026-04-25T09:05:36.172Z</time></trkpt><trkpt lat="45.9727475" lon="8.4209552"><ele>207.0</ele><time>2026-04-25T09:05:37.175Z</time></trkpt><trkpt lat="45.9728299" lon="8.4207933"><ele>207.0</ele><time>2026-04-25T09:05:38.177Z</time></trkpt><trkpt lat="45.9729175" lon="8.4206232"><ele>207.0</ele><time>2026-04-25T09:05:39.174Z</time></trkpt><trkpt lat="45.9729905" lon="8.4204646"><ele>206.75</ele><time>2026-04-25T09:05:40.181Z</time></trkpt><trkpt lat="45.9730547" lon="8.4203093"><ele>206.5</ele><time>2026-04-25T09:05:41.176Z</time></trkpt><trkpt lat="45.9731156" lon="8.4201557"><ele>206.25</ele><time>2026-04-25T09:05:42.176Z</time></trkpt><trkpt lat="45.9731765" lon="8.4199989"><ele>206.0</ele><time>2026-04-25T09:05:43.177Z</time></trkpt><trkpt lat="45.9732394" lon="8.4198467"><ele>206.0</ele><time>2026-04-25T09:05:44.178Z</time></trkpt><trkpt lat="45.9732873" lon="8.4196759"><ele>206.0</ele><time>2026-04-25T09:05:45.178Z</time></trkpt><trkpt lat="45.9733236" lon="8.419505"><ele>206.0</ele><time>2026-04-25T09:05:46.172Z</time></trkpt><trkpt lat="45.9733742" lon="8.4193442"><ele>206.0</ele><time>2026-04-25T09:05:47.174Z</time></trkpt><trkpt lat="45.9734048" lon="8.4191906"><ele>206.0</ele><time>2026-04-25T09:05:48.191Z</time></trkpt><trkpt lat="45.9734419" lon="8.4190535"><ele>206.0</ele><time>2026-04-25T09:05:49.177Z</time></trkpt><trkpt lat="45.9734662" lon="8.4189173"><ele>206.0</ele><time>2026-04-25T09:05:50.178Z</time></trkpt><trkpt lat="45.9734657" lon="8.4187703"><ele>206.0</ele><time>2026-04-25T09:05:51.166Z</time></trkpt><trkpt lat="45.9734575" lon="8.418617"><ele>206.0</ele><time>2026-04-25T09:05:52.168Z</time></trkpt><trkpt lat="45.9734291" lon="8.4184373"><ele>206.25</ele><time>2026-04-25T09:05:53.174Z</time></trkpt><trkpt lat="45.9733986" lon="8.4182522"><ele>206.5</ele><time>2026-04-25T09:05:54.173Z</time></trkpt><trkpt lat="45.9733518" lon="8.4180672"><ele>206.75</ele><time>2026-04-25T09:05:55.172Z</time></trkpt><trkpt lat="45.9733053" lon="8.4178772"><ele>207.0</ele><time>2026-04-25T09:05:56.173Z</time></trkpt><trkpt lat="45.9732562" lon="8.417691"><ele>207.0</ele><time>2026-04-25T09:05:57.166Z</time></trkpt><trkpt lat="45.9732107" lon="8.4175132"><ele>207.0</ele><time>2026-04-25T09:05:58.172Z</time></trkpt><trkpt lat="45.9731762" lon="8.4173313"><ele>207.0</ele><time>2026-04-25T09:05:59.17Z</time></trkpt><trkpt lat="45.9731389" lon="8.4171487"><ele>207.0</ele><time>2026-04-25T09:06:00.172Z</time></trkpt><trkpt lat="45.9731044" lon="8.416961"><ele>207.25</ele><time>2026-04-25T09:06:01.175Z</time></trkpt><trkpt lat="45.9730721" lon="8.4167683"><ele>207.5</ele><time>2026-04-25T09:06:02.175Z</time></trkpt><trkpt lat="45.9730337" lon="8.416587"><ele>207.75</ele><time>2026-04-25T09:06:03.173Z</time></trkpt><trkpt lat="45.972995" lon="8.4163917"><ele>208.0</ele><time>2026-04-25T09:06:04.173Z</time></trkpt><trkpt lat="45.972966" lon="8.4162123"><ele>208.5</ele><time>2026-04-25T09:06:05.174Z</time></trkpt><trkpt lat="45.9729151" lon="8.4160393"><ele>209.0</ele><time>2026-04-25T09:06:06.171Z</time></trkpt><trkpt lat="45.9728427" lon="8.415893"><ele>209.5</ele><time>2026-04-25T09:06:07.175Z</time></trkpt><trkpt lat="45.9728015" lon="8.4157328"><ele>210.0</ele><time>2026-04-25T09:06:08.175Z</time></trkpt><trkpt lat="45.9727233" lon="8.4155836"><ele>210.0</ele><time>2026-04-25T09:06:09.173Z</time></trkpt><trkpt lat="45.9726459" lon="8.4154117"><ele>210.0</ele><time>2026-04-25T09:06:10.18Z</time></trkpt><trkpt lat="45.9725709" lon="8.4152422"><ele>210.0</ele><time>2026-04-25T09:06:11.178Z</time></trkpt><trkpt lat="45.9725096" lon="8.4150853"><ele>210.0</ele><time>2026-04-25T09:06:12.176Z</time></trkpt><trkpt lat="45.9724424" lon="8.4149376"><ele>210.4</ele><time>2026-04-25T09:06:13.17Z</time></trkpt><trkpt lat="45.9723661" lon="8.4148135"><ele>210.8</ele><time>2026-04-25T09:06:14.17Z</time></trkpt><trkpt lat="45.9722925" lon="8.4147112"><ele>211.2</ele><time>2026-04-25T09:06:15.167Z</time></trkpt><trkpt lat="45.97222" lon="8.4146123"><ele>211.6</ele><time>2026-04-25T09:06:16.163Z</time></trkpt><trkpt lat="45.9721574" lon="8.414535"><ele>212.0</ele><time>2026-04-25T09:06:17.166Z</time></trkpt><trkpt lat="45.9721003" lon="8.4144567"><ele>212.00000000000003</ele><time>2026-04-25T09:06:18.172Z</time></trkpt><trkpt lat="45.9720446" lon="8.4143773"><ele>212.0</ele><time>2026-04-25T09:06:19.163Z</time></trkpt><trkpt lat="45.9719939" lon="8.414291"><ele>212.0</ele><time>2026-04-25T09:06:20.157Z</time></trkpt><trkpt lat="45.9719034" lon="8.4141882"><ele>212.0</ele><time>2026-04-25T09:06:22.169Z</time></trkpt><trkpt lat="45.9718241" lon="8.4141047"><ele>212.00000000000003</ele><time>2026-04-25T09:06:24.171Z</time></trkpt><trkpt lat="45.9717721" lon="8.4140235"><ele>212.0</ele><time>2026-04-25T09:06:26.175Z</time></trkpt><trkpt lat="45.9717388" lon="8.4139451"><ele>212.2</ele><time>2026-04-25T09:06:34.181Z</time></trkpt><trkpt lat="45.9717414" lon="8.4138136"><ele>212.39999999999998</ele><time>2026-04-25T09:06:37.19Z</time></trkpt><trkpt lat="45.9717993" lon="8.4137301"><ele>212.60000000000002</ele><time>2026-04-25T09:06:38.172Z</time></trkpt><trkpt lat="45.9718843" lon="8.413618"><ele>212.8</ele><time>2026-04-25T09:06:39.179Z</time></trkpt><trkpt lat="45.971987" lon="8.4134668"><ele>213.0</ele><time>2026-04-25T09:06:40.183Z</time></trkpt><trkpt lat="45.9720931" lon="8.4133292"><ele>213.0</ele><time>2026-04-25T09:06:41.168Z</time></trkpt><trkpt lat="45.9722005" lon="8.4132059"><ele>213.0</ele><time>2026-04-25T09:06:42.174Z</time></trkpt><trkpt lat="45.9722915" lon="8.4130975"><ele>213.0</ele><time>2026-04-25T09:06:43.169Z</time></trkpt><trkpt lat="45.9723717" lon="8.4129979"><ele>213.0</ele><time>2026-04-25T09:06:44.172Z</time></trkpt><trkpt lat="45.9724486" lon="8.4129081"><ele>213.0</ele><time>2026-04-25T09:06:45.169Z</time></trkpt><trkpt lat="45.9725114" lon="8.412834"><ele>213.0</ele><time>2026-04-25T09:06:46.162Z</time></trkpt><trkpt lat="45.972566" lon="8.4127675"><ele>213.0</ele><time>2026-04-25T09:06:47.162Z</time></trkpt><trkpt lat="45.9726312" lon="8.4127089"><ele>213.0</ele><time>2026-04-25T09:06:48.167Z</time></trkpt><trkpt lat="45.972689" lon="8.4126435"><ele>213.0</ele><time>2026-04-25T09:06:49.176Z</time></trkpt><trkpt lat="45.9727495" lon="8.4125825"><ele>213.0</ele><time>2026-04-25T09:06:50.169Z</time></trkpt><trkpt lat="45.972811" lon="8.4125128"><ele>212.5</ele><time>2026-04-25T09:06:51.179Z</time></trkpt><trkpt lat="45.9728817" lon="8.412438"><ele>212.0</ele><time>2026-04-25T09:06:52.162Z</time></trkpt><trkpt lat="45.9729402" lon="8.4123602"><ele>211.5</ele><time>2026-04-25T09:06:53.168Z</time></trkpt><trkpt lat="45.9730123" lon="8.4122855"><ele>211.0</ele><time>2026-04-25T09:06:54.169Z</time></trkpt><trkpt lat="45.9730852" lon="8.4122029"><ele>210.5</ele><time>2026-04-25T09:06:55.169Z</time></trkpt><trkpt lat="45.9731631" lon="8.4121175"><ele>210.0</ele><time>2026-04-25T09:06:56.171Z</time></trkpt><trkpt lat="45.9732446" lon="8.4120257"><ele>210.0</ele><time>2026-04-25T09:06:57.17Z</time></trkpt><trkpt lat="45.9733269" lon="8.4119625"><ele>210.0</ele><time>2026-04-25T09:06:58.168Z</time></trkpt><trkpt lat="45.9733991" lon="8.411896"><ele>210.0</ele><time>2026-04-25T09:06:59.176Z</time></trkpt><trkpt lat="45.9734723" lon="8.4118338"><ele>210.0</ele><time>2026-04-25T09:07:00.172Z</time></trkpt><trkpt lat="45.9735554" lon="8.4117526"><ele>210.0</ele><time>2026-04-25T09:07:02.168Z</time></trkpt><trkpt lat="45.9736568" lon="8.4116426"><ele>209.6</ele><time>2026-04-25T09:07:04.161Z</time></trkpt><trkpt lat="45.9737362" lon="8.4115829"><ele>209.2</ele><time>2026-04-25T09:07:05.173Z</time></trkpt><trkpt lat="45.9738341" lon="8.4114967"><ele>208.8</ele><time>2026-04-25T09:07:06.168Z</time></trkpt><trkpt lat="45.973929" lon="8.4114025"><ele>208.4</ele><time>2026-04-25T09:07:07.17Z</time></trkpt><trkpt lat="45.9740228" lon="8.4113099"><ele>208.0</ele><time>2026-04-25T09:07:08.174Z</time></trkpt><trkpt lat="45.9741206" lon="8.4112222"><ele>207.33333333333331</ele><time>2026-04-25T09:07:09.17Z</time></trkpt><trkpt lat="45.9743251" lon="8.4110516"><ele>206.66666666666669</ele><time>2026-04-25T09:07:11.176Z</time></trkpt><trkpt lat="45.9744314" lon="8.4109492"><ele>206.0</ele><time>2026-04-25T09:07:12.18Z</time></trkpt><trkpt lat="45.9745408" lon="8.4108552"><ele>206.0</ele><time>2026-04-25T09:07:13.174Z</time></trkpt><trkpt lat="45.9746503" lon="8.4107744"><ele>206.0</ele><time>2026-04-25T09:07:14.177Z</time></trkpt><trkpt lat="45.9747612" lon="8.4106807"><ele>206.0</ele><time>2026-04-25T09:07:15.184Z</time></trkpt><trkpt lat="45.974865" lon="8.4105907"><ele>206.0</ele><time>2026-04-25T09:07:16.174Z</time></trkpt><trkpt lat="45.9749634" lon="8.4104898"><ele>206.0</ele><time>2026-04-25T09:07:17.179Z</time></trkpt><trkpt lat="45.9750665" lon="8.4103857"><ele>206.0</ele><time>2026-04-25T09:07:18.187Z</time></trkpt><trkpt lat="45.9751642" lon="8.4102971"><ele>206.0</ele><time>2026-04-25T09:07:19.176Z</time></trkpt><trkpt lat="45.9752598" lon="8.4102164"><ele>206.0</ele><time>2026-04-25T09:07:20.188Z</time></trkpt><trkpt lat="45.9753587" lon="8.4101388"><ele>206.0</ele><time>2026-04-25T09:07:21.177Z</time></trkpt><trkpt lat="45.975457" lon="8.4100551"><ele>206.0</ele><time>2026-04-25T09:07:22.195Z</time></trkpt><trkpt lat="45.9755514" lon="8.4099712"><ele>206.0</ele><time>2026-04-25T09:07:23.183Z</time></trkpt><trkpt lat="45.9756513" lon="8.4098848"><ele>206.0</ele><time>2026-04-25T09:07:24.186Z</time></trkpt><trkpt lat="45.9757467" lon="8.4097996"><ele>206.0</ele><time>2026-04-25T09:07:25.184Z</time></trkpt><trkpt lat="45.9758517" lon="8.4097212"><ele>206.0</ele><time>2026-04-25T09:07:26.185Z</time></trkpt><trkpt lat="45.9759481" lon="8.4096338"><ele>206.0</ele><time>2026-04-25T09:07:27.186Z</time></trkpt><trkpt lat="45.9760394" lon="8.4095485"><ele>206.0</ele><time>2026-04-25T09:07:28.186Z</time></trkpt><trkpt lat="45.9761343" lon="8.4094495"><ele>206.25</ele><time>2026-04-25T09:07:29.18Z</time></trkpt><trkpt lat="45.9762325" lon="8.4093585"><ele>206.5</ele><time>2026-04-25T09:07:30.18Z</time></trkpt><trkpt lat="45.9763316" lon="8.4092735"><ele>206.75</ele><time>2026-04-25T09:07:31.178Z</time></trkpt><trkpt lat="45.9764268" lon="8.4091913"><ele>207.0</ele><time>2026-04-25T09:07:32.185Z</time></trkpt><trkpt lat="45.9765324" lon="8.4091134"><ele>207.0</ele><time>2026-04-25T09:07:33.177Z</time></trkpt><trkpt lat="45.9766229" lon="8.4090207"><ele>207.0</ele><time>2026-04-25T09:07:34.173Z</time></trkpt><trkpt lat="45.9767167" lon="8.4089319"><ele>207.0</ele><time>2026-04-25T09:07:35.175Z</time></trkpt><trkpt lat="45.9768039" lon="8.4088436"><ele>207.0</ele><time>2026-04-25T09:07:36.178Z</time></trkpt><trkpt lat="45.9768968" lon="8.4087565"><ele>207.0</ele><time>2026-04-25T09:07:37.172Z</time></trkpt><trkpt lat="45.9769938" lon="8.4086698"><ele>206.75</ele><time>2026-04-25T09:07:38.176Z</time></trkpt><trkpt lat="45.9770935" lon="8.4085764"><ele>206.5</ele><time>2026-04-25T09:07:39.18Z</time></trkpt><trkpt lat="45.9771969" lon="8.408491"><ele>206.25</ele><time>2026-04-25T09:07:40.182Z</time></trkpt><trkpt lat="45.9772896" lon="8.4083997"><ele>206.0</ele><time>2026-04-25T09:07:41.178Z</time></trkpt><trkpt lat="45.9773927" lon="8.4083188"><ele>206.0</ele><time>2026-04-25T09:07:42.178Z</time></trkpt><trkpt lat="45.9775001" lon="8.408234"><ele>206.0</ele><time>2026-04-25T09:07:43.177Z</time></trkpt><trkpt lat="45.977597" lon="8.4081391"><ele>206.0</ele><time>2026-04-25T09:07:44.173Z</time></trkpt><trkpt lat="45.9776932" lon="8.4080534"><ele>206.0</ele><time>2026-04-25T09:07:45.177Z</time></trkpt><trkpt lat="45.9777935" lon="8.4079686"><ele>206.0</ele><time>2026-04-25T09:07:46.178Z</time></trkpt><trkpt lat="45.9778914" lon="8.4078864"><ele>206.0</ele><time>2026-04-25T09:07:47.179Z</time></trkpt><trkpt lat="45.9779995" lon="8.4077987"><ele>206.0</ele><time>2026-04-25T09:07:48.178Z</time></trkpt><trkpt lat="45.9781047" lon="8.4077238"><ele>206.0</ele><time>2026-04-25T09:07:49.179Z</time></trkpt><trkpt lat="45.9782089" lon="8.4076279"><ele>206.0</ele><time>2026-04-25T09:07:50.177Z</time></trkpt><trkpt lat="45.9783083" lon="8.4075412"><ele>206.0</ele><time>2026-04-25T09:07:51.191Z</time></trkpt><trkpt lat="45.9784062" lon="8.4074317"><ele>206.0</ele><time>2026-04-25T09:07:52.186Z</time></trkpt><trkpt lat="45.97851" lon="8.407332"><ele>206.0</ele><time>2026-04-25T09:07:53.189Z</time></trkpt><trkpt lat="45.9786191" lon="8.4072444"><ele>206.0</ele><time>2026-04-25T09:07:54.181Z</time></trkpt><trkpt lat="45.9787281" lon="8.4071667"><ele>206.0</ele><time>2026-04-25T09:07:55.177Z</time></trkpt><trkpt lat="45.9788387" lon="8.4070692"><ele>206.0</ele><time>2026-04-25T09:07:56.171Z</time></trkpt><trkpt lat="45.9789525" lon="8.4069734"><ele>206.0</ele><time>2026-04-25T09:07:57.176Z</time></trkpt><trkpt lat="45.9790595" lon="8.4068859"><ele>206.0</ele><time>2026-04-25T09:07:58.175Z</time></trkpt><trkpt lat="45.9791723" lon="8.4067973"><ele>206.0</ele><time>2026-04-25T09:07:59.176Z</time></trkpt><trkpt lat="45.9792771" lon="8.4066955"><ele>206.0</ele><time>2026-04-25T09:08:00.183Z</time></trkpt><trkpt lat="45.979385" lon="8.4065939"><ele>206.0</ele><time>2026-04-25T09:08:01.177Z</time></trkpt><trkpt lat="45.9794911" lon="8.4064919"><ele>206.25</ele><time>2026-04-25T09:08:02.174Z</time></trkpt><trkpt lat="45.9795972" lon="8.4063813"><ele>206.5</ele><time>2026-04-25T09:08:03.182Z</time></trkpt><trkpt lat="45.9797078" lon="8.4062762"><ele>206.75</ele><time>2026-04-25T09:08:04.177Z</time></trkpt><trkpt lat="45.9798206" lon="8.4061859"><ele>207.0</ele><time>2026-04-25T09:08:05.176Z</time></trkpt><trkpt lat="45.979935" lon="8.4060946"><ele>207.25</ele><time>2026-04-25T09:08:06.177Z</time></trkpt><trkpt lat="45.9800445" lon="8.4059986"><ele>207.5</ele><time>2026-04-25T09:08:07.177Z</time></trkpt><trkpt lat="45.9801517" lon="8.4059122"><ele>207.75</ele><time>2026-04-25T09:08:08.178Z</time></trkpt><trkpt lat="45.9802629" lon="8.4058048"><ele>208.0</ele><time>2026-04-25T09:08:09.178Z</time></trkpt><trkpt lat="45.9803728" lon="8.4056958"><ele>208.0</ele><time>2026-04-25T09:08:10.186Z</time></trkpt><trkpt lat="45.9804871" lon="8.4055977"><ele>208.0</ele><time>2026-04-25T09:08:11.18Z</time></trkpt><trkpt lat="45.9805972" lon="8.4054908"><ele>208.0</ele><time>2026-04-25T09:08:12.179Z</time></trkpt><trkpt lat="45.9807128" lon="8.4053836"><ele>208.0</ele><time>2026-04-25T09:08:13.181Z</time></trkpt><trkpt lat="45.9808247" lon="8.4052769"><ele>208.0</ele><time>2026-04-25T09:08:14.177Z</time></trkpt><trkpt lat="45.9809443" lon="8.4051739"><ele>208.0</ele><time>2026-04-25T09:08:15.175Z</time></trkpt><trkpt lat="45.9810613" lon="8.4050827"><ele>208.0</ele><time>2026-04-25T09:08:16.175Z</time></trkpt><trkpt lat="45.9811718" lon="8.4049789"><ele>208.0</ele><time>2026-04-25T09:08:17.179Z</time></trkpt><trkpt lat="45.9812775" lon="8.4048754"><ele>208.0</ele><time>2026-04-25T09:08:18.178Z</time></trkpt><trkpt lat="45.9813834" lon="8.4047643"><ele>208.0</ele><time>2026-04-25T09:08:19.174Z</time></trkpt><trkpt lat="45.9814993" lon="8.4046562"><ele>208.0</ele><time>2026-04-25T09:08:20.178Z</time></trkpt><trkpt lat="45.9816176" lon="8.4045557"><ele>208.0</ele><time>2026-04-25T09:08:21.177Z</time></trkpt><trkpt lat="45.9817416" lon="8.4044501"><ele>208.5</ele><time>2026-04-25T09:08:22.188Z</time></trkpt><trkpt lat="45.9818585" lon="8.4043516"><ele>209.0</ele><time>2026-04-25T09:08:23.174Z</time></trkpt><trkpt lat="45.9819824" lon="8.4042476"><ele>209.5</ele><time>2026-04-25T09:08:24.19Z</time></trkpt><trkpt lat="45.9821049" lon="8.4041403"><ele>210.0</ele><time>2026-04-25T09:08:25.175Z</time></trkpt><trkpt lat="45.982223" lon="8.4040187"><ele>210.0</ele><time>2026-04-25T09:08:26.181Z</time></trkpt><trkpt lat="45.9823364" lon="8.4039159"><ele>210.0</ele><time>2026-04-25T09:08:27.177Z</time></trkpt><trkpt lat="45.9824503" lon="8.4038119"><ele>210.0</ele><time>2026-04-25T09:08:28.177Z</time></trkpt><trkpt lat="45.9825636" lon="8.4037011"><ele>210.0</ele><time>2026-04-25T09:08:29.183Z</time></trkpt><trkpt lat="45.9826908" lon="8.4036054"><ele>209.75</ele><time>2026-04-25T09:08:30.177Z</time></trkpt><trkpt lat="45.9828138" lon="8.4034965"><ele>209.5</ele><time>2026-04-25T09:08:31.178Z</time></trkpt><trkpt lat="45.9829379" lon="8.4033755"><ele>209.25</ele><time>2026-04-25T09:08:32.177Z</time></trkpt><trkpt lat="45.9830588" lon="8.4032694"><ele>209.0</ele><time>2026-04-25T09:08:33.177Z</time></trkpt><trkpt lat="45.983181" lon="8.4031606"><ele>209.0</ele><time>2026-04-25T09:08:34.177Z</time></trkpt><trkpt lat="45.9832964" lon="8.4030555"><ele>209.0</ele><time>2026-04-25T09:08:35.174Z</time></trkpt><trkpt lat="45.9834037" lon="8.402949"><ele>209.0</ele><time>2026-04-25T09:08:36.178Z</time></trkpt><trkpt lat="45.9835239" lon="8.4028509"><ele>209.0</ele><time>2026-04-25T09:08:37.175Z</time></trkpt><trkpt lat="45.9836464" lon="8.4027512"><ele>209.0</ele><time>2026-04-25T09:08:38.181Z</time></trkpt><trkpt lat="45.9837634" lon="8.4026587"><ele>209.0</ele><time>2026-04-25T09:08:39.18Z</time></trkpt><trkpt lat="45.9838789" lon="8.4025526"><ele>209.0</ele><time>2026-04-25T09:08:40.179Z</time></trkpt><trkpt lat="45.9841297" lon="8.4023397"><ele>209.0</ele><time>2026-04-25T09:08:42.174Z</time></trkpt><trkpt lat="45.9842509" lon="8.402225"><ele>209.0</ele><time>2026-04-25T09:08:43.172Z</time></trkpt><trkpt lat="45.9843626" lon="8.4021209"><ele>209.0</ele><time>2026-04-25T09:08:44.171Z</time></trkpt><trkpt lat="45.9844802" lon="8.402008"><ele>209.0</ele><time>2026-04-25T09:08:45.176Z</time></trkpt><trkpt lat="45.9845874" lon="8.4018971"><ele>209.0</ele><time>2026-04-25T09:08:46.176Z</time></trkpt><trkpt lat="45.984706" lon="8.4017954"><ele>209.0</ele><time>2026-04-25T09:08:47.18Z</time></trkpt><trkpt lat="45.9848247" lon="8.4016835"><ele>209.0</ele><time>2026-04-25T09:08:48.182Z</time></trkpt><trkpt lat="45.9849401" lon="8.4015873"><ele>209.0</ele><time>2026-04-25T09:08:49.176Z</time></trkpt><trkpt lat="45.9850683" lon="8.4014907"><ele>209.0</ele><time>2026-04-25T09:08:50.17Z</time></trkpt><trkpt lat="45.9851823" lon="8.4013828"><ele>209.0</ele><time>2026-04-25T09:08:51.174Z</time></trkpt><trkpt lat="45.9852938" lon="8.4012704"><ele>209.0</ele><time>2026-04-25T09:08:52.175Z</time></trkpt><trkpt lat="45.9854089" lon="8.4011628"><ele>209.0</ele><time>2026-04-25T09:08:53.181Z</time></trkpt><trkpt lat="45.985527" lon="8.401044"><ele>209.0</ele><time>2026-04-25T09:08:54.17Z</time></trkpt><trkpt lat="45.9856255" lon="8.4009367"><ele>209.0</ele><time>2026-04-25T09:08:55.178Z</time></trkpt><trkpt lat="45.9857127" lon="8.4008147"><ele>209.0</ele><time>2026-04-25T09:08:56.163Z</time></trkpt><trkpt lat="45.9857866" lon="8.4006668"><ele>209.0</ele><time>2026-04-25T09:08:57.164Z</time></trkpt><trkpt lat="45.985835" lon="8.4005065"><ele>209.25</ele><time>2026-04-25T09:08:58.165Z</time></trkpt><trkpt lat="45.9858632" lon="8.4003481"><ele>209.5</ele><time>2026-04-25T09:08:59.166Z</time></trkpt><trkpt lat="45.9859004" lon="8.4001628"><ele>209.75</ele><time>2026-04-25T09:09:00.173Z</time></trkpt><trkpt lat="45.9859322" lon="8.3999602"><ele>210.0</ele><time>2026-04-25T09:09:01.165Z</time></trkpt><trkpt lat="45.9860089" lon="8.3995819"><ele>210.0</ele><time>2026-04-25T09:09:03.165Z</time></trkpt><trkpt lat="45.9860585" lon="8.3994061"><ele>210.0</ele><time>2026-04-25T09:09:04.163Z</time></trkpt><trkpt lat="45.9860933" lon="8.3992008"><ele>210.0</ele><time>2026-04-25T09:09:05.161Z</time></trkpt><trkpt lat="45.9861266" lon="8.3990064"><ele>210.0</ele><time>2026-04-25T09:09:06.168Z</time></trkpt><trkpt lat="45.9861627" lon="8.3988167"><ele>210.25</ele><time>2026-04-25T09:09:07.17Z</time></trkpt><trkpt lat="45.9862045" lon="8.3986316"><ele>210.5</ele><time>2026-04-25T09:09:08.169Z</time></trkpt><trkpt lat="45.9862575" lon="8.3984419"><ele>210.75</ele><time>2026-04-25T09:09:09.172Z</time></trkpt><trkpt lat="45.9862891" lon="8.3982416"><ele>211.0</ele><time>2026-04-25T09:09:10.174Z</time></trkpt><trkpt lat="45.9863243" lon="8.3980489"><ele>210.25</ele><time>2026-04-25T09:09:11.165Z</time></trkpt><trkpt lat="45.986364" lon="8.3978637"><ele>209.5</ele><time>2026-04-25T09:09:12.169Z</time></trkpt><trkpt lat="45.9864011" lon="8.3976761"><ele>208.75</ele><time>2026-04-25T09:09:13.168Z</time></trkpt><trkpt lat="45.9864395" lon="8.3974943"><ele>208.0</ele><time>2026-04-25T09:09:14.167Z</time></trkpt><trkpt lat="45.9864785" lon="8.397316"><ele>208.0</ele><time>2026-04-25T09:09:15.17Z</time></trkpt><trkpt lat="45.9865117" lon="8.397135"><ele>208.0</ele><time>2026-04-25T09:09:16.169Z</time></trkpt><trkpt lat="45.9865579" lon="8.3969471"><ele>208.0</ele><time>2026-04-25T09:09:17.172Z</time></trkpt><trkpt lat="45.9865956" lon="8.3967517"><ele>208.0</ele><time>2026-04-25T09:09:18.169Z</time></trkpt><trkpt lat="45.9866292" lon="8.3965747"><ele>208.0</ele><time>2026-04-25T09:09:19.171Z</time></trkpt><trkpt lat="45.9866677" lon="8.396382"><ele>208.0</ele><time>2026-04-25T09:09:20.169Z</time></trkpt><trkpt lat="45.9867125" lon="8.3961953"><ele>208.0</ele><time>2026-04-25T09:09:21.172Z</time></trkpt><trkpt lat="45.9867326" lon="8.3959955"><ele>208.0</ele><time>2026-04-25T09:09:22.169Z</time></trkpt><trkpt lat="45.9867727" lon="8.395827"><ele>208.5</ele><time>2026-04-25T09:09:23.174Z</time></trkpt><trkpt lat="45.9868092" lon="8.3956508"><ele>209.0</ele><time>2026-04-25T09:09:24.184Z</time></trkpt><trkpt lat="45.9868371" lon="8.3954643"><ele>209.5</ele><time>2026-04-25T09:09:25.175Z</time></trkpt><trkpt lat="45.9868704" lon="8.3952692"><ele>210.0</ele><time>2026-04-25T09:09:26.175Z</time></trkpt><trkpt lat="45.9869071" lon="8.3950789"><ele>210.0</ele><time>2026-04-25T09:09:27.167Z</time></trkpt><trkpt lat="45.9869429" lon="8.3948903"><ele>210.0</ele><time>2026-04-25T09:09:28.167Z</time></trkpt><trkpt lat="45.9869744" lon="8.394706"><ele>210.0</ele><time>2026-04-25T09:09:29.168Z</time></trkpt><trkpt lat="45.9870146" lon="8.3945238"><ele>210.0</ele><time>2026-04-25T09:09:30.166Z</time></trkpt><trkpt lat="45.9870496" lon="8.3943515"><ele>210.0</ele><time>2026-04-25T09:09:31.168Z</time></trkpt><trkpt lat="45.9870784" lon="8.3941861"><ele>210.0</ele><time>2026-04-25T09:09:32.171Z</time></trkpt><trkpt lat="45.9871105" lon="8.3940202"><ele>210.0</ele><time>2026-04-25T09:09:33.168Z</time></trkpt><trkpt lat="45.9871338" lon="8.3938363"><ele>210.0</ele><time>2026-04-25T09:09:34.166Z</time></trkpt><trkpt lat="45.9871715" lon="8.3936775"><ele>209.75</ele><time>2026-04-25T09:09:35.172Z</time></trkpt><trkpt lat="45.9871761" lon="8.39351"><ele>209.5</ele><time>2026-04-25T09:09:36.185Z</time></trkpt><trkpt lat="45.9871733" lon="8.3933517"><ele>209.25</ele><time>2026-04-25T09:09:37.246Z</time></trkpt><trkpt lat="45.9871626" lon="8.3931951"><ele>209.0</ele><time>2026-04-25T09:09:38.256Z</time></trkpt><trkpt lat="45.9871339" lon="8.3930348"><ele>208.75</ele><time>2026-04-25T09:09:39.25Z</time></trkpt><trkpt lat="45.987105" lon="8.3928668"><ele>208.5</ele><time>2026-04-25T09:09:40.261Z</time></trkpt><trkpt lat="45.9870618" lon="8.3926984"><ele>208.25</ele><time>2026-04-25T09:09:41.257Z</time></trkpt><trkpt lat="45.9870156" lon="8.3925286"><ele>208.0</ele><time>2026-04-25T09:09:42.257Z</time></trkpt><trkpt lat="45.9869719" lon="8.3923494"><ele>208.0</ele><time>2026-04-25T09:09:43.251Z</time></trkpt><trkpt lat="45.986921" lon="8.3921675"><ele>208.0</ele><time>2026-04-25T09:09:44.254Z</time></trkpt><trkpt lat="45.9868688" lon="8.391984"><ele>208.0</ele><time>2026-04-25T09:09:45.253Z</time></trkpt><trkpt lat="45.9868151" lon="8.3918002"><ele>208.0</ele><time>2026-04-25T09:09:46.253Z</time></trkpt><trkpt lat="45.9867651" lon="8.3916105"><ele>208.0</ele><time>2026-04-25T09:09:47.256Z</time></trkpt><trkpt lat="45.9867056" lon="8.3914256"><ele>208.0</ele><time>2026-04-25T09:09:48.258Z</time></trkpt><trkpt lat="45.9866515" lon="8.3912428"><ele>208.0</ele><time>2026-04-25T09:09:49.254Z</time></trkpt><trkpt lat="45.9865949" lon="8.3910591"><ele>208.0</ele><time>2026-04-25T09:09:50.253Z</time></trkpt><trkpt lat="45.9865397" lon="8.3908748"><ele>208.5</ele><time>2026-04-25T09:09:51.255Z</time></trkpt><trkpt lat="45.9864872" lon="8.3906887"><ele>209.0</ele><time>2026-04-25T09:09:52.248Z</time></trkpt><trkpt lat="45.9864396" lon="8.390503"><ele>209.5</ele><time>2026-04-25T09:09:53.254Z</time></trkpt><trkpt lat="45.9863988" lon="8.3903187"><ele>210.0</ele><time>2026-04-25T09:09:54.254Z</time></trkpt><trkpt lat="45.9863642" lon="8.3901326"><ele>210.0</ele><time>2026-04-25T09:09:55.266Z</time></trkpt><trkpt lat="45.9863343" lon="8.389947"><ele>210.0</ele><time>2026-04-25T09:09:56.251Z</time></trkpt><trkpt lat="45.9863133" lon="8.3897572"><ele>210.0</ele><time>2026-04-25T09:09:57.26Z</time></trkpt><trkpt lat="45.9862997" lon="8.3895673"><ele>210.0</ele><time>2026-04-25T09:09:58.251Z</time></trkpt><trkpt lat="45.9862922" lon="8.3893767"><ele>210.0</ele><time>2026-04-25T09:09:59.258Z</time></trkpt><trkpt lat="45.9862832" lon="8.3891863"><ele>210.0</ele><time>2026-04-25T09:10:00.25Z</time></trkpt><trkpt lat="45.9862654" lon="8.3889948"><ele>210.0</ele><time>2026-04-25T09:10:01.253Z</time></trkpt><trkpt lat="45.9862381" lon="8.388809"><ele>210.0</ele><time>2026-04-25T09:10:02.25Z</time></trkpt><trkpt lat="45.9862063" lon="8.3886269"><ele>210.0</ele><time>2026-04-25T09:10:03.251Z</time></trkpt><trkpt lat="45.9861791" lon="8.3884475"><ele>210.0</ele><time>2026-04-25T09:10:04.239Z</time></trkpt><trkpt lat="45.9861519" lon="8.3882691"><ele>210.0</ele><time>2026-04-25T09:10:05.242Z</time></trkpt><trkpt lat="45.9861234" lon="8.3880925"><ele>210.0</ele><time>2026-04-25T09:10:06.242Z</time></trkpt><trkpt lat="45.9860943" lon="8.3879172"><ele>210.25</ele><time>2026-04-25T09:10:07.239Z</time></trkpt><trkpt lat="45.9860665" lon="8.3877329"><ele>210.5</ele><time>2026-04-25T09:10:08.249Z</time></trkpt><trkpt lat="45.9860402" lon="8.3875482"><ele>210.75</ele><time>2026-04-25T09:10:09.251Z</time></trkpt><trkpt lat="45.9860078" lon="8.3873542"><ele>211.0</ele><time>2026-04-25T09:10:10.244Z</time></trkpt><trkpt lat="45.9859749" lon="8.3871662"><ele>210.25</ele><time>2026-04-25T09:10:11.248Z</time></trkpt><trkpt lat="45.985944" lon="8.3869622"><ele>209.5</ele><time>2026-04-25T09:10:12.254Z</time></trkpt><trkpt lat="45.985917" lon="8.3867543"><ele>208.75</ele><time>2026-04-25T09:10:13.253Z</time></trkpt><trkpt lat="45.9858882" lon="8.3865538"><ele>208.0</ele><time>2026-04-25T09:10:14.253Z</time></trkpt><trkpt lat="45.9858521" lon="8.3863568"><ele>208.75</ele><time>2026-04-25T09:10:15.251Z</time></trkpt><trkpt lat="45.9858194" lon="8.3861749"><ele>209.5</ele><time>2026-04-25T09:10:16.251Z</time></trkpt><trkpt lat="45.9857921" lon="8.3859955"><ele>210.25</ele><time>2026-04-25T09:10:17.254Z</time></trkpt><trkpt lat="45.9857687" lon="8.385816"><ele>211.0</ele><time>2026-04-25T09:10:18.259Z</time></trkpt><trkpt lat="45.9857436" lon="8.3856372"><ele>211.0</ele><time>2026-04-25T09:10:19.246Z</time></trkpt><trkpt lat="45.985716" lon="8.3854501"><ele>211.0</ele><time>2026-04-25T09:10:20.253Z</time></trkpt><trkpt lat="45.9856811" lon="8.3852646"><ele>211.0</ele><time>2026-04-25T09:10:21.251Z</time></trkpt><trkpt lat="45.985656" lon="8.3850782"><ele>211.0</ele><time>2026-04-25T09:10:22.249Z</time></trkpt><trkpt lat="45.9856316" lon="8.3848977"><ele>211.0</ele><time>2026-04-25T09:10:23.243Z</time></trkpt><trkpt lat="45.9856026" lon="8.3847188"><ele>211.0</ele><time>2026-04-25T09:10:24.246Z</time></trkpt><trkpt lat="45.9855817" lon="8.3845365"><ele>211.0</ele><time>2026-04-25T09:10:25.251Z</time></trkpt><trkpt lat="45.9855599" lon="8.3843475"><ele>211.0</ele><time>2026-04-25T09:10:26.257Z</time></trkpt><trkpt lat="45.9855356" lon="8.3841676"><ele>210.25</ele><time>2026-04-25T09:10:27.251Z</time></trkpt><trkpt lat="45.9855115" lon="8.3839899"><ele>209.5</ele><time>2026-04-25T09:10:28.263Z</time></trkpt><trkpt lat="45.9854875" lon="8.3838237"><ele>208.75</ele><time>2026-04-25T09:10:29.253Z</time></trkpt><trkpt lat="45.9854715" lon="8.3836341"><ele>208.0</ele><time>2026-04-25T09:10:30.252Z</time></trkpt><trkpt lat="45.9854562" lon="8.3834658"><ele>208.0</ele><time>2026-04-25T09:10:31.167Z</time></trkpt><trkpt lat="45.9854717" lon="8.383271"><ele>208.0</ele><time>2026-04-25T09:10:32.156Z</time></trkpt><trkpt lat="45.9855178" lon="8.3830876"><ele>208.0</ele><time>2026-04-25T09:10:33.163Z</time></trkpt><trkpt lat="45.9856014" lon="8.3829446"><ele>208.0</ele><time>2026-04-25T09:10:34.156Z</time></trkpt><trkpt lat="45.985703" lon="8.3828211"><ele>208.0</ele><time>2026-04-25T09:10:35.161Z</time></trkpt><trkpt lat="45.9858133" lon="8.3827167"><ele>208.0</ele><time>2026-04-25T09:10:36.157Z</time></trkpt><trkpt lat="45.9859337" lon="8.3826473"><ele>208.0</ele><time>2026-04-25T09:10:37.16Z</time></trkpt><trkpt lat="45.9860589" lon="8.3825888"><ele>208.0</ele><time>2026-04-25T09:10:38.164Z</time></trkpt><trkpt lat="45.9861778" lon="8.3825337"><ele>206.5</ele><time>2026-04-25T09:10:39.165Z</time></trkpt><trkpt lat="45.9862957" lon="8.3824746"><ele>205.0</ele><time>2026-04-25T09:10:40.172Z</time></trkpt><trkpt lat="45.9864062" lon="8.3824106"><ele>203.5</ele><time>2026-04-25T09:10:41.166Z</time></trkpt><trkpt lat="45.986511" lon="8.3823466"><ele>202.0</ele><time>2026-04-25T09:10:42.167Z</time></trkpt><trkpt lat="45.9866151" lon="8.3822826"><ele>202.8</ele><time>2026-04-25T09:10:43.167Z</time></trkpt><trkpt lat="45.9867132" lon="8.382231"><ele>203.6</ele><time>2026-04-25T09:10:44.169Z</time></trkpt><trkpt lat="45.9868115" lon="8.3821711"><ele>204.4</ele><time>2026-04-25T09:10:45.17Z</time></trkpt><trkpt lat="45.986912" lon="8.3821079"><ele>205.20000000000002</ele><time>2026-04-25T09:10:46.171Z</time></trkpt><trkpt lat="45.9870117" lon="8.3820456"><ele>206.0</ele><time>2026-04-25T09:10:47.171Z</time></trkpt><trkpt lat="45.9871157" lon="8.3819851"><ele>206.4</ele><time>2026-04-25T09:10:48.169Z</time></trkpt><trkpt lat="45.9872202" lon="8.3819223"><ele>206.8</ele><time>2026-04-25T09:10:49.169Z</time></trkpt><trkpt lat="45.987322" lon="8.3818562"><ele>207.20000000000002</ele><time>2026-04-25T09:10:50.167Z</time></trkpt><trkpt lat="45.9874222" lon="8.3817793"><ele>207.60000000000002</ele><time>2026-04-25T09:10:51.17Z</time></trkpt><trkpt lat="45.9875177" lon="8.3817007"><ele>208.0</ele><time>2026-04-25T09:10:52.171Z</time></trkpt><trkpt lat="45.9876124" lon="8.3816204"><ele>208.2</ele><time>2026-04-25T09:10:53.166Z</time></trkpt><trkpt lat="45.9877045" lon="8.3815378"><ele>208.4</ele><time>2026-04-25T09:10:54.166Z</time></trkpt><trkpt lat="45.9877867" lon="8.3814462"><ele>208.6</ele><time>2026-04-25T09:10:55.167Z</time></trkpt><trkpt lat="45.9878602" lon="8.3813471"><ele>208.79999999999998</ele><time>2026-04-25T09:10:56.17Z</time></trkpt><trkpt lat="45.9879314" lon="8.3812475"><ele>209.0</ele><time>2026-04-25T09:10:57.18Z</time></trkpt><trkpt lat="45.987996" lon="8.3811324"><ele>209.0</ele><time>2026-04-25T09:10:58.171Z</time></trkpt><trkpt lat="45.9880593" lon="8.3810141"><ele>209.0</ele><time>2026-04-25T09:10:59.181Z</time></trkpt><trkpt lat="45.9881097" lon="8.380901"><ele>209.0</ele><time>2026-04-25T09:11:00.17Z</time></trkpt><trkpt lat="45.9881559" lon="8.3807712"><ele>209.0</ele><time>2026-04-25T09:11:01.173Z</time></trkpt><trkpt lat="45.9881937" lon="8.3806432"><ele>209.0</ele><time>2026-04-25T09:11:02.172Z</time></trkpt><trkpt lat="45.9882279" lon="8.3805236"><ele>209.2</ele><time>2026-04-25T09:11:03.173Z</time></trkpt><trkpt lat="45.9882687" lon="8.380412"><ele>209.39999999999998</ele><time>2026-04-25T09:11:04.173Z</time></trkpt><trkpt lat="45.9883158" lon="8.3802926"><ele>209.6</ele><time>2026-04-25T09:11:05.169Z</time></trkpt><trkpt lat="45.9883691" lon="8.3801725"><ele>209.8</ele><time>2026-04-25T09:11:06.172Z</time></trkpt><trkpt lat="45.988424" lon="8.3800579"><ele>210.0</ele><time>2026-04-25T09:11:07.173Z</time></trkpt><trkpt lat="45.988478" lon="8.3799538"><ele>209.83333333333334</ele><time>2026-04-25T09:11:08.171Z</time></trkpt><trkpt lat="45.9885363" lon="8.3798601"><ele>209.66666666666669</ele><time>2026-04-25T09:11:09.18Z</time></trkpt><trkpt lat="45.988595" lon="8.3797825"><ele>209.5</ele><time>2026-04-25T09:11:10.177Z</time></trkpt><trkpt lat="45.9886477" lon="8.3796904"><ele>209.33333333333334</ele><time>2026-04-25T09:11:12.172Z</time></trkpt><trkpt lat="45.9885579" lon="8.3796683"><ele>209.16666666666669</ele><time>2026-04-25T09:11:15.17Z</time></trkpt><trkpt lat="45.988493" lon="8.3796999"><ele>209.0</ele><time>2026-04-25T09:11:16.183Z</time></trkpt><trkpt lat="45.9884216" lon="8.3797754"><ele>209.25</ele><time>2026-04-25T09:11:17.169Z</time></trkpt><trkpt lat="45.9883282" lon="8.3798988"><ele>209.5</ele><time>2026-04-25T09:11:18.17Z</time></trkpt><trkpt lat="45.9882176" lon="8.3800194"><ele>209.75</ele><time>2026-04-25T09:11:19.173Z</time></trkpt><trkpt lat="45.9881164" lon="8.3801024"><ele>210.0</ele><time>2026-04-25T09:11:20.163Z</time></trkpt><trkpt lat="45.9880342" lon="8.3801567"><ele>210.0</ele><time>2026-04-25T09:11:21.171Z</time></trkpt><trkpt lat="45.9879664" lon="8.3801619"><ele>210.0</ele><time>2026-04-25T09:11:22.164Z</time></trkpt><trkpt lat="45.9878538" lon="8.3800485"><ele>210.0</ele><time>2026-04-25T09:11:24.157Z</time></trkpt><trkpt lat="45.9877904" lon="8.3799266"><ele>210.0</ele><time>2026-04-25T09:11:25.166Z</time></trkpt><trkpt lat="45.9877144" lon="8.3797632"><ele>210.0</ele><time>2026-04-25T09:11:26.155Z</time></trkpt><trkpt lat="45.9876421" lon="8.3796092"><ele>210.25</ele><time>2026-04-25T09:11:27.156Z</time></trkpt><trkpt lat="45.987592" lon="8.3794442"><ele>210.5</ele><time>2026-04-25T09:11:28.16Z</time></trkpt><trkpt lat="45.9875515" lon="8.3792817"><ele>210.75</ele><time>2026-04-25T09:11:29.158Z</time></trkpt><trkpt lat="45.9875084" lon="8.3791336"><ele>211.0</ele><time>2026-04-25T09:11:30.163Z</time></trkpt><trkpt lat="45.9874646" lon="8.3790106"><ele>211.0</ele><time>2026-04-25T09:11:31.148Z</time></trkpt><trkpt lat="45.9874366" lon="8.3788877"><ele>211.0</ele><time>2026-04-25T09:11:32.147Z</time></trkpt><trkpt lat="45.9874426" lon="8.3787516"><ele>211.0</ele><time>2026-04-25T09:11:33.156Z</time></trkpt><trkpt lat="45.987477" lon="8.3786009"><ele>211.0</ele><time>2026-04-25T09:11:34.152Z</time></trkpt><trkpt lat="45.9875369" lon="8.3784187"><ele>211.0</ele><time>2026-04-25T09:11:35.154Z</time></trkpt><trkpt lat="45.9876206" lon="8.3782083"><ele>210.66666666666666</ele><time>2026-04-25T09:11:36.163Z</time></trkpt><trkpt lat="45.9877309" lon="8.3779589"><ele>210.33333333333331</ele><time>2026-04-25T09:11:37.161Z</time></trkpt><trkpt lat="45.9878294" lon="8.3777367"><ele>210.0</ele><time>2026-04-25T09:11:38.157Z</time></trkpt><trkpt lat="45.9879034" lon="8.3775523"><ele>210.0</ele><time>2026-04-25T09:11:39.16Z</time></trkpt><trkpt lat="45.9879694" lon="8.3773699"><ele>210.0</ele><time>2026-04-25T09:11:40.166Z</time></trkpt><trkpt lat="45.9880326" lon="8.3772061"><ele>210.0</ele><time>2026-04-25T09:11:41.163Z</time></trkpt><trkpt lat="45.988107" lon="8.3770529"><ele>210.0</ele><time>2026-04-25T09:11:42.158Z</time></trkpt><trkpt lat="45.9881624" lon="8.3769247"><ele>210.2</ele><time>2026-04-25T09:11:43.158Z</time></trkpt><trkpt lat="45.9882167" lon="8.3768127"><ele>210.4</ele><time>2026-04-25T09:11:44.169Z</time></trkpt><trkpt lat="45.9883002" lon="8.3767267"><ele>210.60000000000002</ele><time>2026-04-25T09:11:45.161Z</time></trkpt><trkpt lat="45.9883814" lon="8.3766495"><ele>210.8</ele><time>2026-04-25T09:11:46.158Z</time></trkpt><trkpt lat="45.9884754" lon="8.3765707"><ele>211.0</ele><time>2026-04-25T09:11:47.163Z</time></trkpt><trkpt lat="45.9885625" lon="8.3764982"><ele>211.0</ele><time>2026-04-25T09:11:48.164Z</time></trkpt><trkpt lat="45.9886575" lon="8.3764548"><ele>211.0</ele><time>2026-04-25T09:11:49.159Z</time></trkpt><trkpt lat="45.9887733" lon="8.3764608"><ele>211.0</ele><time>2026-04-25T09:11:50.163Z</time></trkpt><trkpt lat="45.9889145" lon="8.3765007"><ele>211.0</ele><time>2026-04-25T09:11:51.169Z</time></trkpt><trkpt lat="45.9890508" lon="8.3765441"><ele>211.0</ele><time>2026-04-25T09:11:52.166Z</time></trkpt><trkpt lat="45.9891719" lon="8.376595"><ele>211.0</ele><time>2026-04-25T09:11:53.165Z</time></trkpt><trkpt lat="45.9892588" lon="8.3766285"><ele>211.0</ele><time>2026-04-25T09:11:54.162Z</time></trkpt><trkpt lat="45.9893318" lon="8.3766823"><ele>211.0</ele><time>2026-04-25T09:11:55.159Z</time></trkpt><trkpt lat="45.9893975" lon="8.3767616"><ele>211.0</ele><time>2026-04-25T09:11:56.159Z</time></trkpt><trkpt lat="45.9894676" lon="8.3768257"><ele>211.20000000000002</ele><time>2026-04-25T09:11:57.168Z</time></trkpt><trkpt lat="45.9895375" lon="8.3768327"><ele>211.4</ele><time>2026-04-25T09:11:58.163Z</time></trkpt><trkpt lat="45.9896208" lon="8.3768362"><ele>211.6</ele><time>2026-04-25T09:11:59.169Z</time></trkpt><trkpt lat="45.9897293" lon="8.3767933"><ele>211.8</ele><time>2026-04-25T09:12:00.16Z</time></trkpt><trkpt lat="45.9898405" lon="8.376734"><ele>212.0</ele><time>2026-04-25T09:12:01.169Z</time></trkpt><trkpt lat="45.9899349" lon="8.3766799"><ele>211.5</ele><time>2026-04-25T09:12:02.157Z</time></trkpt><trkpt lat="45.9900239" lon="8.3766357"><ele>211.0</ele><time>2026-04-25T09:12:03.159Z</time></trkpt><trkpt lat="45.9901384" lon="8.3766081"><ele>210.5</ele><time>2026-04-25T09:12:04.159Z</time></trkpt><trkpt lat="45.990267" lon="8.3765513"><ele>210.0</ele><time>2026-04-25T09:12:05.154Z</time></trkpt><trkpt lat="45.9903793" lon="8.3764775"><ele>210.0</ele><time>2026-04-25T09:12:06.16Z</time></trkpt><trkpt lat="45.9904798" lon="8.3764114"><ele>210.0</ele><time>2026-04-25T09:12:07.162Z</time></trkpt><trkpt lat="45.9905673" lon="8.3763367"><ele>210.0</ele><time>2026-04-25T09:12:08.158Z</time></trkpt><trkpt lat="45.9906544" lon="8.3762392"><ele>210.0</ele><time>2026-04-25T09:12:09.162Z</time></trkpt><trkpt lat="45.9907355" lon="8.3761118"><ele>210.0</ele><time>2026-04-25T09:12:10.163Z</time></trkpt><trkpt lat="45.9908065" lon="8.375984"><ele>209.75</ele><time>2026-04-25T09:12:11.166Z</time></trkpt><trkpt lat="45.990871" lon="8.3758731"><ele>209.5</ele><time>2026-04-25T09:12:12.173Z</time></trkpt><trkpt lat="45.9909596" lon="8.3757899"><ele>209.25</ele><time>2026-04-25T09:12:13.168Z</time></trkpt><trkpt lat="45.9910801" lon="8.3756961"><ele>209.0</ele><time>2026-04-25T09:12:14.167Z</time></trkpt><trkpt lat="45.991221" lon="8.3755741"><ele>209.75</ele><time>2026-04-25T09:12:15.17Z</time></trkpt><trkpt lat="45.9913671" lon="8.3754423"><ele>210.5</ele><time>2026-04-25T09:12:16.165Z</time></trkpt><trkpt lat="45.991474" lon="8.3753213"><ele>211.25</ele><time>2026-04-25T09:12:17.165Z</time></trkpt><trkpt lat="45.9915425" lon="8.3751941"><ele>212.0</ele><time>2026-04-25T09:12:18.162Z</time></trkpt><trkpt lat="45.991622" lon="8.3750592"><ele>212.0</ele><time>2026-04-25T09:12:19.171Z</time></trkpt><trkpt lat="45.9917065" lon="8.3748943"><ele>212.0</ele><time>2026-04-25T09:12:20.173Z</time></trkpt><trkpt lat="45.9917659" lon="8.3747095"><ele>212.0</ele><time>2026-04-25T09:12:21.174Z</time></trkpt><trkpt lat="45.9918211" lon="8.3745306"><ele>212.0</ele><time>2026-04-25T09:12:22.157Z</time></trkpt><trkpt lat="45.991878" lon="8.3743771"><ele>211.8</ele><time>2026-04-25T09:12:23.162Z</time></trkpt><trkpt lat="45.9919272" lon="8.3742435"><ele>211.6</ele><time>2026-04-25T09:12:24.162Z</time></trkpt><trkpt lat="45.9919752" lon="8.3741534"><ele>211.4</ele><time>2026-04-25T09:12:25.157Z</time></trkpt><trkpt lat="45.9920678" lon="8.3740878"><ele>211.20000000000002</ele><time>2026-04-25T09:12:27.17Z</time></trkpt><trkpt lat="45.9921302" lon="8.3741297"><ele>211.0</ele><time>2026-04-25T09:12:28.171Z</time></trkpt><trkpt lat="45.9922168" lon="8.3742086"><ele>211.0</ele><time>2026-04-25T09:12:29.161Z</time></trkpt><trkpt lat="45.9922982" lon="8.3742861"><ele>211.0</ele><time>2026-04-25T09:12:30.168Z</time></trkpt><trkpt lat="45.9923736" lon="8.3743392"><ele>211.0</ele><time>2026-04-25T09:12:31.158Z</time></trkpt><trkpt lat="45.9924671" lon="8.3743196"><ele>211.0</ele><time>2026-04-25T09:12:33.159Z</time></trkpt><trkpt lat="45.9925155" lon="8.3741411"><ele>211.0</ele><time>2026-04-25T09:12:35.164Z</time></trkpt><trkpt lat="45.9925264" lon="8.373992"><ele>211.0</ele><time>2026-04-25T09:12:36.16Z</time></trkpt><trkpt lat="45.9925415" lon="8.3738203"><ele>211.0</ele><time>2026-04-25T09:12:37.162Z</time></trkpt><trkpt lat="45.9925685" lon="8.3736559"><ele>211.0</ele><time>2026-04-25T09:12:38.158Z</time></trkpt><trkpt lat="45.9925989" lon="8.3734972"><ele>211.0</ele><time>2026-04-25T09:12:39.163Z</time></trkpt><trkpt lat="45.9926318" lon="8.3733363"><ele>211.0</ele><time>2026-04-25T09:12:40.181Z</time></trkpt><trkpt lat="45.9926693" lon="8.3731733"><ele>211.0</ele><time>2026-04-25T09:12:41.175Z</time></trkpt><trkpt lat="45.9927078" lon="8.3730121"><ele>211.0</ele><time>2026-04-25T09:12:42.249Z</time></trkpt><trkpt lat="45.9927417" lon="8.3728558"><ele>211.0</ele><time>2026-04-25T09:12:43.248Z</time></trkpt><trkpt lat="45.9927739" lon="8.3727048"><ele>210.83333333333331</ele><time>2026-04-25T09:12:44.168Z</time></trkpt><trkpt lat="45.9927964" lon="8.3725654"><ele>210.66666666666666</ele><time>2026-04-25T09:12:45.166Z</time></trkpt><trkpt lat="45.9928182" lon="8.3724434"><ele>210.5</ele><time>2026-04-25T09:12:46.167Z</time></trkpt><trkpt lat="45.992843" lon="8.3723304"><ele>210.33333333333331</ele><time>2026-04-25T09:12:47.161Z</time></trkpt><trkpt lat="45.9928634" lon="8.3722316"><ele>210.16666666666666</ele><time>2026-04-25T09:12:48.159Z</time></trkpt><trkpt lat="45.9928272" lon="8.3720985"><ele>210.0</ele><time>2026-04-25T09:12:50.158Z</time></trkpt><trkpt lat="45.9927007" lon="8.3720892"><ele>210.0</ele><time>2026-04-25T09:12:52.162Z</time></trkpt><trkpt lat="45.9926188" lon="8.3721293"><ele>210.0</ele><time>2026-04-25T09:12:53.169Z</time></trkpt><trkpt lat="45.9925093" lon="8.3722021"><ele>210.0</ele><time>2026-04-25T09:12:54.169Z</time></trkpt><trkpt lat="45.992391" lon="8.3722582"><ele>210.0</ele><time>2026-04-25T09:12:55.163Z</time></trkpt><trkpt lat="45.992273" lon="8.3722945"><ele>210.0</ele><time>2026-04-25T09:12:56.169Z</time></trkpt><trkpt lat="45.9921619" lon="8.3723033"><ele>210.0</ele><time>2026-04-25T09:12:57.167Z</time></trkpt><trkpt lat="45.992049" lon="8.372285"><ele>210.0</ele><time>2026-04-25T09:12:58.162Z</time></trkpt><trkpt lat="45.991924" lon="8.3722438"><ele>210.0</ele><time>2026-04-25T09:12:59.161Z</time></trkpt><trkpt lat="45.9918088" lon="8.3722152"><ele>210.0</ele><time>2026-04-25T09:13:00.161Z</time></trkpt><trkpt lat="45.991695" lon="8.3722044"><ele>210.0</ele><time>2026-04-25T09:13:01.17Z</time></trkpt><trkpt lat="45.9915939" lon="8.3722074"><ele>210.0</ele><time>2026-04-25T09:13:02.154Z</time></trkpt><trkpt lat="45.9915083" lon="8.3722116"><ele>210.0</ele><time>2026-04-25T09:13:03.17Z</time></trkpt><trkpt lat="45.9914306" lon="8.3721823"><ele>210.0</ele><time>2026-04-25T09:13:04.158Z</time></trkpt><trkpt lat="45.9913544" lon="8.3721321"><ele>209.8</ele><time>2026-04-25T09:13:05.158Z</time></trkpt><trkpt lat="45.9912889" lon="8.3720605"><ele>209.6</ele><time>2026-04-25T09:13:06.166Z</time></trkpt><trkpt lat="45.9912219" lon="8.3719627"><ele>209.39999999999998</ele><time>2026-04-25T09:13:07.163Z</time></trkpt><trkpt lat="45.991152" lon="8.3718329"><ele>209.2</ele><time>2026-04-25T09:13:08.166Z</time></trkpt><trkpt lat="45.9910741" lon="8.3716717"><ele>209.0</ele><time>2026-04-25T09:13:09.163Z</time></trkpt><trkpt lat="45.9909855" lon="8.3714956"><ele>208.66666666666669</ele><time>2026-04-25T09:13:10.168Z</time></trkpt><trkpt lat="45.9908834" lon="8.3713329"><ele>208.33333333333331</ele><time>2026-04-25T09:13:11.163Z</time></trkpt><trkpt lat="45.9907449" lon="8.3711954"><ele>208.0</ele><time>2026-04-25T09:13:12.171Z</time></trkpt><trkpt lat="45.9906107" lon="8.3710562"><ele>208.0</ele><time>2026-04-25T09:13:13.178Z</time></trkpt><trkpt lat="45.9904816" lon="8.37093"><ele>208.0</ele><time>2026-04-25T09:13:14.182Z</time></trkpt><trkpt lat="45.9903772" lon="8.3707913"><ele>208.0</ele><time>2026-04-25T09:13:15.176Z</time></trkpt><trkpt lat="45.9902728" lon="8.3706598"><ele>208.0</ele><time>2026-04-25T09:13:16.178Z</time></trkpt><trkpt lat="45.9901676" lon="8.3705506"><ele>208.0</ele><time>2026-04-25T09:13:17.173Z</time></trkpt><trkpt lat="45.990077" lon="8.3704507"><ele>208.0</ele><time>2026-04-25T09:13:18.164Z</time></trkpt><trkpt lat="45.9899922" lon="8.3703651"><ele>208.0</ele><time>2026-04-25T09:13:19.176Z</time></trkpt><trkpt lat="45.9899274" lon="8.3702812"><ele>208.0</ele><time>2026-04-25T09:13:20.166Z</time></trkpt><trkpt lat="45.989881" lon="8.3701974"><ele>208.0</ele><time>2026-04-25T09:13:21.17Z</time></trkpt><trkpt lat="45.9898526" lon="8.3700805"><ele>208.0</ele><time>2026-04-25T09:13:22.166Z</time></trkpt><trkpt lat="45.9898571" lon="8.3699403"><ele>208.0</ele><time>2026-04-25T09:13:23.17Z</time></trkpt><trkpt lat="45.9898913" lon="8.3697763"><ele>208.0</ele><time>2026-04-25T09:13:24.173Z</time></trkpt><trkpt lat="45.9899543" lon="8.3695678"><ele>208.0</ele><time>2026-04-25T09:13:25.17Z</time></trkpt><trkpt lat="45.9900461" lon="8.3693158"><ele>209.0</ele><time>2026-04-25T09:13:26.163Z</time></trkpt><trkpt lat="45.9901402" lon="8.369046"><ele>210.0</ele><time>2026-04-25T09:13:27.165Z</time></trkpt><trkpt lat="45.9902064" lon="8.3688269"><ele>211.0</ele><time>2026-04-25T09:13:28.164Z</time></trkpt><trkpt lat="45.990268" lon="8.3686422"><ele>211.5</ele><time>2026-04-25T09:13:29.168Z</time></trkpt><trkpt lat="45.9903269" lon="8.3684635"><ele>212.0</ele><time>2026-04-25T09:13:30.168Z</time></trkpt><trkpt lat="45.9903738" lon="8.3682823"><ele>212.5</ele><time>2026-04-25T09:13:31.166Z</time></trkpt><trkpt lat="45.9904122" lon="8.3680947"><ele>213.0</ele><time>2026-04-25T09:13:32.177Z</time></trkpt><trkpt lat="45.9904607" lon="8.3679287"><ele>213.0</ele><time>2026-04-25T09:13:33.172Z</time></trkpt><trkpt lat="45.990498" lon="8.3678025"><ele>213.0</ele><time>2026-04-25T09:13:34.169Z</time></trkpt><trkpt lat="45.9905324" lon="8.3676676"><ele>213.0</ele><time>2026-04-25T09:13:35.165Z</time></trkpt><trkpt lat="45.9905387" lon="8.3675359"><ele>213.0</ele><time>2026-04-25T09:13:36.165Z</time></trkpt><trkpt lat="45.9905309" lon="8.3673732"><ele>213.0</ele><time>2026-04-25T09:13:37.164Z</time></trkpt><trkpt lat="45.9905107" lon="8.3671691"><ele>212.66666666666669</ele><time>2026-04-25T09:13:38.161Z</time></trkpt><trkpt lat="45.9904915" lon="8.3669311"><ele>212.33333333333334</ele><time>2026-04-25T09:13:39.167Z</time></trkpt><trkpt lat="45.9904705" lon="8.3666541"><ele>212.0</ele><time>2026-04-25T09:13:40.174Z</time></trkpt><trkpt lat="45.9904564" lon="8.3663774"><ele>211.33333333333334</ele><time>2026-04-25T09:13:41.163Z</time></trkpt><trkpt lat="45.9904518" lon="8.3661102"><ele>210.66666666666669</ele><time>2026-04-25T09:13:42.168Z</time></trkpt><trkpt lat="45.9904331" lon="8.3658621"><ele>210.0</ele><time>2026-04-25T09:13:43.164Z</time></trkpt><trkpt lat="45.990423" lon="8.3656144"><ele>211.0</ele><time>2026-04-25T09:13:44.184Z</time></trkpt><trkpt lat="45.9904087" lon="8.3653771"><ele>212.0</ele><time>2026-04-25T09:13:45.175Z</time></trkpt><trkpt lat="45.9903964" lon="8.3651578"><ele>213.0</ele><time>2026-04-25T09:13:46.174Z</time></trkpt><trkpt lat="45.9903824" lon="8.3649385"><ele>213.0</ele><time>2026-04-25T09:13:47.177Z</time></trkpt><trkpt lat="45.9903705" lon="8.3647289"><ele>213.0</ele><time>2026-04-25T09:13:48.173Z</time></trkpt><trkpt lat="45.9903667" lon="8.3645449"><ele>213.0</ele><time>2026-04-25T09:13:49.17Z</time></trkpt><trkpt lat="45.9903642" lon="8.3643655"><ele>213.0</ele><time>2026-04-25T09:13:50.173Z</time></trkpt><trkpt lat="45.9903522" lon="8.3641876"><ele>212.5</ele><time>2026-04-25T09:13:51.172Z</time></trkpt><trkpt lat="45.9903686" lon="8.3640115"><ele>212.0</ele><time>2026-04-25T09:13:52.172Z</time></trkpt><trkpt lat="45.9903936" lon="8.3638168"><ele>211.5</ele><time>2026-04-25T09:13:53.161Z</time></trkpt><trkpt lat="45.9904489" lon="8.363596"><ele>211.0</ele><time>2026-04-25T09:13:54.173Z</time></trkpt><trkpt lat="45.9905198" lon="8.3633859"><ele>210.66666666666666</ele><time>2026-04-25T09:13:55.168Z</time></trkpt><trkpt lat="45.990594" lon="8.363163"><ele>210.33333333333331</ele><time>2026-04-25T09:13:56.167Z</time></trkpt><trkpt lat="45.9906606" lon="8.3629705"><ele>210.0</ele><time>2026-04-25T09:13:57.164Z</time></trkpt><trkpt lat="45.990719" lon="8.3627938"><ele>210.0</ele><time>2026-04-25T09:13:58.167Z</time></trkpt><trkpt lat="45.9907859" lon="8.3626477"><ele>210.0</ele><time>2026-04-25T09:13:59.166Z</time></trkpt><trkpt lat="45.9908455" lon="8.3625164"><ele>210.0</ele><time>2026-04-25T09:14:00.169Z</time></trkpt><trkpt lat="45.9908817" lon="8.3623484"><ele>210.0</ele><time>2026-04-25T09:14:01.196Z</time></trkpt><trkpt lat="45.9909199" lon="8.3621936"><ele>209.0</ele><time>2026-04-25T09:14:02.172Z</time></trkpt><trkpt lat="45.9909673" lon="8.3619861"><ele>208.0</ele><time>2026-04-25T09:14:03.202Z</time></trkpt><trkpt lat="45.9910104" lon="8.3617459"><ele>207.0</ele><time>2026-04-25T09:14:04.166Z</time></trkpt><trkpt lat="45.9910815" lon="8.3615356"><ele>207.5</ele><time>2026-04-25T09:14:05.2Z</time></trkpt><trkpt lat="45.9911525" lon="8.3613439"><ele>208.0</ele><time>2026-04-25T09:14:06.195Z</time></trkpt><trkpt lat="45.9912008" lon="8.3611449"><ele>208.5</ele><time>2026-04-25T09:14:07.193Z</time></trkpt><trkpt lat="45.9912635" lon="8.3609533"><ele>209.0</ele><time>2026-04-25T09:14:08.172Z</time></trkpt><trkpt lat="45.9913191" lon="8.3607535"><ele>209.0</ele><time>2026-04-25T09:14:09.166Z</time></trkpt><trkpt lat="45.9913848" lon="8.3605455"><ele>209.0</ele><time>2026-04-25T09:14:10.18Z</time></trkpt><trkpt lat="45.9914426" lon="8.3603318"><ele>209.0</ele><time>2026-04-25T09:14:11.173Z</time></trkpt><trkpt lat="45.9915133" lon="8.3601093"><ele>208.66666666666669</ele><time>2026-04-25T09:14:12.172Z</time></trkpt><trkpt lat="45.9915827" lon="8.3599094"><ele>208.33333333333331</ele><time>2026-04-25T09:14:13.172Z</time></trkpt><trkpt lat="45.9916361" lon="8.3597019"><ele>208.0</ele><time>2026-04-25T09:14:14.176Z</time></trkpt><trkpt lat="45.9917073" lon="8.3595193"><ele>209.0</ele><time>2026-04-25T09:14:15.174Z</time></trkpt><trkpt lat="45.9917723" lon="8.3593302"><ele>210.0</ele><time>2026-04-25T09:14:16.172Z</time></trkpt><trkpt lat="45.9918188" lon="8.3591266"><ele>211.0</ele><time>2026-04-25T09:14:17.176Z</time></trkpt><trkpt lat="45.9918754" lon="8.3589338"><ele>212.0</ele><time>2026-04-25T09:14:18.171Z</time></trkpt><trkpt lat="45.9919522" lon="8.3587429"><ele>212.0</ele><time>2026-04-25T09:14:19.159Z</time></trkpt><trkpt lat="45.9920134" lon="8.3585405"><ele>212.0</ele><time>2026-04-25T09:14:20.162Z</time></trkpt><trkpt lat="45.9920771" lon="8.3583308"><ele>212.0</ele><time>2026-04-25T09:14:21.172Z</time></trkpt><trkpt lat="45.9921485" lon="8.3581522"><ele>212.25</ele><time>2026-04-25T09:14:22.172Z</time></trkpt><trkpt lat="45.9922069" lon="8.3579596"><ele>212.5</ele><time>2026-04-25T09:14:23.171Z</time></trkpt><trkpt lat="45.992267" lon="8.3577863"><ele>212.75</ele><time>2026-04-25T09:14:24.174Z</time></trkpt><trkpt lat="45.9923372" lon="8.3576142"><ele>213.0</ele><time>2026-04-25T09:14:25.17Z</time></trkpt><trkpt lat="45.9923979" lon="8.3574298"><ele>213.0</ele><time>2026-04-25T09:14:26.171Z</time></trkpt><trkpt lat="45.9924568" lon="8.3572551"><ele>213.0</ele><time>2026-04-25T09:14:27.173Z</time></trkpt><trkpt lat="45.9925091" lon="8.3570716"><ele>213.0</ele><time>2026-04-25T09:14:28.166Z</time></trkpt><trkpt lat="45.9925416" lon="8.3568813"><ele>213.0</ele><time>2026-04-25T09:14:29.173Z</time></trkpt><trkpt lat="45.9925969" lon="8.3567127"><ele>213.25</ele><time>2026-04-25T09:14:30.169Z</time></trkpt><trkpt lat="45.9926519" lon="8.3565709"><ele>213.5</ele><time>2026-04-25T09:14:31.17Z</time></trkpt><trkpt lat="45.9927057" lon="8.3564172"><ele>213.75</ele><time>2026-04-25T09:14:32.171Z</time></trkpt><trkpt lat="45.9927608" lon="8.3562793"><ele>214.0</ele><time>2026-04-25T09:14:33.169Z</time></trkpt><trkpt lat="45.9928131" lon="8.3561408"><ele>213.83333333333331</ele><time>2026-04-25T09:14:34.179Z</time></trkpt><trkpt lat="45.9928715" lon="8.3560361"><ele>213.66666666666666</ele><time>2026-04-25T09:14:35.17Z</time></trkpt><trkpt lat="45.9929081" lon="8.3559086"><ele>213.5</ele><time>2026-04-25T09:14:36.183Z</time></trkpt><trkpt lat="45.9929479" lon="8.3558232"><ele>213.33333333333331</ele><time>2026-04-25T09:14:37.171Z</time></trkpt><trkpt lat="45.9929777" lon="8.3557176"><ele>213.16666666666666</ele><time>2026-04-25T09:14:38.171Z</time></trkpt><trkpt lat="45.9930095" lon="8.3556205"><ele>213.0</ele><time>2026-04-25T09:14:39.159Z</time></trkpt><trkpt lat="45.993043" lon="8.3554959"><ele>213.0</ele><time>2026-04-25T09:14:40.173Z</time></trkpt><trkpt lat="45.9930921" lon="8.355364"><ele>213.0</ele><time>2026-04-25T09:14:41.275Z</time></trkpt><trkpt lat="45.9932026" lon="8.3550817"><ele>213.0</ele><time>2026-04-25T09:14:43.165Z</time></trkpt><trkpt lat="45.993239" lon="8.3549397"><ele>213.0</ele><time>2026-04-25T09:14:44.164Z</time></trkpt><trkpt lat="45.9932655" lon="8.3548098"><ele>213.0</ele><time>2026-04-25T09:14:45.162Z</time></trkpt><trkpt lat="45.9932982" lon="8.3546727"><ele>213.0</ele><time>2026-04-25T09:14:46.16Z</time></trkpt><trkpt lat="45.9933385" lon="8.3545493"><ele>213.0</ele><time>2026-04-25T09:14:47.162Z</time></trkpt><trkpt lat="45.9933969" lon="8.3544309"><ele>213.0</ele><time>2026-04-25T09:14:48.159Z</time></trkpt><trkpt lat="45.9934613" lon="8.3543203"><ele>213.0</ele><time>2026-04-25T09:14:49.163Z</time></trkpt><trkpt lat="45.9935209" lon="8.3541981"><ele>213.0</ele><time>2026-04-25T09:14:50.161Z</time></trkpt><trkpt lat="45.9935667" lon="8.3540945"><ele>213.0</ele><time>2026-04-25T09:14:51.16Z</time></trkpt><trkpt lat="45.9936145" lon="8.3539843"><ele>213.0</ele><time>2026-04-25T09:14:52.162Z</time></trkpt><trkpt lat="45.9936477" lon="8.3538848"><ele>213.0</ele><time>2026-04-25T09:14:53.161Z</time></trkpt><trkpt lat="45.9936791" lon="8.3537959"><ele>213.0</ele><time>2026-04-25T09:14:54.158Z</time></trkpt><trkpt lat="45.9937418" lon="8.353654"><ele>213.0</ele><time>2026-04-25T09:14:56.158Z</time></trkpt><trkpt lat="45.9937716" lon="8.3535383"><ele>212.66666666666666</ele><time>2026-04-25T09:14:59.164Z</time></trkpt><trkpt lat="45.9938222" lon="8.3534401"><ele>212.33333333333331</ele><time>2026-04-25T09:15:03.179Z</time></trkpt><trkpt lat="45.9938782" lon="8.3533463"><ele>212.0</ele><time>2026-04-25T09:15:06.177Z</time></trkpt><trkpt lat="45.9939293" lon="8.3532865"><ele>211.66666666666666</ele><time>2026-04-25T09:15:08.177Z</time></trkpt><trkpt lat="45.9939817" lon="8.3532053"><ele>211.33333333333331</ele><time>2026-04-25T09:15:10.178Z</time></trkpt><trkpt lat="45.9940218" lon="8.3531154"><ele>211.0</ele><time>2026-04-25T09:15:12.177Z</time></trkpt><trkpt lat="45.9940713" lon="8.3530363"><ele>210.83333333333331</ele><time>2026-04-25T09:15:14.178Z</time></trkpt><trkpt lat="45.9941124" lon="8.3529555"><ele>210.66666666666666</ele><time>2026-04-25T09:15:16.176Z</time></trkpt><trkpt lat="45.9941501" lon="8.3528711"><ele>210.5</ele><time>2026-04-25T09:15:18.172Z</time></trkpt><trkpt lat="45.9942165" lon="8.3527687"><ele>210.33333333333331</ele><time>2026-04-25T09:15:20.173Z</time></trkpt><trkpt lat="45.994286" lon="8.3526804"><ele>210.16666666666666</ele><time>2026-04-25T09:15:22.163Z</time></trkpt><trkpt lat="45.9943522" lon="8.3525789"><ele>210.0</ele><time>2026-04-25T09:15:24.166Z</time></trkpt><trkpt lat="45.9944217" lon="8.3524547"><ele>209.83333333333334</ele><time>2026-04-25T09:15:26.171Z</time></trkpt><trkpt lat="45.9945089" lon="8.352355"><ele>209.66666666666669</ele><time>2026-04-25T09:15:28.171Z</time></trkpt><trkpt lat="45.9945849" lon="8.3522772"><ele>209.5</ele><time>2026-04-25T09:15:30.166Z</time></trkpt><trkpt lat="45.9946529" lon="8.3522422"><ele>209.33333333333334</ele><time>2026-04-25T09:15:32.173Z</time></trkpt><trkpt lat="45.9947216" lon="8.3522061"><ele>209.16666666666669</ele><time>2026-04-25T09:15:36.189Z</time></trkpt><trkpt lat="45.9947853" lon="8.3521871"><ele>209.0</ele><time>2026-04-25T09:15:39.178Z</time></trkpt><trkpt lat="45.9948723" lon="8.3521601"><ele>209.0</ele><time>2026-04-25T09:15:43.18Z</time></trkpt><trkpt lat="45.9949448" lon="8.3521403"><ele>209.0</ele><time>2026-04-25T09:15:46.176Z</time></trkpt><trkpt lat="45.9950368" lon="8.3521244"><ele>209.0</ele><time>2026-04-25T09:15:49.182Z</time></trkpt><trkpt lat="45.9951259" lon="8.3520862"><ele>209.0</ele><time>2026-04-25T09:15:52.176Z</time></trkpt><trkpt lat="45.9952049" lon="8.3520754"><ele>209.0</ele><time>2026-04-25T09:15:54.174Z</time></trkpt><trkpt lat="45.9953406" lon="8.3520523"><ele>209.33333333333334</ele><time>2026-04-25T09:15:56.176Z</time></trkpt><trkpt lat="45.9954135" lon="8.3520528"><ele>209.66666666666669</ele><time>2026-04-25T09:15:57.169Z</time></trkpt><trkpt lat="45.9954808" lon="8.3520623"><ele>210.0</ele><time>2026-04-25T09:15:58.167Z</time></trkpt><trkpt lat="45.9956148" lon="8.3520764"><ele>210.33333333333331</ele><time>2026-04-25T09:16:00.17Z</time></trkpt><trkpt lat="45.9956802" lon="8.3520648"><ele>210.66666666666666</ele><time>2026-04-25T09:16:01.171Z</time></trkpt><trkpt lat="45.9957519" lon="8.352043"><ele>211.0</ele><time>2026-04-25T09:16:02.169Z</time></trkpt><trkpt lat="45.9958211" lon="8.3520212"><ele>211.4</ele><time>2026-04-25T09:16:03.163Z</time></trkpt><trkpt lat="45.9959419" lon="8.3519642"><ele>211.8</ele><time>2026-04-25T09:16:05.165Z</time></trkpt><trkpt lat="45.9960086" lon="8.3518521"><ele>212.20000000000002</ele><time>2026-04-25T09:16:08.171Z</time></trkpt><trkpt lat="45.9960941" lon="8.3517237"><ele>212.60000000000002</ele><time>2026-04-25T09:16:10.165Z</time></trkpt><trkpt lat="45.9961278" lon="8.3516362"><ele>213.0</ele><time>2026-04-25T09:16:12.171Z</time></trkpt><trkpt lat="45.9960858" lon="8.3515339"><ele>213.0</ele><time>2026-04-25T09:16:15.174Z</time></trkpt><trkpt lat="45.9960242" lon="8.3514996"><ele>213.0</ele><time>2026-04-25T09:16:17.175Z</time></trkpt><trkpt lat="45.9959231" lon="8.3514443"><ele>213.0</ele><time>2026-04-25T09:16:19.162Z</time></trkpt><trkpt lat="45.9958544" lon="8.3514113"><ele>213.0</ele><time>2026-04-25T09:16:20.163Z</time></trkpt><trkpt lat="45.9957724" lon="8.3514017"><ele>213.0</ele><time>2026-04-25T09:16:21.162Z</time></trkpt><trkpt lat="45.9956891" lon="8.351394"><ele>213.0</ele><time>2026-04-25T09:16:22.157Z</time></trkpt><trkpt lat="45.9955678" lon="8.3514058"><ele>212.66666666666666</ele><time>2026-04-25T09:16:24.172Z</time></trkpt><trkpt lat="45.9954941" lon="8.3514195"><ele>212.33333333333331</ele><time>2026-04-25T09:16:25.169Z</time></trkpt><trkpt lat="45.9954131" lon="8.3514514"><ele>212.0</ele><time>2026-04-25T09:16:26.17Z</time></trkpt><trkpt lat="45.9953465" lon="8.3514801"><ele>211.66666666666666</ele><time>2026-04-25T09:16:27.176Z</time></trkpt><trkpt lat="45.9952345" lon="8.3515233"><ele>211.33333333333331</ele><time>2026-04-25T09:16:29.169Z</time></trkpt><trkpt lat="45.9951776" lon="8.351563"><ele>211.0</ele><time>2026-04-25T09:16:30.171Z</time></trkpt><trkpt lat="45.9950843" lon="8.3516419"><ele>211.0</ele><time>2026-04-25T09:16:32.168Z</time></trkpt><trkpt lat="45.9950167" lon="8.3516713"><ele>211.0</ele><time>2026-04-25T09:16:34.171Z</time></trkpt><trkpt lat="45.9949692" lon="8.3515967"><ele>211.0</ele><time>2026-04-25T09:16:36.17Z</time></trkpt><trkpt lat="45.9949058" lon="8.3514311"><ele>211.0</ele><time>2026-04-25T09:16:38.177Z</time></trkpt><trkpt lat="45.9948728" lon="8.351343"><ele>211.0</ele><time>2026-04-25T09:16:39.157Z</time></trkpt><trkpt lat="45.9947631" lon="8.3512699"><ele>210.83333333333331</ele><time>2026-04-25T09:16:41.16Z</time></trkpt><trkpt lat="45.9946875" lon="8.3512252"><ele>210.66666666666666</ele><time>2026-04-25T09:16:42.165Z</time></trkpt><trkpt lat="45.9946229" lon="8.3511551"><ele>210.5</ele><time>2026-04-25T09:16:43.168Z</time></trkpt><trkpt lat="45.9945651" lon="8.3510718"><ele>210.33333333333331</ele><time>2026-04-25T09:16:44.164Z</time></trkpt><trkpt lat="45.9945202" lon="8.3509837"><ele>210.16666666666666</ele><time>2026-04-25T09:16:45.162Z</time></trkpt><trkpt lat="45.9944909" lon="8.3508975"><ele>210.0</ele><time>2026-04-25T09:16:46.164Z</time></trkpt><trkpt lat="45.9945077" lon="8.3507499"><ele>210.0</ele><time>2026-04-25T09:16:48.17Z</time></trkpt><trkpt lat="45.994565" lon="8.350641"><ele>210.0</ele><time>2026-04-25T09:16:49.159Z</time></trkpt><trkpt lat="45.9946342" lon="8.3504816"><ele>210.0</ele><time>2026-04-25T09:16:50.169Z</time></trkpt><trkpt lat="45.9947006" lon="8.3502667"><ele>210.0</ele><time>2026-04-25T09:16:51.189Z</time></trkpt><trkpt lat="45.9947811" lon="8.3499929"><ele>210.0</ele><time>2026-04-25T09:16:52.173Z</time></trkpt><trkpt lat="45.9948534" lon="8.3496497"><ele>210.0</ele><time>2026-04-25T09:16:53.178Z</time></trkpt><trkpt lat="45.9949086" lon="8.3494283"><ele>210.0</ele><time>2026-04-25T09:16:54.178Z</time></trkpt><trkpt lat="45.9949644" lon="8.3492403"><ele>210.75</ele><time>2026-04-25T09:16:55.248Z</time></trkpt><trkpt lat="45.9950125" lon="8.3490447"><ele>211.5</ele><time>2026-04-25T09:16:56.25Z</time></trkpt><trkpt lat="45.9950555" lon="8.3488532"><ele>212.25</ele><time>2026-04-25T09:16:57.25Z</time></trkpt><trkpt lat="45.9951011" lon="8.3486595"><ele>213.0</ele><time>2026-04-25T09:16:58.25Z</time></trkpt><trkpt lat="45.9951435" lon="8.3484738"><ele>213.0</ele><time>2026-04-25T09:16:59.25Z</time></trkpt><trkpt lat="45.9951862" lon="8.348305"><ele>213.0</ele><time>2026-04-25T09:17:00.245Z</time></trkpt><trkpt lat="45.9952292" lon="8.3481476"><ele>213.0</ele><time>2026-04-25T09:17:01.253Z</time></trkpt><trkpt lat="45.9952591" lon="8.3479811"><ele>213.0</ele><time>2026-04-25T09:17:02.257Z</time></trkpt><trkpt lat="45.9952919" lon="8.3478065"><ele>213.0</ele><time>2026-04-25T09:17:03.254Z</time></trkpt><trkpt lat="45.9953039" lon="8.3476248"><ele>213.0</ele><time>2026-04-25T09:17:04.253Z</time></trkpt><trkpt lat="45.9953195" lon="8.3474605"><ele>213.0</ele><time>2026-04-25T09:17:05.253Z</time></trkpt><trkpt lat="45.9953144" lon="8.3473299"><ele>213.0</ele><time>2026-04-25T09:17:06.253Z</time></trkpt><trkpt lat="45.995336" lon="8.3472139"><ele>213.0</ele><time>2026-04-25T09:17:07.252Z</time></trkpt><trkpt lat="45.9953693" lon="8.3470972"><ele>212.60000000000002</ele><time>2026-04-25T09:17:08.256Z</time></trkpt><trkpt lat="45.995417" lon="8.3469822"><ele>212.20000000000002</ele><time>2026-04-25T09:17:09.25Z</time></trkpt><trkpt lat="45.9954862" lon="8.3468566"><ele>211.8</ele><time>2026-04-25T09:17:10.247Z</time></trkpt><trkpt lat="45.9955563" lon="8.3467229"><ele>211.4</ele><time>2026-04-25T09:17:11.253Z</time></trkpt><trkpt lat="45.9956182" lon="8.3465792"><ele>211.0</ele><time>2026-04-25T09:17:12.244Z</time></trkpt><trkpt lat="45.9956716" lon="8.3464277"><ele>211.75</ele><time>2026-04-25T09:17:13.257Z</time></trkpt><trkpt lat="45.9957186" lon="8.3462804"><ele>212.5</ele><time>2026-04-25T09:17:14.259Z</time></trkpt><trkpt lat="45.9957711" lon="8.3461352"><ele>213.25</ele><time>2026-04-25T09:17:15.171Z</time></trkpt><trkpt lat="45.9958399" lon="8.3460119"><ele>214.0</ele><time>2026-04-25T09:17:16.167Z</time></trkpt><trkpt lat="45.9959186" lon="8.3458818"><ele>214.0</ele><time>2026-04-25T09:17:17.171Z</time></trkpt><trkpt lat="45.9960059" lon="8.3457465"><ele>214.0</ele><time>2026-04-25T09:17:18.174Z</time></trkpt><trkpt lat="45.9960981" lon="8.3456144"><ele>214.0</ele><time>2026-04-25T09:17:19.169Z</time></trkpt><trkpt lat="45.996185" lon="8.3454758"><ele>214.0</ele><time>2026-04-25T09:17:20.171Z</time></trkpt><trkpt lat="45.9962706" lon="8.3453433"><ele>213.5</ele><time>2026-04-25T09:17:21.167Z</time></trkpt><trkpt lat="45.9963578" lon="8.3452043"><ele>213.0</ele><time>2026-04-25T09:17:22.167Z</time></trkpt><trkpt lat="45.996447" lon="8.3450895"><ele>212.5</ele><time>2026-04-25T09:17:23.17Z</time></trkpt><trkpt lat="45.9965293" lon="8.3449858"><ele>212.0</ele><time>2026-04-25T09:17:24.162Z</time></trkpt><trkpt lat="45.9965997" lon="8.3448879"><ele>212.2</ele><time>2026-04-25T09:17:25.152Z</time></trkpt><trkpt lat="45.9966765" lon="8.3448061"><ele>212.39999999999998</ele><time>2026-04-25T09:17:26.169Z</time></trkpt><trkpt lat="45.9967688" lon="8.3447421"><ele>212.60000000000002</ele><time>2026-04-25T09:17:27.169Z</time></trkpt><trkpt lat="45.9968707" lon="8.3446781"><ele>212.8</ele><time>2026-04-25T09:17:28.169Z</time></trkpt><trkpt lat="45.9969671" lon="8.3446041"><ele>213.0</ele><time>2026-04-25T09:17:29.158Z</time></trkpt><trkpt lat="45.99706" lon="8.3445269"><ele>213.0</ele><time>2026-04-25T09:17:30.17Z</time></trkpt><trkpt lat="45.9971297" lon="8.3444444"><ele>213.0</ele><time>2026-04-25T09:17:31.162Z</time></trkpt><trkpt lat="45.9972266" lon="8.3443807"><ele>213.0</ele><time>2026-04-25T09:17:32.158Z</time></trkpt><trkpt lat="45.9973289" lon="8.3443273"><ele>213.0</ele><time>2026-04-25T09:17:33.167Z</time></trkpt><trkpt lat="45.9974256" lon="8.3442544"><ele>213.0</ele><time>2026-04-25T09:17:34.164Z</time></trkpt><trkpt lat="45.9975147" lon="8.3441611"><ele>213.0</ele><time>2026-04-25T09:17:35.167Z</time></trkpt><trkpt lat="45.9976081" lon="8.3440752"><ele>213.0</ele><time>2026-04-25T09:17:36.161Z</time></trkpt><trkpt lat="45.997711" lon="8.3440209"><ele>213.0</ele><time>2026-04-25T09:17:37.163Z</time></trkpt><trkpt lat="45.9978366" lon="8.3439659"><ele>213.0</ele><time>2026-04-25T09:17:38.163Z</time></trkpt><trkpt lat="45.9979594" lon="8.3438886"><ele>213.66666666666669</ele><time>2026-04-25T09:17:39.165Z</time></trkpt><trkpt lat="45.9980891" lon="8.3438042"><ele>214.33333333333334</ele><time>2026-04-25T09:17:40.182Z</time></trkpt><trkpt lat="45.9982363" lon="8.3437324"><ele>215.0</ele><time>2026-04-25T09:17:41.164Z</time></trkpt><trkpt lat="45.9983981" lon="8.3436784"><ele>215.25</ele><time>2026-04-25T09:17:42.181Z</time></trkpt><trkpt lat="45.9985268" lon="8.3436649"><ele>215.5</ele><time>2026-04-25T09:17:43.167Z</time></trkpt><trkpt lat="45.9986593" lon="8.3436392"><ele>215.75</ele><time>2026-04-25T09:17:44.173Z</time></trkpt><trkpt lat="45.9987871" lon="8.3435717"><ele>216.0</ele><time>2026-04-25T09:17:45.169Z</time></trkpt><trkpt lat="45.9989028" lon="8.3434864"><ele>216.0</ele><time>2026-04-25T09:17:46.168Z</time></trkpt><trkpt lat="45.9990266" lon="8.3434149"><ele>216.00000000000003</ele><time>2026-04-25T09:17:47.162Z</time></trkpt><trkpt lat="45.999126" lon="8.3433719"><ele>216.00000000000003</ele><time>2026-04-25T09:17:48.165Z</time></trkpt><trkpt lat="45.9992069" lon="8.3433274"><ele>216.0</ele><time>2026-04-25T09:17:49.16Z</time></trkpt><trkpt lat="45.9992616" lon="8.3432469"><ele>216.0</ele><time>2026-04-25T09:17:50.166Z</time></trkpt><trkpt lat="45.9992991" lon="8.3431301"><ele>215.5</ele><time>2026-04-25T09:17:51.166Z</time></trkpt><trkpt lat="45.9993314" lon="8.3429848"><ele>215.0</ele><time>2026-04-25T09:17:52.165Z</time></trkpt><trkpt lat="45.9993746" lon="8.3428087"><ele>214.5</ele><time>2026-04-25T09:17:53.167Z</time></trkpt><trkpt lat="45.9994112" lon="8.3426171"><ele>214.0</ele><time>2026-04-25T09:17:54.166Z</time></trkpt><trkpt lat="45.9994516" lon="8.3424503"><ele>214.0</ele><time>2026-04-25T09:17:55.168Z</time></trkpt><trkpt lat="45.9994756" lon="8.3422814"><ele>213.99999999999997</ele><time>2026-04-25T09:17:56.165Z</time></trkpt><trkpt lat="45.9994975" lon="8.3421165"><ele>213.99999999999997</ele><time>2026-04-25T09:17:57.171Z</time></trkpt><trkpt lat="45.9995265" lon="8.341958"><ele>214.0</ele><time>2026-04-25T09:17:58.158Z</time></trkpt><trkpt lat="45.9995576" lon="8.3418419"><ele>214.0</ele><time>2026-04-25T09:17:59.155Z</time></trkpt><trkpt lat="45.9995545" lon="8.3417201"><ele>214.39999999999998</ele><time>2026-04-25T09:18:01.162Z</time></trkpt><trkpt lat="45.9994853" lon="8.3416734"><ele>214.79999999999998</ele><time>2026-04-25T09:18:03.164Z</time></trkpt><trkpt lat="45.9993554" lon="8.3416185"><ele>215.20000000000002</ele><time>2026-04-25T09:18:05.159Z</time></trkpt><trkpt lat="45.9992903" lon="8.3415697"><ele>215.60000000000002</ele><time>2026-04-25T09:18:06.157Z</time></trkpt><trkpt lat="45.999221" lon="8.3415137"><ele>216.0</ele><time>2026-04-25T09:18:07.16Z</time></trkpt><trkpt lat="45.9991332" lon="8.3414646"><ele>216.0</ele><time>2026-04-25T09:18:08.158Z</time></trkpt><trkpt lat="45.9990499" lon="8.341404"><ele>216.00000000000003</ele><time>2026-04-25T09:18:09.158Z</time></trkpt><trkpt lat="45.9989773" lon="8.3413176"><ele>216.00000000000003</ele><time>2026-04-25T09:18:10.162Z</time></trkpt><trkpt lat="45.9989204" lon="8.34119"><ele>216.0</ele><time>2026-04-25T09:18:11.168Z</time></trkpt><trkpt lat="45.9988676" lon="8.3410551"><ele>216.0</ele><time>2026-04-25T09:18:12.162Z</time></trkpt><trkpt lat="45.9988041" lon="8.3409373"><ele>215.75</ele><time>2026-04-25T09:18:13.168Z</time></trkpt><trkpt lat="45.9987283" lon="8.3408342"><ele>215.5</ele><time>2026-04-25T09:18:14.165Z</time></trkpt><trkpt lat="45.9986351" lon="8.3407307"><ele>215.25</ele><time>2026-04-25T09:18:15.165Z</time></trkpt><trkpt lat="45.9985392" lon="8.3406245"><ele>215.0</ele><time>2026-04-25T09:18:16.158Z</time></trkpt><trkpt lat="45.9984575" lon="8.3405169"><ele>215.0</ele><time>2026-04-25T09:18:17.172Z</time></trkpt><trkpt lat="45.9983865" lon="8.3403933"><ele>215.0</ele><time>2026-04-25T09:18:18.166Z</time></trkpt><trkpt lat="45.9983139" lon="8.340268"><ele>215.0</ele><time>2026-04-25T09:18:19.168Z</time></trkpt><trkpt lat="45.9982422" lon="8.3401391"><ele>215.0</ele><time>2026-04-25T09:18:20.172Z</time></trkpt><trkpt lat="45.9981736" lon="8.3400299"><ele>215.0</ele><time>2026-04-25T09:18:21.173Z</time></trkpt><trkpt lat="45.9981035" lon="8.3399171"><ele>215.0</ele><time>2026-04-25T09:18:22.169Z</time></trkpt><trkpt lat="45.9980231" lon="8.3397987"><ele>215.0</ele><time>2026-04-25T09:18:23.178Z</time></trkpt><trkpt lat="45.997942" lon="8.3396911"><ele>215.0</ele><time>2026-04-25T09:18:24.173Z</time></trkpt><trkpt lat="45.997861" lon="8.3395641"><ele>215.0</ele><time>2026-04-25T09:18:25.166Z</time></trkpt><trkpt lat="45.9977796" lon="8.3394364"><ele>215.25</ele><time>2026-04-25T09:18:26.171Z</time></trkpt><trkpt lat="45.9977031" lon="8.3393171"><ele>215.5</ele><time>2026-04-25T09:18:27.173Z</time></trkpt><trkpt lat="45.9976225" lon="8.3391916"><ele>215.75</ele><time>2026-04-25T09:18:28.168Z</time></trkpt><trkpt lat="45.9975413" lon="8.3390679"><ele>216.0</ele><time>2026-04-25T09:18:29.169Z</time></trkpt><trkpt lat="45.9974636" lon="8.3389404"><ele>215.8</ele><time>2026-04-25T09:18:30.172Z</time></trkpt><trkpt lat="45.9973877" lon="8.3388408"><ele>215.60000000000002</ele><time>2026-04-25T09:18:31.173Z</time></trkpt><trkpt lat="45.9973154" lon="8.3387492"><ele>215.4</ele><time>2026-04-25T09:18:32.173Z</time></trkpt><trkpt lat="45.9972429" lon="8.3386551"><ele>215.2</ele><time>2026-04-25T09:18:33.17Z</time></trkpt><trkpt lat="45.9971763" lon="8.3385453"><ele>215.0</ele><time>2026-04-25T09:18:34.172Z</time></trkpt><trkpt lat="45.9971146" lon="8.3384464"><ele>215.0</ele><time>2026-04-25T09:18:35.167Z</time></trkpt><trkpt lat="45.997056" lon="8.3383311"><ele>215.0</ele><time>2026-04-25T09:18:36.167Z</time></trkpt><trkpt lat="45.9970044" lon="8.3382073"><ele>215.0</ele><time>2026-04-25T09:18:37.173Z</time></trkpt><trkpt lat="45.996957" lon="8.3380886"><ele>215.0</ele><time>2026-04-25T09:18:38.168Z</time></trkpt><trkpt lat="45.9969234" lon="8.3379566"><ele>215.0</ele><time>2026-04-25T09:18:39.167Z</time></trkpt><trkpt lat="45.9968952" lon="8.3378328"><ele>215.2</ele><time>2026-04-25T09:18:40.179Z</time></trkpt><trkpt lat="45.9968667" lon="8.3377182"><ele>215.4</ele><time>2026-04-25T09:18:41.165Z</time></trkpt><trkpt lat="45.9968312" lon="8.3375942"><ele>215.60000000000002</ele><time>2026-04-25T09:18:42.185Z</time></trkpt><trkpt lat="45.9967886" lon="8.3374672"><ele>215.8</ele><time>2026-04-25T09:18:43.173Z</time></trkpt><trkpt lat="45.9967401" lon="8.3373535"><ele>216.0</ele><time>2026-04-25T09:18:44.182Z</time></trkpt><trkpt lat="45.9967023" lon="8.3372404"><ele>215.83333333333334</ele><time>2026-04-25T09:18:45.181Z</time></trkpt><trkpt lat="45.9966729" lon="8.3371271"><ele>215.66666666666669</ele><time>2026-04-25T09:18:46.175Z</time></trkpt><trkpt lat="45.9966382" lon="8.3370138"><ele>215.5</ele><time>2026-04-25T09:18:47.18Z</time></trkpt><trkpt lat="45.9966051" lon="8.3369128"><ele>215.33333333333334</ele><time>2026-04-25T09:18:48.171Z</time></trkpt><trkpt lat="45.9965817" lon="8.3368194"><ele>215.16666666666669</ele><time>2026-04-25T09:18:49.169Z</time></trkpt><trkpt lat="45.9965458" lon="8.336703"><ele>215.0</ele><time>2026-04-25T09:18:51.173Z</time></trkpt><trkpt lat="45.9965084" lon="8.3366003"><ele>215.0</ele><time>2026-04-25T09:18:53.181Z</time></trkpt><trkpt lat="45.9964636" lon="8.336499"><ele>215.0</ele><time>2026-04-25T09:18:55.172Z</time></trkpt><trkpt lat="45.9964126" lon="8.3363452"><ele>215.0</ele><time>2026-04-25T09:18:57.172Z</time></trkpt><trkpt lat="45.9963687" lon="8.3361815"><ele>215.0</ele><time>2026-04-25T09:18:59.168Z</time></trkpt><trkpt lat="45.9963411" lon="8.3360912"><ele>215.0</ele><time>2026-04-25T09:19:00.17Z</time></trkpt><trkpt lat="45.9963079" lon="8.335982"><ele>215.0</ele><time>2026-04-25T09:19:01.164Z</time></trkpt><trkpt lat="45.9962741" lon="8.3358815"><ele>215.0</ele><time>2026-04-25T09:19:02.172Z</time></trkpt><trkpt lat="45.9962379" lon="8.3357749"><ele>215.0</ele><time>2026-04-25T09:19:03.167Z</time></trkpt><trkpt lat="45.9961907" lon="8.335646"><ele>215.0</ele><time>2026-04-25T09:19:04.167Z</time></trkpt><trkpt lat="45.9961454" lon="8.3355237"><ele>215.0</ele><time>2026-04-25T09:19:05.172Z</time></trkpt><trkpt lat="45.9961031" lon="8.335392"><ele>214.4</ele><time>2026-04-25T09:19:06.173Z</time></trkpt><trkpt lat="45.9960622" lon="8.3352576"><ele>213.8</ele><time>2026-04-25T09:19:07.176Z</time></trkpt><trkpt lat="45.9960171" lon="8.3351177"><ele>213.2</ele><time>2026-04-25T09:19:08.174Z</time></trkpt><trkpt lat="45.9959699" lon="8.3349899"><ele>212.6</ele><time>2026-04-25T09:19:09.174Z</time></trkpt><trkpt lat="45.9959361" lon="8.3348671"><ele>212.0</ele><time>2026-04-25T09:19:10.183Z</time></trkpt><trkpt lat="45.9958998" lon="8.3347569"><ele>212.00000000000003</ele><time>2026-04-25T09:19:11.174Z</time></trkpt><trkpt lat="45.9958611" lon="8.3346493"><ele>212.0</ele><time>2026-04-25T09:19:12.177Z</time></trkpt><trkpt lat="45.9958248" lon="8.3345463"><ele>212.0</ele><time>2026-04-25T09:19:13.2Z</time></trkpt><trkpt lat="45.9957949" lon="8.3344319"><ele>212.0</ele><time>2026-04-25T09:19:14.185Z</time></trkpt><trkpt lat="45.9957682" lon="8.3343304"><ele>212.00000000000003</ele><time>2026-04-25T09:19:15.193Z</time></trkpt><trkpt lat="45.9957517" lon="8.3342399"><ele>212.0</ele><time>2026-04-25T09:19:16.18Z</time></trkpt><trkpt lat="45.9957214" lon="8.3340788"><ele>212.0</ele><time>2026-04-25T09:19:18.174Z</time></trkpt><trkpt lat="45.9956667" lon="8.3339502"><ele>212.0</ele><time>2026-04-25T09:19:20.174Z</time></trkpt><trkpt lat="45.9956001" lon="8.3338252"><ele>212.0</ele><time>2026-04-25T09:19:22.179Z</time></trkpt><trkpt lat="45.9955487" lon="8.3336542"><ele>212.0</ele><time>2026-04-25T09:19:24.178Z</time></trkpt><trkpt lat="45.9955262" lon="8.3335578"><ele>212.0</ele><time>2026-04-25T09:19:25.177Z</time></trkpt><trkpt lat="45.9954773" lon="8.3334009"><ele>212.2857142857143</ele><time>2026-04-25T09:19:27.179Z</time></trkpt><trkpt lat="45.9954432" lon="8.3333213"><ele>212.57142857142856</ele><time>2026-04-25T09:19:28.177Z</time></trkpt><trkpt lat="45.9954082" lon="8.3332396"><ele>212.85714285714286</ele><time>2026-04-25T09:19:29.177Z</time></trkpt><trkpt lat="45.9953676" lon="8.3331562"><ele>213.14285714285717</ele><time>2026-04-25T09:19:30.175Z</time></trkpt><trkpt lat="45.9953243" lon="8.3330629"><ele>213.42857142857144</ele><time>2026-04-25T09:19:31.181Z</time></trkpt><trkpt lat="45.995288" lon="8.3329706"><ele>213.71428571428572</ele><time>2026-04-25T09:19:32.179Z</time></trkpt><trkpt lat="45.9952525" lon="8.3328815"><ele>214.0</ele><time>2026-04-25T09:19:33.179Z</time></trkpt><trkpt lat="45.9952147" lon="8.3327283"><ele>214.39999999999998</ele><time>2026-04-25T09:19:35.168Z</time></trkpt><trkpt lat="45.9951846" lon="8.332627"><ele>214.79999999999998</ele><time>2026-04-25T09:19:37.182Z</time></trkpt><trkpt lat="45.9952568" lon="8.3325491"><ele>215.20000000000002</ele><time>2026-04-25T09:19:48.184Z</time></trkpt><trkpt lat="45.9953916" lon="8.3325377"><ele>215.60000000000002</ele><time>2026-04-25T09:19:50.169Z</time></trkpt><trkpt lat="45.9955076" lon="8.3325338"><ele>216.0</ele><time>2026-04-25T09:19:51.172Z</time></trkpt><trkpt lat="45.9956438" lon="8.3325356"><ele>216.0</ele><time>2026-04-25T09:19:52.172Z</time></trkpt><trkpt lat="45.9957986" lon="8.3325367"><ele>216.0</ele><time>2026-04-25T09:19:53.173Z</time></trkpt><trkpt lat="45.9959484" lon="8.3325296"><ele>216.0</ele><time>2026-04-25T09:19:54.173Z</time></trkpt><trkpt lat="45.9960925" lon="8.3325284"><ele>216.0</ele><time>2026-04-25T09:19:55.165Z</time></trkpt><trkpt lat="45.9962196" lon="8.3325274"><ele>216.0</ele><time>2026-04-25T09:19:56.163Z</time></trkpt><trkpt lat="45.9963198" lon="8.332535"><ele>216.00000000000003</ele><time>2026-04-25T09:19:57.166Z</time></trkpt><trkpt lat="45.996397" lon="8.332542"><ele>216.00000000000003</ele><time>2026-04-25T09:19:58.169Z</time></trkpt><trkpt lat="45.9964913" lon="8.3325511"><ele>216.0</ele><time>2026-04-25T09:20:00.167Z</time></trkpt><trkpt lat="45.9966429" lon="8.332538"><ele>216.0</ele><time>2026-04-25T09:20:02.17Z</time></trkpt><trkpt lat="45.9967493" lon="8.3325164"><ele>214.75</ele><time>2026-04-25T09:20:03.17Z</time></trkpt><trkpt lat="45.9968731" lon="8.3324883"><ele>213.5</ele><time>2026-04-25T09:20:04.174Z</time></trkpt><trkpt lat="45.9969953" lon="8.3324989"><ele>212.25</ele><time>2026-04-25T09:20:05.173Z</time></trkpt><trkpt lat="45.9971214" lon="8.3324924"><ele>211.0</ele><time>2026-04-25T09:20:06.175Z</time></trkpt><trkpt lat="45.9972437" lon="8.3324572"><ele>210.99999999999997</ele><time>2026-04-25T09:20:07.172Z</time></trkpt><trkpt lat="45.9973474" lon="8.3324163"><ele>211.0</ele><time>2026-04-25T09:20:08.169Z</time></trkpt><trkpt lat="45.9974214" lon="8.3323773"><ele>211.0</ele><time>2026-04-25T09:20:09.17Z</time></trkpt><trkpt lat="45.9974943" lon="8.3323305"><ele>211.0</ele><time>2026-04-25T09:20:10.175Z</time></trkpt><trkpt lat="45.9975673" lon="8.3322919"><ele>210.99999999999997</ele><time>2026-04-25T09:20:12.165Z</time></trkpt><trkpt lat="45.9975947" lon="8.3324233"><ele>211.0</ele><time>2026-04-25T09:20:14.171Z</time></trkpt><trkpt lat="45.9976104" lon="8.332525"><ele>211.4</ele><time>2026-04-25T09:20:15.179Z</time></trkpt><trkpt lat="45.9976566" lon="8.3326459"><ele>211.8</ele><time>2026-04-25T09:20:17.177Z</time></trkpt><trkpt lat="45.9977431" lon="8.3326445"><ele>212.20000000000002</ele><time>2026-04-25T09:20:19.169Z</time></trkpt><trkpt lat="45.9978455" lon="8.3325827"><ele>212.60000000000002</ele><time>2026-04-25T09:20:21.169Z</time></trkpt><trkpt lat="45.9979249" lon="8.3325579"><ele>213.0</ele><time>2026-04-25T09:20:23.172Z</time></trkpt><trkpt lat="45.9980428" lon="8.3324867"><ele>213.0</ele><time>2026-04-25T09:20:25.166Z</time></trkpt><trkpt lat="45.9981314" lon="8.3324181"><ele>213.0</ele><time>2026-04-25T09:20:26.165Z</time></trkpt><trkpt lat="45.9982324" lon="8.3323365"><ele>213.0</ele><time>2026-04-25T09:20:27.166Z</time></trkpt><trkpt lat="45.9983597" lon="8.3322486"><ele>213.0</ele><time>2026-04-25T09:20:28.169Z</time></trkpt><trkpt lat="45.9984982" lon="8.3321546"><ele>212.75</ele><time>2026-04-25T09:20:29.174Z</time></trkpt><trkpt lat="45.9986304" lon="8.3320491"><ele>212.5</ele><time>2026-04-25T09:20:30.179Z</time></trkpt><trkpt lat="45.9987508" lon="8.3319602"><ele>212.25</ele><time>2026-04-25T09:20:31.251Z</time></trkpt><trkpt lat="45.9988593" lon="8.3318786"><ele>212.0</ele><time>2026-04-25T09:20:32.252Z</time></trkpt><trkpt lat="45.9989579" lon="8.3318033"><ele>212.0</ele><time>2026-04-25T09:20:33.255Z</time></trkpt><trkpt lat="45.9990537" lon="8.3317394"><ele>212.0</ele><time>2026-04-25T09:20:34.254Z</time></trkpt><trkpt lat="45.9991468" lon="8.3316835"><ele>212.0</ele><time>2026-04-25T09:20:35.256Z</time></trkpt><trkpt lat="45.9992305" lon="8.3316372"><ele>212.0</ele><time>2026-04-25T09:20:36.254Z</time></trkpt><trkpt lat="45.9993073" lon="8.3315934"><ele>212.0</ele><time>2026-04-25T09:20:37.249Z</time></trkpt><trkpt lat="45.999382" lon="8.3315659"><ele>212.39999999999998</ele><time>2026-04-25T09:20:38.245Z</time></trkpt><trkpt lat="45.9994558" lon="8.3315595"><ele>212.79999999999998</ele><time>2026-04-25T09:20:39.246Z</time></trkpt><trkpt lat="45.9995389" lon="8.3315803"><ele>213.2</ele><time>2026-04-25T09:20:40.241Z</time></trkpt><trkpt lat="45.9996313" lon="8.3316291"><ele>213.6</ele><time>2026-04-25T09:20:41.232Z</time></trkpt><trkpt lat="45.9997153" lon="8.3317071"><ele>214.0</ele><time>2026-04-25T09:20:42.237Z</time></trkpt><trkpt lat="45.999817" lon="8.3317687"><ele>214.0</ele><time>2026-04-25T09:20:43.238Z</time></trkpt><trkpt lat="45.9999226" lon="8.3318048"><ele>214.0</ele><time>2026-04-25T09:20:44.247Z</time></trkpt><trkpt lat="46.0000416" lon="8.331834"><ele>214.0</ele><time>2026-04-25T09:20:45.25Z</time></trkpt><trkpt lat="46.0001633" lon="8.33184"><ele>214.0</ele><time>2026-04-25T09:20:46.243Z</time></trkpt><trkpt lat="46.0003015" lon="8.331846"><ele>214.0</ele><time>2026-04-25T09:20:47.152Z</time></trkpt><trkpt lat="46.000405" lon="8.33183"><ele>213.99999999999997</ele><time>2026-04-25T09:20:48.161Z</time></trkpt><trkpt lat="46.00051" lon="8.3318419"><ele>213.99999999999997</ele><time>2026-04-25T09:20:49.15Z</time></trkpt><trkpt lat="46.0006045" lon="8.3318398"><ele>214.0</ele><time>2026-04-25T09:20:50.166Z</time></trkpt><trkpt lat="46.0007084" lon="8.3318502"><ele>214.0</ele><time>2026-04-25T09:20:51.163Z</time></trkpt><trkpt lat="46.0007986" lon="8.3318536"><ele>214.16666666666666</ele><time>2026-04-25T09:20:52.169Z</time></trkpt><trkpt lat="46.0008773" lon="8.3318724"><ele>214.33333333333331</ele><time>2026-04-25T09:20:53.168Z</time></trkpt><trkpt lat="46.0009552" lon="8.3318802"><ele>214.5</ele><time>2026-04-25T09:20:54.164Z</time></trkpt><trkpt lat="46.00103" lon="8.3319071"><ele>214.66666666666669</ele><time>2026-04-25T09:20:55.163Z</time></trkpt><trkpt lat="46.0011214" lon="8.3319173"><ele>214.83333333333334</ele><time>2026-04-25T09:20:56.163Z</time></trkpt><trkpt lat="46.0012186" lon="8.3319144"><ele>215.0</ele><time>2026-04-25T09:20:57.162Z</time></trkpt><trkpt lat="46.0013123" lon="8.3318765"><ele>215.00000000000003</ele><time>2026-04-25T09:20:58.159Z</time></trkpt><trkpt lat="46.0013896" lon="8.3318302"><ele>215.0</ele><time>2026-04-25T09:20:59.159Z</time></trkpt><trkpt lat="46.0014651" lon="8.3317929"><ele>215.0</ele><time>2026-04-25T09:21:01.162Z</time></trkpt><trkpt lat="46.0015555" lon="8.3318112"><ele>215.0</ele><time>2026-04-25T09:21:03.164Z</time></trkpt><trkpt lat="46.0016192" lon="8.3318454"><ele>215.00000000000003</ele><time>2026-04-25T09:21:04.139Z</time></trkpt><trkpt lat="46.001682" lon="8.3318817"><ele>215.0</ele><time>2026-04-25T09:21:05.138Z</time></trkpt><trkpt lat="46.0018185" lon="8.3319399"><ele>215.4</ele><time>2026-04-25T09:21:06.136Z</time></trkpt><trkpt lat="46.0019146" lon="8.3319644"><ele>215.8</ele><time>2026-04-25T09:21:07.148Z</time></trkpt><trkpt lat="46.0019289" lon="8.3318697"><ele>216.2</ele><time>2026-04-25T09:21:09.157Z</time></trkpt><trkpt lat="46.0018997" lon="8.3317487"><ele>216.6</ele><time>2026-04-25T09:21:11.163Z</time></trkpt><trkpt lat="46.0019155" lon="8.3315776"><ele>217.0</ele><time>2026-04-25T09:21:13.158Z</time></trkpt><trkpt lat="46.0019889" lon="8.3314559"><ele>217.2</ele><time>2026-04-25T09:21:15.153Z</time></trkpt><trkpt lat="46.0021195" lon="8.3313702"><ele>217.39999999999998</ele><time>2026-04-25T09:21:17.168Z</time></trkpt><trkpt lat="46.0021951" lon="8.3313323"><ele>217.60000000000002</ele><time>2026-04-25T09:21:18.152Z</time></trkpt><trkpt lat="46.0022657" lon="8.3313059"><ele>217.8</ele><time>2026-04-25T09:21:19.161Z</time></trkpt><trkpt lat="46.0023859" lon="8.3313258"><ele>218.0</ele><time>2026-04-25T09:21:21.158Z</time></trkpt><trkpt lat="46.002479" lon="8.3313718"><ele>218.4</ele><time>2026-04-25T09:21:23.153Z</time></trkpt><trkpt lat="46.002575" lon="8.3313189"><ele>218.8</ele><time>2026-04-25T09:21:34.163Z</time></trkpt><trkpt lat="46.0025927" lon="8.3311999"><ele>219.2</ele><time>2026-04-25T09:21:35.161Z</time></trkpt><trkpt lat="46.0026215" lon="8.3310465"><ele>219.6</ele><time>2026-04-25T09:21:36.161Z</time></trkpt><trkpt lat="46.0026473" lon="8.3308942"><ele>220.0</ele><time>2026-04-25T09:21:37.161Z</time></trkpt><trkpt lat="46.002683" lon="8.3307452"><ele>220.0</ele><time>2026-04-25T09:21:38.156Z</time></trkpt><trkpt lat="46.0027233" lon="8.3305876"><ele>220.0</ele><time>2026-04-25T09:21:39.161Z</time></trkpt><trkpt lat="46.0027615" lon="8.33043"><ele>220.0</ele><time>2026-04-25T09:21:40.174Z</time></trkpt><trkpt lat="46.0028038" lon="8.330271"><ele>220.0</ele><time>2026-04-25T09:21:41.162Z</time></trkpt><trkpt lat="46.0028529" lon="8.3300972"><ele>220.0</ele><time>2026-04-25T09:21:42.164Z</time></trkpt><trkpt lat="46.0028974" lon="8.3299338"><ele>220.0</ele><time>2026-04-25T09:21:43.161Z</time></trkpt><trkpt lat="46.0029367" lon="8.3297909"><ele>220.0</ele><time>2026-04-25T09:21:44.161Z</time></trkpt><trkpt lat="46.0029646" lon="8.3296665"><ele>220.0</ele><time>2026-04-25T09:21:45.16Z</time></trkpt><trkpt lat="46.0029942" lon="8.3295598"><ele>220.0</ele><time>2026-04-25T09:21:46.162Z</time></trkpt><trkpt lat="46.0030279" lon="8.329457"><ele>220.16666666666666</ele><time>2026-04-25T09:21:47.166Z</time></trkpt><trkpt lat="46.0030681" lon="8.3293094"><ele>220.33333333333331</ele><time>2026-04-25T09:21:49.164Z</time></trkpt><trkpt lat="46.0031124" lon="8.3291502"><ele>220.5</ele><time>2026-04-25T09:21:51.164Z</time></trkpt><trkpt lat="46.0031262" lon="8.3290559"><ele>220.66666666666669</ele><time>2026-04-25T09:21:52.167Z</time></trkpt><trkpt lat="46.0031366" lon="8.3289552"><ele>220.83333333333334</ele><time>2026-04-25T09:21:53.165Z</time></trkpt><trkpt lat="46.003159" lon="8.3288629"><ele>221.0</ele><time>2026-04-25T09:21:54.163Z</time></trkpt><trkpt lat="46.0031759" lon="8.3287698"><ele>221.14285714285717</ele><time>2026-04-25T09:21:55.161Z</time></trkpt><trkpt lat="46.0032107" lon="8.3286873"><ele>221.28571428571428</ele><time>2026-04-25T09:21:56.162Z</time></trkpt><trkpt lat="46.0032337" lon="8.3286003"><ele>221.42857142857144</ele><time>2026-04-25T09:21:57.163Z</time></trkpt><trkpt lat="46.0032594" lon="8.3285129"><ele>221.57142857142858</ele><time>2026-04-25T09:21:58.164Z</time></trkpt><trkpt lat="46.003295" lon="8.3284083"><ele>221.71428571428572</ele><time>2026-04-25T09:22:00.164Z</time></trkpt><trkpt lat="46.0033603" lon="8.3284104"><ele>221.85714285714286</ele><time>2026-04-25T09:22:05.168Z</time></trkpt><trkpt lat="46.0034444" lon="8.3284504"><ele>222.0</ele><time>2026-04-25T09:22:08.164Z</time></trkpt><trkpt lat="46.0035266" lon="8.3285033"><ele>222.39999999999998</ele><time>2026-04-25T09:22:10.17Z</time></trkpt><trkpt lat="46.0036182" lon="8.3285306"><ele>222.79999999999998</ele><time>2026-04-25T09:22:12.169Z</time></trkpt><trkpt lat="46.0037003" lon="8.3285691"><ele>223.2</ele><time>2026-04-25T09:22:14.167Z</time></trkpt><trkpt lat="46.0037512" lon="8.328696"><ele>223.6</ele><time>2026-04-25T09:22:17.169Z</time></trkpt><trkpt lat="46.0037694" lon="8.3288361"><ele>224.0</ele><time>2026-04-25T09:22:19.176Z</time></trkpt><trkpt lat="46.0038303" lon="8.3288891"><ele>223.79999999999998</ele><time>2026-04-25T09:22:22.17Z</time></trkpt><trkpt lat="46.0039289" lon="8.3288943"><ele>223.59999999999997</ele><time>2026-04-25T09:22:25.166Z</time></trkpt><trkpt lat="46.0040367" lon="8.3289083"><ele>223.4</ele><time>2026-04-25T09:22:27.157Z</time></trkpt><trkpt lat="46.0041628" lon="8.328927"><ele>223.2</ele><time>2026-04-25T09:22:29.161Z</time></trkpt><trkpt lat="46.0042372" lon="8.3289466"><ele>223.0</ele><time>2026-04-25T09:22:30.156Z</time></trkpt><trkpt lat="46.0043126" lon="8.3289794"><ele>223.33333333333331</ele><time>2026-04-25T09:22:31.155Z</time></trkpt><trkpt lat="46.0043732" lon="8.3290159"><ele>223.66666666666666</ele><time>2026-04-25T09:22:32.156Z</time></trkpt><trkpt lat="46.0044361" lon="8.3290483"><ele>224.0</ele><time>2026-04-25T09:22:33.156Z</time></trkpt><trkpt lat="46.004553" lon="8.3291096"><ele>224.33333333333331</ele><time>2026-04-25T09:22:35.162Z</time></trkpt><trkpt lat="46.0046639" lon="8.3291799"><ele>224.66666666666666</ele><time>2026-04-25T09:22:37.16Z</time></trkpt><trkpt lat="46.0047199" lon="8.3292273"><ele>225.0</ele><time>2026-04-25T09:22:38.155Z</time></trkpt><trkpt lat="46.0048282" lon="8.3293082"><ele>225.0</ele><time>2026-04-25T09:22:40.164Z</time></trkpt><trkpt lat="46.0049284" lon="8.3293641"><ele>225.0</ele><time>2026-04-25T09:22:42.152Z</time></trkpt><trkpt lat="46.0049955" lon="8.3293452"><ele>225.0</ele><time>2026-04-25T09:22:44.164Z</time></trkpt><trkpt lat="46.0050328" lon="8.3292632"><ele>225.0</ele><time>2026-04-25T09:22:46.158Z</time></trkpt><trkpt lat="46.0050994" lon="8.3291958"><ele>225.0</ele><time>2026-04-25T09:22:49.152Z</time></trkpt><trkpt lat="46.0051917" lon="8.3292339"><ele>225.0</ele><time>2026-04-25T09:22:51.16Z</time></trkpt><trkpt lat="46.0052543" lon="8.3292845"><ele>225.5</ele><time>2026-04-25T09:22:52.173Z</time></trkpt><trkpt lat="46.005321" lon="8.329335"><ele>226.0</ele><time>2026-04-25T09:22:53.16Z</time></trkpt><trkpt lat="46.0053914" lon="8.3293842"><ele>226.5</ele><time>2026-04-25T09:22:54.156Z</time></trkpt><trkpt lat="46.0054556" lon="8.3294532"><ele>227.0</ele><time>2026-04-25T09:22:55.151Z</time></trkpt><trkpt lat="46.0055033" lon="8.3295392"><ele>227.5</ele><time>2026-04-25T09:22:56.155Z</time></trkpt><trkpt lat="46.0055497" lon="8.3296389"><ele>228.0</ele><time>2026-04-25T09:22:57.159Z</time></trkpt><trkpt lat="46.0055917" lon="8.3297414"><ele>228.8</ele><time>2026-04-25T09:22:58.162Z</time></trkpt><trkpt lat="46.0056257" lon="8.3298568"><ele>229.60000000000002</ele><time>2026-04-25T09:22:59.158Z</time></trkpt><trkpt lat="46.005646" lon="8.3299697"><ele>230.39999999999998</ele><time>2026-04-25T09:23:00.16Z</time></trkpt><trkpt lat="46.0056467" lon="8.3300985"><ele>231.2</ele><time>2026-04-25T09:23:01.156Z</time></trkpt><trkpt lat="46.00564" lon="8.3302542"><ele>232.0</ele><time>2026-04-25T09:23:02.159Z</time></trkpt><trkpt lat="46.0056381" lon="8.330402"><ele>232.0</ele><time>2026-04-25T09:23:03.158Z</time></trkpt><trkpt lat="46.0056526" lon="8.3305404"><ele>232.0</ele><time>2026-04-25T09:23:04.16Z</time></trkpt><trkpt lat="46.0056637" lon="8.3306727"><ele>232.0</ele><time>2026-04-25T09:23:05.158Z</time></trkpt><trkpt lat="46.005667" lon="8.3308093"><ele>232.0</ele><time>2026-04-25T09:23:06.153Z</time></trkpt><trkpt lat="46.0056709" lon="8.3309235"><ele>232.0</ele><time>2026-04-25T09:23:07.159Z</time></trkpt><trkpt lat="46.0056939" lon="8.3310731"><ele>233.16666666666666</ele><time>2026-04-25T09:23:09.164Z</time></trkpt><trkpt lat="46.0057069" lon="8.3311687"><ele>234.33333333333331</ele><time>2026-04-25T09:23:13.171Z</time></trkpt><trkpt lat="46.0057287" lon="8.3312662"><ele>235.5</ele><time>2026-04-25T09:23:17.178Z</time></trkpt><trkpt lat="46.0056535" lon="8.3312552"><ele>236.66666666666669</ele><time>2026-04-25T09:24:16.186Z</time></trkpt><trkpt lat="46.0056248" lon="8.3311241"><ele>237.83333333333334</ele><time>2026-04-25T09:24:19.18Z</time></trkpt><trkpt lat="46.0056126" lon="8.3310034"><ele>239.0</ele><time>2026-04-25T09:24:20.171Z</time></trkpt><trkpt lat="46.005593" lon="8.3308344"><ele>239.0</ele><time>2026-04-25T09:24:21.168Z</time></trkpt><trkpt lat="46.0055894" lon="8.3306715"><ele>238.99999999999997</ele><time>2026-04-25T09:24:22.168Z</time></trkpt><trkpt lat="46.0055906" lon="8.3305324"><ele>238.99999999999997</ele><time>2026-04-25T09:24:23.176Z</time></trkpt><trkpt lat="46.0055898" lon="8.3304042"><ele>239.0</ele><time>2026-04-25T09:24:24.169Z</time></trkpt><trkpt lat="46.0055808" lon="8.3302787"><ele>239.0</ele><time>2026-04-25T09:24:25.182Z</time></trkpt><trkpt lat="46.0055809" lon="8.3301619"><ele>237.83333333333334</ele><time>2026-04-25T09:24:26.169Z</time></trkpt><trkpt lat="46.0055821" lon="8.3300431"><ele>236.66666666666669</ele><time>2026-04-25T09:24:27.171Z</time></trkpt><trkpt lat="46.0055861" lon="8.3299375"><ele>235.5</ele><time>2026-04-25T09:24:28.169Z</time></trkpt><trkpt lat="46.0055804" lon="8.3298323"><ele>234.33333333333331</ele><time>2026-04-25T09:24:29.168Z</time></trkpt><trkpt lat="46.0055642" lon="8.3297303"><ele>233.16666666666666</ele><time>2026-04-25T09:24:30.174Z</time></trkpt><trkpt lat="46.0055324" lon="8.3296383"><ele>232.0</ele><time>2026-04-25T09:24:31.169Z</time></trkpt><trkpt lat="46.0054908" lon="8.3295463"><ele>231.33333333333331</ele><time>2026-04-25T09:24:32.167Z</time></trkpt><trkpt lat="46.0054578" lon="8.329465"><ele>230.66666666666666</ele><time>2026-04-25T09:24:33.163Z</time></trkpt><trkpt lat="46.0054069" lon="8.3293811"><ele>230.0</ele><time>2026-04-25T09:24:35.166Z</time></trkpt><trkpt lat="46.0053064" lon="8.3293301"><ele>229.33333333333331</ele><time>2026-04-25T09:24:38.165Z</time></trkpt><trkpt lat="46.0052495" lon="8.3292864"><ele>228.66666666666666</ele><time>2026-04-25T09:24:39.165Z</time></trkpt><trkpt lat="46.0051829" lon="8.3292362"><ele>228.0</ele><time>2026-04-25T09:24:40.182Z</time></trkpt><trkpt lat="46.0051256" lon="8.3291912"><ele>228.0</ele><time>2026-04-25T09:24:41.174Z</time></trkpt><trkpt lat="46.0050594" lon="8.3291591"><ele>228.0</ele><time>2026-04-25T09:24:43.173Z</time></trkpt><trkpt lat="46.005022" lon="8.3292363"><ele>228.0</ele><time>2026-04-25T09:24:49.178Z</time></trkpt><trkpt lat="46.0049893" lon="8.3293514"><ele>228.0</ele><time>2026-04-25T09:24:52.177Z</time></trkpt><trkpt lat="46.0049268" lon="8.3293921"><ele>228.0</ele><time>2026-04-25T09:24:54.178Z</time></trkpt><trkpt lat="46.0048092" lon="8.329331"><ele>228.0</ele><time>2026-04-25T09:24:56.188Z</time></trkpt><trkpt lat="46.0047495" lon="8.3292839"><ele>227.4</ele><time>2026-04-25T09:24:57.173Z</time></trkpt><trkpt lat="46.0046917" lon="8.3292314"><ele>226.8</ele><time>2026-04-25T09:24:58.175Z</time></trkpt><trkpt lat="46.0046332" lon="8.329176"><ele>226.2</ele><time>2026-04-25T09:24:59.173Z</time></trkpt><trkpt lat="46.0045262" lon="8.3291086"><ele>225.6</ele><time>2026-04-25T09:25:01.174Z</time></trkpt><trkpt lat="46.0044284" lon="8.3290703"><ele>225.0</ele><time>2026-04-25T09:25:03.174Z</time></trkpt><trkpt lat="46.0043239" lon="8.3290087"><ele>225.0</ele><time>2026-04-25T09:25:05.171Z</time></trkpt><trkpt lat="46.0042451" lon="8.3289736"><ele>225.0</ele><time>2026-04-25T09:25:06.17Z</time></trkpt><trkpt lat="46.0041628" lon="8.3289636"><ele>225.0</ele><time>2026-04-25T09:25:07.176Z</time></trkpt><trkpt lat="46.004086" lon="8.3289402"><ele>225.0</ele><time>2026-04-25T09:25:08.17Z</time></trkpt><trkpt lat="46.0040111" lon="8.3289154"><ele>225.0</ele><time>2026-04-25T09:25:09.176Z</time></trkpt><trkpt lat="46.0039407" lon="8.3288985"><ele>225.0</ele><time>2026-04-25T09:25:10.184Z</time></trkpt><trkpt lat="46.0038765" lon="8.3288989"><ele>224.8</ele><time>2026-04-25T09:25:11.177Z</time></trkpt><trkpt lat="46.0037691" lon="8.3289016"><ele>224.6</ele><time>2026-04-25T09:25:13.175Z</time></trkpt><trkpt lat="46.0037186" lon="8.3287825"><ele>224.39999999999998</ele><time>2026-04-25T09:25:15.17Z</time></trkpt><trkpt lat="46.0037205" lon="8.3286626"><ele>224.2</ele><time>2026-04-25T09:25:17.183Z</time></trkpt><trkpt lat="46.0036565" lon="8.3285766"><ele>224.0</ele><time>2026-04-25T09:25:20.175Z</time></trkpt><trkpt lat="46.0035556" lon="8.3285596"><ele>224.00000000000003</ele><time>2026-04-25T09:25:22.168Z</time></trkpt><trkpt lat="46.0034739" lon="8.3285293"><ele>224.0</ele><time>2026-04-25T09:25:24.163Z</time></trkpt><trkpt lat="46.0034366" lon="8.328424"><ele>224.0</ele><time>2026-04-25T09:25:26.171Z</time></trkpt><trkpt lat="46.0034615" lon="8.3282819"><ele>224.0</ele><time>2026-04-25T09:25:28.179Z</time></trkpt><trkpt lat="46.0034852" lon="8.3281507"><ele>224.00000000000003</ele><time>2026-04-25T09:25:30.182Z</time></trkpt><trkpt lat="46.0034845" lon="8.328054"><ele>224.0</ele><time>2026-04-25T09:26:00.174Z</time></trkpt><trkpt lat="46.0034648" lon="8.3279524"><ele>223.5</ele><time>2026-04-25T09:26:02.175Z</time></trkpt><trkpt lat="46.0034473" lon="8.3278465"><ele>223.0</ele><time>2026-04-25T09:26:06.179Z</time></trkpt><trkpt lat="46.0034519" lon="8.3276219"><ele>222.5</ele><time>2026-04-25T09:26:08.174Z</time></trkpt><trkpt lat="46.0034655" lon="8.327452"><ele>222.0</ele><time>2026-04-25T09:26:09.175Z</time></trkpt><trkpt lat="46.0034758" lon="8.3273017"><ele>221.8</ele><time>2026-04-25T09:26:10.177Z</time></trkpt><trkpt lat="46.0034827" lon="8.3271452"><ele>221.6</ele><time>2026-04-25T09:26:11.17Z</time></trkpt><trkpt lat="46.0035032" lon="8.3269822"><ele>221.40000000000003</ele><time>2026-04-25T09:26:12.172Z</time></trkpt><trkpt lat="46.003502" lon="8.3268231"><ele>221.20000000000002</ele><time>2026-04-25T09:26:13.245Z</time></trkpt><trkpt lat="46.0035" lon="8.3266653"><ele>221.0</ele><time>2026-04-25T09:26:14.245Z</time></trkpt><trkpt lat="46.0035008" lon="8.3265019"><ele>221.0</ele><time>2026-04-25T09:26:15.247Z</time></trkpt><trkpt lat="46.0034969" lon="8.3263379"><ele>221.00000000000003</ele><time>2026-04-25T09:26:16.239Z</time></trkpt><trkpt lat="46.0034996" lon="8.3261888"><ele>221.00000000000003</ele><time>2026-04-25T09:26:17.237Z</time></trkpt><trkpt lat="46.0035015" lon="8.3260604"><ele>221.0</ele><time>2026-04-25T09:26:18.236Z</time></trkpt><trkpt lat="46.0035015" lon="8.3259402"><ele>221.0</ele><time>2026-04-25T09:26:19.234Z</time></trkpt><trkpt lat="46.0034943" lon="8.3258023"><ele>221.00000000000003</ele><time>2026-04-25T09:26:20.249Z</time></trkpt><trkpt lat="46.0034949" lon="8.3256799"><ele>221.0</ele><time>2026-04-25T09:26:21.25Z</time></trkpt><trkpt lat="46.0034984" lon="8.3255684"><ele>221.0</ele><time>2026-04-25T09:26:22.246Z</time></trkpt><trkpt lat="46.0034968" lon="8.3254731"><ele>221.0</ele><time>2026-04-25T09:26:23.244Z</time></trkpt><trkpt lat="46.0035409" lon="8.3253866"><ele>221.00000000000003</ele><time>2026-04-25T09:26:24.238Z</time></trkpt><trkpt lat="46.0035276" lon="8.3252977"><ele>221.0</ele><time>2026-04-25T09:26:27.259Z</time></trkpt><trkpt lat="46.0035183" lon="8.3254261"><ele>221.00000000000003</ele><time>2026-04-25T09:26:33.16Z</time></trkpt><trkpt lat="46.0035252" lon="8.3256063"><ele>221.0</ele><time>2026-04-25T09:26:35.16Z</time></trkpt><trkpt lat="46.0035183" lon="8.3257132"><ele>221.0</ele><time>2026-04-25T09:26:36.162Z</time></trkpt><trkpt lat="46.0035127" lon="8.325834"><ele>221.0</ele><time>2026-04-25T09:26:37.16Z</time></trkpt><trkpt lat="46.0035097" lon="8.3259256"><ele>221.00000000000003</ele><time>2026-04-25T09:26:38.149Z</time></trkpt><trkpt lat="46.0034879" lon="8.3260123"><ele>221.0</ele><time>2026-04-25T09:26:40.156Z</time></trkpt><trkpt lat="46.0035427" lon="8.3259417"><ele>221.0</ele><time>2026-04-25T09:26:47.165Z</time></trkpt><trkpt lat="46.0035584" lon="8.3258485"><ele>221.00000000000003</ele><time>2026-04-25T09:26:48.152Z</time></trkpt><trkpt lat="46.0035697" lon="8.3257211"><ele>221.00000000000003</ele><time>2026-04-25T09:26:49.152Z</time></trkpt><trkpt lat="46.0035649" lon="8.3255722"><ele>221.0</ele><time>2026-04-25T09:26:50.151Z</time></trkpt><trkpt lat="46.0035625" lon="8.3254032"><ele>221.0</ele><time>2026-04-25T09:26:51.153Z</time></trkpt><trkpt lat="46.003559" lon="8.3252251"><ele>221.0</ele><time>2026-04-25T09:26:52.156Z</time></trkpt><trkpt lat="46.0035593" lon="8.3250061"><ele>221.0</ele><time>2026-04-25T09:26:53.158Z</time></trkpt><trkpt lat="46.0035635" lon="8.3247735"><ele>221.0</ele><time>2026-04-25T09:26:54.157Z</time></trkpt><trkpt lat="46.0035568" lon="8.324523"><ele>221.0</ele><time>2026-04-25T09:26:55.157Z</time></trkpt><trkpt lat="46.0035726" lon="8.3242975"><ele>221.0</ele><time>2026-04-25T09:26:56.156Z</time></trkpt><trkpt lat="46.0035794" lon="8.3240722"><ele>221.0</ele><time>2026-04-25T09:26:57.159Z</time></trkpt><trkpt lat="46.0035807" lon="8.3238503"><ele>220.75</ele><time>2026-04-25T09:26:58.168Z</time></trkpt><trkpt lat="46.0035869" lon="8.323632"><ele>220.5</ele><time>2026-04-25T09:26:59.158Z</time></trkpt><trkpt lat="46.0035948" lon="8.3234323"><ele>220.25</ele><time>2026-04-25T09:27:00.167Z</time></trkpt><trkpt lat="46.0036034" lon="8.323234"><ele>220.0</ele><time>2026-04-25T09:27:01.161Z</time></trkpt><trkpt lat="46.0036112" lon="8.3230292"><ele>219.75</ele><time>2026-04-25T09:27:02.159Z</time></trkpt><trkpt lat="46.0036206" lon="8.3228274"><ele>219.5</ele><time>2026-04-25T09:27:03.158Z</time></trkpt><trkpt lat="46.0036286" lon="8.322619"><ele>219.25</ele><time>2026-04-25T09:27:04.155Z</time></trkpt><trkpt lat="46.0036338" lon="8.3224181"><ele>219.0</ele><time>2026-04-25T09:27:05.157Z</time></trkpt><trkpt lat="46.0036438" lon="8.3222038"><ele>218.5</ele><time>2026-04-25T09:27:06.155Z</time></trkpt><trkpt lat="46.0036493" lon="8.3219915"><ele>218.0</ele><time>2026-04-25T09:27:07.159Z</time></trkpt><trkpt lat="46.0036561" lon="8.3217873"><ele>217.5</ele><time>2026-04-25T09:27:08.157Z</time></trkpt><trkpt lat="46.0036622" lon="8.3215815"><ele>217.0</ele><time>2026-04-25T09:27:09.156Z</time></trkpt><trkpt lat="46.0036633" lon="8.3213797"><ele>216.75</ele><time>2026-04-25T09:27:10.161Z</time></trkpt><trkpt lat="46.0036587" lon="8.3211751"><ele>216.5</ele><time>2026-04-25T09:27:11.154Z</time></trkpt><trkpt lat="46.0036697" lon="8.3209666"><ele>216.25</ele><time>2026-04-25T09:27:12.153Z</time></trkpt><trkpt lat="46.0036668" lon="8.3207666"><ele>216.0</ele><time>2026-04-25T09:27:13.154Z</time></trkpt><trkpt lat="46.003674" lon="8.3205682"><ele>216.0</ele><time>2026-04-25T09:27:14.158Z</time></trkpt><trkpt lat="46.0036678" lon="8.3203711"><ele>216.0</ele><time>2026-04-25T09:27:15.155Z</time></trkpt><trkpt lat="46.0036733" lon="8.3201801"><ele>216.0</ele><time>2026-04-25T09:27:16.156Z</time></trkpt><trkpt lat="46.0036956" lon="8.3199704"><ele>216.0</ele><time>2026-04-25T09:27:17.158Z</time></trkpt><trkpt lat="46.0037089" lon="8.3197734"><ele>216.0</ele><time>2026-04-25T09:27:18.16Z</time></trkpt><trkpt lat="46.0037194" lon="8.3195802"><ele>216.0</ele><time>2026-04-25T09:27:19.158Z</time></trkpt><trkpt lat="46.0037319" lon="8.3193755"><ele>216.0</ele><time>2026-04-25T09:27:20.158Z</time></trkpt><trkpt lat="46.0037245" lon="8.3191691"><ele>216.0</ele><time>2026-04-25T09:27:21.157Z</time></trkpt><trkpt lat="46.0037364" lon="8.3189729"><ele>215.75</ele><time>2026-04-25T09:27:22.161Z</time></trkpt><trkpt lat="46.0037364" lon="8.3187904"><ele>215.5</ele><time>2026-04-25T09:27:23.159Z</time></trkpt><trkpt lat="46.0037479" lon="8.3185828"><ele>215.25</ele><time>2026-04-25T09:27:24.159Z</time></trkpt><trkpt lat="46.0037519" lon="8.3183792"><ele>215.0</ele><time>2026-04-25T09:27:25.159Z</time></trkpt><trkpt lat="46.0037583" lon="8.3181723"><ele>215.25</ele><time>2026-04-25T09:27:26.157Z</time></trkpt><trkpt lat="46.0037555" lon="8.3179744"><ele>215.5</ele><time>2026-04-25T09:27:27.16Z</time></trkpt><trkpt lat="46.0037546" lon="8.3177797"><ele>215.75</ele><time>2026-04-25T09:27:28.16Z</time></trkpt><trkpt lat="46.00376" lon="8.3175844"><ele>216.0</ele><time>2026-04-25T09:27:29.166Z</time></trkpt><trkpt lat="46.0037738" lon="8.3173725"><ele>215.75</ele><time>2026-04-25T09:27:30.157Z</time></trkpt><trkpt lat="46.0037819" lon="8.3171795"><ele>215.5</ele><time>2026-04-25T09:27:31.164Z</time></trkpt><trkpt lat="46.0037828" lon="8.3169876"><ele>215.25</ele><time>2026-04-25T09:27:32.151Z</time></trkpt><trkpt lat="46.0037894" lon="8.3168023"><ele>215.0</ele><time>2026-04-25T09:27:33.157Z</time></trkpt><trkpt lat="46.003798" lon="8.3165991"><ele>215.25</ele><time>2026-04-25T09:27:34.153Z</time></trkpt><trkpt lat="46.0038104" lon="8.3163923"><ele>215.5</ele><time>2026-04-25T09:27:35.154Z</time></trkpt><trkpt lat="46.0038067" lon="8.316196"><ele>215.75</ele><time>2026-04-25T09:27:36.156Z</time></trkpt><trkpt lat="46.0038153" lon="8.3160001"><ele>216.0</ele><time>2026-04-25T09:27:37.158Z</time></trkpt><trkpt lat="46.0038312" lon="8.3157984"><ele>216.0</ele><time>2026-04-25T09:27:38.156Z</time></trkpt><trkpt lat="46.0038349" lon="8.3156013"><ele>216.0</ele><time>2026-04-25T09:27:39.158Z</time></trkpt><trkpt lat="46.0038472" lon="8.3154035"><ele>216.0</ele><time>2026-04-25T09:27:40.161Z</time></trkpt><trkpt lat="46.003847" lon="8.3152103"><ele>216.0</ele><time>2026-04-25T09:27:41.157Z</time></trkpt><trkpt lat="46.0038464" lon="8.3150138"><ele>216.0</ele><time>2026-04-25T09:27:42.158Z</time></trkpt><trkpt lat="46.0038511" lon="8.3148064"><ele>216.0</ele><time>2026-04-25T09:27:43.159Z</time></trkpt><trkpt lat="46.00386" lon="8.3145935"><ele>216.0</ele><time>2026-04-25T09:27:44.156Z</time></trkpt><trkpt lat="46.0038583" lon="8.3143948"><ele>216.0</ele><time>2026-04-25T09:27:45.162Z</time></trkpt><trkpt lat="46.0038623" lon="8.314183"><ele>216.0</ele><time>2026-04-25T09:27:46.157Z</time></trkpt><trkpt lat="46.0038419" lon="8.3139827"><ele>216.0</ele><time>2026-04-25T09:27:47.161Z</time></trkpt><trkpt lat="46.0038484" lon="8.3137814"><ele>216.0</ele><time>2026-04-25T09:27:48.155Z</time></trkpt><trkpt lat="46.0038641" lon="8.3135966"><ele>216.0</ele><time>2026-04-25T09:27:49.156Z</time></trkpt><trkpt lat="46.0038678" lon="8.3134007"><ele>216.0</ele><time>2026-04-25T09:27:50.158Z</time></trkpt><trkpt lat="46.0038751" lon="8.3131995"><ele>216.0</ele><time>2026-04-25T09:27:51.154Z</time></trkpt><trkpt lat="46.0038806" lon="8.3130108"><ele>216.0</ele><time>2026-04-25T09:27:52.157Z</time></trkpt><trkpt lat="46.0038801" lon="8.3128196"><ele>216.0</ele><time>2026-04-25T09:27:53.156Z</time></trkpt><trkpt lat="46.0039007" lon="8.3126156"><ele>216.0</ele><time>2026-04-25T09:27:54.154Z</time></trkpt><trkpt lat="46.003911" lon="8.3124224"><ele>216.0</ele><time>2026-04-25T09:27:55.154Z</time></trkpt><trkpt lat="46.0039134" lon="8.3122292"><ele>216.0</ele><time>2026-04-25T09:27:56.154Z</time></trkpt><trkpt lat="46.0039164" lon="8.3120305"><ele>216.0</ele><time>2026-04-25T09:27:57.157Z</time></trkpt><trkpt lat="46.0039167" lon="8.311837"><ele>216.0</ele><time>2026-04-25T09:27:58.16Z</time></trkpt><trkpt lat="46.0039202" lon="8.3116427"><ele>216.0</ele><time>2026-04-25T09:27:59.157Z</time></trkpt><trkpt lat="46.003929" lon="8.3114502"><ele>216.0</ele><time>2026-04-25T09:28:00.166Z</time></trkpt><trkpt lat="46.003932" lon="8.3112619"><ele>216.0</ele><time>2026-04-25T09:28:01.159Z</time></trkpt><trkpt lat="46.003928" lon="8.3110675"><ele>216.25</ele><time>2026-04-25T09:28:02.163Z</time></trkpt><trkpt lat="46.0039409" lon="8.3108567"><ele>216.5</ele><time>2026-04-25T09:28:03.155Z</time></trkpt><trkpt lat="46.0039401" lon="8.3106685"><ele>216.75</ele><time>2026-04-25T09:28:04.154Z</time></trkpt><trkpt lat="46.0039517" lon="8.3104659"><ele>217.0</ele><time>2026-04-25T09:28:05.154Z</time></trkpt><trkpt lat="46.0039506" lon="8.3102766"><ele>217.0</ele><time>2026-04-25T09:28:06.155Z</time></trkpt><trkpt lat="46.0039433" lon="8.3100879"><ele>217.0</ele><time>2026-04-25T09:28:07.155Z</time></trkpt><trkpt lat="46.0039548" lon="8.3098919"><ele>217.0</ele><time>2026-04-25T09:28:08.154Z</time></trkpt><trkpt lat="46.0039711" lon="8.3096928"><ele>217.0</ele><time>2026-04-25T09:28:09.155Z</time></trkpt><trkpt lat="46.0039788" lon="8.3094949"><ele>217.0</ele><time>2026-04-25T09:28:10.159Z</time></trkpt><trkpt lat="46.0039821" lon="8.3092989"><ele>217.0</ele><time>2026-04-25T09:28:11.153Z</time></trkpt><trkpt lat="46.0039862" lon="8.3090937"><ele>217.0</ele><time>2026-04-25T09:28:12.155Z</time></trkpt><trkpt lat="46.0039975" lon="8.3089019"><ele>217.0</ele><time>2026-04-25T09:28:13.156Z</time></trkpt><trkpt lat="46.0040031" lon="8.3087133"><ele>216.75</ele><time>2026-04-25T09:28:14.156Z</time></trkpt><trkpt lat="46.0040022" lon="8.3085215"><ele>216.5</ele><time>2026-04-25T09:28:15.159Z</time></trkpt><trkpt lat="46.0040083" lon="8.3083186"><ele>216.25</ele><time>2026-04-25T09:28:16.152Z</time></trkpt><trkpt lat="46.0040083" lon="8.3081148"><ele>216.0</ele><time>2026-04-25T09:28:17.16Z</time></trkpt><trkpt lat="46.0040057" lon="8.3079047"><ele>216.0</ele><time>2026-04-25T09:28:18.158Z</time></trkpt><trkpt lat="46.0040114" lon="8.3076946"><ele>216.0</ele><time>2026-04-25T09:28:19.161Z</time></trkpt><trkpt lat="46.0040223" lon="8.3074892"><ele>216.0</ele><time>2026-04-25T09:28:20.159Z</time></trkpt><trkpt lat="46.0040201" lon="8.3072914"><ele>216.0</ele><time>2026-04-25T09:28:21.157Z</time></trkpt><trkpt lat="46.0040262" lon="8.307082"><ele>216.25</ele><time>2026-04-25T09:28:22.161Z</time></trkpt><trkpt lat="46.004031" lon="8.3068618"><ele>216.5</ele><time>2026-04-25T09:28:23.158Z</time></trkpt><trkpt lat="46.0040336" lon="8.3066682"><ele>216.75</ele><time>2026-04-25T09:28:24.159Z</time></trkpt><trkpt lat="46.0040417" lon="8.3064468"><ele>217.0</ele><time>2026-04-25T09:28:25.165Z</time></trkpt><trkpt lat="46.0040487" lon="8.3062415"><ele>217.0</ele><time>2026-04-25T09:28:26.157Z</time></trkpt><trkpt lat="46.0040592" lon="8.306033"><ele>217.0</ele><time>2026-04-25T09:28:27.155Z</time></trkpt><trkpt lat="46.004061" lon="8.3058162"><ele>217.0</ele><time>2026-04-25T09:28:28.156Z</time></trkpt><trkpt lat="46.0040687" lon="8.3056094"><ele>217.0</ele><time>2026-04-25T09:28:29.156Z</time></trkpt><trkpt lat="46.0040851" lon="8.3054006"><ele>217.0</ele><time>2026-04-25T09:28:30.158Z</time></trkpt><trkpt lat="46.0040945" lon="8.3051918"><ele>217.0</ele><time>2026-04-25T09:28:31.169Z</time></trkpt><trkpt lat="46.004101" lon="8.3049747"><ele>217.0</ele><time>2026-04-25T09:28:32.163Z</time></trkpt><trkpt lat="46.0040925" lon="8.3047684"><ele>217.0</ele><time>2026-04-25T09:28:33.167Z</time></trkpt><trkpt lat="46.0040923" lon="8.3045665"><ele>217.5</ele><time>2026-04-25T09:28:34.159Z</time></trkpt><trkpt lat="46.0041041" lon="8.3043391"><ele>218.0</ele><time>2026-04-25T09:28:35.158Z</time></trkpt><trkpt lat="46.0041102" lon="8.3041442"><ele>218.5</ele><time>2026-04-25T09:28:36.159Z</time></trkpt><trkpt lat="46.00413" lon="8.3039439"><ele>219.0</ele><time>2026-04-25T09:28:37.16Z</time></trkpt><trkpt lat="46.0041421" lon="8.3037555"><ele>219.25</ele><time>2026-04-25T09:28:38.164Z</time></trkpt><trkpt lat="46.0041489" lon="8.3035623"><ele>219.5</ele><time>2026-04-25T09:28:39.159Z</time></trkpt><trkpt lat="46.0041578" lon="8.3033548"><ele>219.75</ele><time>2026-04-25T09:28:40.169Z</time></trkpt><trkpt lat="46.0041616" lon="8.3031516"><ele>220.0</ele><time>2026-04-25T09:28:41.157Z</time></trkpt><trkpt lat="46.0041603" lon="8.3029259"><ele>219.5</ele><time>2026-04-25T09:28:42.163Z</time></trkpt><trkpt lat="46.0041477" lon="8.302728"><ele>219.0</ele><time>2026-04-25T09:28:43.157Z</time></trkpt><trkpt lat="46.0041482" lon="8.3025145"><ele>218.5</ele><time>2026-04-25T09:28:44.161Z</time></trkpt><trkpt lat="46.0041555" lon="8.3023191"><ele>218.0</ele><time>2026-04-25T09:28:45.159Z</time></trkpt><trkpt lat="46.0041492" lon="8.3021148"><ele>218.0</ele><time>2026-04-25T09:28:46.162Z</time></trkpt><trkpt lat="46.0041485" lon="8.3019225"><ele>218.0</ele><time>2026-04-25T09:28:47.161Z</time></trkpt><trkpt lat="46.0041561" lon="8.3017405"><ele>218.0</ele><time>2026-04-25T09:28:48.16Z</time></trkpt><trkpt lat="46.0041668" lon="8.3015434"><ele>218.0</ele><time>2026-04-25T09:28:49.159Z</time></trkpt><trkpt lat="46.0041744" lon="8.3013403"><ele>218.0</ele><time>2026-04-25T09:28:50.159Z</time></trkpt><trkpt lat="46.0041831" lon="8.3011482"><ele>218.0</ele><time>2026-04-25T09:28:51.166Z</time></trkpt><trkpt lat="46.0041991" lon="8.3009471"><ele>218.0</ele><time>2026-04-25T09:28:52.168Z</time></trkpt><trkpt lat="46.0042053" lon="8.3007525"><ele>218.0</ele><time>2026-04-25T09:28:53.164Z</time></trkpt><trkpt lat="46.0042143" lon="8.3005514"><ele>218.25</ele><time>2026-04-25T09:28:54.159Z</time></trkpt><trkpt lat="46.0042111" lon="8.300345"><ele>218.5</ele><time>2026-04-25T09:28:55.166Z</time></trkpt><trkpt lat="46.004212" lon="8.3001513"><ele>218.75</ele><time>2026-04-25T09:28:56.161Z</time></trkpt><trkpt lat="46.0042209" lon="8.2999634"><ele>219.0</ele><time>2026-04-25T09:28:57.163Z</time></trkpt><trkpt lat="46.0042313" lon="8.2997729"><ele>219.5</ele><time>2026-04-25T09:28:58.159Z</time></trkpt><trkpt lat="46.0042525" lon="8.2995934"><ele>220.0</ele><time>2026-04-25T09:28:59.161Z</time></trkpt><trkpt lat="46.0042892" lon="8.2994129"><ele>220.5</ele><time>2026-04-25T09:29:00.156Z</time></trkpt><trkpt lat="46.0043559" lon="8.299256"><ele>221.0</ele><time>2026-04-25T09:29:01.16Z</time></trkpt><trkpt lat="46.0044312" lon="8.2990829"><ele>220.75</ele><time>2026-04-25T09:29:02.17Z</time></trkpt><trkpt lat="46.004518" lon="8.2989161"><ele>220.5</ele><time>2026-04-25T09:29:03.159Z</time></trkpt><trkpt lat="46.0045996" lon="8.2987579"><ele>220.25</ele><time>2026-04-25T09:29:04.175Z</time></trkpt><trkpt lat="46.0046756" lon="8.2986042"><ele>220.0</ele><time>2026-04-25T09:29:05.162Z</time></trkpt><trkpt lat="46.0047578" lon="8.298442"><ele>220.0</ele><time>2026-04-25T09:29:06.16Z</time></trkpt><trkpt lat="46.0048519" lon="8.298272"><ele>220.0</ele><time>2026-04-25T09:29:07.165Z</time></trkpt><trkpt lat="46.0049258" lon="8.2981127"><ele>220.0</ele><time>2026-04-25T09:29:08.162Z</time></trkpt><trkpt lat="46.0050107" lon="8.2979473"><ele>220.0</ele><time>2026-04-25T09:29:09.163Z</time></trkpt><trkpt lat="46.005089" lon="8.2977926"><ele>220.0</ele><time>2026-04-25T09:29:10.17Z</time></trkpt><trkpt lat="46.0051777" lon="8.2976276"><ele>220.0</ele><time>2026-04-25T09:29:11.161Z</time></trkpt><trkpt lat="46.0052559" lon="8.2974636"><ele>220.0</ele><time>2026-04-25T09:29:12.169Z</time></trkpt><trkpt lat="46.0053341" lon="8.2973063"><ele>220.0</ele><time>2026-04-25T09:29:13.164Z</time></trkpt><trkpt lat="46.0054201" lon="8.2971376"><ele>220.0</ele><time>2026-04-25T09:29:14.167Z</time></trkpt><trkpt lat="46.0054983" lon="8.2969705"><ele>220.0</ele><time>2026-04-25T09:29:15.16Z</time></trkpt><trkpt lat="46.0055962" lon="8.2968139"><ele>220.0</ele><time>2026-04-25T09:29:16.16Z</time></trkpt><trkpt lat="46.0056808" lon="8.2966453"><ele>220.0</ele><time>2026-04-25T09:29:17.156Z</time></trkpt><trkpt lat="46.0057717" lon="8.2964803"><ele>220.5</ele><time>2026-04-25T09:29:18.161Z</time></trkpt><trkpt lat="46.0058565" lon="8.2963191"><ele>221.0</ele><time>2026-04-25T09:29:19.165Z</time></trkpt><trkpt lat="46.0059606" lon="8.2961672"><ele>221.5</ele><time>2026-04-25T09:29:20.165Z</time></trkpt><trkpt lat="46.0060485" lon="8.2959813"><ele>222.0</ele><time>2026-04-25T09:29:21.169Z</time></trkpt><trkpt lat="46.0061269" lon="8.295824"><ele>222.0</ele><time>2026-04-25T09:29:22.164Z</time></trkpt><trkpt lat="46.0062131" lon="8.2956592"><ele>222.0</ele><time>2026-04-25T09:29:23.165Z</time></trkpt><trkpt lat="46.0063001" lon="8.2954974"><ele>222.0</ele><time>2026-04-25T09:29:24.164Z</time></trkpt><trkpt lat="46.0063777" lon="8.2953472"><ele>222.0</ele><time>2026-04-25T09:29:25.171Z</time></trkpt><trkpt lat="46.0064581" lon="8.2951828"><ele>221.75</ele><time>2026-04-25T09:29:26.164Z</time></trkpt><trkpt lat="46.0065365" lon="8.2950266"><ele>221.5</ele><time>2026-04-25T09:29:27.162Z</time></trkpt><trkpt lat="46.0066212" lon="8.2948636"><ele>221.25</ele><time>2026-04-25T09:29:28.162Z</time></trkpt><trkpt lat="46.0067182" lon="8.2947211"><ele>221.0</ele><time>2026-04-25T09:29:29.156Z</time></trkpt><trkpt lat="46.0067912" lon="8.2945593"><ele>221.0</ele><time>2026-04-25T09:29:30.158Z</time></trkpt><trkpt lat="46.0068655" lon="8.2943977"><ele>221.0</ele><time>2026-04-25T09:29:31.158Z</time></trkpt><trkpt lat="46.0069415" lon="8.2942379"><ele>221.0</ele><time>2026-04-25T09:29:32.157Z</time></trkpt><trkpt lat="46.0070015" lon="8.294066"><ele>221.0</ele><time>2026-04-25T09:29:33.169Z</time></trkpt><trkpt lat="46.0070833" lon="8.2939139"><ele>221.0</ele><time>2026-04-25T09:29:34.159Z</time></trkpt><trkpt lat="46.0071733" lon="8.2937712"><ele>221.0</ele><time>2026-04-25T09:29:35.179Z</time></trkpt><trkpt lat="46.0072607" lon="8.2936186"><ele>221.0</ele><time>2026-04-25T09:29:36.16Z</time></trkpt><trkpt lat="46.0073402" lon="8.2934627"><ele>221.0</ele><time>2026-04-25T09:29:37.159Z</time></trkpt><trkpt lat="46.0074048" lon="8.2933335"><ele>221.0</ele><time>2026-04-25T09:29:38.159Z</time></trkpt><trkpt lat="46.0074814" lon="8.2932161"><ele>221.0</ele><time>2026-04-25T09:29:39.161Z</time></trkpt><trkpt lat="46.0075562" lon="8.2930876"><ele>221.0</ele><time>2026-04-25T09:29:40.16Z</time></trkpt><trkpt lat="46.0076271" lon="8.2929658"><ele>221.0</ele><time>2026-04-25T09:29:41.156Z</time></trkpt><trkpt lat="46.0077143" lon="8.2928585"><ele>221.4</ele><time>2026-04-25T09:29:42.155Z</time></trkpt><trkpt lat="46.0078054" lon="8.2927618"><ele>221.8</ele><time>2026-04-25T09:29:43.159Z</time></trkpt><trkpt lat="46.0079004" lon="8.292675"><ele>222.20000000000002</ele><time>2026-04-25T09:29:44.156Z</time></trkpt><trkpt lat="46.0079804" lon="8.2926067"><ele>222.60000000000002</ele><time>2026-04-25T09:29:45.158Z</time></trkpt><trkpt lat="46.0080574" lon="8.2925595"><ele>223.0</ele><time>2026-04-25T09:29:46.159Z</time></trkpt><trkpt lat="46.0081437" lon="8.2925104"><ele>222.99999999999997</ele><time>2026-04-25T09:29:47.177Z</time></trkpt><trkpt lat="46.0082294" lon="8.2924666"><ele>223.0</ele><time>2026-04-25T09:29:48.165Z</time></trkpt><trkpt lat="46.008318" lon="8.2924172"><ele>223.0</ele><time>2026-04-25T09:29:49.167Z</time></trkpt><trkpt lat="46.0083839" lon="8.2923714"><ele>223.0</ele><time>2026-04-25T09:29:50.162Z</time></trkpt><trkpt lat="46.0084522" lon="8.2923065"><ele>222.99999999999997</ele><time>2026-04-25T09:29:52.164Z</time></trkpt><trkpt lat="46.0084089" lon="8.2922041"><ele>223.0</ele><time>2026-04-25T09:29:55.175Z</time></trkpt><trkpt lat="46.008348" lon="8.2921266"><ele>222.8</ele><time>2026-04-25T09:29:56.163Z</time></trkpt><trkpt lat="46.0082905" lon="8.2920355"><ele>222.60000000000002</ele><time>2026-04-25T09:29:57.162Z</time></trkpt><trkpt lat="46.0082321" lon="8.2919399"><ele>222.39999999999998</ele><time>2026-04-25T09:29:59.161Z</time></trkpt><trkpt lat="46.0082062" lon="8.2918053"><ele>222.2</ele><time>2026-04-25T09:30:01.159Z</time></trkpt><trkpt lat="46.0082151" lon="8.2916353"><ele>222.0</ele><time>2026-04-25T09:30:03.16Z</time></trkpt><trkpt lat="46.0082026" lon="8.291499"><ele>221.5</ele><time>2026-04-25T09:30:05.172Z</time></trkpt><trkpt lat="46.0081693" lon="8.2913639"><ele>221.0</ele><time>2026-04-25T09:30:07.161Z</time></trkpt><trkpt lat="46.0081252" lon="8.2912802"><ele>220.5</ele><time>2026-04-25T09:30:08.158Z</time></trkpt><trkpt lat="46.0080776" lon="8.2911863"><ele>220.0</ele><time>2026-04-25T09:30:09.158Z</time></trkpt><trkpt lat="46.0080335" lon="8.2910786"><ele>219.5</ele><time>2026-04-25T09:30:10.158Z</time></trkpt><trkpt lat="46.0079976" lon="8.2910037"><ele>219.0</ele><time>2026-04-25T09:30:11.156Z</time></trkpt><trkpt lat="46.008012" lon="8.2908673"><ele>219.0</ele><time>2026-04-25T09:30:13.157Z</time></trkpt><trkpt lat="46.0080706" lon="8.290797"><ele>218.99999999999997</ele><time>2026-04-25T09:30:14.158Z</time></trkpt><trkpt lat="46.0081461" lon="8.2907203"><ele>218.99999999999997</ele><time>2026-04-25T09:30:15.163Z</time></trkpt><trkpt lat="46.0082372" lon="8.2906293"><ele>219.0</ele><time>2026-04-25T09:30:16.161Z</time></trkpt><trkpt lat="46.0083299" lon="8.2905461"><ele>219.0</ele><time>2026-04-25T09:30:17.162Z</time></trkpt><trkpt lat="46.0084164" lon="8.2904585"><ele>219.0</ele><time>2026-04-25T09:30:18.164Z</time></trkpt><trkpt lat="46.0085082" lon="8.2903649"><ele>219.0</ele><time>2026-04-25T09:30:19.167Z</time></trkpt><trkpt lat="46.0085988" lon="8.2902785"><ele>219.0</ele><time>2026-04-25T09:30:20.241Z</time></trkpt><trkpt lat="46.0086918" lon="8.2901836"><ele>219.0</ele><time>2026-04-25T09:30:21.247Z</time></trkpt><trkpt lat="46.0087858" lon="8.2900877"><ele>219.0</ele><time>2026-04-25T09:30:22.243Z</time></trkpt><trkpt lat="46.0088769" lon="8.2899919"><ele>218.99999999999997</ele><time>2026-04-25T09:30:23.235Z</time></trkpt><trkpt lat="46.0089617" lon="8.2898914"><ele>218.99999999999997</ele><time>2026-04-25T09:30:24.239Z</time></trkpt><trkpt lat="46.009045" lon="8.2897947"><ele>219.0</ele><time>2026-04-25T09:30:25.252Z</time></trkpt><trkpt lat="46.0091308" lon="8.2896988"><ele>219.0</ele><time>2026-04-25T09:30:26.241Z</time></trkpt><trkpt lat="46.0092141" lon="8.2895995"><ele>219.39999999999998</ele><time>2026-04-25T09:30:27.245Z</time></trkpt><trkpt lat="46.0092971" lon="8.2895035"><ele>219.79999999999998</ele><time>2026-04-25T09:30:28.247Z</time></trkpt><trkpt lat="46.0093867" lon="8.2894055"><ele>220.20000000000002</ele><time>2026-04-25T09:30:29.242Z</time></trkpt><trkpt lat="46.0094672" lon="8.2893121"><ele>220.60000000000002</ele><time>2026-04-25T09:30:30.247Z</time></trkpt><trkpt lat="46.0095453" lon="8.2892102"><ele>221.0</ele><time>2026-04-25T09:30:31.245Z</time></trkpt><trkpt lat="46.0096326" lon="8.2891127"><ele>221.0</ele><time>2026-04-25T09:30:32.242Z</time></trkpt><trkpt lat="46.0097194" lon="8.2890196"><ele>221.00000000000003</ele><time>2026-04-25T09:30:33.24Z</time></trkpt><trkpt lat="46.0098068" lon="8.2889281"><ele>221.00000000000003</ele><time>2026-04-25T09:30:34.239Z</time></trkpt><trkpt lat="46.0098937" lon="8.2888394"><ele>221.0</ele><time>2026-04-25T09:30:35.25Z</time></trkpt><trkpt lat="46.0099763" lon="8.2887483"><ele>221.0</ele><time>2026-04-25T09:30:36.254Z</time></trkpt><trkpt lat="46.0100601" lon="8.2886576"><ele>221.0</ele><time>2026-04-25T09:30:37.227Z</time></trkpt><trkpt lat="46.0101464" lon="8.2885628"><ele>221.00000000000003</ele><time>2026-04-25T09:30:38.233Z</time></trkpt><trkpt lat="46.010231" lon="8.2884613"><ele>221.00000000000003</ele><time>2026-04-25T09:30:39.233Z</time></trkpt><trkpt lat="46.0103166" lon="8.2883587"><ele>221.0</ele><time>2026-04-25T09:30:40.237Z</time></trkpt><trkpt lat="46.0104063" lon="8.2882615"><ele>221.0</ele><time>2026-04-25T09:30:41.236Z</time></trkpt><trkpt lat="46.0104928" lon="8.2881678"><ele>221.0</ele><time>2026-04-25T09:30:42.235Z</time></trkpt><trkpt lat="46.0105796" lon="8.2880734"><ele>221.00000000000003</ele><time>2026-04-25T09:30:43.238Z</time></trkpt><trkpt lat="46.0106673" lon="8.287979"><ele>221.00000000000003</ele><time>2026-04-25T09:30:44.234Z</time></trkpt><trkpt lat="46.0107579" lon="8.2878858"><ele>221.0</ele><time>2026-04-25T09:30:45.235Z</time></trkpt><trkpt lat="46.0108468" lon="8.287793"><ele>221.0</ele><time>2026-04-25T09:30:46.235Z</time></trkpt><trkpt lat="46.0109372" lon="8.287703"><ele>221.0</ele><time>2026-04-25T09:30:47.238Z</time></trkpt><trkpt lat="46.0110303" lon="8.2876124"><ele>221.00000000000003</ele><time>2026-04-25T09:30:48.234Z</time></trkpt><trkpt lat="46.0111097" lon="8.2875244"><ele>221.00000000000003</ele><time>2026-04-25T09:30:49.238Z</time></trkpt><trkpt lat="46.011188" lon="8.2874342"><ele>221.0</ele><time>2026-04-25T09:30:50.235Z</time></trkpt><trkpt lat="46.0112636" lon="8.2873363"><ele>221.0</ele><time>2026-04-25T09:30:51.233Z</time></trkpt><trkpt lat="46.0113438" lon="8.2872348"><ele>221.33333333333334</ele><time>2026-04-25T09:30:52.234Z</time></trkpt><trkpt lat="46.01144" lon="8.287132"><ele>221.66666666666669</ele><time>2026-04-25T09:30:53.234Z</time></trkpt><trkpt lat="46.0116388" lon="8.2869123"><ele>222.0</ele><time>2026-04-25T09:30:55.143Z</time></trkpt><trkpt lat="46.0117484" lon="8.2868007"><ele>222.0</ele><time>2026-04-25T09:30:56.14Z</time></trkpt><trkpt lat="46.0118432" lon="8.2867065"><ele>222.0</ele><time>2026-04-25T09:30:57.14Z</time></trkpt><trkpt lat="46.0119285" lon="8.2866236"><ele>222.0</ele><time>2026-04-25T09:30:58.136Z</time></trkpt><trkpt lat="46.0120121" lon="8.2865154"><ele>222.0</ele><time>2026-04-25T09:30:59.147Z</time></trkpt><trkpt lat="46.0120791" lon="8.2864071"><ele>222.0</ele><time>2026-04-25T09:31:00.149Z</time></trkpt><trkpt lat="46.0121321" lon="8.286297"><ele>222.0</ele><time>2026-04-25T09:31:01.146Z</time></trkpt><trkpt lat="46.012175" lon="8.2861959"><ele>222.0</ele><time>2026-04-25T09:31:02.142Z</time></trkpt><trkpt lat="46.0122292" lon="8.2861111"><ele>222.0</ele><time>2026-04-25T09:31:03.144Z</time></trkpt><trkpt lat="46.0122913" lon="8.2860487"><ele>222.0</ele><time>2026-04-25T09:31:04.143Z</time></trkpt><trkpt lat="46.0123688" lon="8.2860183"><ele>222.0</ele><time>2026-04-25T09:31:05.149Z</time></trkpt><trkpt lat="46.0124769" lon="8.2859774"><ele>222.0</ele><time>2026-04-25T09:31:06.155Z</time></trkpt><trkpt lat="46.0125843" lon="8.2859252"><ele>222.0</ele><time>2026-04-25T09:31:07.155Z</time></trkpt><trkpt lat="46.0127044" lon="8.2858338"><ele>222.0</ele><time>2026-04-25T09:31:08.147Z</time></trkpt><trkpt lat="46.0128251" lon="8.2857236"><ele>222.0</ele><time>2026-04-25T09:31:09.148Z</time></trkpt><trkpt lat="46.0129343" lon="8.285631"><ele>222.0</ele><time>2026-04-25T09:31:10.153Z</time></trkpt><trkpt lat="46.0130399" lon="8.2855553"><ele>221.8</ele><time>2026-04-25T09:31:11.14Z</time></trkpt><trkpt lat="46.0131158" lon="8.2854945"><ele>221.6</ele><time>2026-04-25T09:31:12.144Z</time></trkpt><trkpt lat="46.0131984" lon="8.2854065"><ele>221.40000000000003</ele><time>2026-04-25T09:31:14.142Z</time></trkpt><trkpt lat="46.0131606" lon="8.2852802"><ele>221.20000000000002</ele><time>2026-04-25T09:31:17.153Z</time></trkpt><trkpt lat="46.0131074" lon="8.2851993"><ele>221.0</ele><time>2026-04-25T09:31:18.149Z</time></trkpt><trkpt lat="46.0130445" lon="8.2850926"><ele>221.0</ele><time>2026-04-25T09:31:19.144Z</time></trkpt><trkpt lat="46.0129762" lon="8.2849591"><ele>221.0</ele><time>2026-04-25T09:31:20.146Z</time></trkpt><trkpt lat="46.0129155" lon="8.2848049"><ele>221.0</ele><time>2026-04-25T09:31:21.146Z</time></trkpt><trkpt lat="46.0128402" lon="8.2846402"><ele>221.0</ele><time>2026-04-25T09:31:22.152Z</time></trkpt><trkpt lat="46.0127433" lon="8.2844713"><ele>221.5</ele><time>2026-04-25T09:31:23.149Z</time></trkpt><trkpt lat="46.0126387" lon="8.2843412"><ele>222.0</ele><time>2026-04-25T09:31:24.148Z</time></trkpt><trkpt lat="46.0125375" lon="8.2842301"><ele>222.5</ele><time>2026-04-25T09:31:25.152Z</time></trkpt><trkpt lat="46.0124343" lon="8.284131"><ele>223.0</ele><time>2026-04-25T09:31:26.152Z</time></trkpt><trkpt lat="46.012351" lon="8.284035"><ele>223.0</ele><time>2026-04-25T09:31:27.151Z</time></trkpt><trkpt lat="46.0122597" lon="8.2839599"><ele>223.0</ele><time>2026-04-25T09:31:28.154Z</time></trkpt><trkpt lat="46.0121613" lon="8.2838803"><ele>223.0</ele><time>2026-04-25T09:31:29.149Z</time></trkpt><trkpt lat="46.0120395" lon="8.2838638"><ele>223.0</ele><time>2026-04-25T09:31:30.151Z</time></trkpt><trkpt lat="46.0119285" lon="8.2838364"><ele>223.0</ele><time>2026-04-25T09:31:31.151Z</time></trkpt><trkpt lat="46.011811" lon="8.2838209"><ele>223.0</ele><time>2026-04-25T09:31:32.152Z</time></trkpt><trkpt lat="46.0116854" lon="8.2838216"><ele>223.0</ele><time>2026-04-25T09:31:33.149Z</time></trkpt><trkpt lat="46.0115536" lon="8.283819"><ele>223.0</ele><time>2026-04-25T09:31:34.154Z</time></trkpt><trkpt lat="46.0114201" lon="8.2838249"><ele>223.0</ele><time>2026-04-25T09:31:35.153Z</time></trkpt><trkpt lat="46.0112864" lon="8.2838304"><ele>223.0</ele><time>2026-04-25T09:31:36.155Z</time></trkpt><trkpt lat="46.0111596" lon="8.283836"><ele>223.0</ele><time>2026-04-25T09:31:37.158Z</time></trkpt><trkpt lat="46.011044" lon="8.2838374"><ele>223.0</ele><time>2026-04-25T09:31:38.16Z</time></trkpt><trkpt lat="46.0109379" lon="8.2838192"><ele>222.60000000000002</ele><time>2026-04-25T09:31:39.156Z</time></trkpt><trkpt lat="46.0108228" lon="8.2837794"><ele>222.20000000000002</ele><time>2026-04-25T09:31:40.153Z</time></trkpt><trkpt lat="46.0107155" lon="8.2837323"><ele>221.8</ele><time>2026-04-25T09:31:41.152Z</time></trkpt><trkpt lat="46.0106152" lon="8.2836714"><ele>221.4</ele><time>2026-04-25T09:31:42.151Z</time></trkpt><trkpt lat="46.0105164" lon="8.2836328"><ele>221.0</ele><time>2026-04-25T09:31:43.16Z</time></trkpt><trkpt lat="46.0104161" lon="8.283626"><ele>221.0</ele><time>2026-04-25T09:31:44.155Z</time></trkpt><trkpt lat="46.0103092" lon="8.2836338"><ele>221.00000000000003</ele><time>2026-04-25T09:31:45.158Z</time></trkpt><trkpt lat="46.0101981" lon="8.2836517"><ele>221.00000000000003</ele><time>2026-04-25T09:31:46.157Z</time></trkpt><trkpt lat="46.0100904" lon="8.2836541"><ele>221.0</ele><time>2026-04-25T09:31:47.158Z</time></trkpt><trkpt lat="46.0099957" lon="8.2836786"><ele>221.0</ele><time>2026-04-25T09:31:48.157Z</time></trkpt><trkpt lat="46.0099057" lon="8.2836966"><ele>220.8</ele><time>2026-04-25T09:31:49.158Z</time></trkpt><trkpt lat="46.0098164" lon="8.2837186"><ele>220.60000000000002</ele><time>2026-04-25T09:31:50.156Z</time></trkpt><trkpt lat="46.009719" lon="8.2837482"><ele>220.4</ele><time>2026-04-25T09:31:51.156Z</time></trkpt><trkpt lat="46.0096189" lon="8.2837701"><ele>220.2</ele><time>2026-04-25T09:31:52.156Z</time></trkpt><trkpt lat="46.0095321" lon="8.2837837"><ele>220.0</ele><time>2026-04-25T09:31:53.156Z</time></trkpt><trkpt lat="46.0094602" lon="8.2838108"><ele>219.99999999999997</ele><time>2026-04-25T09:31:54.156Z</time></trkpt><trkpt lat="46.0093859" lon="8.2838919"><ele>220.0</ele><time>2026-04-25T09:31:56.161Z</time></trkpt><trkpt lat="46.0093858" lon="8.2839985"><ele>220.0</ele><time>2026-04-25T09:31:57.153Z</time></trkpt><trkpt lat="46.0093985" lon="8.2841172"><ele>220.0</ele><time>2026-04-25T09:31:58.154Z</time></trkpt><trkpt lat="46.0094199" lon="8.2842217"><ele>219.99999999999997</ele><time>2026-04-25T09:31:59.153Z</time></trkpt><trkpt lat="46.0093971" lon="8.28431"><ele>220.0</ele><time>2026-04-25T09:32:01.159Z</time></trkpt><trkpt lat="46.0093341" lon="8.2842637"><ele>220.0</ele><time>2026-04-25T09:32:03.168Z</time></trkpt><trkpt lat="46.0092875" lon="8.2841027"><ele>220.0</ele><time>2026-04-25T09:32:05.159Z</time></trkpt><trkpt lat="46.0092741" lon="8.2840099"><ele>220.0</ele><time>2026-04-25T09:32:06.159Z</time></trkpt><trkpt lat="46.0092612" lon="8.283835"><ele>220.0</ele><time>2026-04-25T09:32:08.17Z</time></trkpt><trkpt lat="46.0092608" lon="8.2836839"><ele>220.0</ele><time>2026-04-25T09:32:09.161Z</time></trkpt><trkpt lat="46.0092561" lon="8.2835081"><ele>220.0</ele><time>2026-04-25T09:32:10.16Z</time></trkpt><trkpt lat="46.0092676" lon="8.2833215"><ele>220.0</ele><time>2026-04-25T09:32:11.157Z</time></trkpt><trkpt lat="46.0092799" lon="8.2831342"><ele>220.0</ele><time>2026-04-25T09:32:12.156Z</time></trkpt><trkpt lat="46.0092908" lon="8.2829643"><ele>220.0</ele><time>2026-04-25T09:32:13.155Z</time></trkpt><trkpt lat="46.0093017" lon="8.2828107"><ele>219.8</ele><time>2026-04-25T09:32:14.156Z</time></trkpt><trkpt lat="46.0093144" lon="8.2826693"><ele>219.6</ele><time>2026-04-25T09:32:15.157Z</time></trkpt><trkpt lat="46.0093222" lon="8.2825404"><ele>219.39999999999998</ele><time>2026-04-25T09:32:16.156Z</time></trkpt><trkpt lat="46.0093309" lon="8.2824086"><ele>219.2</ele><time>2026-04-25T09:32:17.159Z</time></trkpt><trkpt lat="46.0093416" lon="8.282284"><ele>219.0</ele><time>2026-04-25T09:32:18.155Z</time></trkpt><trkpt lat="46.0093466" lon="8.2821567"><ele>219.0</ele><time>2026-04-25T09:32:19.155Z</time></trkpt><trkpt lat="46.0093495" lon="8.2820288"><ele>218.99999999999997</ele><time>2026-04-25T09:32:20.159Z</time></trkpt><trkpt lat="46.0093548" lon="8.2819018"><ele>218.99999999999997</ele><time>2026-04-25T09:32:21.158Z</time></trkpt><trkpt lat="46.0093574" lon="8.2817704"><ele>219.0</ele><time>2026-04-25T09:32:22.159Z</time></trkpt><trkpt lat="46.0093643" lon="8.2816391"><ele>219.0</ele><time>2026-04-25T09:32:23.16Z</time></trkpt><trkpt lat="46.0093731" lon="8.2815071"><ele>219.66666666666666</ele><time>2026-04-25T09:32:24.163Z</time></trkpt><trkpt lat="46.0093803" lon="8.2813771"><ele>220.33333333333331</ele><time>2026-04-25T09:32:25.161Z</time></trkpt><trkpt lat="46.0093919" lon="8.2812632"><ele>221.0</ele><time>2026-04-25T09:32:26.156Z</time></trkpt><trkpt lat="46.0094238" lon="8.2811563"><ele>221.66666666666666</ele><time>2026-04-25T09:32:27.157Z</time></trkpt><trkpt lat="46.0094358" lon="8.281063"><ele>222.33333333333331</ele><time>2026-04-25T09:32:28.156Z</time></trkpt><trkpt lat="46.009464" lon="8.2809186"><ele>223.0</ele><time>2026-04-25T09:32:30.153Z</time></trkpt><trkpt lat="46.0094717" lon="8.2808267"><ele>222.99999999999997</ele><time>2026-04-25T09:32:32.161Z</time></trkpt><trkpt lat="46.0094978" lon="8.2806986"><ele>223.0</ele><time>2026-04-25T09:32:35.155Z</time></trkpt><trkpt lat="46.0095678" lon="8.2807228"><ele>223.0</ele><time>2026-04-25T09:32:37.161Z</time></trkpt><trkpt lat="46.0096012" lon="8.2808353"><ele>223.0</ele><time>2026-04-25T09:32:39.171Z</time></trkpt><trkpt lat="46.0096489" lon="8.2809775"><ele>222.99999999999997</ele><time>2026-04-25T09:32:41.148Z</time></trkpt><trkpt lat="46.0097129" lon="8.2810313"><ele>223.0</ele><time>2026-04-25T09:32:43.161Z</time></trkpt><trkpt lat="46.0098379" lon="8.2810301"><ele>223.0</ele><time>2026-04-25T09:32:45.153Z</time></trkpt><trkpt lat="46.0099354" lon="8.2810736"><ele>223.0</ele><time>2026-04-25T09:32:46.142Z</time></trkpt><trkpt lat="46.0100216" lon="8.2811252"><ele>223.0</ele><time>2026-04-25T09:32:47.159Z</time></trkpt><trkpt lat="46.0100994" lon="8.2811455"><ele>223.0</ele><time>2026-04-25T09:32:48.151Z</time></trkpt><trkpt lat="46.0101946" lon="8.281143"><ele>223.0</ele><time>2026-04-25T09:32:49.151Z</time></trkpt><trkpt lat="46.0103115" lon="8.2811071"><ele>222.66666666666666</ele><time>2026-04-25T09:32:50.16Z</time></trkpt><trkpt lat="46.0104043" lon="8.2810808"><ele>222.33333333333331</ele><time>2026-04-25T09:32:51.162Z</time></trkpt><trkpt lat="46.0104929" lon="8.2810692"><ele>222.0</ele><time>2026-04-25T09:32:52.161Z</time></trkpt><trkpt lat="46.0105795" lon="8.2810461"><ele>221.66666666666669</ele><time>2026-04-25T09:32:53.158Z</time></trkpt><trkpt lat="46.0106634" lon="8.2810298"><ele>221.33333333333334</ele><time>2026-04-25T09:32:54.163Z</time></trkpt><trkpt lat="46.0107391" lon="8.2810117"><ele>221.0</ele><time>2026-04-25T09:32:55.161Z</time></trkpt><trkpt lat="46.0108193" lon="8.28101"><ele>220.66666666666669</ele><time>2026-04-25T09:32:56.159Z</time></trkpt><trkpt lat="46.0108977" lon="8.2809936"><ele>220.33333333333334</ele><time>2026-04-25T09:32:57.156Z</time></trkpt><trkpt lat="46.0109746" lon="8.2809769"><ele>220.0</ele><time>2026-04-25T09:32:58.157Z</time></trkpt><trkpt lat="46.0110474" lon="8.2809591"><ele>219.66666666666669</ele><time>2026-04-25T09:32:59.155Z</time></trkpt><trkpt lat="46.0111255" lon="8.2809315"><ele>219.33333333333334</ele><time>2026-04-25T09:33:00.156Z</time></trkpt><trkpt lat="46.0112006" lon="8.2808948"><ele>219.0</ele><time>2026-04-25T09:33:01.156Z</time></trkpt><trkpt lat="46.0112786" lon="8.280833"><ele>219.0</ele><time>2026-04-25T09:33:02.154Z</time></trkpt><trkpt lat="46.0113671" lon="8.2807692"><ele>218.99999999999997</ele><time>2026-04-25T09:33:03.158Z</time></trkpt><trkpt lat="46.0114567" lon="8.2807141"><ele>218.99999999999997</ele><time>2026-04-25T09:33:04.15Z</time></trkpt><trkpt lat="46.0115457" lon="8.2807091"><ele>219.0</ele><time>2026-04-25T09:33:05.158Z</time></trkpt><trkpt lat="46.0116499" lon="8.2807651"><ele>219.0</ele><time>2026-04-25T09:33:06.149Z</time></trkpt><trkpt lat="46.011781" lon="8.2808107"><ele>219.66666666666669</ele><time>2026-04-25T09:33:07.154Z</time></trkpt><trkpt lat="46.0119279" lon="8.2808595"><ele>220.33333333333334</ele><time>2026-04-25T09:33:08.15Z</time></trkpt><trkpt lat="46.0121228" lon="8.28089"><ele>221.0</ele><time>2026-04-25T09:33:09.154Z</time></trkpt><trkpt lat="46.0122518" lon="8.2809288"><ele>221.0</ele><time>2026-04-25T09:33:10.17Z</time></trkpt><trkpt lat="46.0123784" lon="8.2809432"><ele>221.0</ele><time>2026-04-25T09:33:11.165Z</time></trkpt><trkpt lat="46.012494" lon="8.2809279"><ele>221.0</ele><time>2026-04-25T09:33:12.154Z</time></trkpt><trkpt lat="46.0126152" lon="8.2809117"><ele>221.0</ele><time>2026-04-25T09:33:13.154Z</time></trkpt><trkpt lat="46.0127436" lon="8.2809116"><ele>221.25</ele><time>2026-04-25T09:33:14.15Z</time></trkpt><trkpt lat="46.012895" lon="8.2809425"><ele>221.5</ele><time>2026-04-25T09:33:15.154Z</time></trkpt><trkpt lat="46.0130382" lon="8.2809853"><ele>221.75</ele><time>2026-04-25T09:33:16.159Z</time></trkpt><trkpt lat="46.0131739" lon="8.2810413"><ele>222.0</ele><time>2026-04-25T09:33:17.161Z</time></trkpt><trkpt lat="46.0132898" lon="8.2811158"><ele>221.8</ele><time>2026-04-25T09:33:18.164Z</time></trkpt><trkpt lat="46.0134136" lon="8.281161"><ele>221.6</ele><time>2026-04-25T09:33:19.159Z</time></trkpt><trkpt lat="46.0135369" lon="8.2812064"><ele>221.40000000000003</ele><time>2026-04-25T09:33:20.16Z</time></trkpt><trkpt lat="46.0136377" lon="8.2812238"><ele>221.20000000000002</ele><time>2026-04-25T09:33:21.153Z</time></trkpt><trkpt lat="46.0137194" lon="8.2812437"><ele>221.0</ele><time>2026-04-25T09:33:22.159Z</time></trkpt><trkpt lat="46.0137951" lon="8.2812647"><ele>221.00000000000003</ele><time>2026-04-25T09:33:23.157Z</time></trkpt><trkpt lat="46.013858" lon="8.2812918"><ele>221.0</ele><time>2026-04-25T09:33:24.16Z</time></trkpt><trkpt lat="46.01392" lon="8.2813137"><ele>221.0</ele><time>2026-04-25T09:33:25.161Z</time></trkpt><trkpt lat="46.0139872" lon="8.2813357"><ele>221.0</ele><time>2026-04-25T09:33:26.156Z</time></trkpt><trkpt lat="46.0140968" lon="8.2813988"><ele>221.00000000000003</ele><time>2026-04-25T09:33:28.156Z</time></trkpt><trkpt lat="46.014148" lon="8.2814696"><ele>221.0</ele><time>2026-04-25T09:33:30.161Z</time></trkpt><trkpt lat="46.0142006" lon="8.2814189"><ele>221.00000000000003</ele><time>2026-04-25T09:33:57.163Z</time></trkpt><trkpt lat="46.0141334" lon="8.2813457"><ele>221.0</ele><time>2026-04-25T09:34:01.157Z</time></trkpt><trkpt lat="46.014066" lon="8.2813518"><ele>221.0</ele><time>2026-04-25T09:34:02.149Z</time></trkpt><trkpt lat="46.01397" lon="8.2813575"><ele>221.0</ele><time>2026-04-25T09:34:03.15Z</time></trkpt><trkpt lat="46.0138751" lon="8.2813473"><ele>221.00000000000003</ele><time>2026-04-25T09:34:04.152Z</time></trkpt><trkpt lat="46.0137831" lon="8.2813143"><ele>221.0</ele><time>2026-04-25T09:34:05.149Z</time></trkpt><trkpt lat="46.0136981" lon="8.2812827"><ele>221.00000000000003</ele><time>2026-04-25T09:34:06.154Z</time></trkpt><trkpt lat="46.0136257" lon="8.281259"><ele>221.0</ele><time>2026-04-25T09:34:07.155Z</time></trkpt><trkpt lat="46.0135515" lon="8.2812416"><ele>221.0</ele><time>2026-04-25T09:34:08.154Z</time></trkpt><trkpt lat="46.0134728" lon="8.2812241"><ele>221.0</ele><time>2026-04-25T09:34:09.152Z</time></trkpt><trkpt lat="46.0133923" lon="8.2812092"><ele>221.00000000000003</ele><time>2026-04-25T09:34:10.157Z</time></trkpt><trkpt lat="46.0132997" lon="8.2811899"><ele>221.0</ele><time>2026-04-25T09:34:11.159Z</time></trkpt><trkpt lat="46.0132267" lon="8.2811712"><ele>221.00000000000003</ele><time>2026-04-25T09:34:12.149Z</time></trkpt><trkpt lat="46.0131614" lon="8.2811381"><ele>221.0</ele><time>2026-04-25T09:34:13.165Z</time></trkpt><trkpt lat="46.0130612" lon="8.2810479"><ele>221.0</ele><time>2026-04-25T09:34:15.152Z</time></trkpt><trkpt lat="46.0131093" lon="8.2811123"><ele>221.0</ele><time>2026-04-25T09:34:20.157Z</time></trkpt><trkpt lat="46.0131755" lon="8.2811082"><ele>221.00000000000003</ele><time>2026-04-25T09:34:21.162Z</time></trkpt><trkpt lat="46.013253" lon="8.281121"><ele>221.0</ele><time>2026-04-25T09:34:22.156Z</time></trkpt><trkpt lat="46.0133398" lon="8.2812169"><ele>221.0</ele><time>2026-04-25T09:34:24.153Z</time></trkpt><trkpt lat="46.0133645" lon="8.2813092"><ele>221.00000000000003</ele><time>2026-04-25T09:34:26.166Z</time></trkpt><trkpt lat="46.0134174" lon="8.2814203"><ele>221.00000000000003</ele><time>2026-04-25T09:34:30.162Z</time></trkpt><trkpt lat="46.0135017" lon="8.2814793"><ele>221.0</ele><time>2026-04-25T09:34:34.156Z</time></trkpt><trkpt lat="46.0136049" lon="8.2815523"><ele>221.0</ele><time>2026-04-25T09:34:36.155Z</time></trkpt><trkpt lat="46.0136884" lon="8.2816511"><ele>220.33333333333334</ele><time>2026-04-25T09:34:38.157Z</time></trkpt><trkpt lat="46.013728" lon="8.2817294"><ele>219.66666666666669</ele><time>2026-04-25T09:34:43.162Z</time></trkpt><trkpt lat="46.0138169" lon="8.2817112"><ele>219.0</ele><time>2026-04-25T09:34:55.176Z</time></trkpt><trkpt lat="46.0139085" lon="8.2817186"><ele>218.33333333333331</ele><time>2026-04-25T09:34:57.177Z</time></trkpt><trkpt lat="46.0139975" lon="8.2817289"><ele>217.66666666666666</ele><time>2026-04-25T09:34:59.175Z</time></trkpt><trkpt lat="46.0140692" lon="8.2817129"><ele>217.0</ele><time>2026-04-25T09:35:01.172Z</time></trkpt><trkpt lat="46.0141346" lon="8.2816263"><ele>217.2</ele><time>2026-04-25T09:35:04.167Z</time></trkpt><trkpt lat="46.014168" lon="8.2815375"><ele>217.39999999999998</ele><time>2026-04-25T09:35:06.169Z</time></trkpt><trkpt lat="46.0142314" lon="8.2814946"><ele>217.60000000000002</ele><time>2026-04-25T09:35:08.165Z</time></trkpt><trkpt lat="46.0143387" lon="8.2815601"><ele>217.8</ele><time>2026-04-25T09:35:10.171Z</time></trkpt><trkpt lat="46.014424" lon="8.2816248"><ele>218.0</ele><time>2026-04-25T09:35:12.166Z</time></trkpt><trkpt lat="46.0145772" lon="8.2815528"><ele>218.0</ele><time>2026-04-25T09:35:14.155Z</time></trkpt><trkpt lat="46.0146922" lon="8.2814909"><ele>218.0</ele><time>2026-04-25T09:35:15.165Z</time></trkpt><trkpt lat="46.0148032" lon="8.2814334"><ele>218.0</ele><time>2026-04-25T09:35:16.147Z</time></trkpt><trkpt lat="46.0148859" lon="8.2813748"><ele>218.0</ele><time>2026-04-25T09:35:17.143Z</time></trkpt><trkpt lat="46.014975" lon="8.2813187"><ele>218.0</ele><time>2026-04-25T09:35:18.145Z</time></trkpt><trkpt lat="46.0150739" lon="8.2812815"><ele>218.66666666666669</ele><time>2026-04-25T09:35:19.156Z</time></trkpt><trkpt lat="46.0151585" lon="8.281266"><ele>219.33333333333334</ele><time>2026-04-25T09:35:20.153Z</time></trkpt><trkpt lat="46.0152401" lon="8.2812396"><ele>220.0</ele><time>2026-04-25T09:35:21.155Z</time></trkpt><trkpt lat="46.0153113" lon="8.281192"><ele>220.66666666666669</ele><time>2026-04-25T09:35:22.157Z</time></trkpt><trkpt lat="46.0153814" lon="8.2811309"><ele>221.33333333333334</ele><time>2026-04-25T09:35:23.153Z</time></trkpt><trkpt lat="46.0154408" lon="8.2810577"><ele>222.0</ele><time>2026-04-25T09:35:24.154Z</time></trkpt><trkpt lat="46.0154954" lon="8.2809938"><ele>222.0</ele><time>2026-04-25T09:35:25.154Z</time></trkpt><trkpt lat="46.0155661" lon="8.2809567"><ele>222.0</ele><time>2026-04-25T09:35:26.153Z</time></trkpt><trkpt lat="46.0156296" lon="8.2809264"><ele>222.0</ele><time>2026-04-25T09:35:27.153Z</time></trkpt><trkpt lat="46.0156951" lon="8.2808759"><ele>222.0</ele><time>2026-04-25T09:35:28.158Z</time></trkpt><trkpt lat="46.0157748" lon="8.2808413"><ele>222.0</ele><time>2026-04-25T09:35:29.154Z</time></trkpt><trkpt lat="46.0158546" lon="8.2807964"><ele>222.0</ele><time>2026-04-25T09:35:30.154Z</time></trkpt><trkpt lat="46.0159358" lon="8.2807479"><ele>222.16666666666666</ele><time>2026-04-25T09:35:31.151Z</time></trkpt><trkpt lat="46.0160132" lon="8.2806854"><ele>222.33333333333331</ele><time>2026-04-25T09:35:32.156Z</time></trkpt><trkpt lat="46.0160898" lon="8.2806085"><ele>222.5</ele><time>2026-04-25T09:35:33.154Z</time></trkpt><trkpt lat="46.0161753" lon="8.2805419"><ele>222.66666666666666</ele><time>2026-04-25T09:35:34.154Z</time></trkpt><trkpt lat="46.0162569" lon="8.280498"><ele>222.83333333333331</ele><time>2026-04-25T09:35:35.154Z</time></trkpt><trkpt lat="46.0163222" lon="8.2804606"><ele>223.0</ele><time>2026-04-25T09:35:36.157Z</time></trkpt><trkpt lat="46.0163915" lon="8.2804258"><ele>225.0</ele><time>2026-04-25T09:35:37.155Z</time></trkpt><trkpt lat="46.0164612" lon="8.2804044"><ele>225.0</ele><time>2026-04-25T09:35:38.157Z</time></trkpt><trkpt lat="46.0165715" lon="8.2803861"><ele>225.0</ele><time>2026-04-25T09:35:40.16Z</time></trkpt><trkpt lat="46.0166422" lon="8.280369"><ele>225.0</ele><time>2026-04-25T09:35:42.165Z</time></trkpt></trkseg><trkseg><trkpt lat="46.0165946" lon="8.2803204"><ele>225.0</ele><time>2026-04-25T09:53:49.163Z</time></trkpt><trkpt lat="46.0165694" lon="8.2804207"><ele>225.0</ele><time>2026-04-25T09:53:52.163Z</time></trkpt><trkpt lat="46.0164771" lon="8.2804987"><ele>225.0</ele><time>2026-04-25T09:53:54.154Z</time></trkpt><trkpt lat="46.0163784" lon="8.2805364"><ele>225.0</ele><time>2026-04-25T09:53:55.159Z</time></trkpt><trkpt lat="46.016287" lon="8.2805813"><ele>225.0</ele><time>2026-04-25T09:53:56.155Z</time></trkpt><trkpt lat="46.0162017" lon="8.2806222"><ele>225.0</ele><time>2026-04-25T09:53:57.16Z</time></trkpt><trkpt lat="46.0161258" lon="8.2806675"><ele>225.0</ele><time>2026-04-25T09:53:58.154Z</time></trkpt><trkpt lat="46.0160557" lon="8.2806889"><ele>225.0</ele><time>2026-04-25T09:53:59.152Z</time></trkpt><trkpt lat="46.0159537" lon="8.2806476"><ele>225.0</ele><time>2026-04-25T09:54:01.156Z</time></trkpt><trkpt lat="46.0158434" lon="8.2805586"><ele>225.0</ele><time>2026-04-25T09:54:03.156Z</time></trkpt><trkpt lat="46.0157845" lon="8.2805222"><ele>224.4</ele><time>2026-04-25T09:54:04.148Z</time></trkpt><trkpt lat="46.0156979" lon="8.2805224"><ele>223.8</ele><time>2026-04-25T09:54:06.144Z</time></trkpt><trkpt lat="46.0156484" lon="8.2806373"><ele>223.2</ele><time>2026-04-25T09:54:08.156Z</time></trkpt><trkpt lat="46.0156467" lon="8.2807423"><ele>222.6</ele><time>2026-04-25T09:54:09.155Z</time></trkpt><trkpt lat="46.0156316" lon="8.2808897"><ele>222.0</ele><time>2026-04-25T09:54:11.153Z</time></trkpt><trkpt lat="46.0155915" lon="8.2810186"><ele>222.0</ele><time>2026-04-25T09:54:13.149Z</time></trkpt><trkpt lat="46.0155421" lon="8.2810841"><ele>222.0</ele><time>2026-04-25T09:54:14.153Z</time></trkpt><trkpt lat="46.0154803" lon="8.2811539"><ele>222.0</ele><time>2026-04-25T09:54:15.151Z</time></trkpt><trkpt lat="46.0154087" lon="8.281213"><ele>222.0</ele><time>2026-04-25T09:54:16.152Z</time></trkpt><trkpt lat="46.0153256" lon="8.2812676"><ele>222.0</ele><time>2026-04-25T09:54:17.148Z</time></trkpt><trkpt lat="46.0152578" lon="8.2813256"><ele>222.0</ele><time>2026-04-25T09:54:18.163Z</time></trkpt><trkpt lat="46.0151918" lon="8.2813675"><ele>222.0</ele><time>2026-04-25T09:54:19.154Z</time></trkpt><trkpt lat="46.0151247" lon="8.2813944"><ele>222.0</ele><time>2026-04-25T09:54:20.153Z</time></trkpt><trkpt lat="46.0150622" lon="8.2814152"><ele>222.0</ele><time>2026-04-25T09:54:21.159Z</time></trkpt><trkpt lat="46.0149994" lon="8.2814251"><ele>222.0</ele><time>2026-04-25T09:54:22.169Z</time></trkpt><trkpt lat="46.0148729" lon="8.2814848"><ele>222.0</ele><time>2026-04-25T09:54:24.155Z</time></trkpt><trkpt lat="46.0147993" lon="8.281525"><ele>222.0</ele><time>2026-04-25T09:54:25.158Z</time></trkpt><trkpt lat="46.0147121" lon="8.2815707"><ele>221.33333333333334</ele><time>2026-04-25T09:54:26.157Z</time></trkpt><trkpt lat="46.0146232" lon="8.2816167"><ele>220.66666666666669</ele><time>2026-04-25T09:54:27.159Z</time></trkpt><trkpt lat="46.0145401" lon="8.2816453"><ele>220.0</ele><time>2026-04-25T09:54:28.159Z</time></trkpt><trkpt lat="46.0144684" lon="8.2816944"><ele>219.33333333333334</ele><time>2026-04-25T09:54:29.148Z</time></trkpt><trkpt lat="46.0144035" lon="8.2817287"><ele>218.66666666666669</ele><time>2026-04-25T09:54:30.15Z</time></trkpt><trkpt lat="46.0143401" lon="8.2817391"><ele>218.0</ele><time>2026-04-25T09:54:31.153Z</time></trkpt><trkpt lat="46.0142378" lon="8.2816609"><ele>218.00000000000003</ele><time>2026-04-25T09:54:33.143Z</time></trkpt><trkpt lat="46.0141776" lon="8.2816095"><ele>218.0</ele><time>2026-04-25T09:54:34.142Z</time></trkpt><trkpt lat="46.0141053" lon="8.2815353"><ele>218.0</ele><time>2026-04-25T09:54:35.146Z</time></trkpt><trkpt lat="46.0140183" lon="8.281496"><ele>218.0</ele><time>2026-04-25T09:54:36.151Z</time></trkpt><trkpt lat="46.0139286" lon="8.2814618"><ele>218.00000000000003</ele><time>2026-04-25T09:54:37.154Z</time></trkpt><trkpt lat="46.0138362" lon="8.2814242"><ele>218.0</ele><time>2026-04-25T09:54:38.154Z</time></trkpt><trkpt lat="46.013751" lon="8.2813862"><ele>218.50000000000003</ele><time>2026-04-25T09:54:39.154Z</time></trkpt><trkpt lat="46.0136754" lon="8.2813526"><ele>219.0</ele><time>2026-04-25T09:54:40.157Z</time></trkpt><trkpt lat="46.0135967" lon="8.2813298"><ele>219.5</ele><time>2026-04-25T09:54:41.146Z</time></trkpt><trkpt lat="46.0135284" lon="8.281306"><ele>220.0</ele><time>2026-04-25T09:54:42.146Z</time></trkpt><trkpt lat="46.0134621" lon="8.28129"><ele>220.50000000000003</ele><time>2026-04-25T09:54:43.146Z</time></trkpt><trkpt lat="46.0133387" lon="8.2812779"><ele>221.0</ele><time>2026-04-25T09:54:45.153Z</time></trkpt><trkpt lat="46.0132401" lon="8.2812247"><ele>221.16666666666669</ele><time>2026-04-25T09:54:47.167Z</time></trkpt><trkpt lat="46.0131392" lon="8.2811645"><ele>221.33333333333334</ele><time>2026-04-25T09:54:49.18Z</time></trkpt><trkpt lat="46.0130231" lon="8.2811148"><ele>221.5</ele><time>2026-04-25T09:54:51.17Z</time></trkpt><trkpt lat="46.0129551" lon="8.281093"><ele>221.66666666666669</ele><time>2026-04-25T09:54:52.169Z</time></trkpt><trkpt lat="46.0128836" lon="8.2810553"><ele>221.83333333333334</ele><time>2026-04-25T09:54:53.184Z</time></trkpt><trkpt lat="46.012817" lon="8.2810178"><ele>222.0</ele><time>2026-04-25T09:54:54.173Z</time></trkpt><trkpt lat="46.0127432" lon="8.2809831"><ele>222.0</ele><time>2026-04-25T09:54:55.179Z</time></trkpt><trkpt lat="46.0126739" lon="8.2809613"><ele>222.0</ele><time>2026-04-25T09:54:56.175Z</time></trkpt><trkpt lat="46.0126048" lon="8.2809639"><ele>222.0</ele><time>2026-04-25T09:54:57.174Z</time></trkpt><trkpt lat="46.0125125" lon="8.2809784"><ele>222.0</ele><time>2026-04-25T09:54:58.173Z</time></trkpt><trkpt lat="46.0124063" lon="8.2809913"><ele>222.0</ele><time>2026-04-25T09:54:59.163Z</time></trkpt><trkpt lat="46.012291" lon="8.2809817"><ele>221.75</ele><time>2026-04-25T09:55:00.169Z</time></trkpt><trkpt lat="46.0121674" lon="8.2809475"><ele>221.5</ele><time>2026-04-25T09:55:01.168Z</time></trkpt><trkpt lat="46.0120497" lon="8.2809091"><ele>221.25</ele><time>2026-04-25T09:55:02.169Z</time></trkpt><trkpt lat="46.0119346" lon="8.2808877"><ele>221.0</ele><time>2026-04-25T09:55:03.167Z</time></trkpt><trkpt lat="46.0118175" lon="8.280858"><ele>221.0</ele><time>2026-04-25T09:55:04.171Z</time></trkpt><trkpt lat="46.0116995" lon="8.2808241"><ele>221.00000000000003</ele><time>2026-04-25T09:55:05.165Z</time></trkpt><trkpt lat="46.0115919" lon="8.2807813"><ele>221.00000000000003</ele><time>2026-04-25T09:55:06.178Z</time></trkpt><trkpt lat="46.0114936" lon="8.2807496"><ele>221.0</ele><time>2026-04-25T09:55:07.166Z</time></trkpt><trkpt lat="46.0114015" lon="8.2807524"><ele>221.0</ele><time>2026-04-25T09:55:08.158Z</time></trkpt><trkpt lat="46.0113112" lon="8.2807762"><ele>221.0</ele><time>2026-04-25T09:55:09.171Z</time></trkpt><trkpt lat="46.0112119" lon="8.2808452"><ele>221.00000000000003</ele><time>2026-04-25T09:55:10.181Z</time></trkpt><trkpt lat="46.0111159" lon="8.2809219"><ele>221.00000000000003</ele><time>2026-04-25T09:55:11.168Z</time></trkpt><trkpt lat="46.0110086" lon="8.2809876"><ele>221.0</ele><time>2026-04-25T09:55:12.174Z</time></trkpt><trkpt lat="46.0109013" lon="8.2810282"><ele>221.0</ele><time>2026-04-25T09:55:13.17Z</time></trkpt><trkpt lat="46.0107948" lon="8.2810624"><ele>221.0</ele><time>2026-04-25T09:55:14.18Z</time></trkpt><trkpt lat="46.0106911" lon="8.2810817"><ele>221.00000000000003</ele><time>2026-04-25T09:55:15.172Z</time></trkpt><trkpt lat="46.0105881" lon="8.281094"><ele>221.00000000000003</ele><time>2026-04-25T09:55:16.175Z</time></trkpt><trkpt lat="46.0104889" lon="8.2811031"><ele>221.0</ele><time>2026-04-25T09:55:17.166Z</time></trkpt><trkpt lat="46.0103965" lon="8.2811247"><ele>221.0</ele><time>2026-04-25T09:55:18.166Z</time></trkpt><trkpt lat="46.0103021" lon="8.2811577"><ele>221.0</ele><time>2026-04-25T09:55:19.183Z</time></trkpt><trkpt lat="46.0102112" lon="8.2811849"><ele>221.00000000000003</ele><time>2026-04-25T09:55:20.179Z</time></trkpt><trkpt lat="46.0101256" lon="8.2812126"><ele>221.00000000000003</ele><time>2026-04-25T09:55:21.171Z</time></trkpt><trkpt lat="46.0100467" lon="8.2812413"><ele>221.0</ele><time>2026-04-25T09:55:22.166Z</time></trkpt><trkpt lat="46.009924" lon="8.2812493"><ele>221.0</ele><time>2026-04-25T09:55:24.188Z</time></trkpt><trkpt lat="46.0098619" lon="8.2812"><ele>221.33333333333334</ele><time>2026-04-25T09:55:25.172Z</time></trkpt><trkpt lat="46.0098146" lon="8.2811331"><ele>221.66666666666669</ele><time>2026-04-25T09:55:26.173Z</time></trkpt><trkpt lat="46.0097568" lon="8.2810714"><ele>222.0</ele><time>2026-04-25T09:55:28.176Z</time></trkpt><trkpt lat="46.0096586" lon="8.2810265"><ele>222.33333333333331</ele><time>2026-04-25T09:55:30.158Z</time></trkpt><trkpt lat="46.0095998" lon="8.2809547"><ele>222.66666666666666</ele><time>2026-04-25T09:55:31.166Z</time></trkpt><trkpt lat="46.0095609" lon="8.2808459"><ele>223.0</ele><time>2026-04-25T09:55:32.161Z</time></trkpt><trkpt lat="46.0095402" lon="8.2807509"><ele>223.0</ele><time>2026-04-25T09:55:33.169Z</time></trkpt><trkpt lat="46.0094763" lon="8.2807342"><ele>223.0</ele><time>2026-04-25T09:55:37.193Z</time></trkpt><trkpt lat="46.009478" lon="8.2808368"><ele>223.0</ele><time>2026-04-25T09:55:55.189Z</time></trkpt><trkpt lat="46.0094476" lon="8.2810458"><ele>223.0</ele><time>2026-04-25T09:55:57.174Z</time></trkpt><trkpt lat="46.0094224" lon="8.2811996"><ele>223.0</ele><time>2026-04-25T09:55:58.182Z</time></trkpt><trkpt lat="46.0094102" lon="8.2813243"><ele>222.2</ele><time>2026-04-25T09:55:59.171Z</time></trkpt><trkpt lat="46.009409" lon="8.2814631"><ele>221.4</ele><time>2026-04-25T09:56:00.159Z</time></trkpt><trkpt lat="46.0094033" lon="8.2816199"><ele>220.59999999999997</ele><time>2026-04-25T09:56:01.175Z</time></trkpt><trkpt lat="46.0093873" lon="8.2817793"><ele>219.79999999999998</ele><time>2026-04-25T09:56:02.167Z</time></trkpt><trkpt lat="46.009378" lon="8.28193"><ele>219.0</ele><time>2026-04-25T09:56:03.181Z</time></trkpt><trkpt lat="46.009373" lon="8.2820648"><ele>219.0</ele><time>2026-04-25T09:56:04.177Z</time></trkpt><trkpt lat="46.0093741" lon="8.2821801"><ele>219.0</ele><time>2026-04-25T09:56:05.174Z</time></trkpt><trkpt lat="46.0093756" lon="8.2822988"><ele>219.0</ele><time>2026-04-25T09:56:06.172Z</time></trkpt><trkpt lat="46.0093701" lon="8.2824111"><ele>219.0</ele><time>2026-04-25T09:56:07.169Z</time></trkpt><trkpt lat="46.0093682" lon="8.2825295"><ele>219.0</ele><time>2026-04-25T09:56:08.184Z</time></trkpt><trkpt lat="46.0093655" lon="8.2826512"><ele>219.0</ele><time>2026-04-25T09:56:09.168Z</time></trkpt><trkpt lat="46.0093604" lon="8.2827637"><ele>218.79999999999998</ele><time>2026-04-25T09:56:10.176Z</time></trkpt><trkpt lat="46.0093483" lon="8.2829018"><ele>218.59999999999997</ele><time>2026-04-25T09:56:11.172Z</time></trkpt><trkpt lat="46.0093374" lon="8.2830491"><ele>218.4</ele><time>2026-04-25T09:56:12.173Z</time></trkpt><trkpt lat="46.009326" lon="8.2831866"><ele>218.2</ele><time>2026-04-25T09:56:13.173Z</time></trkpt><trkpt lat="46.0093124" lon="8.283314"><ele>218.0</ele><time>2026-04-25T09:56:14.168Z</time></trkpt><trkpt lat="46.009317" lon="8.283433"><ele>218.33333333333334</ele><time>2026-04-25T09:56:15.18Z</time></trkpt><trkpt lat="46.009313" lon="8.2835345"><ele>218.66666666666669</ele><time>2026-04-25T09:56:16.174Z</time></trkpt><trkpt lat="46.0093061" lon="8.2836428"><ele>219.0</ele><time>2026-04-25T09:56:17.19Z</time></trkpt><trkpt lat="46.0093" lon="8.2837361"><ele>219.33333333333331</ele><time>2026-04-25T09:56:18.202Z</time></trkpt><trkpt lat="46.0092944" lon="8.2838371"><ele>219.66666666666666</ele><time>2026-04-25T09:56:19.177Z</time></trkpt><trkpt lat="46.0092908" lon="8.283971"><ele>220.0</ele><time>2026-04-25T09:56:20.178Z</time></trkpt><trkpt lat="46.0093066" lon="8.2840997"><ele>220.5</ele><time>2026-04-25T09:56:21.187Z</time></trkpt><trkpt lat="46.0093409" lon="8.2842252"><ele>221.0</ele><time>2026-04-25T09:56:22.198Z</time></trkpt><trkpt lat="46.0093777" lon="8.2843675"><ele>221.5</ele><time>2026-04-25T09:56:23.188Z</time></trkpt><trkpt lat="46.0094007" lon="8.2845326"><ele>222.0</ele><time>2026-04-25T09:56:24.267Z</time></trkpt><trkpt lat="46.0094123" lon="8.2847275"><ele>221.33333333333331</ele><time>2026-04-25T09:56:25.265Z</time></trkpt><trkpt lat="46.0094121" lon="8.2849402"><ele>220.66666666666666</ele><time>2026-04-25T09:56:26.272Z</time></trkpt><trkpt lat="46.0094106" lon="8.2851826"><ele>220.0</ele><time>2026-04-25T09:56:27.266Z</time></trkpt><trkpt lat="46.0094081" lon="8.2854114"><ele>220.25</ele><time>2026-04-25T09:56:28.266Z</time></trkpt><trkpt lat="46.0094065" lon="8.2856306"><ele>220.5</ele><time>2026-04-25T09:56:29.273Z</time></trkpt><trkpt lat="46.0094057" lon="8.2858277"><ele>220.75</ele><time>2026-04-25T09:56:30.266Z</time></trkpt><trkpt lat="46.0094035" lon="8.2860108"><ele>221.0</ele><time>2026-04-25T09:56:31.263Z</time></trkpt><trkpt lat="46.0094001" lon="8.2861855"><ele>221.0</ele><time>2026-04-25T09:56:32.257Z</time></trkpt><trkpt lat="46.0093981" lon="8.286353"><ele>221.00000000000003</ele><time>2026-04-25T09:56:33.256Z</time></trkpt><trkpt lat="46.0093949" lon="8.286511"><ele>221.00000000000003</ele><time>2026-04-25T09:56:34.258Z</time></trkpt><trkpt lat="46.0093735" lon="8.2866547"><ele>221.0</ele><time>2026-04-25T09:56:35.252Z</time></trkpt><trkpt lat="46.0093405" lon="8.286809"><ele>221.0</ele><time>2026-04-25T09:56:36.251Z</time></trkpt><trkpt lat="46.0092937" lon="8.2869676"><ele>220.75</ele><time>2026-04-25T09:56:37.253Z</time></trkpt><trkpt lat="46.0092318" lon="8.2871235"><ele>220.5</ele><time>2026-04-25T09:56:38.246Z</time></trkpt><trkpt lat="46.0091667" lon="8.2872632"><ele>220.25</ele><time>2026-04-25T09:56:39.263Z</time></trkpt><trkpt lat="46.0091043" lon="8.2873955"><ele>220.0</ele><time>2026-04-25T09:56:40.25Z</time></trkpt><trkpt lat="46.0090425" lon="8.2875153"><ele>219.99999999999997</ele><time>2026-04-25T09:56:41.241Z</time></trkpt><trkpt lat="46.0089805" lon="8.2876249"><ele>220.0</ele><time>2026-04-25T09:56:42.264Z</time></trkpt><trkpt lat="46.0089328" lon="8.2877327"><ele>220.0</ele><time>2026-04-25T09:56:43.263Z</time></trkpt><trkpt lat="46.0088913" lon="8.2878396"><ele>220.0</ele><time>2026-04-25T09:56:44.254Z</time></trkpt><trkpt lat="46.0088562" lon="8.2879453"><ele>219.99999999999997</ele><time>2026-04-25T09:56:45.25Z</time></trkpt><trkpt lat="46.0088426" lon="8.2880359"><ele>220.0</ele><time>2026-04-25T09:56:46.24Z</time></trkpt><trkpt lat="46.0088275" lon="8.2881282"><ele>220.0</ele><time>2026-04-25T09:56:47.25Z</time></trkpt><trkpt lat="46.0087336" lon="8.2882923"><ele>220.0</ele><time>2026-04-25T09:56:49.158Z</time></trkpt><trkpt lat="46.0086844" lon="8.2883772"><ele>220.0</ele><time>2026-04-25T09:56:50.167Z</time></trkpt><trkpt lat="46.0086316" lon="8.2884725"><ele>220.0</ele><time>2026-04-25T09:56:51.168Z</time></trkpt><trkpt lat="46.0085756" lon="8.2885767"><ele>220.0</ele><time>2026-04-25T09:56:52.165Z</time></trkpt><trkpt lat="46.0085181" lon="8.2886897"><ele>220.0</ele><time>2026-04-25T09:56:53.188Z</time></trkpt><trkpt lat="46.0084508" lon="8.2888059"><ele>220.0</ele><time>2026-04-25T09:56:54.174Z</time></trkpt><trkpt lat="46.0083867" lon="8.2889229"><ele>220.0</ele><time>2026-04-25T09:56:55.175Z</time></trkpt><trkpt lat="46.0083247" lon="8.2890548"><ele>220.0</ele><time>2026-04-25T09:56:56.18Z</time></trkpt><trkpt lat="46.0082625" lon="8.2891959"><ele>220.0</ele><time>2026-04-25T09:56:57.187Z</time></trkpt><trkpt lat="46.0082" lon="8.2893387"><ele>220.0</ele><time>2026-04-25T09:56:58.177Z</time></trkpt><trkpt lat="46.0081244" lon="8.2894865"><ele>220.0</ele><time>2026-04-25T09:56:59.185Z</time></trkpt><trkpt lat="46.0080539" lon="8.2896211"><ele>220.0</ele><time>2026-04-25T09:57:00.182Z</time></trkpt><trkpt lat="46.0079887" lon="8.2897409"><ele>220.0</ele><time>2026-04-25T09:57:01.182Z</time></trkpt><trkpt lat="46.0079253" lon="8.2898449"><ele>220.0</ele><time>2026-04-25T09:57:02.17Z</time></trkpt><trkpt lat="46.0078713" lon="8.2899418"><ele>219.8</ele><time>2026-04-25T09:57:03.176Z</time></trkpt><trkpt lat="46.007825" lon="8.2900317"><ele>219.6</ele><time>2026-04-25T09:57:04.169Z</time></trkpt><trkpt lat="46.0077715" lon="8.2901606"><ele>219.39999999999998</ele><time>2026-04-25T09:57:06.164Z</time></trkpt><trkpt lat="46.0077347" lon="8.2903066"><ele>219.2</ele><time>2026-04-25T09:57:28.182Z</time></trkpt><trkpt lat="46.0076729" lon="8.2904315"><ele>219.0</ele><time>2026-04-25T09:57:29.166Z</time></trkpt><trkpt lat="46.0075908" lon="8.2905876"><ele>219.0</ele><time>2026-04-25T09:57:30.169Z</time></trkpt><trkpt lat="46.007519" lon="8.2907098"><ele>219.0</ele><time>2026-04-25T09:57:31.175Z</time></trkpt><trkpt lat="46.0074716" lon="8.290812"><ele>219.0</ele><time>2026-04-25T09:57:32.168Z</time></trkpt><trkpt lat="46.0074506" lon="8.2908997"><ele>219.0</ele><time>2026-04-25T09:57:33.16Z</time></trkpt><trkpt lat="46.0074609" lon="8.290996"><ele>219.0</ele><time>2026-04-25T09:57:35.167Z</time></trkpt><trkpt lat="46.0075651" lon="8.2909758"><ele>219.0</ele><time>2026-04-25T09:57:38.161Z</time></trkpt><trkpt lat="46.0076239" lon="8.2909185"><ele>219.0</ele><time>2026-04-25T09:57:39.181Z</time></trkpt><trkpt lat="46.0076935" lon="8.2908245"><ele>219.0</ele><time>2026-04-25T09:57:40.174Z</time></trkpt><trkpt lat="46.007763" lon="8.2907389"><ele>219.0</ele><time>2026-04-25T09:57:41.166Z</time></trkpt><trkpt lat="46.0078142" lon="8.2906743"><ele>219.0</ele><time>2026-04-25T09:57:42.177Z</time></trkpt><trkpt lat="46.0078974" lon="8.2907046"><ele>219.0</ele><time>2026-04-25T09:57:44.174Z</time></trkpt><trkpt lat="46.0079398" lon="8.2907915"><ele>219.0</ele><time>2026-04-25T09:57:45.17Z</time></trkpt><trkpt lat="46.0079721" lon="8.2909111"><ele>219.0</ele><time>2026-04-25T09:57:46.17Z</time></trkpt><trkpt lat="46.0080126" lon="8.2910363"><ele>219.0</ele><time>2026-04-25T09:57:47.172Z</time></trkpt><trkpt lat="46.0080579" lon="8.2911391"><ele>219.0</ele><time>2026-04-25T09:57:48.16Z</time></trkpt><trkpt lat="46.0081003" lon="8.2912452"><ele>219.0</ele><time>2026-04-25T09:57:49.153Z</time></trkpt><trkpt lat="46.0081524" lon="8.291336"><ele>219.0</ele><time>2026-04-25T09:57:50.15Z</time></trkpt><trkpt lat="46.0081961" lon="8.2914261"><ele>219.0</ele><time>2026-04-25T09:57:51.152Z</time></trkpt><trkpt lat="46.0082225" lon="8.2915328"><ele>219.5</ele><time>2026-04-25T09:57:52.157Z</time></trkpt><trkpt lat="46.0082377" lon="8.2916546"><ele>220.0</ele><time>2026-04-25T09:57:53.153Z</time></trkpt><trkpt lat="46.0082398" lon="8.2917872"><ele>220.5</ele><time>2026-04-25T09:57:54.148Z</time></trkpt><trkpt lat="46.0082305" lon="8.2918807"><ele>221.0</ele><time>2026-04-25T09:57:55.167Z</time></trkpt><trkpt lat="46.0082247" lon="8.2920542"><ele>221.5</ele><time>2026-04-25T09:57:57.16Z</time></trkpt><trkpt lat="46.0082658" lon="8.2921369"><ele>222.0</ele><time>2026-04-25T09:57:58.165Z</time></trkpt><trkpt lat="46.0083399" lon="8.2922072"><ele>222.16666666666666</ele><time>2026-04-25T09:57:59.172Z</time></trkpt><trkpt lat="46.0083933" lon="8.2922724"><ele>222.33333333333331</ele><time>2026-04-25T09:58:00.162Z</time></trkpt><trkpt lat="46.0084577" lon="8.2923305"><ele>222.5</ele><time>2026-04-25T09:58:03.166Z</time></trkpt><trkpt lat="46.0084287" lon="8.2924194"><ele>222.66666666666666</ele><time>2026-04-25T09:58:05.18Z</time></trkpt><trkpt lat="46.0083633" lon="8.2924807"><ele>222.83333333333331</ele><time>2026-04-25T09:58:06.175Z</time></trkpt><trkpt lat="46.008269" lon="8.2925359"><ele>223.0</ele><time>2026-04-25T09:58:07.158Z</time></trkpt><trkpt lat="46.0081564" lon="8.2926025"><ele>223.0</ele><time>2026-04-25T09:58:08.154Z</time></trkpt><trkpt lat="46.0080414" lon="8.2926758"><ele>223.0</ele><time>2026-04-25T09:58:09.165Z</time></trkpt><trkpt lat="46.0079381" lon="8.2927551"><ele>223.0</ele><time>2026-04-25T09:58:10.163Z</time></trkpt><trkpt lat="46.007839" lon="8.292832"><ele>223.0</ele><time>2026-04-25T09:58:11.158Z</time></trkpt><trkpt lat="46.0077449" lon="8.2929134"><ele>222.99999999999997</ele><time>2026-04-25T09:58:12.155Z</time></trkpt><trkpt lat="46.0076591" lon="8.2930012"><ele>223.0</ele><time>2026-04-25T09:58:13.158Z</time></trkpt><trkpt lat="46.0075968" lon="8.2930886"><ele>223.0</ele><time>2026-04-25T09:58:14.159Z</time></trkpt><trkpt lat="46.0075435" lon="8.2931606"><ele>223.0</ele><time>2026-04-25T09:58:15.167Z</time></trkpt><trkpt lat="46.0074895" lon="8.2932956"><ele>222.99999999999997</ele><time>2026-04-25T09:58:17.169Z</time></trkpt><trkpt lat="46.0074619" lon="8.2933891"><ele>223.0</ele><time>2026-04-25T09:58:19.164Z</time></trkpt><trkpt lat="46.0074113" lon="8.2934972"><ele>222.60000000000002</ele><time>2026-04-25T09:58:21.168Z</time></trkpt><trkpt lat="46.0073244" lon="8.2936557"><ele>222.20000000000002</ele><time>2026-04-25T09:58:23.165Z</time></trkpt><trkpt lat="46.0072747" lon="8.2937526"><ele>221.8</ele><time>2026-04-25T09:58:24.155Z</time></trkpt><trkpt lat="46.0072288" lon="8.2938559"><ele>221.4</ele><time>2026-04-25T09:58:25.176Z</time></trkpt><trkpt lat="46.00717" lon="8.2939633"><ele>221.0</ele><time>2026-04-25T09:58:26.172Z</time></trkpt><trkpt lat="46.0071134" lon="8.2940698"><ele>220.8</ele><time>2026-04-25T09:58:27.173Z</time></trkpt><trkpt lat="46.0070466" lon="8.2941808"><ele>220.60000000000002</ele><time>2026-04-25T09:58:28.165Z</time></trkpt><trkpt lat="46.0069814" lon="8.2943072"><ele>220.4</ele><time>2026-04-25T09:58:29.162Z</time></trkpt><trkpt lat="46.006907" lon="8.2944373"><ele>220.2</ele><time>2026-04-25T09:58:30.18Z</time></trkpt><trkpt lat="46.0068284" lon="8.2945657"><ele>220.0</ele><time>2026-04-25T09:58:31.177Z</time></trkpt><trkpt lat="46.0067511" lon="8.2947077"><ele>220.25</ele><time>2026-04-25T09:58:32.178Z</time></trkpt><trkpt lat="46.0066708" lon="8.2948573"><ele>220.5</ele><time>2026-04-25T09:58:33.16Z</time></trkpt><trkpt lat="46.0065898" lon="8.2949932"><ele>220.75</ele><time>2026-04-25T09:58:34.193Z</time></trkpt><trkpt lat="46.0065092" lon="8.2951317"><ele>221.0</ele><time>2026-04-25T09:58:35.181Z</time></trkpt><trkpt lat="46.0064275" lon="8.2952666"><ele>221.0</ele><time>2026-04-25T09:58:36.185Z</time></trkpt><trkpt lat="46.0063498" lon="8.2954118"><ele>221.0</ele><time>2026-04-25T09:58:37.266Z</time></trkpt><trkpt lat="46.0062724" lon="8.2955569"><ele>221.0</ele><time>2026-04-25T09:58:38.262Z</time></trkpt><trkpt lat="46.0061937" lon="8.2957034"><ele>221.0</ele><time>2026-04-25T09:58:39.258Z</time></trkpt><trkpt lat="46.0061205" lon="8.2958456"><ele>221.25</ele><time>2026-04-25T09:58:40.264Z</time></trkpt><trkpt lat="46.0060431" lon="8.2959876"><ele>221.5</ele><time>2026-04-25T09:58:41.26Z</time></trkpt><trkpt lat="46.0059629" lon="8.2961376"><ele>221.75</ele><time>2026-04-25T09:58:42.261Z</time></trkpt><trkpt lat="46.0058797" lon="8.2962906"><ele>222.0</ele><time>2026-04-25T09:58:43.26Z</time></trkpt><trkpt lat="46.0057953" lon="8.2964432"><ele>221.5</ele><time>2026-04-25T09:58:44.256Z</time></trkpt><trkpt lat="46.0057054" lon="8.2965911"><ele>221.0</ele><time>2026-04-25T09:58:45.261Z</time></trkpt><trkpt lat="46.0056178" lon="8.29674"><ele>220.5</ele><time>2026-04-25T09:58:46.261Z</time></trkpt><trkpt lat="46.0055326" lon="8.2968903"><ele>220.0</ele><time>2026-04-25T09:58:47.25Z</time></trkpt><trkpt lat="46.0054623" lon="8.2970767"><ele>220.0</ele><time>2026-04-25T09:58:48.257Z</time></trkpt><trkpt lat="46.0053821" lon="8.2972314"><ele>220.0</ele><time>2026-04-25T09:58:49.261Z</time></trkpt><trkpt lat="46.005297" lon="8.2973799"><ele>220.0</ele><time>2026-04-25T09:58:50.264Z</time></trkpt><trkpt lat="46.0052117" lon="8.2975291"><ele>220.0</ele><time>2026-04-25T09:58:51.265Z</time></trkpt><trkpt lat="46.0051296" lon="8.2976734"><ele>220.0</ele><time>2026-04-25T09:58:52.263Z</time></trkpt><trkpt lat="46.0050494" lon="8.2978238"><ele>220.0</ele><time>2026-04-25T09:58:53.262Z</time></trkpt><trkpt lat="46.0049682" lon="8.2979761"><ele>220.0</ele><time>2026-04-25T09:58:54.27Z</time></trkpt><trkpt lat="46.0048911" lon="8.2981299"><ele>220.0</ele><time>2026-04-25T09:58:55.26Z</time></trkpt><trkpt lat="46.0048124" lon="8.2982853"><ele>220.0</ele><time>2026-04-25T09:58:56.265Z</time></trkpt><trkpt lat="46.0047295" lon="8.2984388"><ele>220.0</ele><time>2026-04-25T09:58:57.275Z</time></trkpt><trkpt lat="46.0046501" lon="8.2985952"><ele>220.0</ele><time>2026-04-25T09:58:58.263Z</time></trkpt><trkpt lat="46.0045692" lon="8.2987535"><ele>220.0</ele><time>2026-04-25T09:58:59.266Z</time></trkpt><trkpt lat="46.004487" lon="8.2989061"><ele>220.25</ele><time>2026-04-25T09:59:00.257Z</time></trkpt><trkpt lat="46.0044069" lon="8.2990576"><ele>220.5</ele><time>2026-04-25T09:59:01.278Z</time></trkpt><trkpt lat="46.0043332" lon="8.299208"><ele>220.75</ele><time>2026-04-25T09:59:02.264Z</time></trkpt><trkpt lat="46.0042696" lon="8.2993673"><ele>221.0</ele><time>2026-04-25T09:59:03.253Z</time></trkpt><trkpt lat="46.0042258" lon="8.2995422"><ele>221.0</ele><time>2026-04-25T09:59:04.248Z</time></trkpt><trkpt lat="46.0041995" lon="8.2997244"><ele>221.0</ele><time>2026-04-25T09:59:05.253Z</time></trkpt><trkpt lat="46.0041872" lon="8.2999117"><ele>221.0</ele><time>2026-04-25T09:59:06.241Z</time></trkpt><trkpt lat="46.0041805" lon="8.3001002"><ele>221.0</ele><time>2026-04-25T09:59:07.252Z</time></trkpt><trkpt lat="46.004177" lon="8.300287"><ele>220.5</ele><time>2026-04-25T09:59:08.245Z</time></trkpt><trkpt lat="46.004177" lon="8.3004746"><ele>220.0</ele><time>2026-04-25T09:59:09.241Z</time></trkpt><trkpt lat="46.0041791" lon="8.3006659"><ele>219.5</ele><time>2026-04-25T09:59:10.269Z</time></trkpt><trkpt lat="46.0041803" lon="8.3008551"><ele>219.0</ele><time>2026-04-25T09:59:11.257Z</time></trkpt><trkpt lat="46.0041815" lon="8.3010483"><ele>218.75</ele><time>2026-04-25T09:59:12.256Z</time></trkpt><trkpt lat="46.0041757" lon="8.3012429"><ele>218.5</ele><time>2026-04-25T09:59:13.258Z</time></trkpt><trkpt lat="46.0041661" lon="8.3014399"><ele>218.25</ele><time>2026-04-25T09:59:14.265Z</time></trkpt><trkpt lat="46.0041597" lon="8.3016374"><ele>218.0</ele><time>2026-04-25T09:59:15.269Z</time></trkpt><trkpt lat="46.0041543" lon="8.3018326"><ele>218.0</ele><time>2026-04-25T09:59:16.263Z</time></trkpt><trkpt lat="46.0041515" lon="8.3020271"><ele>218.0</ele><time>2026-04-25T09:59:17.261Z</time></trkpt><trkpt lat="46.0041505" lon="8.3022216"><ele>218.0</ele><time>2026-04-25T09:59:18.26Z</time></trkpt><trkpt lat="46.0041438" lon="8.3024153"><ele>218.0</ele><time>2026-04-25T09:59:19.268Z</time></trkpt><trkpt lat="46.0041359" lon="8.3026098"><ele>218.0</ele><time>2026-04-25T09:59:20.264Z</time></trkpt><trkpt lat="46.0041293" lon="8.3027991"><ele>218.0</ele><time>2026-04-25T09:59:21.273Z</time></trkpt><trkpt lat="46.0041311" lon="8.3029928"><ele>218.0</ele><time>2026-04-25T09:59:22.263Z</time></trkpt><trkpt lat="46.0041348" lon="8.3031912"><ele>218.0</ele><time>2026-04-25T09:59:23.261Z</time></trkpt><trkpt lat="46.0041348" lon="8.3033863"><ele>218.25</ele><time>2026-04-25T09:59:24.259Z</time></trkpt><trkpt lat="46.0041321" lon="8.3035849"><ele>218.5</ele><time>2026-04-25T09:59:25.264Z</time></trkpt><trkpt lat="46.0041296" lon="8.3037821"><ele>218.75</ele><time>2026-04-25T09:59:26.256Z</time></trkpt><trkpt lat="46.0041285" lon="8.3039801"><ele>219.0</ele><time>2026-04-25T09:59:27.264Z</time></trkpt><trkpt lat="46.0041196" lon="8.3041785"><ele>219.0</ele><time>2026-04-25T09:59:28.274Z</time></trkpt><trkpt lat="46.0041054" lon="8.3043734"><ele>219.0</ele><time>2026-04-25T09:59:29.269Z</time></trkpt><trkpt lat="46.0040969" lon="8.3045622"><ele>219.0</ele><time>2026-04-25T09:59:30.27Z</time></trkpt><trkpt lat="46.0040902" lon="8.3047559"><ele>219.0</ele><time>2026-04-25T09:59:31.271Z</time></trkpt><trkpt lat="46.0040867" lon="8.3049529"><ele>218.5</ele><time>2026-04-25T09:59:32.285Z</time></trkpt><trkpt lat="46.0040819" lon="8.3051498"><ele>218.0</ele><time>2026-04-25T09:59:33.273Z</time></trkpt><trkpt lat="46.0040742" lon="8.3053498"><ele>217.5</ele><time>2026-04-25T09:59:34.273Z</time></trkpt><trkpt lat="46.0040679" lon="8.3055474"><ele>217.0</ele><time>2026-04-25T09:59:35.271Z</time></trkpt><trkpt lat="46.0040667" lon="8.3057457"><ele>217.0</ele><time>2026-04-25T09:59:36.275Z</time></trkpt><trkpt lat="46.004059" lon="8.3059445"><ele>217.0</ele><time>2026-04-25T09:59:37.266Z</time></trkpt><trkpt lat="46.0040521" lon="8.3061419"><ele>217.0</ele><time>2026-04-25T09:59:38.267Z</time></trkpt><trkpt lat="46.004048" lon="8.3063379"><ele>217.0</ele><time>2026-04-25T09:59:39.269Z</time></trkpt><trkpt lat="46.0040354" lon="8.3065293"><ele>217.0</ele><time>2026-04-25T09:59:40.282Z</time></trkpt><trkpt lat="46.0040274" lon="8.3067276"><ele>217.0</ele><time>2026-04-25T09:59:41.265Z</time></trkpt><trkpt lat="46.0040208" lon="8.3069251"><ele>217.0</ele><time>2026-04-25T09:59:42.261Z</time></trkpt><trkpt lat="46.0040099" lon="8.3071175"><ele>217.0</ele><time>2026-04-25T09:59:43.272Z</time></trkpt><trkpt lat="46.00401" lon="8.3073141"><ele>216.75</ele><time>2026-04-25T09:59:44.26Z</time></trkpt><trkpt lat="46.0040102" lon="8.3075071"><ele>216.5</ele><time>2026-04-25T09:59:45.267Z</time></trkpt><trkpt lat="46.0040061" lon="8.307703"><ele>216.25</ele><time>2026-04-25T09:59:46.268Z</time></trkpt><trkpt lat="46.0040066" lon="8.3079012"><ele>216.0</ele><time>2026-04-25T09:59:47.267Z</time></trkpt><trkpt lat="46.0040086" lon="8.3080976"><ele>215.75</ele><time>2026-04-25T09:59:48.264Z</time></trkpt><trkpt lat="46.0040076" lon="8.3082909"><ele>215.5</ele><time>2026-04-25T09:59:49.265Z</time></trkpt><trkpt lat="46.0040065" lon="8.3084756"><ele>215.25</ele><time>2026-04-25T09:59:50.266Z</time></trkpt><trkpt lat="46.0040041" lon="8.3086592"><ele>215.0</ele><time>2026-04-25T09:59:51.257Z</time></trkpt><trkpt lat="46.004005" lon="8.3088454"><ele>215.5</ele><time>2026-04-25T09:59:52.27Z</time></trkpt><trkpt lat="46.0039984" lon="8.3090418"><ele>216.0</ele><time>2026-04-25T09:59:53.258Z</time></trkpt><trkpt lat="46.0039917" lon="8.3092363"><ele>216.5</ele><time>2026-04-25T09:59:54.27Z</time></trkpt><trkpt lat="46.0039831" lon="8.309433"><ele>217.0</ele><time>2026-04-25T09:59:55.273Z</time></trkpt><trkpt lat="46.0039735" lon="8.3096328"><ele>217.0</ele><time>2026-04-25T09:59:56.268Z</time></trkpt><trkpt lat="46.003963" lon="8.3098304"><ele>217.0</ele><time>2026-04-25T09:59:57.275Z</time></trkpt><trkpt lat="46.0039514" lon="8.310025"><ele>217.0</ele><time>2026-04-25T09:59:58.264Z</time></trkpt><trkpt lat="46.0039384" lon="8.3102205"><ele>217.0</ele><time>2026-04-25T09:59:59.285Z</time></trkpt><trkpt lat="46.0039257" lon="8.3104205"><ele>217.0</ele><time>2026-04-25T10:00:00.264Z</time></trkpt><trkpt lat="46.0039163" lon="8.3106192"><ele>217.0</ele><time>2026-04-25T10:00:01.276Z</time></trkpt><trkpt lat="46.0039061" lon="8.3108146"><ele>217.0</ele><time>2026-04-25T10:00:02.274Z</time></trkpt><trkpt lat="46.0038969" lon="8.3110117"><ele>217.0</ele><time>2026-04-25T10:00:03.28Z</time></trkpt><trkpt lat="46.0038901" lon="8.3112046"><ele>217.0</ele><time>2026-04-25T10:00:04.267Z</time></trkpt><trkpt lat="46.0038862" lon="8.3113998"><ele>217.0</ele><time>2026-04-25T10:00:05.268Z</time></trkpt><trkpt lat="46.0038802" lon="8.3115943"><ele>217.0</ele><time>2026-04-25T10:00:06.272Z</time></trkpt><trkpt lat="46.0038748" lon="8.3117864"><ele>217.0</ele><time>2026-04-25T10:00:07.267Z</time></trkpt><trkpt lat="46.003867" lon="8.3119765"><ele>216.75</ele><time>2026-04-25T10:00:08.275Z</time></trkpt><trkpt lat="46.0038598" lon="8.3121626"><ele>216.5</ele><time>2026-04-25T10:00:09.283Z</time></trkpt><trkpt lat="46.0038543" lon="8.3123527"><ele>216.25</ele><time>2026-04-25T10:00:10.276Z</time></trkpt><trkpt lat="46.0038506" lon="8.3125463"><ele>216.0</ele><time>2026-04-25T10:00:11.273Z</time></trkpt><trkpt lat="46.0038472" lon="8.3127436"><ele>216.0</ele><time>2026-04-25T10:00:12.277Z</time></trkpt><trkpt lat="46.003845" lon="8.3129446"><ele>216.0</ele><time>2026-04-25T10:00:13.268Z</time></trkpt><trkpt lat="46.0038411" lon="8.3131381"><ele>216.0</ele><time>2026-04-25T10:00:14.272Z</time></trkpt><trkpt lat="46.003835" lon="8.3133331"><ele>216.0</ele><time>2026-04-25T10:00:15.269Z</time></trkpt><trkpt lat="46.0038276" lon="8.3135289"><ele>216.0</ele><time>2026-04-25T10:00:16.269Z</time></trkpt><trkpt lat="46.0038179" lon="8.3137208"><ele>216.0</ele><time>2026-04-25T10:00:17.27Z</time></trkpt><trkpt lat="46.0038084" lon="8.3139125"><ele>216.0</ele><time>2026-04-25T10:00:18.265Z</time></trkpt><trkpt lat="46.0037978" lon="8.3141079"><ele>216.0</ele><time>2026-04-25T10:00:19.25Z</time></trkpt><trkpt lat="46.0037839" lon="8.3142985"><ele>216.0</ele><time>2026-04-25T10:00:20.252Z</time></trkpt><trkpt lat="46.0037672" lon="8.3144847"><ele>216.0</ele><time>2026-04-25T10:00:21.261Z</time></trkpt><trkpt lat="46.0038043" lon="8.3147094"><ele>216.0</ele><time>2026-04-25T10:00:22.247Z</time></trkpt><trkpt lat="46.0038037" lon="8.315094"><ele>216.0</ele><time>2026-04-25T10:00:24.275Z</time></trkpt><trkpt lat="46.0037958" lon="8.3152947"><ele>216.0</ele><time>2026-04-25T10:00:25.276Z</time></trkpt><trkpt lat="46.0037937" lon="8.3154881"><ele>216.0</ele><time>2026-04-25T10:00:26.268Z</time></trkpt><trkpt lat="46.0038088" lon="8.3156784"><ele>216.0</ele><time>2026-04-25T10:00:27.268Z</time></trkpt><trkpt lat="46.003804" lon="8.3158741"><ele>216.0</ele><time>2026-04-25T10:00:28.272Z</time></trkpt><trkpt lat="46.0038032" lon="8.316069"><ele>216.0</ele><time>2026-04-25T10:00:29.269Z</time></trkpt><trkpt lat="46.0038092" lon="8.3162623"><ele>216.0</ele><time>2026-04-25T10:00:30.27Z</time></trkpt><trkpt lat="46.0038183" lon="8.3164572"><ele>216.0</ele><time>2026-04-25T10:00:31.263Z</time></trkpt><trkpt lat="46.0038283" lon="8.3166525"><ele>216.0</ele><time>2026-04-25T10:00:32.254Z</time></trkpt><trkpt lat="46.0038263" lon="8.316845"><ele>216.0</ele><time>2026-04-25T10:00:33.252Z</time></trkpt><trkpt lat="46.003826" lon="8.3170374"><ele>216.0</ele><time>2026-04-25T10:00:34.288Z</time></trkpt><trkpt lat="46.0038016" lon="8.3172293"><ele>216.0</ele><time>2026-04-25T10:00:35.276Z</time></trkpt><trkpt lat="46.0037866" lon="8.3174198"><ele>216.0</ele><time>2026-04-25T10:00:36.269Z</time></trkpt><trkpt lat="46.0037763" lon="8.3176158"><ele>216.0</ele><time>2026-04-25T10:00:37.272Z</time></trkpt><trkpt lat="46.0037683" lon="8.3178134"><ele>216.0</ele><time>2026-04-25T10:00:38.274Z</time></trkpt><trkpt lat="46.0037588" lon="8.3180084"><ele>216.0</ele><time>2026-04-25T10:00:39.273Z</time></trkpt><trkpt lat="46.00375" lon="8.3182022"><ele>216.0</ele><time>2026-04-25T10:00:40.276Z</time></trkpt><trkpt lat="46.0037432" lon="8.3183931"><ele>216.0</ele><time>2026-04-25T10:00:41.271Z</time></trkpt><trkpt lat="46.0037341" lon="8.3185846"><ele>216.0</ele><time>2026-04-25T10:00:42.278Z</time></trkpt><trkpt lat="46.0037267" lon="8.3187727"><ele>216.0</ele><time>2026-04-25T10:00:43.26Z</time></trkpt><trkpt lat="46.0037194" lon="8.3189607"><ele>216.0</ele><time>2026-04-25T10:00:44.276Z</time></trkpt><trkpt lat="46.0037129" lon="8.3191484"><ele>216.0</ele><time>2026-04-25T10:00:45.273Z</time></trkpt><trkpt lat="46.0037082" lon="8.319337"><ele>216.0</ele><time>2026-04-25T10:00:46.269Z</time></trkpt><trkpt lat="46.0037034" lon="8.3195269"><ele>216.0</ele><time>2026-04-25T10:00:47.272Z</time></trkpt><trkpt lat="46.0036968" lon="8.3197162"><ele>216.0</ele><time>2026-04-25T10:00:48.272Z</time></trkpt><trkpt lat="46.0036927" lon="8.3199068"><ele>216.0</ele><time>2026-04-25T10:00:49.273Z</time></trkpt><trkpt lat="46.0036873" lon="8.3200944"><ele>216.0</ele><time>2026-04-25T10:00:50.27Z</time></trkpt><trkpt lat="46.0036824" lon="8.3202809"><ele>216.0</ele><time>2026-04-25T10:00:51.273Z</time></trkpt><trkpt lat="46.0036774" lon="8.3204708"><ele>216.0</ele><time>2026-04-25T10:00:52.27Z</time></trkpt><trkpt lat="46.0036716" lon="8.3206614"><ele>216.0</ele><time>2026-04-25T10:00:53.277Z</time></trkpt><trkpt lat="46.0036639" lon="8.3208523"><ele>216.0</ele><time>2026-04-25T10:00:54.275Z</time></trkpt><trkpt lat="46.0036581" lon="8.321044"><ele>216.0</ele><time>2026-04-25T10:00:55.254Z</time></trkpt><trkpt lat="46.0036505" lon="8.3212377"><ele>216.25</ele><time>2026-04-25T10:00:56.27Z</time></trkpt><trkpt lat="46.0036417" lon="8.3214292"><ele>216.5</ele><time>2026-04-25T10:00:57.276Z</time></trkpt><trkpt lat="46.0036358" lon="8.3216191"><ele>216.75</ele><time>2026-04-25T10:00:58.266Z</time></trkpt><trkpt lat="46.0036324" lon="8.3218116"><ele>217.0</ele><time>2026-04-25T10:00:59.273Z</time></trkpt><trkpt lat="46.003631" lon="8.322009"><ele>217.0</ele><time>2026-04-25T10:01:00.271Z</time></trkpt><trkpt lat="46.0036251" lon="8.3222069"><ele>217.0</ele><time>2026-04-25T10:01:01.285Z</time></trkpt><trkpt lat="46.0036199" lon="8.3223994"><ele>217.0</ele><time>2026-04-25T10:01:02.272Z</time></trkpt><trkpt lat="46.0036174" lon="8.322595"><ele>217.0</ele><time>2026-04-25T10:01:03.279Z</time></trkpt><trkpt lat="46.0036125" lon="8.3227872"><ele>217.5</ele><time>2026-04-25T10:01:04.269Z</time></trkpt><trkpt lat="46.0036039" lon="8.3229799"><ele>218.0</ele><time>2026-04-25T10:01:05.273Z</time></trkpt><trkpt lat="46.0035982" lon="8.3231728"><ele>218.5</ele><time>2026-04-25T10:01:06.27Z</time></trkpt><trkpt lat="46.0035896" lon="8.3233649"><ele>219.0</ele><time>2026-04-25T10:01:07.265Z</time></trkpt><trkpt lat="46.0035807" lon="8.3235592"><ele>219.25</ele><time>2026-04-25T10:01:08.267Z</time></trkpt><trkpt lat="46.0035752" lon="8.3237511"><ele>219.5</ele><time>2026-04-25T10:01:09.273Z</time></trkpt><trkpt lat="46.0035685" lon="8.3239451"><ele>219.75</ele><time>2026-04-25T10:01:10.253Z</time></trkpt><trkpt lat="46.0035637" lon="8.3241359"><ele>220.0</ele><time>2026-04-25T10:01:11.254Z</time></trkpt><trkpt lat="46.0035649" lon="8.3243295"><ele>220.25</ele><time>2026-04-25T10:01:12.255Z</time></trkpt><trkpt lat="46.0035658" lon="8.3245247"><ele>220.5</ele><time>2026-04-25T10:01:13.251Z</time></trkpt><trkpt lat="46.0035602" lon="8.3247203"><ele>220.75</ele><time>2026-04-25T10:01:14.274Z</time></trkpt><trkpt lat="46.0035517" lon="8.3249146"><ele>221.0</ele><time>2026-04-25T10:01:15.269Z</time></trkpt><trkpt lat="46.0035459" lon="8.3251095"><ele>221.0</ele><time>2026-04-25T10:01:16.274Z</time></trkpt><trkpt lat="46.0035393" lon="8.3252999"><ele>221.0</ele><time>2026-04-25T10:01:17.275Z</time></trkpt><trkpt lat="46.0035291" lon="8.3254915"><ele>221.0</ele><time>2026-04-25T10:01:18.267Z</time></trkpt><trkpt lat="46.0035231" lon="8.325689"><ele>221.0</ele><time>2026-04-25T10:01:19.273Z</time></trkpt><trkpt lat="46.003509" lon="8.3258812"><ele>221.0</ele><time>2026-04-25T10:01:20.266Z</time></trkpt><trkpt lat="46.0035006" lon="8.3260737"><ele>221.0</ele><time>2026-04-25T10:01:21.264Z</time></trkpt><trkpt lat="46.0034948" lon="8.3262669"><ele>221.0</ele><time>2026-04-25T10:01:22.267Z</time></trkpt><trkpt lat="46.0034837" lon="8.3264596"><ele>221.0</ele><time>2026-04-25T10:01:23.273Z</time></trkpt><trkpt lat="46.0034728" lon="8.3266492"><ele>221.0</ele><time>2026-04-25T10:01:24.274Z</time></trkpt><trkpt lat="46.0034656" lon="8.3268424"><ele>221.0</ele><time>2026-04-25T10:01:25.26Z</time></trkpt><trkpt lat="46.0034594" lon="8.3270277"><ele>221.0</ele><time>2026-04-25T10:01:26.249Z</time></trkpt><trkpt lat="46.0034351" lon="8.3272054"><ele>221.0</ele><time>2026-04-25T10:01:27.257Z</time></trkpt><trkpt lat="46.0034952" lon="8.327415"><ele>221.25</ele><time>2026-04-25T10:01:28.254Z</time></trkpt><trkpt lat="46.0034892" lon="8.3275954"><ele>221.5</ele><time>2026-04-25T10:01:29.191Z</time></trkpt><trkpt lat="46.0034727" lon="8.3277782"><ele>221.75</ele><time>2026-04-25T10:01:30.272Z</time></trkpt><trkpt lat="46.0034407" lon="8.3279601"><ele>222.0</ele><time>2026-04-25T10:01:31.266Z</time></trkpt><trkpt lat="46.0034014" lon="8.3281381"><ele>222.0</ele><time>2026-04-25T10:01:32.275Z</time></trkpt><trkpt lat="46.0033618" lon="8.3283117"><ele>222.0</ele><time>2026-04-25T10:01:33.26Z</time></trkpt><trkpt lat="46.0033195" lon="8.3284813"><ele>222.0</ele><time>2026-04-25T10:01:34.266Z</time></trkpt><trkpt lat="46.0032782" lon="8.3286514"><ele>222.0</ele><time>2026-04-25T10:01:35.263Z</time></trkpt><trkpt lat="46.0032325" lon="8.3288231"><ele>221.66666666666669</ele><time>2026-04-25T10:01:36.265Z</time></trkpt><trkpt lat="46.0031845" lon="8.3289935"><ele>221.33333333333334</ele><time>2026-04-25T10:01:37.269Z</time></trkpt><trkpt lat="46.0031386" lon="8.3291727"><ele>221.0</ele><time>2026-04-25T10:01:38.269Z</time></trkpt><trkpt lat="46.0030215" lon="8.329532"><ele>221.0</ele><time>2026-04-25T10:01:40.268Z</time></trkpt><trkpt lat="46.0029789" lon="8.3297155"><ele>221.0</ele><time>2026-04-25T10:01:41.275Z</time></trkpt><trkpt lat="46.0029319" lon="8.3299039"><ele>221.0</ele><time>2026-04-25T10:01:42.27Z</time></trkpt><trkpt lat="46.002885" lon="8.3300953"><ele>221.0</ele><time>2026-04-25T10:01:43.271Z</time></trkpt><trkpt lat="46.0028353" lon="8.330287"><ele>220.75</ele><time>2026-04-25T10:01:44.268Z</time></trkpt><trkpt lat="46.0027876" lon="8.3304792"><ele>220.5</ele><time>2026-04-25T10:01:45.276Z</time></trkpt><trkpt lat="46.0027425" lon="8.3306691"><ele>220.25</ele><time>2026-04-25T10:01:46.268Z</time></trkpt><trkpt lat="46.0026915" lon="8.3308565"><ele>220.0</ele><time>2026-04-25T10:01:47.282Z</time></trkpt><trkpt lat="46.0026379" lon="8.3310425"><ele>220.0</ele><time>2026-04-25T10:01:48.28Z</time></trkpt><trkpt lat="46.0025903" lon="8.3312265"><ele>220.0</ele><time>2026-04-25T10:01:49.274Z</time></trkpt><trkpt lat="46.0025433" lon="8.3314141"><ele>220.0</ele><time>2026-04-25T10:01:50.27Z</time></trkpt><trkpt lat="46.0024995" lon="8.3315993"><ele>220.0</ele><time>2026-04-25T10:01:51.275Z</time></trkpt><trkpt lat="46.0024567" lon="8.3317889"><ele>219.5</ele><time>2026-04-25T10:01:52.261Z</time></trkpt><trkpt lat="46.0024125" lon="8.3319793"><ele>219.0</ele><time>2026-04-25T10:01:53.261Z</time></trkpt><trkpt lat="46.0023642" lon="8.3321689"><ele>218.5</ele><time>2026-04-25T10:01:54.27Z</time></trkpt><trkpt lat="46.0023119" lon="8.3323583"><ele>218.0</ele><time>2026-04-25T10:01:55.27Z</time></trkpt><trkpt lat="46.0022606" lon="8.3325461"><ele>218.0</ele><time>2026-04-25T10:01:56.265Z</time></trkpt><trkpt lat="46.0022124" lon="8.3327319"><ele>218.0</ele><time>2026-04-25T10:01:57.267Z</time></trkpt><trkpt lat="46.0021631" lon="8.3329147"><ele>218.0</ele><time>2026-04-25T10:01:58.262Z</time></trkpt><trkpt lat="46.0021162" lon="8.3330998"><ele>218.0</ele><time>2026-04-25T10:01:59.264Z</time></trkpt><trkpt lat="46.0020718" lon="8.3332873"><ele>218.0</ele><time>2026-04-25T10:02:00.276Z</time></trkpt><trkpt lat="46.0020234" lon="8.3334691"><ele>218.0</ele><time>2026-04-25T10:02:01.272Z</time></trkpt><trkpt lat="46.0019739" lon="8.3336537"><ele>218.0</ele><time>2026-04-25T10:02:02.268Z</time></trkpt><trkpt lat="46.0019214" lon="8.3338408"><ele>218.0</ele><time>2026-04-25T10:02:03.278Z</time></trkpt><trkpt lat="46.0018696" lon="8.3340285"><ele>217.25</ele><time>2026-04-25T10:02:04.262Z</time></trkpt><trkpt lat="46.0018193" lon="8.3342176"><ele>216.5</ele><time>2026-04-25T10:02:05.265Z</time></trkpt><trkpt lat="46.0017696" lon="8.3344008"><ele>215.75</ele><time>2026-04-25T10:02:06.26Z</time></trkpt><trkpt lat="46.0017184" lon="8.334583"><ele>215.0</ele><time>2026-04-25T10:02:07.275Z</time></trkpt><trkpt lat="46.0016276" lon="8.3349514"><ele>214.75</ele><time>2026-04-25T10:02:09.279Z</time></trkpt><trkpt lat="46.0015773" lon="8.3351334"><ele>214.5</ele><time>2026-04-25T10:02:10.276Z</time></trkpt><trkpt lat="46.001523" lon="8.3353174"><ele>214.25</ele><time>2026-04-25T10:02:11.254Z</time></trkpt><trkpt lat="46.0014643" lon="8.3354959"><ele>214.0</ele><time>2026-04-25T10:02:12.257Z</time></trkpt><trkpt lat="46.0014085" lon="8.3356772"><ele>214.0</ele><time>2026-04-25T10:02:13.257Z</time></trkpt><trkpt lat="46.0013521" lon="8.3358504"><ele>214.0</ele><time>2026-04-25T10:02:14.251Z</time></trkpt><trkpt lat="46.0013077" lon="8.3360324"><ele>214.0</ele><time>2026-04-25T10:02:15.269Z</time></trkpt><trkpt lat="46.0012636" lon="8.3362121"><ele>214.0</ele><time>2026-04-25T10:02:16.26Z</time></trkpt><trkpt lat="46.0012325" lon="8.3364024"><ele>214.0</ele><time>2026-04-25T10:02:17.264Z</time></trkpt><trkpt lat="46.0011833" lon="8.3365802"><ele>214.0</ele><time>2026-04-25T10:02:18.271Z</time></trkpt><trkpt lat="46.0011794" lon="8.3368123"><ele>214.0</ele><time>2026-04-25T10:02:19.278Z</time></trkpt><trkpt lat="46.0010781" lon="8.337198"><ele>213.75</ele><time>2026-04-25T10:02:21.183Z</time></trkpt><trkpt lat="46.0010229" lon="8.3373839"><ele>213.5</ele><time>2026-04-25T10:02:22.193Z</time></trkpt><trkpt lat="46.0009827" lon="8.3375824"><ele>213.25</ele><time>2026-04-25T10:02:23.186Z</time></trkpt><trkpt lat="46.0009319" lon="8.3377698"><ele>213.0</ele><time>2026-04-25T10:02:24.189Z</time></trkpt><trkpt lat="46.000878" lon="8.3379607"><ele>213.25</ele><time>2026-04-25T10:02:25.19Z</time></trkpt><trkpt lat="46.0008351" lon="8.338148"><ele>213.5</ele><time>2026-04-25T10:02:26.185Z</time></trkpt><trkpt lat="46.0007903" lon="8.3383319"><ele>213.75</ele><time>2026-04-25T10:02:27.188Z</time></trkpt><trkpt lat="46.0007345" lon="8.3385089"><ele>214.0</ele><time>2026-04-25T10:02:28.185Z</time></trkpt><trkpt lat="46.0007017" lon="8.3386975"><ele>213.5</ele><time>2026-04-25T10:02:29.185Z</time></trkpt><trkpt lat="46.0006508" lon="8.3388786"><ele>213.0</ele><time>2026-04-25T10:02:30.179Z</time></trkpt><trkpt lat="46.0006111" lon="8.3390664"><ele>212.5</ele><time>2026-04-25T10:02:31.188Z</time></trkpt><trkpt lat="46.0005714" lon="8.3392564"><ele>212.0</ele><time>2026-04-25T10:02:32.177Z</time></trkpt><trkpt lat="46.0005228" lon="8.3394389"><ele>212.75</ele><time>2026-04-25T10:02:33.178Z</time></trkpt><trkpt lat="46.0004689" lon="8.3396156"><ele>213.5</ele><time>2026-04-25T10:02:34.189Z</time></trkpt><trkpt lat="46.0004337" lon="8.3398072"><ele>214.25</ele><time>2026-04-25T10:02:35.182Z</time></trkpt><trkpt lat="46.0004079" lon="8.3400118"><ele>215.0</ele><time>2026-04-25T10:02:36.186Z</time></trkpt><trkpt lat="46.00038" lon="8.3402165"><ele>215.0</ele><time>2026-04-25T10:02:37.176Z</time></trkpt><trkpt lat="46.0003342" lon="8.3403936"><ele>215.0</ele><time>2026-04-25T10:02:38.189Z</time></trkpt><trkpt lat="46.0002987" lon="8.3405729"><ele>215.0</ele><time>2026-04-25T10:02:39.177Z</time></trkpt><trkpt lat="46.0002385" lon="8.3407471"><ele>215.0</ele><time>2026-04-25T10:02:40.173Z</time></trkpt><trkpt lat="46.0001868" lon="8.3409277"><ele>215.25</ele><time>2026-04-25T10:02:41.175Z</time></trkpt><trkpt lat="46.0001401" lon="8.3411044"><ele>215.5</ele><time>2026-04-25T10:02:42.172Z</time></trkpt><trkpt lat="46.0000906" lon="8.3412699"><ele>215.75</ele><time>2026-04-25T10:02:43.178Z</time></trkpt><trkpt lat="46.0000246" lon="8.3414394"><ele>216.0</ele><time>2026-04-25T10:02:44.179Z</time></trkpt><trkpt lat="45.9999553" lon="8.3416212"><ele>216.0</ele><time>2026-04-25T10:02:45.173Z</time></trkpt><trkpt lat="45.9999134" lon="8.3418141"><ele>216.0</ele><time>2026-04-25T10:02:46.174Z</time></trkpt><trkpt lat="45.9998674" lon="8.3420106"><ele>216.0</ele><time>2026-04-25T10:02:47.174Z</time></trkpt><trkpt lat="45.999831" lon="8.3422024"><ele>216.0</ele><time>2026-04-25T10:02:48.174Z</time></trkpt><trkpt lat="45.9998054" lon="8.3424394"><ele>215.75</ele><time>2026-04-25T10:02:49.17Z</time></trkpt><trkpt lat="45.9997612" lon="8.342637"><ele>215.5</ele><time>2026-04-25T10:02:50.17Z</time></trkpt><trkpt lat="45.9997093" lon="8.3428259"><ele>215.25</ele><time>2026-04-25T10:02:51.177Z</time></trkpt><trkpt lat="45.9996478" lon="8.3430183"><ele>215.0</ele><time>2026-04-25T10:02:52.173Z</time></trkpt><trkpt lat="45.9995353" lon="8.3433973"><ele>215.0</ele><time>2026-04-25T10:02:54.177Z</time></trkpt><trkpt lat="45.9994901" lon="8.3435945"><ele>215.0</ele><time>2026-04-25T10:02:55.176Z</time></trkpt><trkpt lat="45.9994554" lon="8.3437873"><ele>215.0</ele><time>2026-04-25T10:02:56.173Z</time></trkpt><trkpt lat="45.9994096" lon="8.3439937"><ele>215.0</ele><time>2026-04-25T10:02:57.177Z</time></trkpt><trkpt lat="45.999348" lon="8.3442016"><ele>215.33333333333334</ele><time>2026-04-25T10:02:58.181Z</time></trkpt><trkpt lat="45.9993001" lon="8.3443967"><ele>215.66666666666669</ele><time>2026-04-25T10:02:59.185Z</time></trkpt><trkpt lat="45.9992501" lon="8.3445973"><ele>216.0</ele><time>2026-04-25T10:03:00.177Z</time></trkpt><trkpt lat="45.9991782" lon="8.3448039"><ele>216.0</ele><time>2026-04-25T10:03:01.189Z</time></trkpt><trkpt lat="45.9991234" lon="8.3450087"><ele>216.0</ele><time>2026-04-25T10:03:02.177Z</time></trkpt><trkpt lat="45.9990706" lon="8.3452152"><ele>216.0</ele><time>2026-04-25T10:03:03.176Z</time></trkpt><trkpt lat="45.9990145" lon="8.3454095"><ele>216.25</ele><time>2026-04-25T10:03:04.179Z</time></trkpt><trkpt lat="45.9989664" lon="8.3456047"><ele>216.5</ele><time>2026-04-25T10:03:05.185Z</time></trkpt><trkpt lat="45.9989214" lon="8.3457922"><ele>216.75</ele><time>2026-04-25T10:03:06.179Z</time></trkpt><trkpt lat="45.9988595" lon="8.3459877"><ele>217.0</ele><time>2026-04-25T10:03:07.186Z</time></trkpt><trkpt lat="45.9988136" lon="8.3461785"><ele>217.0</ele><time>2026-04-25T10:03:08.176Z</time></trkpt><trkpt lat="45.9987673" lon="8.3463758"><ele>217.0</ele><time>2026-04-25T10:03:09.192Z</time></trkpt><trkpt lat="45.9987244" lon="8.3465738"><ele>217.0</ele><time>2026-04-25T10:03:10.187Z</time></trkpt><trkpt lat="45.9986704" lon="8.3467696"><ele>217.0</ele><time>2026-04-25T10:03:11.18Z</time></trkpt><trkpt lat="45.9986068" lon="8.3469635"><ele>217.0</ele><time>2026-04-25T10:03:12.186Z</time></trkpt><trkpt lat="45.9985549" lon="8.3471634"><ele>217.0</ele><time>2026-04-25T10:03:13.177Z</time></trkpt><trkpt lat="45.9985009" lon="8.3473521"><ele>217.0</ele><time>2026-04-25T10:03:14.179Z</time></trkpt><trkpt lat="45.9984523" lon="8.3475442"><ele>217.0</ele><time>2026-04-25T10:03:15.183Z</time></trkpt><trkpt lat="45.9984063" lon="8.3477385"><ele>217.0</ele><time>2026-04-25T10:03:16.187Z</time></trkpt><trkpt lat="45.9983567" lon="8.3479247"><ele>217.0</ele><time>2026-04-25T10:03:17.189Z</time></trkpt><trkpt lat="45.9983062" lon="8.3481183"><ele>217.0</ele><time>2026-04-25T10:03:18.187Z</time></trkpt><trkpt lat="45.9982581" lon="8.3483095"><ele>217.0</ele><time>2026-04-25T10:03:19.186Z</time></trkpt><trkpt lat="45.9982113" lon="8.3485061"><ele>217.0</ele><time>2026-04-25T10:03:20.185Z</time></trkpt><trkpt lat="45.9981698" lon="8.3487046"><ele>217.0</ele><time>2026-04-25T10:03:21.184Z</time></trkpt><trkpt lat="45.9981164" lon="8.3488965"><ele>217.0</ele><time>2026-04-25T10:03:22.189Z</time></trkpt><trkpt lat="45.9980704" lon="8.3490859"><ele>217.0</ele><time>2026-04-25T10:03:23.18Z</time></trkpt><trkpt lat="45.9980318" lon="8.3492739"><ele>217.5</ele><time>2026-04-25T10:03:24.189Z</time></trkpt><trkpt lat="45.9979933" lon="8.3494743"><ele>218.0</ele><time>2026-04-25T10:03:25.182Z</time></trkpt><trkpt lat="45.9979554" lon="8.3496708"><ele>218.5</ele><time>2026-04-25T10:03:26.186Z</time></trkpt><trkpt lat="45.9979097" lon="8.3498754"><ele>219.0</ele><time>2026-04-25T10:03:27.19Z</time></trkpt><trkpt lat="45.99786" lon="8.350076"><ele>219.0</ele><time>2026-04-25T10:03:28.188Z</time></trkpt><trkpt lat="45.9978152" lon="8.3502737"><ele>219.0</ele><time>2026-04-25T10:03:29.186Z</time></trkpt><trkpt lat="45.9977739" lon="8.3504694"><ele>219.0</ele><time>2026-04-25T10:03:30.184Z</time></trkpt><trkpt lat="45.9977075" lon="8.350647"><ele>219.0</ele><time>2026-04-25T10:03:31.198Z</time></trkpt><trkpt lat="45.99765" lon="8.3508386"><ele>218.5</ele><time>2026-04-25T10:03:32.19Z</time></trkpt><trkpt lat="45.9975999" lon="8.3510315"><ele>218.0</ele><time>2026-04-25T10:03:33.189Z</time></trkpt><trkpt lat="45.9975487" lon="8.3512241"><ele>217.5</ele><time>2026-04-25T10:03:34.182Z</time></trkpt><trkpt lat="45.9975023" lon="8.3514167"><ele>217.0</ele><time>2026-04-25T10:03:35.19Z</time></trkpt><trkpt lat="45.9974515" lon="8.3516092"><ele>216.33333333333331</ele><time>2026-04-25T10:03:36.195Z</time></trkpt><trkpt lat="45.9974097" lon="8.3518156"><ele>215.66666666666669</ele><time>2026-04-25T10:03:37.182Z</time></trkpt><trkpt lat="45.9973638" lon="8.3520246"><ele>215.0</ele><time>2026-04-25T10:03:38.187Z</time></trkpt><trkpt lat="45.9973321" lon="8.3522331"><ele>215.0</ele><time>2026-04-25T10:03:39.183Z</time></trkpt><trkpt lat="45.9972987" lon="8.3524413"><ele>215.0</ele><time>2026-04-25T10:03:40.195Z</time></trkpt><trkpt lat="45.9972609" lon="8.3526451"><ele>215.0</ele><time>2026-04-25T10:03:41.184Z</time></trkpt><trkpt lat="45.9972139" lon="8.3528593"><ele>214.5</ele><time>2026-04-25T10:03:42.186Z</time></trkpt><trkpt lat="45.997157" lon="8.3530579"><ele>214.0</ele><time>2026-04-25T10:03:43.189Z</time></trkpt><trkpt lat="45.9971008" lon="8.3532533"><ele>213.5</ele><time>2026-04-25T10:03:44.184Z</time></trkpt><trkpt lat="45.9970456" lon="8.3534552"><ele>213.0</ele><time>2026-04-25T10:03:45.184Z</time></trkpt><trkpt lat="45.9969912" lon="8.3536508"><ele>213.0</ele><time>2026-04-25T10:03:46.181Z</time></trkpt><trkpt lat="45.9969361" lon="8.3538623"><ele>213.0</ele><time>2026-04-25T10:03:47.195Z</time></trkpt><trkpt lat="45.9968819" lon="8.3540717"><ele>213.0</ele><time>2026-04-25T10:03:48.181Z</time></trkpt><trkpt lat="45.9968224" lon="8.3542655"><ele>213.25</ele><time>2026-04-25T10:03:49.179Z</time></trkpt><trkpt lat="45.9967727" lon="8.3544654"><ele>213.5</ele><time>2026-04-25T10:03:50.177Z</time></trkpt><trkpt lat="45.9967266" lon="8.3546678"><ele>213.75</ele><time>2026-04-25T10:03:51.19Z</time></trkpt><trkpt lat="45.9966792" lon="8.3548626"><ele>214.0</ele><time>2026-04-25T10:03:52.185Z</time></trkpt><trkpt lat="45.9966267" lon="8.355064"><ele>214.0</ele><time>2026-04-25T10:03:53.186Z</time></trkpt><trkpt lat="45.9965835" lon="8.355262"><ele>214.0</ele><time>2026-04-25T10:03:54.189Z</time></trkpt><trkpt lat="45.9965342" lon="8.3554674"><ele>214.0</ele><time>2026-04-25T10:03:55.186Z</time></trkpt><trkpt lat="45.9964835" lon="8.3556704"><ele>214.0</ele><time>2026-04-25T10:03:56.183Z</time></trkpt><trkpt lat="45.9964278" lon="8.3558684"><ele>213.66666666666666</ele><time>2026-04-25T10:03:57.193Z</time></trkpt><trkpt lat="45.996385" lon="8.3560736"><ele>213.33333333333331</ele><time>2026-04-25T10:03:58.186Z</time></trkpt><trkpt lat="45.9963305" lon="8.3562826"><ele>213.0</ele><time>2026-04-25T10:03:59.188Z</time></trkpt><trkpt lat="45.9962963" lon="8.356491"><ele>212.75</ele><time>2026-04-25T10:04:00.181Z</time></trkpt><trkpt lat="45.9962464" lon="8.3566894"><ele>212.5</ele><time>2026-04-25T10:04:01.194Z</time></trkpt><trkpt lat="45.9962008" lon="8.3568921"><ele>212.25</ele><time>2026-04-25T10:04:02.183Z</time></trkpt><trkpt lat="45.9961486" lon="8.3570921"><ele>212.0</ele><time>2026-04-25T10:04:03.182Z</time></trkpt><trkpt lat="45.9960866" lon="8.3572944"><ele>212.66666666666669</ele><time>2026-04-25T10:04:04.181Z</time></trkpt><trkpt lat="45.9960346" lon="8.3575068"><ele>213.33333333333331</ele><time>2026-04-25T10:04:05.187Z</time></trkpt><trkpt lat="45.9959741" lon="8.357715"><ele>214.0</ele><time>2026-04-25T10:04:06.189Z</time></trkpt><trkpt lat="45.9959051" lon="8.3579329"><ele>214.66666666666666</ele><time>2026-04-25T10:04:07.195Z</time></trkpt><trkpt lat="45.9958482" lon="8.3581464"><ele>215.33333333333331</ele><time>2026-04-25T10:04:08.185Z</time></trkpt><trkpt lat="45.9957957" lon="8.3583519"><ele>216.0</ele><time>2026-04-25T10:04:09.186Z</time></trkpt><trkpt lat="45.9957403" lon="8.3585568"><ele>216.0</ele><time>2026-04-25T10:04:10.192Z</time></trkpt><trkpt lat="45.9956758" lon="8.3587629"><ele>216.0</ele><time>2026-04-25T10:04:11.196Z</time></trkpt><trkpt lat="45.9956271" lon="8.3589728"><ele>216.0</ele><time>2026-04-25T10:04:12.188Z</time></trkpt><trkpt lat="45.9955843" lon="8.3591822"><ele>215.66666666666669</ele><time>2026-04-25T10:04:13.194Z</time></trkpt><trkpt lat="45.9955401" lon="8.3593868"><ele>215.33333333333334</ele><time>2026-04-25T10:04:14.191Z</time></trkpt><trkpt lat="45.995503" lon="8.3596012"><ele>215.0</ele><time>2026-04-25T10:04:15.189Z</time></trkpt><trkpt lat="45.9954506" lon="8.3598031"><ele>215.0</ele><time>2026-04-25T10:04:16.19Z</time></trkpt><trkpt lat="45.9953856" lon="8.3600042"><ele>215.0</ele><time>2026-04-25T10:04:17.192Z</time></trkpt><trkpt lat="45.9953362" lon="8.3602064"><ele>215.0</ele><time>2026-04-25T10:04:18.182Z</time></trkpt><trkpt lat="45.9952786" lon="8.3604128"><ele>215.0</ele><time>2026-04-25T10:04:19.188Z</time></trkpt><trkpt lat="45.9952219" lon="8.3606176"><ele>215.0</ele><time>2026-04-25T10:04:20.187Z</time></trkpt><trkpt lat="45.9951721" lon="8.3608229"><ele>215.0</ele><time>2026-04-25T10:04:21.182Z</time></trkpt><trkpt lat="45.9951203" lon="8.3610302"><ele>215.0</ele><time>2026-04-25T10:04:22.188Z</time></trkpt><trkpt lat="45.9950767" lon="8.3612441"><ele>215.0</ele><time>2026-04-25T10:04:23.188Z</time></trkpt><trkpt lat="45.995028" lon="8.3614453"><ele>215.0</ele><time>2026-04-25T10:04:24.188Z</time></trkpt><trkpt lat="45.9949668" lon="8.3616536"><ele>214.0</ele><time>2026-04-25T10:04:25.194Z</time></trkpt><trkpt lat="45.9949145" lon="8.3618628"><ele>213.0</ele><time>2026-04-25T10:04:26.187Z</time></trkpt><trkpt lat="45.9948634" lon="8.3620694"><ele>212.0</ele><time>2026-04-25T10:04:27.191Z</time></trkpt><trkpt lat="45.9948217" lon="8.3622796"><ele>215.33333333333334</ele><time>2026-04-25T10:04:28.189Z</time></trkpt><trkpt lat="45.9947841" lon="8.3624902"><ele>218.66666666666669</ele><time>2026-04-25T10:04:29.187Z</time></trkpt><trkpt lat="45.9947424" lon="8.3626982"><ele>222.0</ele><time>2026-04-25T10:04:30.178Z</time></trkpt><trkpt lat="45.9946503" lon="8.3631052"><ele>225.66666666666669</ele><time>2026-04-25T10:04:32.177Z</time></trkpt><trkpt lat="45.9946125" lon="8.3633138"><ele>229.33333333333334</ele><time>2026-04-25T10:04:33.182Z</time></trkpt><trkpt lat="45.9945782" lon="8.3635242"><ele>233.0</ele><time>2026-04-25T10:04:34.183Z</time></trkpt><trkpt lat="45.9945555" lon="8.3637397"><ele>232.5</ele><time>2026-04-25T10:04:35.183Z</time></trkpt><trkpt lat="45.9945247" lon="8.3639517"><ele>232.0</ele><time>2026-04-25T10:04:36.179Z</time></trkpt><trkpt lat="45.9944798" lon="8.3643813"><ele>232.0</ele><time>2026-04-25T10:04:38.189Z</time></trkpt><trkpt lat="45.9944507" lon="8.364589"><ele>232.0</ele><time>2026-04-25T10:04:39.186Z</time></trkpt><trkpt lat="45.9944261" lon="8.364799"><ele>232.0</ele><time>2026-04-25T10:04:40.195Z</time></trkpt><trkpt lat="45.9944" lon="8.3649972"><ele>232.0</ele><time>2026-04-25T10:04:41.181Z</time></trkpt><trkpt lat="45.9943716" lon="8.3652019"><ele>230.25</ele><time>2026-04-25T10:04:42.197Z</time></trkpt><trkpt lat="45.9943493" lon="8.3654001"><ele>228.5</ele><time>2026-04-25T10:04:43.193Z</time></trkpt><trkpt lat="45.9943215" lon="8.3656054"><ele>226.75</ele><time>2026-04-25T10:04:44.257Z</time></trkpt><trkpt lat="45.9942963" lon="8.3658024"><ele>225.0</ele><time>2026-04-25T10:04:45.26Z</time></trkpt><trkpt lat="45.994274" lon="8.3660022"><ele>223.5</ele><time>2026-04-25T10:04:46.268Z</time></trkpt><trkpt lat="45.9942475" lon="8.3662033"><ele>222.0</ele><time>2026-04-25T10:04:47.262Z</time></trkpt><trkpt lat="45.9942177" lon="8.3664045"><ele>220.5</ele><time>2026-04-25T10:04:48.265Z</time></trkpt><trkpt lat="45.9941883" lon="8.3666099"><ele>219.0</ele><time>2026-04-25T10:04:49.265Z</time></trkpt><trkpt lat="45.994163" lon="8.3668152"><ele>218.5</ele><time>2026-04-25T10:04:50.265Z</time></trkpt><trkpt lat="45.9941447" lon="8.3670217"><ele>218.0</ele><time>2026-04-25T10:04:51.262Z</time></trkpt><trkpt lat="45.9941451" lon="8.3672202"><ele>217.5</ele><time>2026-04-25T10:04:52.257Z</time></trkpt><trkpt lat="45.9941632" lon="8.3674191"><ele>217.0</ele><time>2026-04-25T10:04:53.253Z</time></trkpt><trkpt lat="45.9941975" lon="8.3676124"><ele>217.0</ele><time>2026-04-25T10:04:54.252Z</time></trkpt><trkpt lat="45.9942543" lon="8.367791"><ele>217.0</ele><time>2026-04-25T10:04:55.239Z</time></trkpt><trkpt lat="45.9943243" lon="8.3679533"><ele>217.0</ele><time>2026-04-25T10:04:56.236Z</time></trkpt><trkpt lat="45.9944101" lon="8.3681045"><ele>217.0</ele><time>2026-04-25T10:04:57.239Z</time></trkpt><trkpt lat="45.9945153" lon="8.3682467"><ele>217.0</ele><time>2026-04-25T10:04:58.24Z</time></trkpt><trkpt lat="45.9946348" lon="8.3683781"><ele>217.0</ele><time>2026-04-25T10:04:59.258Z</time></trkpt><trkpt lat="45.9947456" lon="8.3685138"><ele>217.0</ele><time>2026-04-25T10:05:00.254Z</time></trkpt><trkpt lat="45.9948547" lon="8.3686567"><ele>217.0</ele><time>2026-04-25T10:05:01.258Z</time></trkpt><trkpt lat="45.9949574" lon="8.3687951"><ele>217.0</ele><time>2026-04-25T10:05:02.253Z</time></trkpt><trkpt lat="45.9950595" lon="8.3689331"><ele>217.0</ele><time>2026-04-25T10:05:03.251Z</time></trkpt><trkpt lat="45.9951588" lon="8.3690751"><ele>217.0</ele><time>2026-04-25T10:05:04.248Z</time></trkpt><trkpt lat="45.9952572" lon="8.3692146"><ele>217.0</ele><time>2026-04-25T10:05:05.249Z</time></trkpt><trkpt lat="45.9953466" lon="8.3693644"><ele>217.0</ele><time>2026-04-25T10:05:06.253Z</time></trkpt><trkpt lat="45.9954223" lon="8.3695279"><ele>217.0</ele><time>2026-04-25T10:05:07.248Z</time></trkpt><trkpt lat="45.9954739" lon="8.3697039"><ele>217.0</ele><time>2026-04-25T10:05:08.251Z</time></trkpt><trkpt lat="45.9954982" lon="8.3698848"><ele>217.0</ele><time>2026-04-25T10:05:09.257Z</time></trkpt><trkpt lat="45.9955117" lon="8.370059"><ele>216.0</ele><time>2026-04-25T10:05:10.242Z</time></trkpt><trkpt lat="45.995509" lon="8.3702377"><ele>215.0</ele><time>2026-04-25T10:05:11.238Z</time></trkpt><trkpt lat="45.9954898" lon="8.3704138"><ele>214.0</ele><time>2026-04-25T10:05:12.237Z</time></trkpt><trkpt lat="45.9954536" lon="8.3705968"><ele>213.0</ele><time>2026-04-25T10:05:13.26Z</time></trkpt><trkpt lat="45.9954145" lon="8.3707807"><ele>213.0</ele><time>2026-04-25T10:05:14.255Z</time></trkpt><trkpt lat="45.9953688" lon="8.3709663"><ele>213.0</ele><time>2026-04-25T10:05:15.254Z</time></trkpt><trkpt lat="45.9953182" lon="8.3711506"><ele>213.0</ele><time>2026-04-25T10:05:16.256Z</time></trkpt><trkpt lat="45.995269" lon="8.3713339"><ele>213.0</ele><time>2026-04-25T10:05:17.257Z</time></trkpt><trkpt lat="45.9952276" lon="8.3715203"><ele>213.25</ele><time>2026-04-25T10:05:18.254Z</time></trkpt><trkpt lat="45.9951887" lon="8.3716998"><ele>213.5</ele><time>2026-04-25T10:05:19.252Z</time></trkpt><trkpt lat="45.9951518" lon="8.3718704"><ele>213.75</ele><time>2026-04-25T10:05:20.254Z</time></trkpt><trkpt lat="45.9951163" lon="8.3720304"><ele>214.0</ele><time>2026-04-25T10:05:21.254Z</time></trkpt><trkpt lat="45.9950858" lon="8.3721956"><ele>213.5</ele><time>2026-04-25T10:05:22.254Z</time></trkpt><trkpt lat="45.9950469" lon="8.3723625"><ele>213.0</ele><time>2026-04-25T10:05:23.254Z</time></trkpt><trkpt lat="45.9950041" lon="8.3725389"><ele>212.5</ele><time>2026-04-25T10:05:24.251Z</time></trkpt><trkpt lat="45.9949614" lon="8.3727209"><ele>212.0</ele><time>2026-04-25T10:05:25.249Z</time></trkpt><trkpt lat="45.9949219" lon="8.372907"><ele>212.0</ele><time>2026-04-25T10:05:26.255Z</time></trkpt><trkpt lat="45.9948768" lon="8.3730897"><ele>212.0</ele><time>2026-04-25T10:05:27.252Z</time></trkpt><trkpt lat="45.9948303" lon="8.37327"><ele>212.0</ele><time>2026-04-25T10:05:28.255Z</time></trkpt><trkpt lat="45.9947841" lon="8.3734525"><ele>212.0</ele><time>2026-04-25T10:05:29.253Z</time></trkpt><trkpt lat="45.9947407" lon="8.3736399"><ele>212.0</ele><time>2026-04-25T10:05:30.254Z</time></trkpt><trkpt lat="45.9946944" lon="8.373826"><ele>212.0</ele><time>2026-04-25T10:05:31.26Z</time></trkpt><trkpt lat="45.9946479" lon="8.3740118"><ele>212.0</ele><time>2026-04-25T10:05:32.254Z</time></trkpt><trkpt lat="45.9946032" lon="8.3742"><ele>212.0</ele><time>2026-04-25T10:05:33.256Z</time></trkpt><trkpt lat="45.9945603" lon="8.3743912"><ele>212.5</ele><time>2026-04-25T10:05:34.255Z</time></trkpt><trkpt lat="45.9945187" lon="8.3745824"><ele>213.0</ele><time>2026-04-25T10:05:35.255Z</time></trkpt><trkpt lat="45.9944725" lon="8.3747723"><ele>213.5</ele><time>2026-04-25T10:05:36.256Z</time></trkpt><trkpt lat="45.9944225" lon="8.3749621"><ele>214.0</ele><time>2026-04-25T10:05:37.251Z</time></trkpt><trkpt lat="45.9943748" lon="8.3751551"><ele>214.0</ele><time>2026-04-25T10:05:38.256Z</time></trkpt><trkpt lat="45.9943294" lon="8.3753494"><ele>214.0</ele><time>2026-04-25T10:05:39.263Z</time></trkpt><trkpt lat="45.9942843" lon="8.3755311"><ele>214.0</ele><time>2026-04-25T10:05:40.259Z</time></trkpt><trkpt lat="45.9942437" lon="8.3757045"><ele>214.0</ele><time>2026-04-25T10:05:41.255Z</time></trkpt><trkpt lat="45.994207" lon="8.3758651"><ele>213.39999999999998</ele><time>2026-04-25T10:05:42.251Z</time></trkpt><trkpt lat="45.9941699" lon="8.3760224"><ele>212.79999999999998</ele><time>2026-04-25T10:05:43.253Z</time></trkpt><trkpt lat="45.9941307" lon="8.3761775"><ele>212.2</ele><time>2026-04-25T10:05:44.263Z</time></trkpt><trkpt lat="45.9940991" lon="8.3763216"><ele>211.60000000000002</ele><time>2026-04-25T10:05:45.254Z</time></trkpt><trkpt lat="45.9940725" lon="8.3764591"><ele>211.0</ele><time>2026-04-25T10:05:46.253Z</time></trkpt><trkpt lat="45.9940417" lon="8.3765721"><ele>210.99999999999997</ele><time>2026-04-25T10:05:47.254Z</time></trkpt><trkpt lat="45.9939927" lon="8.376675"><ele>211.0</ele><time>2026-04-25T10:05:48.249Z</time></trkpt><trkpt lat="45.9939555" lon="8.3767753"><ele>211.0</ele><time>2026-04-25T10:05:49.248Z</time></trkpt><trkpt lat="45.9939463" lon="8.3768759"><ele>211.0</ele><time>2026-04-25T10:05:50.231Z</time></trkpt><trkpt lat="45.993952" lon="8.3769768"><ele>210.99999999999997</ele><time>2026-04-25T10:05:51.148Z</time></trkpt><trkpt lat="45.9939946" lon="8.3771022"><ele>211.0</ele><time>2026-04-25T10:05:52.149Z</time></trkpt><trkpt lat="45.994028" lon="8.3772387"><ele>211.0</ele><time>2026-04-25T10:05:53.148Z</time></trkpt><trkpt lat="45.9940098" lon="8.3773762"><ele>211.0</ele><time>2026-04-25T10:05:54.158Z</time></trkpt><trkpt lat="45.9939678" lon="8.3775351"><ele>211.0</ele><time>2026-04-25T10:05:55.159Z</time></trkpt><trkpt lat="45.9939024" lon="8.3777207"><ele>211.0</ele><time>2026-04-25T10:05:56.166Z</time></trkpt><trkpt lat="45.9938488" lon="8.3779426"><ele>211.66666666666666</ele><time>2026-04-25T10:05:57.16Z</time></trkpt><trkpt lat="45.9938413" lon="8.3781922"><ele>212.33333333333331</ele><time>2026-04-25T10:05:58.156Z</time></trkpt><trkpt lat="45.9938823" lon="8.3784894"><ele>213.0</ele><time>2026-04-25T10:05:59.16Z</time></trkpt><trkpt lat="45.9939107" lon="8.3788109"><ele>213.5</ele><time>2026-04-25T10:06:00.163Z</time></trkpt><trkpt lat="45.9939427" lon="8.3791576"><ele>214.0</ele><time>2026-04-25T10:06:01.165Z</time></trkpt><trkpt lat="45.9939815" lon="8.3795199"><ele>213.5</ele><time>2026-04-25T10:06:02.162Z</time></trkpt><trkpt lat="45.9940042" lon="8.3798958"><ele>213.0</ele><time>2026-04-25T10:06:03.165Z</time></trkpt><trkpt lat="45.9940452" lon="8.3802829"><ele>212.0</ele><time>2026-04-25T10:06:04.159Z</time></trkpt><trkpt lat="45.9940725" lon="8.3806327"><ele>211.0</ele><time>2026-04-25T10:06:05.164Z</time></trkpt><trkpt lat="45.9940982" lon="8.3809441"><ele>211.0</ele><time>2026-04-25T10:06:06.161Z</time></trkpt><trkpt lat="45.9941198" lon="8.381234"><ele>211.0</ele><time>2026-04-25T10:06:07.158Z</time></trkpt><trkpt lat="45.9941457" lon="8.3815071"><ele>211.0</ele><time>2026-04-25T10:06:08.161Z</time></trkpt><trkpt lat="45.9941614" lon="8.3817694"><ele>211.66666666666666</ele><time>2026-04-25T10:06:09.162Z</time></trkpt><trkpt lat="45.9941837" lon="8.3820267"><ele>212.33333333333331</ele><time>2026-04-25T10:06:10.176Z</time></trkpt><trkpt lat="45.9942062" lon="8.3822841"><ele>213.0</ele><time>2026-04-25T10:06:11.161Z</time></trkpt><trkpt lat="45.9942374" lon="8.3825505"><ele>213.0</ele><time>2026-04-25T10:06:12.165Z</time></trkpt><trkpt lat="45.9942513" lon="8.3828035"><ele>213.0</ele><time>2026-04-25T10:06:13.164Z</time></trkpt><trkpt lat="45.9942714" lon="8.3830485"><ele>213.0</ele><time>2026-04-25T10:06:14.167Z</time></trkpt><trkpt lat="45.9943033" lon="8.3833001"><ele>213.0</ele><time>2026-04-25T10:06:15.177Z</time></trkpt><trkpt lat="45.9943159" lon="8.3835417"><ele>213.0</ele><time>2026-04-25T10:06:16.167Z</time></trkpt><trkpt lat="45.9943436" lon="8.3837853"><ele>213.0</ele><time>2026-04-25T10:06:17.168Z</time></trkpt><trkpt lat="45.9943669" lon="8.3840198"><ele>213.0</ele><time>2026-04-25T10:06:18.165Z</time></trkpt><trkpt lat="45.994385" lon="8.3842512"><ele>213.0</ele><time>2026-04-25T10:06:19.163Z</time></trkpt><trkpt lat="45.9943975" lon="8.384492"><ele>213.0</ele><time>2026-04-25T10:06:20.163Z</time></trkpt><trkpt lat="45.9944027" lon="8.3847325"><ele>213.0</ele><time>2026-04-25T10:06:21.16Z</time></trkpt><trkpt lat="45.9944273" lon="8.3849769"><ele>213.0</ele><time>2026-04-25T10:06:22.166Z</time></trkpt><trkpt lat="45.9944546" lon="8.3852311"><ele>213.0</ele><time>2026-04-25T10:06:23.166Z</time></trkpt><trkpt lat="45.9944739" lon="8.3854841"><ele>213.66666666666669</ele><time>2026-04-25T10:06:24.165Z</time></trkpt><trkpt lat="45.9944886" lon="8.3857283"><ele>214.33333333333334</ele><time>2026-04-25T10:06:25.165Z</time></trkpt><trkpt lat="45.994509" lon="8.3859695"><ele>215.0</ele><time>2026-04-25T10:06:26.166Z</time></trkpt><trkpt lat="45.9945295" lon="8.3862094"><ele>214.0</ele><time>2026-04-25T10:06:27.162Z</time></trkpt><trkpt lat="45.9945496" lon="8.3864512"><ele>213.0</ele><time>2026-04-25T10:06:28.161Z</time></trkpt><trkpt lat="45.9945642" lon="8.3866888"><ele>212.0</ele><time>2026-04-25T10:06:29.165Z</time></trkpt><trkpt lat="45.9945836" lon="8.3869334"><ele>212.0</ele><time>2026-04-25T10:06:30.164Z</time></trkpt><trkpt lat="45.9945975" lon="8.3871583"><ele>212.0</ele><time>2026-04-25T10:06:31.173Z</time></trkpt><trkpt lat="45.9946219" lon="8.3873896"><ele>212.0</ele><time>2026-04-25T10:06:32.165Z</time></trkpt><trkpt lat="45.9946394" lon="8.3876188"><ele>211.0</ele><time>2026-04-25T10:06:33.166Z</time></trkpt><trkpt lat="45.9946531" lon="8.387852"><ele>210.0</ele><time>2026-04-25T10:06:34.164Z</time></trkpt><trkpt lat="45.9946712" lon="8.3880713"><ele>209.0</ele><time>2026-04-25T10:06:35.164Z</time></trkpt><trkpt lat="45.9947014" lon="8.3882978"><ele>209.0</ele><time>2026-04-25T10:06:36.161Z</time></trkpt><trkpt lat="45.9947288" lon="8.3885268"><ele>209.0</ele><time>2026-04-25T10:06:37.163Z</time></trkpt><trkpt lat="45.9947591" lon="8.3887557"><ele>209.0</ele><time>2026-04-25T10:06:38.165Z</time></trkpt><trkpt lat="45.9947823" lon="8.3889838"><ele>209.66666666666669</ele><time>2026-04-25T10:06:39.165Z</time></trkpt><trkpt lat="45.9948076" lon="8.3892074"><ele>210.33333333333331</ele><time>2026-04-25T10:06:40.168Z</time></trkpt><trkpt lat="45.9948253" lon="8.389431"><ele>211.0</ele><time>2026-04-25T10:06:41.171Z</time></trkpt><trkpt lat="45.9948402" lon="8.3896619"><ele>211.33333333333331</ele><time>2026-04-25T10:06:42.163Z</time></trkpt><trkpt lat="45.9948419" lon="8.3898934"><ele>211.66666666666669</ele><time>2026-04-25T10:06:43.161Z</time></trkpt><trkpt lat="45.9948501" lon="8.3901117"><ele>212.0</ele><time>2026-04-25T10:06:44.162Z</time></trkpt><trkpt lat="45.9948663" lon="8.3903331"><ele>212.33333333333334</ele><time>2026-04-25T10:06:45.168Z</time></trkpt><trkpt lat="45.9948796" lon="8.3905571"><ele>212.66666666666669</ele><time>2026-04-25T10:06:46.162Z</time></trkpt><trkpt lat="45.9948862" lon="8.3907613"><ele>213.0</ele><time>2026-04-25T10:06:47.17Z</time></trkpt><trkpt lat="45.9949058" lon="8.3909849"><ele>213.0</ele><time>2026-04-25T10:06:48.165Z</time></trkpt><trkpt lat="45.9949269" lon="8.3912013"><ele>213.0</ele><time>2026-04-25T10:06:49.162Z</time></trkpt><trkpt lat="45.9949483" lon="8.3914275"><ele>213.0</ele><time>2026-04-25T10:06:50.16Z</time></trkpt><trkpt lat="45.9949604" lon="8.391641"><ele>213.33333333333331</ele><time>2026-04-25T10:06:51.162Z</time></trkpt><trkpt lat="45.9949879" lon="8.3918587"><ele>213.66666666666666</ele><time>2026-04-25T10:06:52.164Z</time></trkpt><trkpt lat="45.9950115" lon="8.3920792"><ele>214.0</ele><time>2026-04-25T10:06:53.165Z</time></trkpt><trkpt lat="45.9950314" lon="8.3923008"><ele>214.66666666666666</ele><time>2026-04-25T10:06:54.161Z</time></trkpt><trkpt lat="45.9950312" lon="8.3925193"><ele>215.33333333333331</ele><time>2026-04-25T10:06:55.165Z</time></trkpt><trkpt lat="45.9950401" lon="8.3927412"><ele>216.0</ele><time>2026-04-25T10:06:56.159Z</time></trkpt><trkpt lat="45.9950514" lon="8.3929585"><ele>217.33333333333331</ele><time>2026-04-25T10:06:57.167Z</time></trkpt><trkpt lat="45.9950651" lon="8.3931773"><ele>218.66666666666666</ele><time>2026-04-25T10:06:58.164Z</time></trkpt><trkpt lat="45.9950856" lon="8.3933973"><ele>220.0</ele><time>2026-04-25T10:06:59.166Z</time></trkpt><trkpt lat="45.9950996" lon="8.3936154"><ele>220.0</ele><time>2026-04-25T10:07:00.164Z</time></trkpt><trkpt lat="45.9951245" lon="8.3938334"><ele>220.0</ele><time>2026-04-25T10:07:01.17Z</time></trkpt><trkpt lat="45.995146" lon="8.3940586"><ele>220.0</ele><time>2026-04-25T10:07:02.166Z</time></trkpt><trkpt lat="45.995178" lon="8.3942808"><ele>220.66666666666666</ele><time>2026-04-25T10:07:03.166Z</time></trkpt><trkpt lat="45.9952045" lon="8.3944875"><ele>221.33333333333331</ele><time>2026-04-25T10:07:04.166Z</time></trkpt><trkpt lat="45.9952464" lon="8.3949145"><ele>222.0</ele><time>2026-04-25T10:07:06.166Z</time></trkpt><trkpt lat="45.9952595" lon="8.395133"><ele>222.33333333333331</ele><time>2026-04-25T10:07:07.164Z</time></trkpt><trkpt lat="45.9952811" lon="8.3953554"><ele>222.66666666666666</ele><time>2026-04-25T10:07:08.159Z</time></trkpt><trkpt lat="45.9952913" lon="8.3955735"><ele>223.0</ele><time>2026-04-25T10:07:09.159Z</time></trkpt><trkpt lat="45.995303" lon="8.3958019"><ele>222.0</ele><time>2026-04-25T10:07:10.165Z</time></trkpt><trkpt lat="45.9953093" lon="8.3960219"><ele>221.0</ele><time>2026-04-25T10:07:11.162Z</time></trkpt><trkpt lat="45.9952956" lon="8.3962361"><ele>220.0</ele><time>2026-04-25T10:07:12.168Z</time></trkpt><trkpt lat="45.9952726" lon="8.3964761"><ele>220.0</ele><time>2026-04-25T10:07:13.16Z</time></trkpt><trkpt lat="45.9952273" lon="8.396695"><ele>220.0</ele><time>2026-04-25T10:07:14.158Z</time></trkpt><trkpt lat="45.9951739" lon="8.3969131"><ele>220.0</ele><time>2026-04-25T10:07:15.162Z</time></trkpt><trkpt lat="45.9951091" lon="8.3971187"><ele>220.66666666666666</ele><time>2026-04-25T10:07:16.165Z</time></trkpt><trkpt lat="45.9950282" lon="8.3973071"><ele>221.33333333333331</ele><time>2026-04-25T10:07:17.164Z</time></trkpt><trkpt lat="45.9949564" lon="8.3975076"><ele>222.0</ele><time>2026-04-25T10:07:18.16Z</time></trkpt><trkpt lat="45.9948816" lon="8.3976975"><ele>219.66666666666669</ele><time>2026-04-25T10:07:19.162Z</time></trkpt><trkpt lat="45.9947976" lon="8.3978859"><ele>217.33333333333334</ele><time>2026-04-25T10:07:20.16Z</time></trkpt><trkpt lat="45.994715" lon="8.3980792"><ele>215.0</ele><time>2026-04-25T10:07:21.163Z</time></trkpt><trkpt lat="45.9946337" lon="8.3982691"><ele>214.66666666666669</ele><time>2026-04-25T10:07:22.164Z</time></trkpt><trkpt lat="45.9945461" lon="8.3984553"><ele>214.33333333333331</ele><time>2026-04-25T10:07:23.165Z</time></trkpt><trkpt lat="45.9944631" lon="8.3986492"><ele>214.0</ele><time>2026-04-25T10:07:24.166Z</time></trkpt><trkpt lat="45.9943981" lon="8.3988293"><ele>214.0</ele><time>2026-04-25T10:07:25.166Z</time></trkpt><trkpt lat="45.9943255" lon="8.3990023"><ele>214.0</ele><time>2026-04-25T10:07:26.166Z</time></trkpt><trkpt lat="45.9942513" lon="8.399193"><ele>214.0</ele><time>2026-04-25T10:07:27.165Z</time></trkpt><trkpt lat="45.9941752" lon="8.399376"><ele>214.0</ele><time>2026-04-25T10:07:28.164Z</time></trkpt><trkpt lat="45.9940978" lon="8.3995535"><ele>214.33333333333331</ele><time>2026-04-25T10:07:29.168Z</time></trkpt><trkpt lat="45.9940251" lon="8.3997385"><ele>214.66666666666669</ele><time>2026-04-25T10:07:30.164Z</time></trkpt><trkpt lat="45.9939485" lon="8.3999295"><ele>215.0</ele><time>2026-04-25T10:07:31.167Z</time></trkpt><trkpt lat="45.9938717" lon="8.4001174"><ele>215.0</ele><time>2026-04-25T10:07:32.162Z</time></trkpt><trkpt lat="45.993795" lon="8.4002998"><ele>215.0</ele><time>2026-04-25T10:07:33.166Z</time></trkpt><trkpt lat="45.9937164" lon="8.4004827"><ele>215.0</ele><time>2026-04-25T10:07:34.156Z</time></trkpt><trkpt lat="45.9936242" lon="8.4006553"><ele>215.0</ele><time>2026-04-25T10:07:35.157Z</time></trkpt><trkpt lat="45.9935478" lon="8.4008463"><ele>215.33333333333334</ele><time>2026-04-25T10:07:36.162Z</time></trkpt><trkpt lat="45.9934755" lon="8.4010469"><ele>215.66666666666669</ele><time>2026-04-25T10:07:37.166Z</time></trkpt><trkpt lat="45.9934068" lon="8.4012552"><ele>216.0</ele><time>2026-04-25T10:07:38.167Z</time></trkpt><trkpt lat="45.9933233" lon="8.4014493"><ele>216.0</ele><time>2026-04-25T10:07:39.166Z</time></trkpt><trkpt lat="45.993239" lon="8.4016385"><ele>216.0</ele><time>2026-04-25T10:07:40.169Z</time></trkpt><trkpt lat="45.9931645" lon="8.4018228"><ele>216.0</ele><time>2026-04-25T10:07:41.166Z</time></trkpt><trkpt lat="45.9930893" lon="8.4020215"><ele>217.0</ele><time>2026-04-25T10:07:42.164Z</time></trkpt><trkpt lat="45.9930125" lon="8.4022038"><ele>218.0</ele><time>2026-04-25T10:07:43.174Z</time></trkpt><trkpt lat="45.9929451" lon="8.4023841"><ele>219.0</ele><time>2026-04-25T10:07:44.16Z</time></trkpt><trkpt lat="45.9928629" lon="8.4025731"><ele>220.0</ele><time>2026-04-25T10:07:45.166Z</time></trkpt><trkpt lat="45.9927749" lon="8.4027651"><ele>220.0</ele><time>2026-04-25T10:07:46.167Z</time></trkpt><trkpt lat="45.9927054" lon="8.4029416"><ele>220.0</ele><time>2026-04-25T10:07:47.175Z</time></trkpt><trkpt lat="45.9926345" lon="8.4031296"><ele>220.0</ele><time>2026-04-25T10:07:48.17Z</time></trkpt><trkpt lat="45.9925621" lon="8.4033251"><ele>220.0</ele><time>2026-04-25T10:07:49.169Z</time></trkpt><trkpt lat="45.9924851" lon="8.4035057"><ele>218.0</ele><time>2026-04-25T10:07:50.169Z</time></trkpt><trkpt lat="45.9924076" lon="8.4036953"><ele>216.0</ele><time>2026-04-25T10:07:51.169Z</time></trkpt><trkpt lat="45.9923203" lon="8.4038871"><ele>214.0</ele><time>2026-04-25T10:07:52.168Z</time></trkpt><trkpt lat="45.9922445" lon="8.4040751"><ele>214.0</ele><time>2026-04-25T10:07:53.172Z</time></trkpt><trkpt lat="45.9921671" lon="8.4042651"><ele>214.0</ele><time>2026-04-25T10:07:54.168Z</time></trkpt><trkpt lat="45.9920819" lon="8.4044514"><ele>214.0</ele><time>2026-04-25T10:07:55.166Z</time></trkpt><trkpt lat="45.991996" lon="8.4046379"><ele>214.25</ele><time>2026-04-25T10:07:56.169Z</time></trkpt><trkpt lat="45.991923" lon="8.4048339"><ele>214.5</ele><time>2026-04-25T10:07:57.169Z</time></trkpt><trkpt lat="45.9918483" lon="8.4050111"><ele>214.75</ele><time>2026-04-25T10:07:58.169Z</time></trkpt><trkpt lat="45.9917702" lon="8.405194"><ele>215.0</ele><time>2026-04-25T10:07:59.171Z</time></trkpt><trkpt lat="45.9917037" lon="8.4053788"><ele>215.66666666666669</ele><time>2026-04-25T10:08:00.167Z</time></trkpt><trkpt lat="45.9916252" lon="8.4055684"><ele>216.33333333333331</ele><time>2026-04-25T10:08:01.171Z</time></trkpt><trkpt lat="45.9915543" lon="8.4057605"><ele>217.0</ele><time>2026-04-25T10:08:02.166Z</time></trkpt><trkpt lat="45.991482" lon="8.4059505"><ele>217.0</ele><time>2026-04-25T10:08:03.164Z</time></trkpt><trkpt lat="45.9914043" lon="8.4061346"><ele>217.0</ele><time>2026-04-25T10:08:04.165Z</time></trkpt><trkpt lat="45.9913308" lon="8.4063098"><ele>217.0</ele><time>2026-04-25T10:08:05.158Z</time></trkpt><trkpt lat="45.9912683" lon="8.4064929"><ele>217.0</ele><time>2026-04-25T10:08:06.159Z</time></trkpt><trkpt lat="45.9912163" lon="8.4066662"><ele>217.0</ele><time>2026-04-25T10:08:07.163Z</time></trkpt><trkpt lat="45.9911836" lon="8.4068549"><ele>217.0</ele><time>2026-04-25T10:08:08.166Z</time></trkpt><trkpt lat="45.9911561" lon="8.4070388"><ele>217.0</ele><time>2026-04-25T10:08:09.164Z</time></trkpt><trkpt lat="45.991131" lon="8.4072332"><ele>217.0</ele><time>2026-04-25T10:08:10.177Z</time></trkpt><trkpt lat="45.9911033" lon="8.4073982"><ele>216.5</ele><time>2026-04-25T10:08:11.167Z</time></trkpt><trkpt lat="45.9910619" lon="8.4075589"><ele>216.0</ele><time>2026-04-25T10:08:12.168Z</time></trkpt><trkpt lat="45.9909745" lon="8.4077076"><ele>215.5</ele><time>2026-04-25T10:08:13.162Z</time></trkpt><trkpt lat="45.9908662" lon="8.4078248"><ele>215.0</ele><time>2026-04-25T10:08:14.169Z</time></trkpt><trkpt lat="45.9907444" lon="8.407903"><ele>215.0</ele><time>2026-04-25T10:08:15.158Z</time></trkpt><trkpt lat="45.990598" lon="8.4079525"><ele>215.0</ele><time>2026-04-25T10:08:16.16Z</time></trkpt><trkpt lat="45.9904514" lon="8.4079774"><ele>215.0</ele><time>2026-04-25T10:08:17.16Z</time></trkpt><trkpt lat="45.9903122" lon="8.4079849"><ele>215.0</ele><time>2026-04-25T10:08:18.168Z</time></trkpt><trkpt lat="45.9901813" lon="8.4079806"><ele>214.66666666666669</ele><time>2026-04-25T10:08:19.162Z</time></trkpt><trkpt lat="45.9900384" lon="8.4080199"><ele>214.33333333333331</ele><time>2026-04-25T10:08:20.16Z</time></trkpt><trkpt lat="45.9899027" lon="8.4081336"><ele>214.0</ele><time>2026-04-25T10:08:21.163Z</time></trkpt><trkpt lat="45.9897581" lon="8.4082085"><ele>214.0</ele><time>2026-04-25T10:08:22.162Z</time></trkpt><trkpt lat="45.9896318" lon="8.4083002"><ele>214.0</ele><time>2026-04-25T10:08:23.153Z</time></trkpt><trkpt lat="45.9895087" lon="8.4083941"><ele>214.0</ele><time>2026-04-25T10:08:24.16Z</time></trkpt><trkpt lat="45.9894266" lon="8.4085325"><ele>214.0</ele><time>2026-04-25T10:08:25.157Z</time></trkpt><trkpt lat="45.9893638" lon="8.4086835"><ele>217.0</ele><time>2026-04-25T10:08:26.159Z</time></trkpt><trkpt lat="45.9893046" lon="8.4088509"><ele>220.0</ele><time>2026-04-25T10:08:27.162Z</time></trkpt><trkpt lat="45.9892672" lon="8.4090308"><ele>223.0</ele><time>2026-04-25T10:08:28.166Z</time></trkpt><trkpt lat="45.9892281" lon="8.4092169"><ele>226.0</ele><time>2026-04-25T10:08:29.166Z</time></trkpt><trkpt lat="45.9891928" lon="8.4094026"><ele>223.5</ele><time>2026-04-25T10:08:30.165Z</time></trkpt><trkpt lat="45.9891383" lon="8.4095917"><ele>221.0</ele><time>2026-04-25T10:08:31.166Z</time></trkpt><trkpt lat="45.9890752" lon="8.4097881"><ele>218.5</ele><time>2026-04-25T10:08:32.164Z</time></trkpt><trkpt lat="45.9889919" lon="8.4099655"><ele>216.0</ele><time>2026-04-25T10:08:33.168Z</time></trkpt><trkpt lat="45.988896" lon="8.4101473"><ele>216.0</ele><time>2026-04-25T10:08:34.167Z</time></trkpt><trkpt lat="45.9887927" lon="8.4103199"><ele>216.0</ele><time>2026-04-25T10:08:35.165Z</time></trkpt><trkpt lat="45.98865" lon="8.4104785"><ele>216.0</ele><time>2026-04-25T10:08:36.163Z</time></trkpt><trkpt lat="45.9885207" lon="8.4106204"><ele>214.66666666666669</ele><time>2026-04-25T10:08:37.164Z</time></trkpt><trkpt lat="45.9883892" lon="8.4107532"><ele>213.33333333333334</ele><time>2026-04-25T10:08:38.163Z</time></trkpt><trkpt lat="45.9882666" lon="8.4108891"><ele>212.0</ele><time>2026-04-25T10:08:39.166Z</time></trkpt><trkpt lat="45.9881361" lon="8.4110306"><ele>212.0</ele><time>2026-04-25T10:08:40.171Z</time></trkpt><trkpt lat="45.9880034" lon="8.4111695"><ele>212.0</ele><time>2026-04-25T10:08:41.169Z</time></trkpt><trkpt lat="45.9878832" lon="8.4113079"><ele>212.0</ele><time>2026-04-25T10:08:42.166Z</time></trkpt><trkpt lat="45.9877465" lon="8.4114183"><ele>213.25</ele><time>2026-04-25T10:08:43.164Z</time></trkpt><trkpt lat="45.987623" lon="8.4115253"><ele>214.5</ele><time>2026-04-25T10:08:44.164Z</time></trkpt><trkpt lat="45.9875052" lon="8.4116354"><ele>215.75</ele><time>2026-04-25T10:08:45.172Z</time></trkpt><trkpt lat="45.9873901" lon="8.4117347"><ele>217.0</ele><time>2026-04-25T10:08:46.163Z</time></trkpt><trkpt lat="45.9872754" lon="8.4118399"><ele>217.0</ele><time>2026-04-25T10:08:47.168Z</time></trkpt><trkpt lat="45.9871652" lon="8.4119425"><ele>217.0</ele><time>2026-04-25T10:08:48.169Z</time></trkpt><trkpt lat="45.9870395" lon="8.4120445"><ele>217.0</ele><time>2026-04-25T10:08:49.174Z</time></trkpt><trkpt lat="45.9869128" lon="8.412164"><ele>217.0</ele><time>2026-04-25T10:08:50.169Z</time></trkpt><trkpt lat="45.9868157" lon="8.4122772"><ele>216.75</ele><time>2026-04-25T10:08:51.168Z</time></trkpt><trkpt lat="45.9867193" lon="8.4124272"><ele>216.5</ele><time>2026-04-25T10:08:52.164Z</time></trkpt><trkpt lat="45.9866501" lon="8.4126103"><ele>216.25</ele><time>2026-04-25T10:08:53.165Z</time></trkpt><trkpt lat="45.9866002" lon="8.4127832"><ele>216.0</ele><time>2026-04-25T10:08:54.164Z</time></trkpt><trkpt lat="45.9865713" lon="8.4129844"><ele>221.0</ele><time>2026-04-25T10:08:55.162Z</time></trkpt><trkpt lat="45.9865137" lon="8.4131581"><ele>226.0</ele><time>2026-04-25T10:08:56.16Z</time></trkpt><trkpt lat="45.9864247" lon="8.4133331"><ele>231.0</ele><time>2026-04-25T10:08:57.162Z</time></trkpt><trkpt lat="45.9863201" lon="8.4135007"><ele>236.0</ele><time>2026-04-25T10:08:58.159Z</time></trkpt><trkpt lat="45.9861895" lon="8.4136296"><ele>236.0</ele><time>2026-04-25T10:08:59.159Z</time></trkpt><trkpt lat="45.986067" lon="8.4137617"><ele>236.0</ele><time>2026-04-25T10:09:00.162Z</time></trkpt><trkpt lat="45.9859332" lon="8.4138679"><ele>236.0</ele><time>2026-04-25T10:09:01.165Z</time></trkpt><trkpt lat="45.9857987" lon="8.4139563"><ele>233.75</ele><time>2026-04-25T10:09:02.165Z</time></trkpt><trkpt lat="45.9856595" lon="8.4140111"><ele>231.5</ele><time>2026-04-25T10:09:03.161Z</time></trkpt><trkpt lat="45.9855164" lon="8.4140366"><ele>229.25</ele><time>2026-04-25T10:09:04.167Z</time></trkpt><trkpt lat="45.9853561" lon="8.414056"><ele>227.0</ele><time>2026-04-25T10:09:05.165Z</time></trkpt><trkpt lat="45.9851981" lon="8.414057"><ele>227.0</ele><time>2026-04-25T10:09:06.169Z</time></trkpt><trkpt lat="45.9850441" lon="8.4140497"><ele>227.0</ele><time>2026-04-25T10:09:07.166Z</time></trkpt><trkpt lat="45.9848969" lon="8.4140538"><ele>227.0</ele><time>2026-04-25T10:09:08.163Z</time></trkpt><trkpt lat="45.9847454" lon="8.4140451"><ele>224.0</ele><time>2026-04-25T10:09:09.165Z</time></trkpt><trkpt lat="45.9845903" lon="8.4140579"><ele>221.0</ele><time>2026-04-25T10:09:10.165Z</time></trkpt><trkpt lat="45.9844341" lon="8.4141145"><ele>218.0</ele><time>2026-04-25T10:09:11.158Z</time></trkpt><trkpt lat="45.9842831" lon="8.4141867"><ele>217.33333333333334</ele><time>2026-04-25T10:09:12.164Z</time></trkpt><trkpt lat="45.9841359" lon="8.4142659"><ele>216.66666666666669</ele><time>2026-04-25T10:09:13.168Z</time></trkpt><trkpt lat="45.9839942" lon="8.414366"><ele>216.0</ele><time>2026-04-25T10:09:14.167Z</time></trkpt><trkpt lat="45.9838474" lon="8.414459"><ele>216.0</ele><time>2026-04-25T10:09:15.165Z</time></trkpt><trkpt lat="45.9837157" lon="8.4145395"><ele>216.0</ele><time>2026-04-25T10:09:16.173Z</time></trkpt><trkpt lat="45.9835713" lon="8.4146106"><ele>216.0</ele><time>2026-04-25T10:09:17.162Z</time></trkpt><trkpt lat="45.9834203" lon="8.4146781"><ele>213.5</ele><time>2026-04-25T10:09:18.165Z</time></trkpt><trkpt lat="45.9831348" lon="8.4148166"><ele>211.0</ele><time>2026-04-25T10:09:20.171Z</time></trkpt><trkpt lat="45.982994" lon="8.4149009"><ele>211.0</ele><time>2026-04-25T10:09:21.168Z</time></trkpt><trkpt lat="45.9828494" lon="8.4149847"><ele>211.0</ele><time>2026-04-25T10:09:22.168Z</time></trkpt><trkpt lat="45.9826978" lon="8.4150933"><ele>211.0</ele><time>2026-04-25T10:09:23.171Z</time></trkpt><trkpt lat="45.9825513" lon="8.4151946"><ele>210.33333333333331</ele><time>2026-04-25T10:09:24.168Z</time></trkpt><trkpt lat="45.9824168" lon="8.4153132"><ele>209.66666666666669</ele><time>2026-04-25T10:09:25.168Z</time></trkpt><trkpt lat="45.9822967" lon="8.4154411"><ele>209.0</ele><time>2026-04-25T10:09:26.166Z</time></trkpt><trkpt lat="45.9821762" lon="8.4155801"><ele>209.0</ele><time>2026-04-25T10:09:27.166Z</time></trkpt><trkpt lat="45.9820512" lon="8.4157048"><ele>209.0</ele><time>2026-04-25T10:09:28.167Z</time></trkpt><trkpt lat="45.9819392" lon="8.4158227"><ele>209.0</ele><time>2026-04-25T10:09:29.168Z</time></trkpt><trkpt lat="45.9818286" lon="8.4159335"><ele>209.0</ele><time>2026-04-25T10:09:30.171Z</time></trkpt><trkpt lat="45.9817162" lon="8.4160575"><ele>208.75</ele><time>2026-04-25T10:09:31.173Z</time></trkpt><trkpt lat="45.9816001" lon="8.4161813"><ele>208.5</ele><time>2026-04-25T10:09:32.172Z</time></trkpt><trkpt lat="45.9814831" lon="8.4162992"><ele>208.25</ele><time>2026-04-25T10:09:33.171Z</time></trkpt><trkpt lat="45.9813713" lon="8.4164298"><ele>208.0</ele><time>2026-04-25T10:09:34.171Z</time></trkpt><trkpt lat="45.9812388" lon="8.4165533"><ele>208.0</ele><time>2026-04-25T10:09:35.16Z</time></trkpt><trkpt lat="45.9811172" lon="8.4166689"><ele>208.0</ele><time>2026-04-25T10:09:36.167Z</time></trkpt><trkpt lat="45.981004" lon="8.4167934"><ele>208.0</ele><time>2026-04-25T10:09:37.165Z</time></trkpt><trkpt lat="45.980882" lon="8.4169094"><ele>208.0</ele><time>2026-04-25T10:09:38.166Z</time></trkpt><trkpt lat="45.9807603" lon="8.4170347"><ele>208.0</ele><time>2026-04-25T10:09:39.167Z</time></trkpt><trkpt lat="45.9806331" lon="8.4171507"><ele>208.0</ele><time>2026-04-25T10:09:40.171Z</time></trkpt><trkpt lat="45.980518" lon="8.4172723"><ele>208.0</ele><time>2026-04-25T10:09:41.165Z</time></trkpt><trkpt lat="45.9804029" lon="8.4173884"><ele>208.0</ele><time>2026-04-25T10:09:42.167Z</time></trkpt><trkpt lat="45.9802793" lon="8.4174988"><ele>208.5</ele><time>2026-04-25T10:09:43.166Z</time></trkpt><trkpt lat="45.980148" lon="8.4176183"><ele>209.0</ele><time>2026-04-25T10:09:44.159Z</time></trkpt><trkpt lat="45.980038" lon="8.417734"><ele>209.5</ele><time>2026-04-25T10:09:45.165Z</time></trkpt><trkpt lat="45.9799322" lon="8.4178435"><ele>210.0</ele><time>2026-04-25T10:09:46.161Z</time></trkpt><trkpt lat="45.979813" lon="8.4179657"><ele>212.75</ele><time>2026-04-25T10:09:47.176Z</time></trkpt><trkpt lat="45.9796881" lon="8.4180867"><ele>215.5</ele><time>2026-04-25T10:09:48.167Z</time></trkpt><trkpt lat="45.9795716" lon="8.418195"><ele>218.25</ele><time>2026-04-25T10:09:49.169Z</time></trkpt><trkpt lat="45.9794476" lon="8.4183196"><ele>221.0</ele><time>2026-04-25T10:09:50.165Z</time></trkpt><trkpt lat="45.9793194" lon="8.4184529"><ele>221.0</ele><time>2026-04-25T10:09:51.174Z</time></trkpt><trkpt lat="45.9792018" lon="8.41856"><ele>221.0</ele><time>2026-04-25T10:09:52.169Z</time></trkpt><trkpt lat="45.9790889" lon="8.418686"><ele>221.0</ele><time>2026-04-25T10:09:53.167Z</time></trkpt><trkpt lat="45.9789715" lon="8.4188088"><ele>221.0</ele><time>2026-04-25T10:09:54.165Z</time></trkpt><trkpt lat="45.9788482" lon="8.4189172"><ele>222.33333333333334</ele><time>2026-04-25T10:09:55.166Z</time></trkpt><trkpt lat="45.9787234" lon="8.419047"><ele>223.66666666666669</ele><time>2026-04-25T10:09:56.168Z</time></trkpt><trkpt lat="45.9786071" lon="8.4191795"><ele>225.0</ele><time>2026-04-25T10:09:57.167Z</time></trkpt><trkpt lat="45.9784865" lon="8.4193044"><ele>225.0</ele><time>2026-04-25T10:09:58.166Z</time></trkpt><trkpt lat="45.9783756" lon="8.4194187"><ele>225.0</ele><time>2026-04-25T10:09:59.169Z</time></trkpt><trkpt lat="45.9782563" lon="8.4195346"><ele>225.0</ele><time>2026-04-25T10:10:00.165Z</time></trkpt><trkpt lat="45.9781317" lon="8.4196595"><ele>225.0</ele><time>2026-04-25T10:10:01.171Z</time></trkpt><trkpt lat="45.9780059" lon="8.4197834"><ele>225.25</ele><time>2026-04-25T10:10:02.168Z</time></trkpt><trkpt lat="45.9778783" lon="8.4199017"><ele>225.5</ele><time>2026-04-25T10:10:03.167Z</time></trkpt><trkpt lat="45.9777627" lon="8.4200236"><ele>225.75</ele><time>2026-04-25T10:10:04.168Z</time></trkpt><trkpt lat="45.9776465" lon="8.4201467"><ele>226.0</ele><time>2026-04-25T10:10:05.168Z</time></trkpt><trkpt lat="45.9775312" lon="8.420262"><ele>226.0</ele><time>2026-04-25T10:10:06.169Z</time></trkpt><trkpt lat="45.9774193" lon="8.4203724"><ele>226.0</ele><time>2026-04-25T10:10:07.166Z</time></trkpt><trkpt lat="45.9773184" lon="8.4204955"><ele>226.0</ele><time>2026-04-25T10:10:08.165Z</time></trkpt><trkpt lat="45.9772098" lon="8.4206271"><ele>226.0</ele><time>2026-04-25T10:10:09.164Z</time></trkpt><trkpt lat="45.97712" lon="8.4207659"><ele>226.0</ele><time>2026-04-25T10:10:10.179Z</time></trkpt><trkpt lat="45.9770265" lon="8.4209227"><ele>226.0</ele><time>2026-04-25T10:10:11.174Z</time></trkpt><trkpt lat="45.9769372" lon="8.4210753"><ele>226.0</ele><time>2026-04-25T10:10:12.174Z</time></trkpt><trkpt lat="45.9768408" lon="8.4212377"><ele>226.0</ele><time>2026-04-25T10:10:13.173Z</time></trkpt><trkpt lat="45.9767481" lon="8.4214124"><ele>222.75</ele><time>2026-04-25T10:10:14.175Z</time></trkpt><trkpt lat="45.9766484" lon="8.4215904"><ele>219.5</ele><time>2026-04-25T10:10:15.167Z</time></trkpt><trkpt lat="45.976549" lon="8.4217563"><ele>216.25</ele><time>2026-04-25T10:10:16.17Z</time></trkpt><trkpt lat="45.9764533" lon="8.4218992"><ele>213.0</ele><time>2026-04-25T10:10:17.174Z</time></trkpt><trkpt lat="45.9763588" lon="8.4220495"><ele>214.25</ele><time>2026-04-25T10:10:18.181Z</time></trkpt><trkpt lat="45.9762783" lon="8.4222009"><ele>215.5</ele><time>2026-04-25T10:10:19.168Z</time></trkpt><trkpt lat="45.9761846" lon="8.4223544"><ele>216.75</ele><time>2026-04-25T10:10:20.17Z</time></trkpt><trkpt lat="45.9760963" lon="8.4225157"><ele>218.0</ele><time>2026-04-25T10:10:21.174Z</time></trkpt><trkpt lat="45.9760039" lon="8.4226702"><ele>218.0</ele><time>2026-04-25T10:10:22.181Z</time></trkpt><trkpt lat="45.9759022" lon="8.4228222"><ele>218.0</ele><time>2026-04-25T10:10:23.169Z</time></trkpt><trkpt lat="45.975791" lon="8.4229877"><ele>218.0</ele><time>2026-04-25T10:10:24.171Z</time></trkpt><trkpt lat="45.9756943" lon="8.4231458"><ele>215.33333333333334</ele><time>2026-04-25T10:10:25.171Z</time></trkpt><trkpt lat="45.9755969" lon="8.4233018"><ele>212.66666666666669</ele><time>2026-04-25T10:10:26.17Z</time></trkpt><trkpt lat="45.9754992" lon="8.423461"><ele>210.0</ele><time>2026-04-25T10:10:27.171Z</time></trkpt><trkpt lat="45.9753991" lon="8.423642"><ele>210.0</ele><time>2026-04-25T10:10:28.171Z</time></trkpt><trkpt lat="45.9753088" lon="8.4237981"><ele>210.0</ele><time>2026-04-25T10:10:29.175Z</time></trkpt><trkpt lat="45.9752071" lon="8.423963"><ele>210.0</ele><time>2026-04-25T10:10:30.171Z</time></trkpt><trkpt lat="45.9751146" lon="8.4241204"><ele>210.0</ele><time>2026-04-25T10:10:31.177Z</time></trkpt><trkpt lat="45.9750139" lon="8.4242794"><ele>209.66666666666669</ele><time>2026-04-25T10:10:32.17Z</time></trkpt><trkpt lat="45.9749163" lon="8.4244463"><ele>209.33333333333334</ele><time>2026-04-25T10:10:33.175Z</time></trkpt><trkpt lat="45.9748133" lon="8.4246157"><ele>209.0</ele><time>2026-04-25T10:10:34.171Z</time></trkpt><trkpt lat="45.9747163" lon="8.4247958"><ele>209.0</ele><time>2026-04-25T10:10:35.172Z</time></trkpt><trkpt lat="45.97462" lon="8.4249587"><ele>209.0</ele><time>2026-04-25T10:10:36.172Z</time></trkpt><trkpt lat="45.9745327" lon="8.4251208"><ele>209.0</ele><time>2026-04-25T10:10:37.17Z</time></trkpt><trkpt lat="45.9744371" lon="8.4252768"><ele>209.0</ele><time>2026-04-25T10:10:38.173Z</time></trkpt><trkpt lat="45.9743443" lon="8.4254311"><ele>209.25</ele><time>2026-04-25T10:10:39.172Z</time></trkpt><trkpt lat="45.9742475" lon="8.4255827"><ele>209.5</ele><time>2026-04-25T10:10:40.177Z</time></trkpt><trkpt lat="45.9741527" lon="8.4257396"><ele>209.75</ele><time>2026-04-25T10:10:41.176Z</time></trkpt><trkpt lat="45.9740703" lon="8.4258931"><ele>210.0</ele><time>2026-04-25T10:10:42.172Z</time></trkpt><trkpt lat="45.9739703" lon="8.4260307"><ele>209.0</ele><time>2026-04-25T10:10:43.174Z</time></trkpt><trkpt lat="45.9738726" lon="8.4261718"><ele>208.0</ele><time>2026-04-25T10:10:44.179Z</time></trkpt><trkpt lat="45.9737678" lon="8.4263072"><ele>207.0</ele><time>2026-04-25T10:10:45.172Z</time></trkpt><trkpt lat="45.97366" lon="8.4264475"><ele>206.0</ele><time>2026-04-25T10:10:46.176Z</time></trkpt><trkpt lat="45.973534" lon="8.4265747"><ele>206.0</ele><time>2026-04-25T10:10:47.179Z</time></trkpt><trkpt lat="45.9734077" lon="8.4266983"><ele>206.0</ele><time>2026-04-25T10:10:48.176Z</time></trkpt><trkpt lat="45.9732831" lon="8.4268157"><ele>206.0</ele><time>2026-04-25T10:10:49.183Z</time></trkpt><trkpt lat="45.9731515" lon="8.4269255"><ele>206.0</ele><time>2026-04-25T10:10:50.174Z</time></trkpt><trkpt lat="45.9730072" lon="8.4270343"><ele>206.0</ele><time>2026-04-25T10:10:51.177Z</time></trkpt><trkpt lat="45.9728672" lon="8.4271536"><ele>206.0</ele><time>2026-04-25T10:10:52.177Z</time></trkpt><trkpt lat="45.9727324" lon="8.4272652"><ele>205.66666666666669</ele><time>2026-04-25T10:10:53.184Z</time></trkpt><trkpt lat="45.9725968" lon="8.4273694"><ele>205.33333333333331</ele><time>2026-04-25T10:10:54.173Z</time></trkpt><trkpt lat="45.9724565" lon="8.427499"><ele>205.0</ele><time>2026-04-25T10:10:55.173Z</time></trkpt><trkpt lat="45.9723262" lon="8.4276156"><ele>205.66666666666666</ele><time>2026-04-25T10:10:56.175Z</time></trkpt><trkpt lat="45.9721925" lon="8.4277314"><ele>206.33333333333331</ele><time>2026-04-25T10:10:57.177Z</time></trkpt><trkpt lat="45.9720505" lon="8.4278465"><ele>207.0</ele><time>2026-04-25T10:10:58.175Z</time></trkpt><trkpt lat="45.9719045" lon="8.4279491"><ele>207.0</ele><time>2026-04-25T10:10:59.179Z</time></trkpt><trkpt lat="45.9717623" lon="8.4280473"><ele>207.0</ele><time>2026-04-25T10:11:00.176Z</time></trkpt><trkpt lat="45.9716228" lon="8.4281587"><ele>207.0</ele><time>2026-04-25T10:11:01.181Z</time></trkpt><trkpt lat="45.9714823" lon="8.4282695"><ele>207.0</ele><time>2026-04-25T10:11:02.177Z</time></trkpt><trkpt lat="45.9713592" lon="8.4283803"><ele>207.0</ele><time>2026-04-25T10:11:03.177Z</time></trkpt><trkpt lat="45.9712176" lon="8.4284946"><ele>207.0</ele><time>2026-04-25T10:11:04.178Z</time></trkpt><trkpt lat="45.9710807" lon="8.4286016"><ele>207.0</ele><time>2026-04-25T10:11:05.174Z</time></trkpt><trkpt lat="45.9709452" lon="8.4287123"><ele>207.0</ele><time>2026-04-25T10:11:06.18Z</time></trkpt><trkpt lat="45.9708105" lon="8.4288335"><ele>207.0</ele><time>2026-04-25T10:11:07.178Z</time></trkpt><trkpt lat="45.9706763" lon="8.4289545"><ele>206.33333333333331</ele><time>2026-04-25T10:11:08.174Z</time></trkpt><trkpt lat="45.97054" lon="8.4290711"><ele>205.66666666666666</ele><time>2026-04-25T10:11:09.176Z</time></trkpt><trkpt lat="45.9704073" lon="8.4291958"><ele>205.0</ele><time>2026-04-25T10:11:10.175Z</time></trkpt><trkpt lat="45.9702727" lon="8.4292993"><ele>205.0</ele><time>2026-04-25T10:11:11.177Z</time></trkpt><trkpt lat="45.9701416" lon="8.4294025"><ele>205.0</ele><time>2026-04-25T10:11:12.178Z</time></trkpt><trkpt lat="45.9700001" lon="8.4295338"><ele>205.0</ele><time>2026-04-25T10:11:13.17Z</time></trkpt><trkpt lat="45.9698672" lon="8.4296238"><ele>208.0</ele><time>2026-04-25T10:11:14.174Z</time></trkpt><trkpt lat="45.9697315" lon="8.429725"><ele>211.0</ele><time>2026-04-25T10:11:15.173Z</time></trkpt><trkpt lat="45.9695909" lon="8.4298437"><ele>214.0</ele><time>2026-04-25T10:11:16.176Z</time></trkpt><trkpt lat="45.9694526" lon="8.429959"><ele>214.0</ele><time>2026-04-25T10:11:17.18Z</time></trkpt><trkpt lat="45.9693111" lon="8.4300832"><ele>214.0</ele><time>2026-04-25T10:11:18.176Z</time></trkpt><trkpt lat="45.9691748" lon="8.4301958"><ele>214.0</ele><time>2026-04-25T10:11:19.183Z</time></trkpt><trkpt lat="45.9690441" lon="8.4303101"><ele>211.0</ele><time>2026-04-25T10:11:20.187Z</time></trkpt><trkpt lat="45.9688996" lon="8.4304177"><ele>208.0</ele><time>2026-04-25T10:11:21.175Z</time></trkpt><trkpt lat="45.9687538" lon="8.4305329"><ele>205.0</ele><time>2026-04-25T10:11:22.173Z</time></trkpt><trkpt lat="45.9686198" lon="8.4306481"><ele>205.66666666666666</ele><time>2026-04-25T10:11:23.174Z</time></trkpt><trkpt lat="45.9684788" lon="8.4307684"><ele>206.33333333333331</ele><time>2026-04-25T10:11:24.185Z</time></trkpt><trkpt lat="45.9683389" lon="8.4308781"><ele>207.0</ele><time>2026-04-25T10:11:25.177Z</time></trkpt><trkpt lat="45.9681987" lon="8.4309792"><ele>207.0</ele><time>2026-04-25T10:11:26.173Z</time></trkpt><trkpt lat="45.9680654" lon="8.4310871"><ele>207.0</ele><time>2026-04-25T10:11:27.174Z</time></trkpt><trkpt lat="45.9679311" lon="8.431203"><ele>207.0</ele><time>2026-04-25T10:11:28.173Z</time></trkpt><trkpt lat="45.9678156" lon="8.4313149"><ele>207.0</ele><time>2026-04-25T10:11:29.174Z</time></trkpt><trkpt lat="45.9676784" lon="8.4314339"><ele>208.33333333333331</ele><time>2026-04-25T10:11:30.172Z</time></trkpt><trkpt lat="45.9675389" lon="8.4315595"><ele>209.66666666666666</ele><time>2026-04-25T10:11:31.178Z</time></trkpt><trkpt lat="45.9674139" lon="8.4316534"><ele>211.0</ele><time>2026-04-25T10:11:32.165Z</time></trkpt><trkpt lat="45.9672781" lon="8.4317621"><ele>211.0</ele><time>2026-04-25T10:11:33.175Z</time></trkpt><trkpt lat="45.9671337" lon="8.4318829"><ele>211.0</ele><time>2026-04-25T10:11:34.174Z</time></trkpt><trkpt lat="45.9670032" lon="8.431999"><ele>211.0</ele><time>2026-04-25T10:11:35.177Z</time></trkpt><trkpt lat="45.9668675" lon="8.4321026"><ele>210.66666666666666</ele><time>2026-04-25T10:11:36.174Z</time></trkpt><trkpt lat="45.9667334" lon="8.4322125"><ele>210.33333333333331</ele><time>2026-04-25T10:11:37.174Z</time></trkpt><trkpt lat="45.9666172" lon="8.4323449"><ele>210.0</ele><time>2026-04-25T10:11:38.171Z</time></trkpt><trkpt lat="45.9665007" lon="8.4324761"><ele>210.0</ele><time>2026-04-25T10:11:39.174Z</time></trkpt><trkpt lat="45.9663721" lon="8.4326177"><ele>210.0</ele><time>2026-04-25T10:11:40.179Z</time></trkpt><trkpt lat="45.9662421" lon="8.4327564"><ele>210.0</ele><time>2026-04-25T10:11:41.176Z</time></trkpt><trkpt lat="45.9661201" lon="8.4329007"><ele>209.0</ele><time>2026-04-25T10:11:42.175Z</time></trkpt><trkpt lat="45.9660002" lon="8.433032"><ele>208.0</ele><time>2026-04-25T10:11:43.174Z</time></trkpt><trkpt lat="45.9658829" lon="8.433152"><ele>207.0</ele><time>2026-04-25T10:11:44.174Z</time></trkpt><trkpt lat="45.965763" lon="8.4332861"><ele>206.0</ele><time>2026-04-25T10:11:45.17Z</time></trkpt><trkpt lat="45.9656538" lon="8.4334018"><ele>206.0</ele><time>2026-04-25T10:11:46.173Z</time></trkpt><trkpt lat="45.9655457" lon="8.433533"><ele>206.0</ele><time>2026-04-25T10:11:47.178Z</time></trkpt><trkpt lat="45.9654378" lon="8.4336679"><ele>206.0</ele><time>2026-04-25T10:11:48.176Z</time></trkpt><trkpt lat="45.9653154" lon="8.4338028"><ele>206.0</ele><time>2026-04-25T10:11:49.174Z</time></trkpt><trkpt lat="45.9652023" lon="8.433937"><ele>204.66666666666669</ele><time>2026-04-25T10:11:50.17Z</time></trkpt><trkpt lat="45.9650768" lon="8.4340567"><ele>203.33333333333331</ele><time>2026-04-25T10:11:51.184Z</time></trkpt><trkpt lat="45.9649633" lon="8.4341901"><ele>202.0</ele><time>2026-04-25T10:11:52.175Z</time></trkpt><trkpt lat="45.9648412" lon="8.4343314"><ele>202.0</ele><time>2026-04-25T10:11:53.17Z</time></trkpt><trkpt lat="45.9647152" lon="8.4344701"><ele>202.0</ele><time>2026-04-25T10:11:54.17Z</time></trkpt><trkpt lat="45.964606" lon="8.4346086"><ele>202.0</ele><time>2026-04-25T10:11:55.177Z</time></trkpt><trkpt lat="45.9645034" lon="8.4347551"><ele>202.0</ele><time>2026-04-25T10:11:56.171Z</time></trkpt><trkpt lat="45.9644232" lon="8.434909"><ele>203.5</ele><time>2026-04-25T10:11:57.171Z</time></trkpt><trkpt lat="45.9643406" lon="8.4350706"><ele>205.0</ele><time>2026-04-25T10:11:58.174Z</time></trkpt><trkpt lat="45.9642695" lon="8.4352486"><ele>206.5</ele><time>2026-04-25T10:11:59.18Z</time></trkpt><trkpt lat="45.9642004" lon="8.4354401"><ele>208.0</ele><time>2026-04-25T10:12:00.177Z</time></trkpt><trkpt lat="45.9641404" lon="8.4356413"><ele>208.0</ele><time>2026-04-25T10:12:01.186Z</time></trkpt><trkpt lat="45.9640836" lon="8.4358281"><ele>208.0</ele><time>2026-04-25T10:12:02.18Z</time></trkpt><trkpt lat="45.9640369" lon="8.4360295"><ele>208.0</ele><time>2026-04-25T10:12:03.179Z</time></trkpt><trkpt lat="45.9639974" lon="8.4362312"><ele>208.0</ele><time>2026-04-25T10:12:04.179Z</time></trkpt><trkpt lat="45.9639821" lon="8.4364393"><ele>211.5</ele><time>2026-04-25T10:12:05.182Z</time></trkpt><trkpt lat="45.963948" lon="8.4366412"><ele>215.0</ele><time>2026-04-25T10:12:06.183Z</time></trkpt><trkpt lat="45.9639156" lon="8.4368437"><ele>218.5</ele><time>2026-04-25T10:12:07.178Z</time></trkpt><trkpt lat="45.9638934" lon="8.4370461"><ele>222.0</ele><time>2026-04-25T10:12:08.18Z</time></trkpt><trkpt lat="45.963862" lon="8.4372314"><ele>222.5</ele><time>2026-04-25T10:12:09.181Z</time></trkpt><trkpt lat="45.9638391" lon="8.4374097"><ele>223.0</ele><time>2026-04-25T10:12:10.19Z</time></trkpt><trkpt lat="45.9638064" lon="8.437581"><ele>223.5</ele><time>2026-04-25T10:12:11.185Z</time></trkpt><trkpt lat="45.9637724" lon="8.4377528"><ele>224.0</ele><time>2026-04-25T10:12:12.187Z</time></trkpt><trkpt lat="45.9637418" lon="8.437928"><ele>220.25</ele><time>2026-04-25T10:12:13.188Z</time></trkpt><trkpt lat="45.963701" lon="8.4381123"><ele>216.5</ele><time>2026-04-25T10:12:14.188Z</time></trkpt><trkpt lat="45.9636555" lon="8.4382986"><ele>212.75</ele><time>2026-04-25T10:12:15.187Z</time></trkpt><trkpt lat="45.9636053" lon="8.4384791"><ele>209.0</ele><time>2026-04-25T10:12:16.188Z</time></trkpt><trkpt lat="45.963542" lon="8.4386521"><ele>208.0</ele><time>2026-04-25T10:12:17.192Z</time></trkpt><trkpt lat="45.9634741" lon="8.4388488"><ele>207.0</ele><time>2026-04-25T10:12:18.193Z</time></trkpt><trkpt lat="45.9634188" lon="8.4390526"><ele>206.0</ele><time>2026-04-25T10:12:19.191Z</time></trkpt><trkpt lat="45.9633625" lon="8.439249"><ele>206.0</ele><time>2026-04-25T10:12:20.181Z</time></trkpt><trkpt lat="45.9632975" lon="8.439441"><ele>206.0</ele><time>2026-04-25T10:12:21.187Z</time></trkpt><trkpt lat="45.9632388" lon="8.4396426"><ele>206.0</ele><time>2026-04-25T10:12:22.202Z</time></trkpt><trkpt lat="45.9631851" lon="8.4398395"><ele>206.0</ele><time>2026-04-25T10:12:23.192Z</time></trkpt><trkpt lat="45.9631267" lon="8.4400267"><ele>206.0</ele><time>2026-04-25T10:12:24.187Z</time></trkpt><trkpt lat="45.9630695" lon="8.440222"><ele>206.0</ele><time>2026-04-25T10:12:25.187Z</time></trkpt><trkpt lat="45.9630065" lon="8.4404085"><ele>206.0</ele><time>2026-04-25T10:12:26.194Z</time></trkpt><trkpt lat="45.9629444" lon="8.4405933"><ele>206.0</ele><time>2026-04-25T10:12:27.186Z</time></trkpt><trkpt lat="45.9628882" lon="8.4407806"><ele>208.0</ele><time>2026-04-25T10:12:28.189Z</time></trkpt><trkpt lat="45.962836" lon="8.4409723"><ele>210.0</ele><time>2026-04-25T10:12:29.183Z</time></trkpt><trkpt lat="45.9627846" lon="8.441158"><ele>212.0</ele><time>2026-04-25T10:12:30.185Z</time></trkpt><trkpt lat="45.9627329" lon="8.4413316"><ele>214.0</ele><time>2026-04-25T10:12:31.192Z</time></trkpt><trkpt lat="45.9626842" lon="8.4415113"><ele>212.5</ele><time>2026-04-25T10:12:32.182Z</time></trkpt><trkpt lat="45.9626324" lon="8.4416951"><ele>211.0</ele><time>2026-04-25T10:12:33.186Z</time></trkpt><trkpt lat="45.9625741" lon="8.4418804"><ele>209.5</ele><time>2026-04-25T10:12:34.186Z</time></trkpt><trkpt lat="45.9625135" lon="8.4420684"><ele>208.0</ele><time>2026-04-25T10:12:35.186Z</time></trkpt><trkpt lat="45.9624698" lon="8.442256"><ele>208.0</ele><time>2026-04-25T10:12:36.187Z</time></trkpt><trkpt lat="45.9624169" lon="8.4424405"><ele>208.0</ele><time>2026-04-25T10:12:37.191Z</time></trkpt><trkpt lat="45.9623598" lon="8.4426141"><ele>208.0</ele><time>2026-04-25T10:12:38.19Z</time></trkpt><trkpt lat="45.9623089" lon="8.4427946"><ele>208.0</ele><time>2026-04-25T10:12:39.19Z</time></trkpt><trkpt lat="45.9622568" lon="8.4429779"><ele>208.25</ele><time>2026-04-25T10:12:40.193Z</time></trkpt><trkpt lat="45.962207" lon="8.443158"><ele>208.5</ele><time>2026-04-25T10:12:41.189Z</time></trkpt><trkpt lat="45.9621588" lon="8.4433352"><ele>208.75</ele><time>2026-04-25T10:12:42.189Z</time></trkpt><trkpt lat="45.962104" lon="8.4434987"><ele>209.0</ele><time>2026-04-25T10:12:43.188Z</time></trkpt><trkpt lat="45.9620489" lon="8.4436597"><ele>209.5</ele><time>2026-04-25T10:12:44.193Z</time></trkpt><trkpt lat="45.9619911" lon="8.4438422"><ele>210.0</ele><time>2026-04-25T10:12:45.19Z</time></trkpt><trkpt lat="45.9619355" lon="8.4440225"><ele>210.5</ele><time>2026-04-25T10:12:46.193Z</time></trkpt><trkpt lat="45.961889" lon="8.4442152"><ele>211.0</ele><time>2026-04-25T10:12:47.19Z</time></trkpt><trkpt lat="45.9618316" lon="8.4444014"><ele>211.0</ele><time>2026-04-25T10:12:48.19Z</time></trkpt><trkpt lat="45.9617794" lon="8.444576"><ele>211.0</ele><time>2026-04-25T10:12:49.194Z</time></trkpt><trkpt lat="45.961726" lon="8.4447626"><ele>211.0</ele><time>2026-04-25T10:12:50.195Z</time></trkpt><trkpt lat="45.9616751" lon="8.4449449"><ele>211.0</ele><time>2026-04-25T10:12:51.195Z</time></trkpt><trkpt lat="45.9616227" lon="8.4451245"><ele>210.75</ele><time>2026-04-25T10:12:52.191Z</time></trkpt><trkpt lat="45.9615675" lon="8.4453008"><ele>210.5</ele><time>2026-04-25T10:12:53.201Z</time></trkpt><trkpt lat="45.9615213" lon="8.4454593"><ele>210.25</ele><time>2026-04-25T10:12:54.19Z</time></trkpt><trkpt lat="45.9614761" lon="8.4456033"><ele>210.0</ele><time>2026-04-25T10:12:55.19Z</time></trkpt><trkpt lat="45.961431" lon="8.4457468"><ele>210.0</ele><time>2026-04-25T10:12:56.191Z</time></trkpt><trkpt lat="45.9613899" lon="8.4458985"><ele>210.0</ele><time>2026-04-25T10:12:57.199Z</time></trkpt><trkpt lat="45.9613454" lon="8.4460729"><ele>210.0</ele><time>2026-04-25T10:12:58.188Z</time></trkpt><trkpt lat="45.9612932" lon="8.4462615"><ele>210.0</ele><time>2026-04-25T10:12:59.189Z</time></trkpt><trkpt lat="45.9612625" lon="8.4464348"><ele>210.2</ele><time>2026-04-25T10:13:00.188Z</time></trkpt><trkpt lat="45.9612408" lon="8.4466068"><ele>210.4</ele><time>2026-04-25T10:13:01.19Z</time></trkpt><trkpt lat="45.9612217" lon="8.446758"><ele>210.60000000000002</ele><time>2026-04-25T10:13:02.181Z</time></trkpt><trkpt lat="45.9612029" lon="8.4468839"><ele>210.8</ele><time>2026-04-25T10:13:03.179Z</time></trkpt><trkpt lat="45.9611858" lon="8.4469843"><ele>211.0</ele><time>2026-04-25T10:13:04.179Z</time></trkpt><trkpt lat="45.9611525" lon="8.4471367"><ele>211.75</ele><time>2026-04-25T10:13:06.172Z</time></trkpt><trkpt lat="45.9611531" lon="8.4472393"><ele>212.5</ele><time>2026-04-25T10:13:08.2Z</time></trkpt><trkpt lat="45.9610681" lon="8.4473694"><ele>213.25</ele><time>2026-04-25T10:13:29.188Z</time></trkpt><trkpt lat="45.9609695" lon="8.4475825"><ele>214.0</ele><time>2026-04-25T10:13:31.186Z</time></trkpt><trkpt lat="45.9609205" lon="8.4477195"><ele>213.99999999999997</ele><time>2026-04-25T10:13:32.182Z</time></trkpt><trkpt lat="45.9608687" lon="8.4478424"><ele>214.0</ele><time>2026-04-25T10:13:33.18Z</time></trkpt><trkpt lat="45.9608382" lon="8.447953"><ele>214.0</ele><time>2026-04-25T10:13:34.178Z</time></trkpt><trkpt lat="45.9607979" lon="8.4480582"><ele>214.0</ele><time>2026-04-25T10:13:35.172Z</time></trkpt><trkpt lat="45.9607563" lon="8.4481606"><ele>213.99999999999997</ele><time>2026-04-25T10:13:36.176Z</time></trkpt><trkpt lat="45.9607148" lon="8.4482696"><ele>214.0</ele><time>2026-04-25T10:13:37.182Z</time></trkpt><trkpt lat="45.9606628" lon="8.4483649"><ele>213.16666666666666</ele><time>2026-04-25T10:13:38.179Z</time></trkpt><trkpt lat="45.9606104" lon="8.4484561"><ele>212.33333333333331</ele><time>2026-04-25T10:13:39.19Z</time></trkpt><trkpt lat="45.9605649" lon="8.4485493"><ele>211.5</ele><time>2026-04-25T10:13:40.187Z</time></trkpt><trkpt lat="45.9605452" lon="8.4486575"><ele>210.66666666666669</ele><time>2026-04-25T10:13:41.186Z</time></trkpt><trkpt lat="45.9604975" lon="8.4487416"><ele>209.83333333333334</ele><time>2026-04-25T10:13:42.18Z</time></trkpt><trkpt lat="45.9604396" lon="8.4488663"><ele>209.0</ele><time>2026-04-25T10:13:44.185Z</time></trkpt><trkpt lat="45.9604265" lon="8.4490009"><ele>208.33333333333334</ele><time>2026-04-25T10:13:46.186Z</time></trkpt><trkpt lat="45.9604973" lon="8.4491627"><ele>207.66666666666669</ele><time>2026-04-25T10:13:48.19Z</time></trkpt><trkpt lat="45.9605421" lon="8.4492467"><ele>207.0</ele><time>2026-04-25T10:13:49.189Z</time></trkpt><trkpt lat="45.9605837" lon="8.4493384"><ele>206.33333333333331</ele><time>2026-04-25T10:13:50.191Z</time></trkpt><trkpt lat="45.9606239" lon="8.4494261"><ele>205.66666666666666</ele><time>2026-04-25T10:13:51.189Z</time></trkpt><trkpt lat="45.9606539" lon="8.4495162"><ele>205.0</ele><time>2026-04-25T10:13:52.186Z</time></trkpt><trkpt lat="45.9606984" lon="8.4496328"><ele>204.5</ele><time>2026-04-25T10:13:53.194Z</time></trkpt><trkpt lat="45.9607496" lon="8.4497823"><ele>204.0</ele><time>2026-04-25T10:13:54.191Z</time></trkpt><trkpt lat="45.9608172" lon="8.4499285"><ele>203.5</ele><time>2026-04-25T10:13:55.286Z</time></trkpt><trkpt lat="45.9608866" lon="8.4500664"><ele>203.0</ele><time>2026-04-25T10:13:56.27Z</time></trkpt><trkpt lat="45.9609536" lon="8.4501979"><ele>205.8</ele><time>2026-04-25T10:13:57.27Z</time></trkpt><trkpt lat="45.9610231" lon="8.4503194"><ele>208.60000000000002</ele><time>2026-04-25T10:13:58.268Z</time></trkpt><trkpt lat="45.9610743" lon="8.4504654"><ele>211.39999999999998</ele><time>2026-04-25T10:13:59.276Z</time></trkpt><trkpt lat="45.9611124" lon="8.4506113"><ele>214.2</ele><time>2026-04-25T10:14:00.27Z</time></trkpt><trkpt lat="45.9611536" lon="8.4507476"><ele>217.0</ele><time>2026-04-25T10:14:01.261Z</time></trkpt><trkpt lat="45.9611913" lon="8.4508867"><ele>217.0</ele><time>2026-04-25T10:14:02.257Z</time></trkpt><trkpt lat="45.9612251" lon="8.4510296"><ele>217.0</ele><time>2026-04-25T10:14:03.254Z</time></trkpt><trkpt lat="45.9612563" lon="8.4511769"><ele>217.0</ele><time>2026-04-25T10:14:04.255Z</time></trkpt><trkpt lat="45.9612793" lon="8.4513321"><ele>217.0</ele><time>2026-04-25T10:14:05.271Z</time></trkpt><trkpt lat="45.9613046" lon="8.4514858"><ele>217.0</ele><time>2026-04-25T10:14:06.272Z</time></trkpt><trkpt lat="45.9613308" lon="8.4516417"><ele>216.6</ele><time>2026-04-25T10:14:07.258Z</time></trkpt><trkpt lat="45.9613369" lon="8.4517946"><ele>216.2</ele><time>2026-04-25T10:14:08.256Z</time></trkpt><trkpt lat="45.9613344" lon="8.4519505"><ele>215.8</ele><time>2026-04-25T10:14:09.258Z</time></trkpt><trkpt lat="45.9613189" lon="8.4521037"><ele>215.4</ele><time>2026-04-25T10:14:10.264Z</time></trkpt><trkpt lat="45.9613029" lon="8.4522608"><ele>215.0</ele><time>2026-04-25T10:14:11.273Z</time></trkpt><trkpt lat="45.961284" lon="8.4524208"><ele>214.0</ele><time>2026-04-25T10:14:12.276Z</time></trkpt><trkpt lat="45.9612641" lon="8.4525766"><ele>213.0</ele><time>2026-04-25T10:14:13.272Z</time></trkpt><trkpt lat="45.9612391" lon="8.4527419"><ele>212.0</ele><time>2026-04-25T10:14:14.275Z</time></trkpt><trkpt lat="45.9612141" lon="8.4529041"><ele>211.0</ele><time>2026-04-25T10:14:15.274Z</time></trkpt><trkpt lat="45.9611909" lon="8.4530659"><ele>210.5</ele><time>2026-04-25T10:14:16.27Z</time></trkpt><trkpt lat="45.9611794" lon="8.4532271"><ele>210.0</ele><time>2026-04-25T10:14:17.276Z</time></trkpt><trkpt lat="45.9611821" lon="8.4533898"><ele>209.5</ele><time>2026-04-25T10:14:18.269Z</time></trkpt><trkpt lat="45.9612021" lon="8.453553"><ele>209.0</ele><time>2026-04-25T10:14:19.271Z</time></trkpt><trkpt lat="45.9612244" lon="8.4537264"><ele>208.0</ele><time>2026-04-25T10:14:20.263Z</time></trkpt><trkpt lat="45.9612499" lon="8.4539286"><ele>207.0</ele><time>2026-04-25T10:14:21.264Z</time></trkpt><trkpt lat="45.9612725" lon="8.4541263"><ele>206.0</ele><time>2026-04-25T10:14:22.252Z</time></trkpt><trkpt lat="45.9612946" lon="8.4543177"><ele>205.0</ele><time>2026-04-25T10:14:23.253Z</time></trkpt><trkpt lat="45.9613219" lon="8.4545109"><ele>204.25</ele><time>2026-04-25T10:14:24.263Z</time></trkpt><trkpt lat="45.9613505" lon="8.4547045"><ele>203.5</ele><time>2026-04-25T10:14:25.276Z</time></trkpt><trkpt lat="45.9613785" lon="8.4548947"><ele>202.75</ele><time>2026-04-25T10:14:26.264Z</time></trkpt><trkpt lat="45.9614045" lon="8.4550824"><ele>202.0</ele><time>2026-04-25T10:14:27.266Z</time></trkpt><trkpt lat="45.9614233" lon="8.4552604"><ele>202.0</ele><time>2026-04-25T10:14:28.261Z</time></trkpt><trkpt lat="45.961426" lon="8.4554394"><ele>202.0</ele><time>2026-04-25T10:14:29.265Z</time></trkpt><trkpt lat="45.9614296" lon="8.4556295"><ele>202.0</ele><time>2026-04-25T10:14:30.273Z</time></trkpt><trkpt lat="45.9614345" lon="8.4558327"><ele>202.0</ele><time>2026-04-25T10:14:31.253Z</time></trkpt><trkpt lat="45.9614404" lon="8.4560361"><ele>203.0</ele><time>2026-04-25T10:14:32.255Z</time></trkpt><trkpt lat="45.9614453" lon="8.4562382"><ele>204.0</ele><time>2026-04-25T10:14:33.252Z</time></trkpt><trkpt lat="45.9614417" lon="8.4564419"><ele>205.0</ele><time>2026-04-25T10:14:34.25Z</time></trkpt><trkpt lat="45.9614353" lon="8.4566375"><ele>206.0</ele><time>2026-04-25T10:14:35.262Z</time></trkpt><trkpt lat="45.9614294" lon="8.4568348"><ele>206.75</ele><time>2026-04-25T10:14:36.263Z</time></trkpt><trkpt lat="45.9614232" lon="8.4570272"><ele>207.5</ele><time>2026-04-25T10:14:37.264Z</time></trkpt><trkpt lat="45.961415" lon="8.4572135"><ele>208.25</ele><time>2026-04-25T10:14:38.266Z</time></trkpt><trkpt lat="45.9614094" lon="8.4573959"><ele>209.0</ele><time>2026-04-25T10:14:39.265Z</time></trkpt><trkpt lat="45.9614091" lon="8.4575783"><ele>207.5</ele><time>2026-04-25T10:14:40.269Z</time></trkpt><trkpt lat="45.9614123" lon="8.4577519"><ele>206.0</ele><time>2026-04-25T10:14:41.264Z</time></trkpt><trkpt lat="45.9614371" lon="8.4579296"><ele>204.5</ele><time>2026-04-25T10:14:42.259Z</time></trkpt><trkpt lat="45.9614948" lon="8.4581099"><ele>203.0</ele><time>2026-04-25T10:14:43.257Z</time></trkpt><trkpt lat="45.9615663" lon="8.4582945"><ele>203.0</ele><time>2026-04-25T10:14:44.252Z</time></trkpt><trkpt lat="45.9616524" lon="8.4584876"><ele>203.0</ele><time>2026-04-25T10:14:45.167Z</time></trkpt><trkpt lat="45.9617306" lon="8.4586747"><ele>203.0</ele><time>2026-04-25T10:14:46.161Z</time></trkpt><trkpt lat="45.9618154" lon="8.4588492"><ele>207.75</ele><time>2026-04-25T10:14:47.166Z</time></trkpt><trkpt lat="45.9618731" lon="8.4590048"><ele>212.5</ele><time>2026-04-25T10:14:48.178Z</time></trkpt><trkpt lat="45.9619199" lon="8.4591641"><ele>217.25</ele><time>2026-04-25T10:14:49.178Z</time></trkpt><trkpt lat="45.9619535" lon="8.4593358"><ele>222.0</ele><time>2026-04-25T10:14:50.172Z</time></trkpt><trkpt lat="45.9619755" lon="8.4595217"><ele>223.0</ele><time>2026-04-25T10:14:51.172Z</time></trkpt><trkpt lat="45.9619604" lon="8.4596981"><ele>224.0</ele><time>2026-04-25T10:14:52.171Z</time></trkpt><trkpt lat="45.9619245" lon="8.459872"><ele>225.0</ele><time>2026-04-25T10:14:53.176Z</time></trkpt><trkpt lat="45.9618789" lon="8.4600484"><ele>226.0</ele><time>2026-04-25T10:14:54.175Z</time></trkpt><trkpt lat="45.9618347" lon="8.4602268"><ele>226.0</ele><time>2026-04-25T10:14:55.177Z</time></trkpt><trkpt lat="45.9618014" lon="8.4603913"><ele>226.0</ele><time>2026-04-25T10:14:56.182Z</time></trkpt><trkpt lat="45.9617963" lon="8.460553"><ele>226.0</ele><time>2026-04-25T10:14:57.17Z</time></trkpt><trkpt lat="45.9617975" lon="8.4607177"><ele>226.0</ele><time>2026-04-25T10:14:58.174Z</time></trkpt><trkpt lat="45.9618175" lon="8.4608699"><ele>224.75</ele><time>2026-04-25T10:14:59.174Z</time></trkpt><trkpt lat="45.9618631" lon="8.4610182"><ele>223.5</ele><time>2026-04-25T10:15:00.171Z</time></trkpt><trkpt lat="45.9619156" lon="8.461163"><ele>222.25</ele><time>2026-04-25T10:15:01.198Z</time></trkpt><trkpt lat="45.9619654" lon="8.4613114"><ele>221.0</ele><time>2026-04-25T10:15:02.175Z</time></trkpt><trkpt lat="45.9620051" lon="8.4614671"><ele>220.75</ele><time>2026-04-25T10:15:03.175Z</time></trkpt><trkpt lat="45.9620203" lon="8.46164"><ele>220.5</ele><time>2026-04-25T10:15:04.173Z</time></trkpt><trkpt lat="45.9620156" lon="8.461812"><ele>220.25</ele><time>2026-04-25T10:15:05.173Z</time></trkpt><trkpt lat="45.961991" lon="8.4619901"><ele>220.0</ele><time>2026-04-25T10:15:06.174Z</time></trkpt><trkpt lat="45.9619413" lon="8.4621671"><ele>222.75</ele><time>2026-04-25T10:15:07.176Z</time></trkpt><trkpt lat="45.9618826" lon="8.4623295"><ele>225.5</ele><time>2026-04-25T10:15:08.174Z</time></trkpt><trkpt lat="45.9618233" lon="8.4624978"><ele>228.25</ele><time>2026-04-25T10:15:09.175Z</time></trkpt><trkpt lat="45.9617659" lon="8.4626649"><ele>231.0</ele><time>2026-04-25T10:15:10.179Z</time></trkpt><trkpt lat="45.9617108" lon="8.4628362"><ele>227.0</ele><time>2026-04-25T10:15:11.179Z</time></trkpt><trkpt lat="45.96165" lon="8.4630064"><ele>223.0</ele><time>2026-04-25T10:15:12.176Z</time></trkpt><trkpt lat="45.9615956" lon="8.4631769"><ele>219.0</ele><time>2026-04-25T10:15:13.175Z</time></trkpt><trkpt lat="45.9615478" lon="8.4633576"><ele>215.0</ele><time>2026-04-25T10:15:14.178Z</time></trkpt><trkpt lat="45.96149" lon="8.4635294"><ele>215.0</ele><time>2026-04-25T10:15:15.175Z</time></trkpt><trkpt lat="45.9614305" lon="8.4637021"><ele>215.0</ele><time>2026-04-25T10:15:16.174Z</time></trkpt><trkpt lat="45.9613706" lon="8.4638847"><ele>215.0</ele><time>2026-04-25T10:15:17.18Z</time></trkpt><trkpt lat="45.9613149" lon="8.4640664"><ele>215.0</ele><time>2026-04-25T10:15:18.176Z</time></trkpt><trkpt lat="45.9612643" lon="8.4642456"><ele>216.25</ele><time>2026-04-25T10:15:19.177Z</time></trkpt><trkpt lat="45.9612101" lon="8.4644169"><ele>217.5</ele><time>2026-04-25T10:15:20.178Z</time></trkpt><trkpt lat="45.9611484" lon="8.4645866"><ele>218.75</ele><time>2026-04-25T10:15:21.178Z</time></trkpt><trkpt lat="45.9610915" lon="8.4647533"><ele>220.0</ele><time>2026-04-25T10:15:22.177Z</time></trkpt><trkpt lat="45.9610371" lon="8.4649226"><ele>222.0</ele><time>2026-04-25T10:15:23.181Z</time></trkpt><trkpt lat="45.9609803" lon="8.4650999"><ele>224.0</ele><time>2026-04-25T10:15:24.179Z</time></trkpt><trkpt lat="45.9609253" lon="8.4652835"><ele>226.0</ele><time>2026-04-25T10:15:25.174Z</time></trkpt><trkpt lat="45.9608843" lon="8.4654706"><ele>228.0</ele><time>2026-04-25T10:15:26.175Z</time></trkpt><trkpt lat="45.9608634" lon="8.4656748"><ele>224.75</ele><time>2026-04-25T10:15:27.184Z</time></trkpt><trkpt lat="45.9608407" lon="8.4658817"><ele>221.5</ele><time>2026-04-25T10:15:28.175Z</time></trkpt><trkpt lat="45.9608144" lon="8.4660842"><ele>218.25</ele><time>2026-04-25T10:15:29.175Z</time></trkpt><trkpt lat="45.960789" lon="8.4662821"><ele>215.0</ele><time>2026-04-25T10:15:30.176Z</time></trkpt><trkpt lat="45.9607467" lon="8.4664845"><ele>215.0</ele><time>2026-04-25T10:15:31.183Z</time></trkpt><trkpt lat="45.9606965" lon="8.4666703"><ele>215.0</ele><time>2026-04-25T10:15:32.173Z</time></trkpt><trkpt lat="45.9606291" lon="8.466852"><ele>215.0</ele><time>2026-04-25T10:15:33.172Z</time></trkpt><trkpt lat="45.9605401" lon="8.4670242"><ele>215.0</ele><time>2026-04-25T10:15:34.17Z</time></trkpt><trkpt lat="45.9604651" lon="8.4672005"><ele>218.75</ele><time>2026-04-25T10:15:35.167Z</time></trkpt><trkpt lat="45.9603843" lon="8.4673741"><ele>222.5</ele><time>2026-04-25T10:15:36.169Z</time></trkpt><trkpt lat="45.9602941" lon="8.4675428"><ele>226.25</ele><time>2026-04-25T10:15:37.173Z</time></trkpt><trkpt lat="45.9602143" lon="8.4677088"><ele>230.0</ele><time>2026-04-25T10:15:38.171Z</time></trkpt><trkpt lat="45.9601363" lon="8.467886"><ele>232.0</ele><time>2026-04-25T10:15:39.171Z</time></trkpt><trkpt lat="45.9600573" lon="8.468048"><ele>234.0</ele><time>2026-04-25T10:15:40.178Z</time></trkpt><trkpt lat="45.9599699" lon="8.4682132"><ele>236.0</ele><time>2026-04-25T10:15:41.174Z</time></trkpt><trkpt lat="45.9599009" lon="8.4683824"><ele>238.0</ele><time>2026-04-25T10:15:42.174Z</time></trkpt><trkpt lat="45.9598301" lon="8.4685555"><ele>234.0</ele><time>2026-04-25T10:15:43.172Z</time></trkpt><trkpt lat="45.9597476" lon="8.4687166"><ele>230.0</ele><time>2026-04-25T10:15:44.171Z</time></trkpt><trkpt lat="45.9596541" lon="8.4688784"><ele>226.0</ele><time>2026-04-25T10:15:45.17Z</time></trkpt><trkpt lat="45.9595723" lon="8.4690369"><ele>222.0</ele><time>2026-04-25T10:15:46.168Z</time></trkpt><trkpt lat="45.9594893" lon="8.4692002"><ele>222.0</ele><time>2026-04-25T10:15:47.174Z</time></trkpt><trkpt lat="45.959413" lon="8.4693654"><ele>222.0</ele><time>2026-04-25T10:15:48.17Z</time></trkpt><trkpt lat="45.9593399" lon="8.4695224"><ele>222.0</ele><time>2026-04-25T10:15:49.171Z</time></trkpt><trkpt lat="45.9592534" lon="8.4696779"><ele>222.0</ele><time>2026-04-25T10:15:50.173Z</time></trkpt><trkpt lat="45.9591594" lon="8.4698346"><ele>219.25</ele><time>2026-04-25T10:15:51.174Z</time></trkpt><trkpt lat="45.9590645" lon="8.469987"><ele>216.5</ele><time>2026-04-25T10:15:52.172Z</time></trkpt><trkpt lat="45.9589635" lon="8.4701283"><ele>213.75</ele><time>2026-04-25T10:15:53.174Z</time></trkpt><trkpt lat="45.9588681" lon="8.4702708"><ele>211.0</ele><time>2026-04-25T10:15:54.169Z</time></trkpt><trkpt lat="45.9587895" lon="8.4704187"><ele>212.5</ele><time>2026-04-25T10:15:55.169Z</time></trkpt><trkpt lat="45.9587239" lon="8.47058"><ele>214.0</ele><time>2026-04-25T10:15:56.166Z</time></trkpt><trkpt lat="45.9586534" lon="8.4707587"><ele>215.5</ele><time>2026-04-25T10:15:57.164Z</time></trkpt><trkpt lat="45.9586235" lon="8.4709591"><ele>217.0</ele><time>2026-04-25T10:15:58.18Z</time></trkpt><trkpt lat="45.9585881" lon="8.4711612"><ele>220.5</ele><time>2026-04-25T10:15:59.17Z</time></trkpt><trkpt lat="45.9585588" lon="8.4713667"><ele>224.0</ele><time>2026-04-25T10:16:00.172Z</time></trkpt><trkpt lat="45.9585123" lon="8.4715622"><ele>227.5</ele><time>2026-04-25T10:16:01.173Z</time></trkpt><trkpt lat="45.9584396" lon="8.4717392"><ele>231.0</ele><time>2026-04-25T10:16:02.174Z</time></trkpt><trkpt lat="45.9583525" lon="8.4719091"><ele>223.66666666666669</ele><time>2026-04-25T10:16:03.171Z</time></trkpt><trkpt lat="45.9582389" lon="8.4720824"><ele>216.33333333333334</ele><time>2026-04-25T10:16:04.171Z</time></trkpt><trkpt lat="45.9581247" lon="8.4722291"><ele>209.0</ele><time>2026-04-25T10:16:05.172Z</time></trkpt><trkpt lat="45.9580146" lon="8.4723723"><ele>209.0</ele><time>2026-04-25T10:16:06.171Z</time></trkpt><trkpt lat="45.9578955" lon="8.4725175"><ele>209.0</ele><time>2026-04-25T10:16:07.167Z</time></trkpt><trkpt lat="45.9577831" lon="8.4726666"><ele>209.0</ele><time>2026-04-25T10:16:08.172Z</time></trkpt><trkpt lat="45.9576659" lon="8.4727939"><ele>209.0</ele><time>2026-04-25T10:16:09.171Z</time></trkpt><trkpt lat="45.9575422" lon="8.4729108"><ele>209.0</ele><time>2026-04-25T10:16:10.176Z</time></trkpt><trkpt lat="45.9574193" lon="8.4730224"><ele>209.0</ele><time>2026-04-25T10:16:11.173Z</time></trkpt><trkpt lat="45.9572942" lon="8.4731471"><ele>209.0</ele><time>2026-04-25T10:16:12.172Z</time></trkpt><trkpt lat="45.957173" lon="8.4732522"><ele>209.75</ele><time>2026-04-25T10:16:13.169Z</time></trkpt><trkpt lat="45.9570525" lon="8.4733743"><ele>210.5</ele><time>2026-04-25T10:16:14.173Z</time></trkpt><trkpt lat="45.9569478" lon="8.4734934"><ele>211.25</ele><time>2026-04-25T10:16:15.176Z</time></trkpt><trkpt lat="45.9568362" lon="8.4736285"><ele>212.0</ele><time>2026-04-25T10:16:16.174Z</time></trkpt><trkpt lat="45.9567299" lon="8.4737724"><ele>212.5</ele><time>2026-04-25T10:16:17.178Z</time></trkpt><trkpt lat="45.9566269" lon="8.4739223"><ele>213.0</ele><time>2026-04-25T10:16:18.175Z</time></trkpt><trkpt lat="45.9565199" lon="8.4740614"><ele>213.5</ele><time>2026-04-25T10:16:19.177Z</time></trkpt><trkpt lat="45.9564151" lon="8.4741948"><ele>214.0</ele><time>2026-04-25T10:16:20.177Z</time></trkpt><trkpt lat="45.9563082" lon="8.4743343"><ele>214.0</ele><time>2026-04-25T10:16:21.178Z</time></trkpt><trkpt lat="45.9562092" lon="8.4744814"><ele>214.0</ele><time>2026-04-25T10:16:22.174Z</time></trkpt><trkpt lat="45.9561137" lon="8.4746323"><ele>214.0</ele><time>2026-04-25T10:16:23.177Z</time></trkpt><trkpt lat="45.9560058" lon="8.4747806"><ele>214.0</ele><time>2026-04-25T10:16:24.174Z</time></trkpt><trkpt lat="45.9558907" lon="8.4749143"><ele>211.75</ele><time>2026-04-25T10:16:25.169Z</time></trkpt><trkpt lat="45.9557632" lon="8.4750309"><ele>209.5</ele><time>2026-04-25T10:16:26.171Z</time></trkpt><trkpt lat="45.9556417" lon="8.4751474"><ele>207.25</ele><time>2026-04-25T10:16:27.168Z</time></trkpt><trkpt lat="45.9555075" lon="8.4752298"><ele>205.0</ele><time>2026-04-25T10:16:28.172Z</time></trkpt><trkpt lat="45.9553933" lon="8.4753103"><ele>205.0</ele><time>2026-04-25T10:16:29.174Z</time></trkpt><trkpt lat="45.9552858" lon="8.4754347"><ele>205.0</ele><time>2026-04-25T10:16:30.166Z</time></trkpt><trkpt lat="45.9552195" lon="8.4755979"><ele>205.0</ele><time>2026-04-25T10:16:31.167Z</time></trkpt><trkpt lat="45.9551601" lon="8.4757829"><ele>205.0</ele><time>2026-04-25T10:16:32.161Z</time></trkpt><trkpt lat="45.9551049" lon="8.4759996"><ele>207.0</ele><time>2026-04-25T10:16:33.171Z</time></trkpt><trkpt lat="45.9550603" lon="8.4761767"><ele>209.0</ele><time>2026-04-25T10:16:34.161Z</time></trkpt><trkpt lat="45.9550069" lon="8.4763518"><ele>211.0</ele><time>2026-04-25T10:16:35.164Z</time></trkpt><trkpt lat="45.9549317" lon="8.4765101"><ele>213.0</ele><time>2026-04-25T10:16:36.161Z</time></trkpt><trkpt lat="45.9548439" lon="8.4766657"><ele>213.0</ele><time>2026-04-25T10:16:37.161Z</time></trkpt><trkpt lat="45.9547371" lon="8.4768049"><ele>213.0</ele><time>2026-04-25T10:16:38.173Z</time></trkpt><trkpt lat="45.9546215" lon="8.4769193"><ele>213.0</ele><time>2026-04-25T10:16:39.167Z</time></trkpt><trkpt lat="45.954484" lon="8.4770068"><ele>213.0</ele><time>2026-04-25T10:16:40.17Z</time></trkpt><trkpt lat="45.9542106" lon="8.4771406"><ele>211.33333333333331</ele><time>2026-04-25T10:16:42.17Z</time></trkpt><trkpt lat="45.9540895" lon="8.4772183"><ele>209.66666666666666</ele><time>2026-04-25T10:16:43.173Z</time></trkpt><trkpt lat="45.953849" lon="8.4774318"><ele>208.0</ele><time>2026-04-25T10:16:45.168Z</time></trkpt><trkpt lat="45.9537665" lon="8.4776013"><ele>208.0</ele><time>2026-04-25T10:16:46.171Z</time></trkpt><trkpt lat="45.9536922" lon="8.4777915"><ele>208.0</ele><time>2026-04-25T10:16:47.169Z</time></trkpt><trkpt lat="45.953611" lon="8.4779832"><ele>208.0</ele><time>2026-04-25T10:16:48.174Z</time></trkpt><trkpt lat="45.9535219" lon="8.4781695"><ele>205.33333333333331</ele><time>2026-04-25T10:16:49.17Z</time></trkpt><trkpt lat="45.9534153" lon="8.4783329"><ele>202.66666666666669</ele><time>2026-04-25T10:16:50.167Z</time></trkpt><trkpt lat="45.9532959" lon="8.478486"><ele>200.0</ele><time>2026-04-25T10:16:51.168Z</time></trkpt><trkpt lat="45.9531878" lon="8.4786413"><ele>205.66666666666669</ele><time>2026-04-25T10:16:52.17Z</time></trkpt><trkpt lat="45.9530793" lon="8.4788019"><ele>211.33333333333331</ele><time>2026-04-25T10:16:53.169Z</time></trkpt><trkpt lat="45.9529651" lon="8.4789614"><ele>217.0</ele><time>2026-04-25T10:16:54.17Z</time></trkpt><trkpt lat="45.9528616" lon="8.4791054"><ele>217.0</ele><time>2026-04-25T10:16:55.171Z</time></trkpt><trkpt lat="45.9527641" lon="8.4792414"><ele>217.0</ele><time>2026-04-25T10:16:56.167Z</time></trkpt><trkpt lat="45.9526627" lon="8.4793799"><ele>217.0</ele><time>2026-04-25T10:16:57.165Z</time></trkpt><trkpt lat="45.9525585" lon="8.4795132"><ele>217.0</ele><time>2026-04-25T10:16:58.165Z</time></trkpt><trkpt lat="45.9524553" lon="8.4796552"><ele>216.0</ele><time>2026-04-25T10:16:59.166Z</time></trkpt><trkpt lat="45.952348" lon="8.4798079"><ele>215.0</ele><time>2026-04-25T10:17:00.174Z</time></trkpt><trkpt lat="45.9522432" lon="8.4799546"><ele>214.0</ele><time>2026-04-25T10:17:01.178Z</time></trkpt><trkpt lat="45.9521414" lon="8.4801151"><ele>213.0</ele><time>2026-04-25T10:17:02.174Z</time></trkpt><trkpt lat="45.952038" lon="8.4802562"><ele>213.0</ele><time>2026-04-25T10:17:03.172Z</time></trkpt><trkpt lat="45.9519306" lon="8.4804065"><ele>213.0</ele><time>2026-04-25T10:17:04.179Z</time></trkpt><trkpt lat="45.9518332" lon="8.4805765"><ele>213.0</ele><time>2026-04-25T10:17:05.171Z</time></trkpt><trkpt lat="45.9517354" lon="8.4807452"><ele>211.5</ele><time>2026-04-25T10:17:06.172Z</time></trkpt><trkpt lat="45.9516611" lon="8.4809232"><ele>210.0</ele><time>2026-04-25T10:17:07.173Z</time></trkpt><trkpt lat="45.9515887" lon="8.4810955"><ele>208.5</ele><time>2026-04-25T10:17:08.164Z</time></trkpt><trkpt lat="45.9515319" lon="8.4812896"><ele>207.0</ele><time>2026-04-25T10:17:09.168Z</time></trkpt><trkpt lat="45.9514729" lon="8.4814775"><ele>207.0</ele><time>2026-04-25T10:17:10.175Z</time></trkpt><trkpt lat="45.9514264" lon="8.4816637"><ele>207.0</ele><time>2026-04-25T10:17:11.173Z</time></trkpt><trkpt lat="45.9513823" lon="8.4818543"><ele>207.0</ele><time>2026-04-25T10:17:12.177Z</time></trkpt><trkpt lat="45.9513374" lon="8.482052"><ele>207.0</ele><time>2026-04-25T10:17:13.177Z</time></trkpt><trkpt lat="45.9512822" lon="8.4822506"><ele>208.75</ele><time>2026-04-25T10:17:14.173Z</time></trkpt><trkpt lat="45.9512283" lon="8.4824446"><ele>210.5</ele><time>2026-04-25T10:17:15.174Z</time></trkpt><trkpt lat="45.9511549" lon="8.4826297"><ele>212.25</ele><time>2026-04-25T10:17:16.17Z</time></trkpt><trkpt lat="45.9510707" lon="8.4828073"><ele>214.0</ele><time>2026-04-25T10:17:17.17Z</time></trkpt><trkpt lat="45.950964" lon="8.4829678"><ele>211.0</ele><time>2026-04-25T10:17:18.171Z</time></trkpt><trkpt lat="45.9508544" lon="8.4831218"><ele>208.0</ele><time>2026-04-25T10:17:19.174Z</time></trkpt><trkpt lat="45.9507425" lon="8.4832703"><ele>205.0</ele><time>2026-04-25T10:17:20.169Z</time></trkpt><trkpt lat="45.9506217" lon="8.4834234"><ele>205.0</ele><time>2026-04-25T10:17:21.166Z</time></trkpt><trkpt lat="45.9505088" lon="8.4835683"><ele>205.0</ele><time>2026-04-25T10:17:22.169Z</time></trkpt><trkpt lat="45.9503972" lon="8.4837141"><ele>205.0</ele><time>2026-04-25T10:17:23.171Z</time></trkpt><trkpt lat="45.9502957" lon="8.4838574"><ele>205.0</ele><time>2026-04-25T10:17:24.177Z</time></trkpt><trkpt lat="45.9501843" lon="8.4840009"><ele>204.0</ele><time>2026-04-25T10:17:25.173Z</time></trkpt><trkpt lat="45.9500763" lon="8.4841394"><ele>203.0</ele><time>2026-04-25T10:17:26.17Z</time></trkpt><trkpt lat="45.9499765" lon="8.4842973"><ele>202.0</ele><time>2026-04-25T10:17:27.169Z</time></trkpt><trkpt lat="45.949877" lon="8.4844531"><ele>201.0</ele><time>2026-04-25T10:17:28.17Z</time></trkpt><trkpt lat="45.9497802" lon="8.4846027"><ele>203.5</ele><time>2026-04-25T10:17:29.174Z</time></trkpt><trkpt lat="45.9496919" lon="8.4847684"><ele>206.0</ele><time>2026-04-25T10:17:30.166Z</time></trkpt><trkpt lat="45.9496177" lon="8.4849529"><ele>208.5</ele><time>2026-04-25T10:17:31.18Z</time></trkpt><trkpt lat="45.94958" lon="8.4851515"><ele>211.0</ele><time>2026-04-25T10:17:32.167Z</time></trkpt><trkpt lat="45.9495555" lon="8.4853626"><ele>217.0</ele><time>2026-04-25T10:17:33.172Z</time></trkpt><trkpt lat="45.9495109" lon="8.485577"><ele>223.0</ele><time>2026-04-25T10:17:34.168Z</time></trkpt><trkpt lat="45.9494322" lon="8.4857728"><ele>229.0</ele><time>2026-04-25T10:17:35.174Z</time></trkpt><trkpt lat="45.9493355" lon="8.4859569"><ele>229.0</ele><time>2026-04-25T10:17:36.167Z</time></trkpt><trkpt lat="45.9492235" lon="8.4861288"><ele>229.0</ele><time>2026-04-25T10:17:37.167Z</time></trkpt><trkpt lat="45.9491313" lon="8.4863185"><ele>229.0</ele><time>2026-04-25T10:17:38.16Z</time></trkpt><trkpt lat="45.9490218" lon="8.4864784"><ele>223.33333333333331</ele><time>2026-04-25T10:17:39.162Z</time></trkpt><trkpt lat="45.9489141" lon="8.4866459"><ele>217.66666666666669</ele><time>2026-04-25T10:17:40.166Z</time></trkpt><trkpt lat="45.9488135" lon="8.4868375"><ele>212.0</ele><time>2026-04-25T10:17:41.163Z</time></trkpt><trkpt lat="45.9487111" lon="8.4870121"><ele>215.0</ele><time>2026-04-25T10:17:42.166Z</time></trkpt><trkpt lat="45.9485988" lon="8.4871705"><ele>218.0</ele><time>2026-04-25T10:17:43.169Z</time></trkpt><trkpt lat="45.9484885" lon="8.4873453"><ele>221.0</ele><time>2026-04-25T10:17:44.168Z</time></trkpt><trkpt lat="45.9483767" lon="8.4874837"><ele>217.5</ele><time>2026-04-25T10:17:45.167Z</time></trkpt><trkpt lat="45.948265" lon="8.4876258"><ele>214.0</ele><time>2026-04-25T10:17:46.171Z</time></trkpt><trkpt lat="45.9481524" lon="8.4877597"><ele>210.5</ele><time>2026-04-25T10:17:47.178Z</time></trkpt><trkpt lat="45.9480391" lon="8.4879093"><ele>207.0</ele><time>2026-04-25T10:17:48.179Z</time></trkpt><trkpt lat="45.9479193" lon="8.488039"><ele>207.0</ele><time>2026-04-25T10:17:49.177Z</time></trkpt><trkpt lat="45.9477932" lon="8.4881677"><ele>207.0</ele><time>2026-04-25T10:17:50.179Z</time></trkpt><trkpt lat="45.9476683" lon="8.488309"><ele>207.0</ele><time>2026-04-25T10:17:51.177Z</time></trkpt><trkpt lat="45.947534" lon="8.4884424"><ele>206.0</ele><time>2026-04-25T10:17:52.181Z</time></trkpt><trkpt lat="45.9474159" lon="8.4885818"><ele>205.0</ele><time>2026-04-25T10:17:53.19Z</time></trkpt><trkpt lat="45.9472998" lon="8.4887222"><ele>204.0</ele><time>2026-04-25T10:17:54.187Z</time></trkpt><trkpt lat="45.9471798" lon="8.4888533"><ele>204.0</ele><time>2026-04-25T10:17:55.183Z</time></trkpt><trkpt lat="45.9470597" lon="8.4889788"><ele>204.0</ele><time>2026-04-25T10:17:56.186Z</time></trkpt><trkpt lat="45.9469326" lon="8.4890954"><ele>204.0</ele><time>2026-04-25T10:17:57.187Z</time></trkpt><trkpt lat="45.9468039" lon="8.4892272"><ele>203.66666666666669</ele><time>2026-04-25T10:17:58.189Z</time></trkpt><trkpt lat="45.9466778" lon="8.4893488"><ele>203.33333333333334</ele><time>2026-04-25T10:17:59.192Z</time></trkpt><trkpt lat="45.9465572" lon="8.4894778"><ele>203.0</ele><time>2026-04-25T10:18:00.192Z</time></trkpt><trkpt lat="45.946429" lon="8.4896129"><ele>203.5</ele><time>2026-04-25T10:18:01.198Z</time></trkpt><trkpt lat="45.9463163" lon="8.4897278"><ele>204.0</ele><time>2026-04-25T10:18:02.195Z</time></trkpt><trkpt lat="45.9462094" lon="8.4898383"><ele>204.5</ele><time>2026-04-25T10:18:03.185Z</time></trkpt><trkpt lat="45.9461121" lon="8.4899503"><ele>205.0</ele><time>2026-04-25T10:18:04.179Z</time></trkpt><trkpt lat="45.946028" lon="8.4900547"><ele>204.99999999999997</ele><time>2026-04-25T10:18:05.186Z</time></trkpt><trkpt lat="45.9459657" lon="8.4901448"><ele>205.0</ele><time>2026-04-25T10:18:06.186Z</time></trkpt><trkpt lat="45.9459531" lon="8.490258"><ele>205.0</ele><time>2026-04-25T10:18:07.193Z</time></trkpt><trkpt lat="45.9459743" lon="8.4903984"><ele>205.0</ele><time>2026-04-25T10:18:08.187Z</time></trkpt><trkpt lat="45.9460222" lon="8.4905193"><ele>204.99999999999997</ele><time>2026-04-25T10:18:09.185Z</time></trkpt><trkpt lat="45.946076" lon="8.4906108"><ele>205.0</ele><time>2026-04-25T10:18:10.194Z</time></trkpt><trkpt lat="45.9461246" lon="8.4906721"><ele>204.16666666666666</ele><time>2026-04-25T10:18:11.187Z</time></trkpt><trkpt lat="45.946134" lon="8.4908168"><ele>203.33333333333331</ele><time>2026-04-25T10:18:13.186Z</time></trkpt><trkpt lat="45.9460641" lon="8.4908889"><ele>202.5</ele><time>2026-04-25T10:18:14.183Z</time></trkpt><trkpt lat="45.945979" lon="8.4909143"><ele>201.66666666666669</ele><time>2026-04-25T10:18:15.188Z</time></trkpt><trkpt lat="45.9459065" lon="8.4908741"><ele>200.83333333333334</ele><time>2026-04-25T10:18:16.189Z</time></trkpt><trkpt lat="45.9458594" lon="8.4908037"><ele>200.0</ele><time>2026-04-25T10:18:17.197Z</time></trkpt><trkpt lat="45.9458519" lon="8.490696"><ele>200.0</ele><time>2026-04-25T10:18:18.192Z</time></trkpt><trkpt lat="45.9458581" lon="8.4905596"><ele>200.0</ele><time>2026-04-25T10:18:19.189Z</time></trkpt><trkpt lat="45.9458632" lon="8.4904026"><ele>200.0</ele><time>2026-04-25T10:18:20.179Z</time></trkpt><trkpt lat="45.9458658" lon="8.4902332"><ele>200.0</ele><time>2026-04-25T10:18:21.177Z</time></trkpt><trkpt lat="45.9458589" lon="8.4900293"><ele>200.0</ele><time>2026-04-25T10:18:22.18Z</time></trkpt><trkpt lat="45.9458375" lon="8.4898202"><ele>200.0</ele><time>2026-04-25T10:18:23.184Z</time></trkpt><trkpt lat="45.9458023" lon="8.4896227"><ele>200.0</ele><time>2026-04-25T10:18:24.187Z</time></trkpt><trkpt lat="45.9457912" lon="8.4894488"><ele>200.0</ele><time>2026-04-25T10:18:25.183Z</time></trkpt><trkpt lat="45.9457845" lon="8.4892889"><ele>199.83333333333334</ele><time>2026-04-25T10:18:26.184Z</time></trkpt><trkpt lat="45.9458043" lon="8.4891737"><ele>199.66666666666669</ele><time>2026-04-25T10:18:27.194Z</time></trkpt><trkpt lat="45.9458384" lon="8.4890554"><ele>199.5</ele><time>2026-04-25T10:18:28.194Z</time></trkpt><trkpt lat="45.9458786" lon="8.488926"><ele>199.33333333333331</ele><time>2026-04-25T10:18:29.272Z</time></trkpt><trkpt lat="45.9459182" lon="8.4888016"><ele>199.16666666666666</ele><time>2026-04-25T10:18:30.175Z</time></trkpt><trkpt lat="45.9459275" lon="8.4886885"><ele>199.0</ele><time>2026-04-25T10:18:31.189Z</time></trkpt><trkpt lat="45.9458857" lon="8.4885848"><ele>198.99999999999997</ele><time>2026-04-25T10:18:32.182Z</time></trkpt><trkpt lat="45.9458124" lon="8.4885258"><ele>199.0</ele><time>2026-04-25T10:18:33.197Z</time></trkpt><trkpt lat="45.9457333" lon="8.4885084"><ele>199.0</ele><time>2026-04-25T10:18:34.186Z</time></trkpt><trkpt lat="45.9456457" lon="8.4885485"><ele>199.0</ele><time>2026-04-25T10:18:35.179Z</time></trkpt><trkpt lat="45.9455717" lon="8.4886274"><ele>198.99999999999997</ele><time>2026-04-25T10:18:36.186Z</time></trkpt><trkpt lat="45.945545" lon="8.4887469"><ele>199.0</ele><time>2026-04-25T10:18:37.192Z</time></trkpt><trkpt lat="45.9455513" lon="8.4888898"><ele>199.0</ele><time>2026-04-25T10:18:38.173Z</time></trkpt><trkpt lat="45.9455887" lon="8.489033"><ele>199.0</ele><time>2026-04-25T10:18:39.182Z</time></trkpt><trkpt lat="45.9456329" lon="8.489142"><ele>199.0</ele><time>2026-04-25T10:18:40.193Z</time></trkpt><trkpt lat="45.945691" lon="8.4892441"><ele>199.0</ele><time>2026-04-25T10:18:41.19Z</time></trkpt><trkpt lat="45.9457424" lon="8.4893502"><ele>199.0</ele><time>2026-04-25T10:18:42.188Z</time></trkpt><trkpt lat="45.9457874" lon="8.4894664"><ele>199.2</ele><time>2026-04-25T10:18:43.184Z</time></trkpt><trkpt lat="45.9458235" lon="8.4896039"><ele>199.39999999999998</ele><time>2026-04-25T10:18:44.185Z</time></trkpt><trkpt lat="45.9458517" lon="8.4897473"><ele>199.6</ele><time>2026-04-25T10:18:45.189Z</time></trkpt><trkpt lat="45.9458645" lon="8.4898835"><ele>199.8</ele><time>2026-04-25T10:18:46.187Z</time></trkpt><trkpt lat="45.9458743" lon="8.4900119"><ele>200.0</ele><time>2026-04-25T10:18:47.192Z</time></trkpt><trkpt lat="45.9458697" lon="8.4901294"><ele>200.0</ele><time>2026-04-25T10:18:48.19Z</time></trkpt><trkpt lat="45.9458548" lon="8.4902397"><ele>200.0</ele><time>2026-04-25T10:18:49.186Z</time></trkpt><trkpt lat="45.9458357" lon="8.4903982"><ele>200.0</ele><time>2026-04-25T10:18:50.172Z</time></trkpt><trkpt lat="45.9458234" lon="8.4906118"><ele>200.0</ele><time>2026-04-25T10:18:51.185Z</time></trkpt><trkpt lat="45.9458155" lon="8.490837"><ele>200.0</ele><time>2026-04-25T10:18:52.183Z</time></trkpt><trkpt lat="45.9457997" lon="8.4910239"><ele>200.0</ele><time>2026-04-25T10:18:53.178Z</time></trkpt><trkpt lat="45.9457774" lon="8.4912108"><ele>200.0</ele><time>2026-04-25T10:18:54.182Z</time></trkpt><trkpt lat="45.9457794" lon="8.4914015"><ele>200.0</ele><time>2026-04-25T10:18:55.181Z</time></trkpt><trkpt lat="45.945778" lon="8.4915878"><ele>200.25</ele><time>2026-04-25T10:18:56.179Z</time></trkpt><trkpt lat="45.945777" lon="8.4917742"><ele>200.5</ele><time>2026-04-25T10:18:57.177Z</time></trkpt><trkpt lat="45.9457854" lon="8.4919625"><ele>200.75</ele><time>2026-04-25T10:18:58.175Z</time></trkpt><trkpt lat="45.9457902" lon="8.49214"><ele>201.0</ele><time>2026-04-25T10:18:59.179Z</time></trkpt><trkpt lat="45.9457952" lon="8.4923089"><ele>201.0</ele><time>2026-04-25T10:19:00.176Z</time></trkpt><trkpt lat="45.9457993" lon="8.4924681"><ele>201.0</ele><time>2026-04-25T10:19:01.181Z</time></trkpt><trkpt lat="45.9457999" lon="8.4926214"><ele>201.0</ele><time>2026-04-25T10:19:02.178Z</time></trkpt><trkpt lat="45.9457939" lon="8.4927709"><ele>201.0</ele><time>2026-04-25T10:19:03.177Z</time></trkpt><trkpt lat="45.9457924" lon="8.4929111"><ele>201.0</ele><time>2026-04-25T10:19:04.186Z</time></trkpt><trkpt lat="45.9458037" lon="8.4930306"><ele>201.16666666666666</ele><time>2026-04-25T10:19:05.178Z</time></trkpt><trkpt lat="45.9458081" lon="8.4931517"><ele>201.33333333333331</ele><time>2026-04-25T10:19:06.177Z</time></trkpt><trkpt lat="45.9458103" lon="8.4932636"><ele>201.5</ele><time>2026-04-25T10:19:07.176Z</time></trkpt><trkpt lat="45.9458081" lon="8.4933693"><ele>201.66666666666666</ele><time>2026-04-25T10:19:08.181Z</time></trkpt><trkpt lat="45.9458101" lon="8.4934631"><ele>201.83333333333331</ele><time>2026-04-25T10:19:09.171Z</time></trkpt><trkpt lat="45.9458014" lon="8.4936284"><ele>202.0</ele><time>2026-04-25T10:19:11.174Z</time></trkpt><trkpt lat="45.9458042" lon="8.4937815"><ele>202.39999999999998</ele><time>2026-04-25T10:19:13.173Z</time></trkpt><trkpt lat="45.9457914" lon="8.4939244"><ele>202.79999999999998</ele><time>2026-04-25T10:19:15.176Z</time></trkpt><trkpt lat="45.9457757" lon="8.4940912"><ele>203.2</ele><time>2026-04-25T10:19:17.176Z</time></trkpt><trkpt lat="45.9457631" lon="8.4942399"><ele>203.6</ele><time>2026-04-25T10:19:19.178Z</time></trkpt><trkpt lat="45.945753" lon="8.4943912"><ele>204.0</ele><time>2026-04-25T10:19:21.176Z</time></trkpt><trkpt lat="45.9457468" lon="8.4945526"><ele>203.66666666666666</ele><time>2026-04-25T10:19:23.177Z</time></trkpt><trkpt lat="45.9457334" lon="8.4947303"><ele>203.33333333333331</ele><time>2026-04-25T10:19:25.175Z</time></trkpt><trkpt lat="45.9457274" lon="8.4948309"><ele>203.0</ele><time>2026-04-25T10:19:26.179Z</time></trkpt><trkpt lat="45.9457229" lon="8.4949306"><ele>202.66666666666666</ele><time>2026-04-25T10:19:27.178Z</time></trkpt><trkpt lat="45.9457196" lon="8.4950351"><ele>202.33333333333331</ele><time>2026-04-25T10:19:28.177Z</time></trkpt><trkpt lat="45.9457183" lon="8.4951376"><ele>202.0</ele><time>2026-04-25T10:19:29.174Z</time></trkpt><trkpt lat="45.945701" lon="8.4952482"><ele>201.99999999999997</ele><time>2026-04-25T10:19:30.166Z</time></trkpt><trkpt lat="45.9456905" lon="8.4953594"><ele>202.0</ele><time>2026-04-25T10:19:31.166Z</time></trkpt><trkpt lat="45.9456579" lon="8.4954691"><ele>202.0</ele><time>2026-04-25T10:19:32.162Z</time></trkpt><trkpt lat="45.945625" lon="8.495569"><ele>202.0</ele><time>2026-04-25T10:19:33.161Z</time></trkpt><trkpt lat="45.9455976" lon="8.4956678"><ele>201.99999999999997</ele><time>2026-04-25T10:19:34.158Z</time></trkpt><trkpt lat="45.9455665" lon="8.495757"><ele>202.0</ele><time>2026-04-25T10:19:35.168Z</time></trkpt><trkpt lat="45.945526" lon="8.4958409"><ele>202.14285714285714</ele><time>2026-04-25T10:19:36.168Z</time></trkpt><trkpt lat="45.9454916" lon="8.4959276"><ele>202.28571428571428</ele><time>2026-04-25T10:19:37.173Z</time></trkpt><trkpt lat="45.9454612" lon="8.4960106"><ele>202.42857142857144</ele><time>2026-04-25T10:19:38.17Z</time></trkpt><trkpt lat="45.9454247" lon="8.4960911"><ele>202.57142857142856</ele><time>2026-04-25T10:19:39.177Z</time></trkpt><trkpt lat="45.9453824" lon="8.496174"><ele>202.71428571428572</ele><time>2026-04-25T10:19:40.185Z</time></trkpt><trkpt lat="45.9453371" lon="8.4962721"><ele>202.85714285714286</ele><time>2026-04-25T10:19:41.174Z</time></trkpt><trkpt lat="45.9452979" lon="8.4963607"><ele>203.0</ele><time>2026-04-25T10:19:42.171Z</time></trkpt><trkpt lat="45.9452643" lon="8.4964481"><ele>203.0</ele><time>2026-04-25T10:19:43.172Z</time></trkpt><trkpt lat="45.9452066" lon="8.4965697"><ele>203.0</ele><time>2026-04-25T10:19:45.165Z</time></trkpt><trkpt lat="45.9451674" lon="8.496695"><ele>203.0</ele><time>2026-04-25T10:20:09.164Z</time></trkpt><trkpt lat="45.9451334" lon="8.496796"><ele>203.0</ele><time>2026-04-25T10:20:10.175Z</time></trkpt><trkpt lat="45.9450882" lon="8.4969286"><ele>203.0</ele><time>2026-04-25T10:20:11.165Z</time></trkpt><trkpt lat="45.9450347" lon="8.497072"><ele>203.5</ele><time>2026-04-25T10:20:12.17Z</time></trkpt><trkpt lat="45.9449728" lon="8.4972225"><ele>204.0</ele><time>2026-04-25T10:20:13.169Z</time></trkpt><trkpt lat="45.9449133" lon="8.4973705"><ele>204.5</ele><time>2026-04-25T10:20:14.172Z</time></trkpt><trkpt lat="45.9448595" lon="8.4975281"><ele>205.0</ele><time>2026-04-25T10:20:15.168Z</time></trkpt><trkpt lat="45.9448078" lon="8.4976718"><ele>205.0</ele><time>2026-04-25T10:20:16.16Z</time></trkpt><trkpt lat="45.9447545" lon="8.4978119"><ele>205.0</ele><time>2026-04-25T10:20:17.167Z</time></trkpt><trkpt lat="45.9446864" lon="8.497951"><ele>205.0</ele><time>2026-04-25T10:20:18.17Z</time></trkpt><trkpt lat="45.9446254" lon="8.4980863"><ele>205.0</ele><time>2026-04-25T10:20:19.173Z</time></trkpt><trkpt lat="45.9445667" lon="8.4982201"><ele>205.8</ele><time>2026-04-25T10:20:20.172Z</time></trkpt><trkpt lat="45.9445149" lon="8.4983556"><ele>206.6</ele><time>2026-04-25T10:20:21.175Z</time></trkpt><trkpt lat="45.9444623" lon="8.4984814"><ele>207.39999999999998</ele><time>2026-04-25T10:20:22.172Z</time></trkpt><trkpt lat="45.9443988" lon="8.4986141"><ele>208.2</ele><time>2026-04-25T10:20:23.169Z</time></trkpt><trkpt lat="45.9443343" lon="8.4987514"><ele>209.0</ele><time>2026-04-25T10:20:24.168Z</time></trkpt><trkpt lat="45.9442556" lon="8.4988741"><ele>207.0</ele><time>2026-04-25T10:20:25.168Z</time></trkpt><trkpt lat="45.9441632" lon="8.4989766"><ele>205.0</ele><time>2026-04-25T10:20:26.167Z</time></trkpt><trkpt lat="45.9440669" lon="8.4990797"><ele>203.0</ele><time>2026-04-25T10:20:27.165Z</time></trkpt><trkpt lat="45.9439685" lon="8.4991783"><ele>201.0</ele><time>2026-04-25T10:20:28.17Z</time></trkpt><trkpt lat="45.9438625" lon="8.4992648"><ele>201.0</ele><time>2026-04-25T10:20:29.169Z</time></trkpt><trkpt lat="45.943752" lon="8.499353"><ele>201.0</ele><time>2026-04-25T10:20:30.168Z</time></trkpt><trkpt lat="45.9436411" lon="8.4994421"><ele>201.0</ele><time>2026-04-25T10:20:31.17Z</time></trkpt><trkpt lat="45.9435292" lon="8.4995379"><ele>201.0</ele><time>2026-04-25T10:20:32.169Z</time></trkpt><trkpt lat="45.9434193" lon="8.4996391"><ele>201.25</ele><time>2026-04-25T10:20:33.175Z</time></trkpt><trkpt lat="45.9433094" lon="8.4997557"><ele>201.5</ele><time>2026-04-25T10:20:34.172Z</time></trkpt><trkpt lat="45.9432126" lon="8.4998926"><ele>201.75</ele><time>2026-04-25T10:20:35.172Z</time></trkpt><trkpt lat="45.9431335" lon="8.5000458"><ele>202.0</ele><time>2026-04-25T10:20:36.173Z</time></trkpt><trkpt lat="45.943056" lon="8.500214"><ele>202.0</ele><time>2026-04-25T10:20:37.175Z</time></trkpt><trkpt lat="45.9430113" lon="8.5003931"><ele>202.0</ele><time>2026-04-25T10:20:38.167Z</time></trkpt><trkpt lat="45.9429526" lon="8.500562"><ele>202.0</ele><time>2026-04-25T10:20:39.17Z</time></trkpt><trkpt lat="45.9428909" lon="8.5007327"><ele>202.0</ele><time>2026-04-25T10:20:40.177Z</time></trkpt><trkpt lat="45.9428283" lon="8.5009137"><ele>203.25</ele><time>2026-04-25T10:20:41.179Z</time></trkpt><trkpt lat="45.9427609" lon="8.5010677"><ele>204.5</ele><time>2026-04-25T10:20:42.169Z</time></trkpt><trkpt lat="45.9426983" lon="8.5012447"><ele>205.75</ele><time>2026-04-25T10:20:43.17Z</time></trkpt><trkpt lat="45.9426297" lon="8.5014115"><ele>207.0</ele><time>2026-04-25T10:20:44.174Z</time></trkpt><trkpt lat="45.9425591" lon="8.5015877"><ele>207.0</ele><time>2026-04-25T10:20:45.175Z</time></trkpt><trkpt lat="45.9424938" lon="8.5017541"><ele>207.0</ele><time>2026-04-25T10:20:46.174Z</time></trkpt><trkpt lat="45.9424306" lon="8.5019269"><ele>207.0</ele><time>2026-04-25T10:20:47.173Z</time></trkpt><trkpt lat="45.9423463" lon="8.5021095"><ele>207.0</ele><time>2026-04-25T10:20:48.164Z</time></trkpt><trkpt lat="45.942266" lon="8.5022615"><ele>207.0</ele><time>2026-04-25T10:20:49.168Z</time></trkpt><trkpt lat="45.9421577" lon="8.5023993"><ele>207.0</ele><time>2026-04-25T10:20:50.168Z</time></trkpt><trkpt lat="45.9420524" lon="8.5025383"><ele>207.0</ele><time>2026-04-25T10:20:51.176Z</time></trkpt><trkpt lat="45.9419465" lon="8.502654"><ele>207.0</ele><time>2026-04-25T10:20:52.175Z</time></trkpt><trkpt lat="45.9418461" lon="8.5027871"><ele>206.25</ele><time>2026-04-25T10:20:53.177Z</time></trkpt><trkpt lat="45.9417311" lon="8.5029267"><ele>205.5</ele><time>2026-04-25T10:20:54.178Z</time></trkpt><trkpt lat="45.9416216" lon="8.503075"><ele>204.75</ele><time>2026-04-25T10:20:55.179Z</time></trkpt><trkpt lat="45.9415308" lon="8.5032346"><ele>204.0</ele><time>2026-04-25T10:20:56.171Z</time></trkpt><trkpt lat="45.9414667" lon="8.5034193"><ele>204.0</ele><time>2026-04-25T10:20:57.172Z</time></trkpt><trkpt lat="45.9414069" lon="8.503624"><ele>204.0</ele><time>2026-04-25T10:20:58.17Z</time></trkpt><trkpt lat="45.9413502" lon="8.5038386"><ele>204.0</ele><time>2026-04-25T10:20:59.163Z</time></trkpt><trkpt lat="45.9412878" lon="8.5042366"><ele>205.0</ele><time>2026-04-25T10:21:01.181Z</time></trkpt><trkpt lat="45.9412641" lon="8.5044394"><ele>206.0</ele><time>2026-04-25T10:21:02.172Z</time></trkpt><trkpt lat="45.9412478" lon="8.5046494"><ele>207.0</ele><time>2026-04-25T10:21:03.18Z</time></trkpt><trkpt lat="45.9412302" lon="8.504865"><ele>208.0</ele><time>2026-04-25T10:21:04.178Z</time></trkpt><trkpt lat="45.9411979" lon="8.5050794"><ele>208.0</ele><time>2026-04-25T10:21:05.182Z</time></trkpt><trkpt lat="45.941168" lon="8.5053006"><ele>208.0</ele><time>2026-04-25T10:21:06.179Z</time></trkpt><trkpt lat="45.9411405" lon="8.5055293"><ele>208.0</ele><time>2026-04-25T10:21:07.181Z</time></trkpt><trkpt lat="45.9411014" lon="8.5057436"><ele>210.0</ele><time>2026-04-25T10:21:08.19Z</time></trkpt><trkpt lat="45.9410637" lon="8.5059665"><ele>212.0</ele><time>2026-04-25T10:21:09.179Z</time></trkpt><trkpt lat="45.9410203" lon="8.5061812"><ele>214.0</ele><time>2026-04-25T10:21:10.182Z</time></trkpt><trkpt lat="45.9409826" lon="8.5064096"><ele>210.66666666666666</ele><time>2026-04-25T10:21:11.178Z</time></trkpt><trkpt lat="45.9409434" lon="8.5066421"><ele>207.33333333333331</ele><time>2026-04-25T10:21:12.184Z</time></trkpt><trkpt lat="45.9409026" lon="8.5068768"><ele>204.0</ele><time>2026-04-25T10:21:13.176Z</time></trkpt><trkpt lat="45.9408638" lon="8.5071134"><ele>204.0</ele><time>2026-04-25T10:21:14.178Z</time></trkpt><trkpt lat="45.9408379" lon="8.50734"><ele>204.0</ele><time>2026-04-25T10:21:15.172Z</time></trkpt><trkpt lat="45.9408117" lon="8.5075714"><ele>204.0</ele><time>2026-04-25T10:21:16.174Z</time></trkpt><trkpt lat="45.9407788" lon="8.5077937"><ele>204.0</ele><time>2026-04-25T10:21:17.177Z</time></trkpt><trkpt lat="45.9407477" lon="8.5080173"><ele>204.0</ele><time>2026-04-25T10:21:18.172Z</time></trkpt><trkpt lat="45.9407195" lon="8.5082403"><ele>204.0</ele><time>2026-04-25T10:21:19.173Z</time></trkpt><trkpt lat="45.9406899" lon="8.508467"><ele>204.0</ele><time>2026-04-25T10:21:20.173Z</time></trkpt><trkpt lat="45.9406534" lon="8.5086967"><ele>204.0</ele><time>2026-04-25T10:21:21.173Z</time></trkpt><trkpt lat="45.9406191" lon="8.508934"><ele>204.0</ele><time>2026-04-25T10:21:22.176Z</time></trkpt><trkpt lat="45.9405866" lon="8.5091728"><ele>204.66666666666669</ele><time>2026-04-25T10:21:23.18Z</time></trkpt><trkpt lat="45.9405494" lon="8.5094044"><ele>205.33333333333334</ele><time>2026-04-25T10:21:24.181Z</time></trkpt><trkpt lat="45.9405104" lon="8.5096296"><ele>206.0</ele><time>2026-04-25T10:21:25.174Z</time></trkpt><trkpt lat="45.9404823" lon="8.5098639"><ele>206.66666666666669</ele><time>2026-04-25T10:21:26.174Z</time></trkpt><trkpt lat="45.9404541" lon="8.5100948"><ele>207.33333333333331</ele><time>2026-04-25T10:21:27.172Z</time></trkpt><trkpt lat="45.9404381" lon="8.5103195"><ele>208.0</ele><time>2026-04-25T10:21:28.179Z</time></trkpt><trkpt lat="45.9404225" lon="8.5105436"><ele>209.0</ele><time>2026-04-25T10:21:29.172Z</time></trkpt><trkpt lat="45.9403974" lon="8.5107817"><ele>210.0</ele><time>2026-04-25T10:21:30.168Z</time></trkpt><trkpt lat="45.9403684" lon="8.5110126"><ele>211.0</ele><time>2026-04-25T10:21:31.17Z</time></trkpt><trkpt lat="45.9403284" lon="8.5112463"><ele>216.0</ele><time>2026-04-25T10:21:32.169Z</time></trkpt><trkpt lat="45.9402791" lon="8.5114765"><ele>221.0</ele><time>2026-04-25T10:21:33.171Z</time></trkpt><trkpt lat="45.9402282" lon="8.5116992"><ele>226.0</ele><time>2026-04-25T10:21:34.169Z</time></trkpt><trkpt lat="45.9401624" lon="8.5119081"><ele>222.0</ele><time>2026-04-25T10:21:35.169Z</time></trkpt><trkpt lat="45.9400924" lon="8.5121222"><ele>218.0</ele><time>2026-04-25T10:21:36.169Z</time></trkpt><trkpt lat="45.9400295" lon="8.5123301"><ele>214.0</ele><time>2026-04-25T10:21:37.17Z</time></trkpt><trkpt lat="45.939961" lon="8.5125319"><ele>214.0</ele><time>2026-04-25T10:21:38.17Z</time></trkpt><trkpt lat="45.9399" lon="8.5127295"><ele>214.0</ele><time>2026-04-25T10:21:39.18Z</time></trkpt><trkpt lat="45.9398493" lon="8.5129488"><ele>214.0</ele><time>2026-04-25T10:21:40.175Z</time></trkpt><trkpt lat="45.9397992" lon="8.5131641"><ele>219.33333333333331</ele><time>2026-04-25T10:21:41.172Z</time></trkpt><trkpt lat="45.9397457" lon="8.5133743"><ele>224.66666666666669</ele><time>2026-04-25T10:21:42.17Z</time></trkpt><trkpt lat="45.9396885" lon="8.5135936"><ele>230.0</ele><time>2026-04-25T10:21:43.18Z</time></trkpt><trkpt lat="45.9396366" lon="8.5138082"><ele>232.66666666666669</ele><time>2026-04-25T10:21:44.173Z</time></trkpt><trkpt lat="45.93958" lon="8.5140124"><ele>235.33333333333331</ele><time>2026-04-25T10:21:45.177Z</time></trkpt><trkpt lat="45.9395185" lon="8.5142206"><ele>238.0</ele><time>2026-04-25T10:21:46.177Z</time></trkpt><trkpt lat="45.9394575" lon="8.5144195"><ele>240.33333333333331</ele><time>2026-04-25T10:21:47.177Z</time></trkpt><trkpt lat="45.9393919" lon="8.5146201"><ele>242.66666666666669</ele><time>2026-04-25T10:21:48.168Z</time></trkpt><trkpt lat="45.9393091" lon="8.5148068"><ele>245.0</ele><time>2026-04-25T10:21:49.164Z</time></trkpt><trkpt lat="45.9392192" lon="8.514991"><ele>239.75</ele><time>2026-04-25T10:21:50.165Z</time></trkpt><trkpt lat="45.9391173" lon="8.5151448"><ele>234.5</ele><time>2026-04-25T10:21:51.164Z</time></trkpt><trkpt lat="45.9390118" lon="8.515255"><ele>229.25</ele><time>2026-04-25T10:21:52.168Z</time></trkpt><trkpt lat="45.9388977" lon="8.5153501"><ele>224.0</ele><time>2026-04-25T10:21:53.165Z</time></trkpt><trkpt lat="45.9387916" lon="8.5154263"><ele>224.0</ele><time>2026-04-25T10:21:54.168Z</time></trkpt><trkpt lat="45.9386929" lon="8.5154974"><ele>223.99999999999997</ele><time>2026-04-25T10:21:55.163Z</time></trkpt><trkpt lat="45.9385996" lon="8.5155637"><ele>223.99999999999997</ele><time>2026-04-25T10:21:56.167Z</time></trkpt><trkpt lat="45.9385031" lon="8.5156281"><ele>224.0</ele><time>2026-04-25T10:21:57.167Z</time></trkpt><trkpt lat="45.9384129" lon="8.5156987"><ele>224.0</ele><time>2026-04-25T10:21:58.166Z</time></trkpt><trkpt lat="45.9383285" lon="8.5157723"><ele>222.2</ele><time>2026-04-25T10:21:59.162Z</time></trkpt><trkpt lat="45.9382562" lon="8.5158591"><ele>220.39999999999998</ele><time>2026-04-25T10:22:00.163Z</time></trkpt><trkpt lat="45.9381913" lon="8.5159596"><ele>218.6</ele><time>2026-04-25T10:22:01.172Z</time></trkpt><trkpt lat="45.9381352" lon="8.5160561"><ele>216.8</ele><time>2026-04-25T10:22:02.17Z</time></trkpt><trkpt lat="45.938075" lon="8.5161685"><ele>215.0</ele><time>2026-04-25T10:22:03.166Z</time></trkpt><trkpt lat="45.938015" lon="8.5162965"><ele>215.0</ele><time>2026-04-25T10:22:04.161Z</time></trkpt><trkpt lat="45.9379635" lon="8.5164263"><ele>215.0</ele><time>2026-04-25T10:22:05.163Z</time></trkpt><trkpt lat="45.9379216" lon="8.5165541"><ele>215.0</ele><time>2026-04-25T10:22:06.164Z</time></trkpt><trkpt lat="45.9378785" lon="8.5166833"><ele>215.0</ele><time>2026-04-25T10:22:07.168Z</time></trkpt><trkpt lat="45.9378441" lon="8.5168142"><ele>215.0</ele><time>2026-04-25T10:22:08.166Z</time></trkpt><trkpt lat="45.9378143" lon="8.5169455"><ele>215.8</ele><time>2026-04-25T10:22:09.168Z</time></trkpt><trkpt lat="45.9377918" lon="8.5170799"><ele>216.6</ele><time>2026-04-25T10:22:10.185Z</time></trkpt><trkpt lat="45.9377748" lon="8.5172266"><ele>217.39999999999998</ele><time>2026-04-25T10:22:11.173Z</time></trkpt><trkpt lat="45.9377537" lon="8.5173746"><ele>218.2</ele><time>2026-04-25T10:22:12.175Z</time></trkpt><trkpt lat="45.9377323" lon="8.5175263"><ele>219.0</ele><time>2026-04-25T10:22:13.176Z</time></trkpt><trkpt lat="45.9377222" lon="8.5176827"><ele>219.0</ele><time>2026-04-25T10:22:14.183Z</time></trkpt><trkpt lat="45.9377144" lon="8.5178454"><ele>219.0</ele><time>2026-04-25T10:22:15.197Z</time></trkpt><trkpt lat="45.9376948" lon="8.5180071"><ele>219.0</ele><time>2026-04-25T10:22:16.253Z</time></trkpt><trkpt lat="45.9376538" lon="8.5181692"><ele>219.0</ele><time>2026-04-25T10:22:17.258Z</time></trkpt><trkpt lat="45.9375947" lon="8.5183168"><ele>215.25</ele><time>2026-04-25T10:22:18.254Z</time></trkpt><trkpt lat="45.9375297" lon="8.5184661"><ele>211.5</ele><time>2026-04-25T10:22:19.244Z</time></trkpt><trkpt lat="45.9374671" lon="8.518623"><ele>207.75</ele><time>2026-04-25T10:22:20.244Z</time></trkpt><trkpt lat="45.9374037" lon="8.5187793"><ele>204.0</ele><time>2026-04-25T10:22:21.241Z</time></trkpt><trkpt lat="45.9373373" lon="8.5189381"><ele>204.0</ele><time>2026-04-25T10:22:22.242Z</time></trkpt><trkpt lat="45.9372694" lon="8.5190908"><ele>204.0</ele><time>2026-04-25T10:22:23.258Z</time></trkpt><trkpt lat="45.9372049" lon="8.5192411"><ele>204.0</ele><time>2026-04-25T10:22:24.26Z</time></trkpt><trkpt lat="45.9371414" lon="8.519393"><ele>204.0</ele><time>2026-04-25T10:22:25.259Z</time></trkpt><trkpt lat="45.9370765" lon="8.519542"><ele>206.25</ele><time>2026-04-25T10:22:26.258Z</time></trkpt><trkpt lat="45.9370177" lon="8.5197094"><ele>208.5</ele><time>2026-04-25T10:22:27.254Z</time></trkpt><trkpt lat="45.9369577" lon="8.5198724"><ele>210.75</ele><time>2026-04-25T10:22:28.264Z</time></trkpt><trkpt lat="45.9368993" lon="8.5200329"><ele>213.0</ele><time>2026-04-25T10:22:29.259Z</time></trkpt><trkpt lat="45.9368416" lon="8.5201919"><ele>213.0</ele><time>2026-04-25T10:22:30.255Z</time></trkpt><trkpt lat="45.9367852" lon="8.5203506"><ele>213.0</ele><time>2026-04-25T10:22:31.259Z</time></trkpt><trkpt lat="45.9367293" lon="8.5205084"><ele>213.0</ele><time>2026-04-25T10:22:32.26Z</time></trkpt><trkpt lat="45.9366732" lon="8.5206587"><ele>213.0</ele><time>2026-04-25T10:22:33.26Z</time></trkpt><trkpt lat="45.9366159" lon="8.5208103"><ele>212.4</ele><time>2026-04-25T10:22:34.262Z</time></trkpt><trkpt lat="45.9365614" lon="8.5209561"><ele>211.8</ele><time>2026-04-25T10:22:35.263Z</time></trkpt><trkpt lat="45.9365168" lon="8.5210993"><ele>211.2</ele><time>2026-04-25T10:22:36.261Z</time></trkpt><trkpt lat="45.93648" lon="8.5212462"><ele>210.6</ele><time>2026-04-25T10:22:37.256Z</time></trkpt><trkpt lat="45.9364541" lon="8.5213925"><ele>210.0</ele><time>2026-04-25T10:22:38.262Z</time></trkpt><trkpt lat="45.9364391" lon="8.5215402"><ele>210.0</ele><time>2026-04-25T10:22:39.264Z</time></trkpt><trkpt lat="45.9364262" lon="8.5216936"><ele>210.0</ele><time>2026-04-25T10:22:40.267Z</time></trkpt><trkpt lat="45.9364164" lon="8.5218512"><ele>210.0</ele><time>2026-04-25T10:22:41.285Z</time></trkpt><trkpt lat="45.9364076" lon="8.522008"><ele>210.0</ele><time>2026-04-25T10:22:42.262Z</time></trkpt><trkpt lat="45.9363977" lon="8.522171"><ele>210.0</ele><time>2026-04-25T10:22:43.268Z</time></trkpt><trkpt lat="45.9363843" lon="8.5223345"><ele>210.25</ele><time>2026-04-25T10:22:44.265Z</time></trkpt><trkpt lat="45.936362" lon="8.5224981"><ele>210.5</ele><time>2026-04-25T10:22:45.269Z</time></trkpt><trkpt lat="45.9363275" lon="8.5226586"><ele>210.75</ele><time>2026-04-25T10:22:46.263Z</time></trkpt><trkpt lat="45.9362838" lon="8.5228172"><ele>211.0</ele><time>2026-04-25T10:22:47.252Z</time></trkpt><trkpt lat="45.9362369" lon="8.5229795"><ele>210.25</ele><time>2026-04-25T10:22:48.247Z</time></trkpt><trkpt lat="45.9361901" lon="8.5231427"><ele>209.5</ele><time>2026-04-25T10:22:49.251Z</time></trkpt><trkpt lat="45.9361448" lon="8.5233025"><ele>208.75</ele><time>2026-04-25T10:22:50.246Z</time></trkpt><trkpt lat="45.9361077" lon="8.5234647"><ele>208.0</ele><time>2026-04-25T10:22:51.257Z</time></trkpt><trkpt lat="45.9360697" lon="8.5236228"><ele>207.5</ele><time>2026-04-25T10:22:52.259Z</time></trkpt><trkpt lat="45.9360207" lon="8.5237767"><ele>207.0</ele><time>2026-04-25T10:22:53.246Z</time></trkpt><trkpt lat="45.9359696" lon="8.5239295"><ele>206.5</ele><time>2026-04-25T10:22:54.243Z</time></trkpt><trkpt lat="45.935913" lon="8.5240799"><ele>206.0</ele><time>2026-04-25T10:22:55.244Z</time></trkpt><trkpt lat="45.9358489" lon="8.5242295"><ele>206.0</ele><time>2026-04-25T10:22:56.243Z</time></trkpt><trkpt lat="45.9357759" lon="8.5243658"><ele>206.0</ele><time>2026-04-25T10:22:57.254Z</time></trkpt><trkpt lat="45.9356928" lon="8.5244909"><ele>206.0</ele><time>2026-04-25T10:22:58.257Z</time></trkpt><trkpt lat="45.9356098" lon="8.524607"><ele>206.0</ele><time>2026-04-25T10:22:59.245Z</time></trkpt><trkpt lat="45.9355279" lon="8.5247274"><ele>207.20000000000002</ele><time>2026-04-25T10:23:00.244Z</time></trkpt><trkpt lat="45.9354481" lon="8.5248449"><ele>208.4</ele><time>2026-04-25T10:23:01.249Z</time></trkpt><trkpt lat="45.935375" lon="8.5249595"><ele>209.6</ele><time>2026-04-25T10:23:02.241Z</time></trkpt><trkpt lat="45.9353062" lon="8.5250799"><ele>210.8</ele><time>2026-04-25T10:23:03.257Z</time></trkpt><trkpt lat="45.9352383" lon="8.5252068"><ele>212.0</ele><time>2026-04-25T10:23:04.263Z</time></trkpt><trkpt lat="45.9351749" lon="8.5253408"><ele>211.0</ele><time>2026-04-25T10:23:05.259Z</time></trkpt><trkpt lat="45.9351176" lon="8.5254827"><ele>210.0</ele><time>2026-04-25T10:23:06.259Z</time></trkpt><trkpt lat="45.9350663" lon="8.5256284"><ele>209.0</ele><time>2026-04-25T10:23:07.258Z</time></trkpt><trkpt lat="45.9350213" lon="8.5257639"><ele>208.0</ele><time>2026-04-25T10:23:08.256Z</time></trkpt><trkpt lat="45.9349825" lon="8.525912"><ele>207.0</ele><time>2026-04-25T10:23:09.262Z</time></trkpt><trkpt lat="45.9349495" lon="8.5260591"><ele>207.0</ele><time>2026-04-25T10:23:10.25Z</time></trkpt><trkpt lat="45.9349197" lon="8.5261948"><ele>207.0</ele><time>2026-04-25T10:23:11.248Z</time></trkpt><trkpt lat="45.9348902" lon="8.526325"><ele>207.0</ele><time>2026-04-25T10:23:12.238Z</time></trkpt><trkpt lat="45.9348678" lon="8.5264606"><ele>207.0</ele><time>2026-04-25T10:23:13.24Z</time></trkpt><trkpt lat="45.9348553" lon="8.5265963"><ele>207.0</ele><time>2026-04-25T10:23:14.26Z</time></trkpt><trkpt lat="45.9348435" lon="8.5267314"><ele>207.66666666666666</ele><time>2026-04-25T10:23:15.26Z</time></trkpt><trkpt lat="45.9348262" lon="8.5268661"><ele>208.33333333333331</ele><time>2026-04-25T10:23:16.262Z</time></trkpt><trkpt lat="45.9348086" lon="8.527"><ele>209.0</ele><time>2026-04-25T10:23:17.261Z</time></trkpt><trkpt lat="45.934782" lon="8.5271195"><ele>209.66666666666666</ele><time>2026-04-25T10:23:18.255Z</time></trkpt><trkpt lat="45.9347618" lon="8.5272364"><ele>210.33333333333331</ele><time>2026-04-25T10:23:19.261Z</time></trkpt><trkpt lat="45.9347419" lon="8.5273496"><ele>211.0</ele><time>2026-04-25T10:23:20.262Z</time></trkpt><trkpt lat="45.9347218" lon="8.527455"><ele>211.33333333333331</ele><time>2026-04-25T10:23:21.257Z</time></trkpt><trkpt lat="45.9346968" lon="8.5275523"><ele>211.66666666666666</ele><time>2026-04-25T10:23:22.257Z</time></trkpt><trkpt lat="45.9346743" lon="8.5276458"><ele>212.0</ele><time>2026-04-25T10:23:23.259Z</time></trkpt><trkpt lat="45.9346562" lon="8.5277336"><ele>212.33333333333331</ele><time>2026-04-25T10:23:24.26Z</time></trkpt><trkpt lat="45.9346127" lon="8.527864"><ele>212.66666666666666</ele><time>2026-04-25T10:23:26.251Z</time></trkpt><trkpt lat="45.9345852" lon="8.527969"><ele>213.0</ele><time>2026-04-25T10:23:28.264Z</time></trkpt><trkpt lat="45.9345501" lon="8.5280917"><ele>214.0</ele><time>2026-04-25T10:23:31.267Z</time></trkpt><trkpt lat="45.9345549" lon="8.528187"><ele>215.0</ele><time>2026-04-25T10:23:40.268Z</time></trkpt><trkpt lat="45.9345084" lon="8.5282504"><ele>216.0</ele><time>2026-04-25T10:23:45.266Z</time></trkpt><trkpt lat="45.9345277" lon="8.5283474"><ele>217.0</ele><time>2026-04-25T10:23:49.275Z</time></trkpt><trkpt lat="45.934561" lon="8.5284262"><ele>218.0</ele><time>2026-04-25T10:23:50.181Z</time></trkpt><trkpt lat="45.9345365" lon="8.5285628"><ele>219.0</ele><time>2026-04-25T10:23:53.18Z</time></trkpt><trkpt lat="45.9345016" lon="8.5287119"><ele>222.2</ele><time>2026-04-25T10:23:55.171Z</time></trkpt><trkpt lat="45.9344578" lon="8.5288679"><ele>225.39999999999998</ele><time>2026-04-25T10:23:57.171Z</time></trkpt><trkpt lat="45.9344368" lon="8.5289534"><ele>228.6</ele><time>2026-04-25T10:23:58.176Z</time></trkpt><trkpt lat="45.9344017" lon="8.529127"><ele>231.8</ele><time>2026-04-25T10:24:00.172Z</time></trkpt><trkpt lat="45.9343875" lon="8.5292272"><ele>235.0</ele><time>2026-04-25T10:24:01.173Z</time></trkpt><trkpt lat="45.9343739" lon="8.5293322"><ele>234.99999999999997</ele><time>2026-04-25T10:24:02.169Z</time></trkpt><trkpt lat="45.934354" lon="8.5294379"><ele>235.0</ele><time>2026-04-25T10:24:03.169Z</time></trkpt><trkpt lat="45.9343297" lon="8.5295502"><ele>235.0</ele><time>2026-04-25T10:24:04.171Z</time></trkpt><trkpt lat="45.9342992" lon="8.5296621"><ele>235.0</ele><time>2026-04-25T10:24:05.171Z</time></trkpt><trkpt lat="45.934273" lon="8.5297751"><ele>234.99999999999997</ele><time>2026-04-25T10:24:06.173Z</time></trkpt><trkpt lat="45.9342464" lon="8.5299024"><ele>235.0</ele><time>2026-04-25T10:24:07.174Z</time></trkpt><trkpt lat="45.9342256" lon="8.5300425"><ele>231.0</ele><time>2026-04-25T10:24:08.166Z</time></trkpt><trkpt lat="45.9342027" lon="8.5301875"><ele>227.0</ele><time>2026-04-25T10:24:09.167Z</time></trkpt><trkpt lat="45.9341766" lon="8.5303332"><ele>223.0</ele><time>2026-04-25T10:24:10.174Z</time></trkpt><trkpt lat="45.9341377" lon="8.5304871"><ele>219.0</ele><time>2026-04-25T10:24:11.172Z</time></trkpt><trkpt lat="45.9341034" lon="8.5306446"><ele>215.0</ele><time>2026-04-25T10:24:12.169Z</time></trkpt><trkpt lat="45.9340766" lon="8.530816"><ele>215.0</ele><time>2026-04-25T10:24:13.18Z</time></trkpt><trkpt lat="45.9340445" lon="8.5309903"><ele>215.0</ele><time>2026-04-25T10:24:14.169Z</time></trkpt><trkpt lat="45.9340114" lon="8.5311766"><ele>215.0</ele><time>2026-04-25T10:24:15.169Z</time></trkpt><trkpt lat="45.9339636" lon="8.5313614"><ele>215.0</ele><time>2026-04-25T10:24:16.169Z</time></trkpt><trkpt lat="45.9339053" lon="8.5315556"><ele>218.0</ele><time>2026-04-25T10:24:17.178Z</time></trkpt><trkpt lat="45.9338416" lon="8.5317472"><ele>221.0</ele><time>2026-04-25T10:24:18.168Z</time></trkpt><trkpt lat="45.9337677" lon="8.5319464"><ele>224.0</ele><time>2026-04-25T10:24:19.171Z</time></trkpt><trkpt lat="45.9337093" lon="8.5321592"><ele>225.66666666666669</ele><time>2026-04-25T10:24:20.169Z</time></trkpt><trkpt lat="45.9336573" lon="8.5323715"><ele>227.33333333333331</ele><time>2026-04-25T10:24:21.171Z</time></trkpt><trkpt lat="45.9336045" lon="8.5325792"><ele>229.0</ele><time>2026-04-25T10:24:22.17Z</time></trkpt><trkpt lat="45.933552" lon="8.5327965"><ele>230.33333333333331</ele><time>2026-04-25T10:24:23.17Z</time></trkpt><trkpt lat="45.9335032" lon="8.5330231"><ele>231.66666666666669</ele><time>2026-04-25T10:24:24.171Z</time></trkpt><trkpt lat="45.9334695" lon="8.5332586"><ele>233.0</ele><time>2026-04-25T10:24:25.169Z</time></trkpt><trkpt lat="45.9334419" lon="8.5334979"><ele>235.0</ele><time>2026-04-25T10:24:26.169Z</time></trkpt><trkpt lat="45.9334182" lon="8.5337308"><ele>237.0</ele><time>2026-04-25T10:24:27.169Z</time></trkpt><trkpt lat="45.9333847" lon="8.533945"><ele>239.0</ele><time>2026-04-25T10:24:28.172Z</time></trkpt><trkpt lat="45.9333562" lon="8.5341637"><ele>233.66666666666669</ele><time>2026-04-25T10:24:29.173Z</time></trkpt><trkpt lat="45.9333271" lon="8.5343879"><ele>228.33333333333331</ele><time>2026-04-25T10:24:30.171Z</time></trkpt><trkpt lat="45.9332987" lon="8.5346139"><ele>223.0</ele><time>2026-04-25T10:24:31.174Z</time></trkpt><trkpt lat="45.9332572" lon="8.534841"><ele>223.0</ele><time>2026-04-25T10:24:32.165Z</time></trkpt><trkpt lat="45.9332137" lon="8.5350643"><ele>223.0</ele><time>2026-04-25T10:24:33.164Z</time></trkpt><trkpt lat="45.9331798" lon="8.5352873"><ele>223.0</ele><time>2026-04-25T10:24:34.166Z</time></trkpt><trkpt lat="45.9331411" lon="8.5355101"><ele>223.66666666666666</ele><time>2026-04-25T10:24:35.168Z</time></trkpt><trkpt lat="45.9331229" lon="8.535731"><ele>224.33333333333331</ele><time>2026-04-25T10:24:36.171Z</time></trkpt><trkpt lat="45.93309" lon="8.5359617"><ele>225.0</ele><time>2026-04-25T10:24:37.171Z</time></trkpt><trkpt lat="45.933061" lon="8.5361717"><ele>227.0</ele><time>2026-04-25T10:24:38.174Z</time></trkpt><trkpt lat="45.9330146" lon="8.5363962"><ele>229.0</ele><time>2026-04-25T10:24:39.176Z</time></trkpt><trkpt lat="45.9329818" lon="8.5366028"><ele>231.0</ele><time>2026-04-25T10:24:40.179Z</time></trkpt><trkpt lat="45.9329342" lon="8.5368074"><ele>231.0</ele><time>2026-04-25T10:24:41.174Z</time></trkpt><trkpt lat="45.9329008" lon="8.5370101"><ele>231.0</ele><time>2026-04-25T10:24:42.175Z</time></trkpt><trkpt lat="45.9328732" lon="8.5372041"><ele>231.0</ele><time>2026-04-25T10:24:43.175Z</time></trkpt><trkpt lat="45.932856" lon="8.5373931"><ele>231.0</ele><time>2026-04-25T10:24:44.186Z</time></trkpt><trkpt lat="45.9328417" lon="8.5375837"><ele>232.75</ele><time>2026-04-25T10:24:45.175Z</time></trkpt><trkpt lat="45.9328316" lon="8.5377627"><ele>234.5</ele><time>2026-04-25T10:24:46.173Z</time></trkpt><trkpt lat="45.9328272" lon="8.5379394"><ele>236.25</ele><time>2026-04-25T10:24:47.174Z</time></trkpt><trkpt lat="45.9328209" lon="8.5381379"><ele>238.0</ele><time>2026-04-25T10:24:48.177Z</time></trkpt><trkpt lat="45.9328087" lon="8.5383392"><ele>239.75</ele><time>2026-04-25T10:24:49.172Z</time></trkpt><trkpt lat="45.9327971" lon="8.5385492"><ele>241.5</ele><time>2026-04-25T10:24:50.17Z</time></trkpt><trkpt lat="45.9327794" lon="8.5387654"><ele>243.25</ele><time>2026-04-25T10:24:51.174Z</time></trkpt><trkpt lat="45.9327648" lon="8.5389701"><ele>245.0</ele><time>2026-04-25T10:24:52.176Z</time></trkpt><trkpt lat="45.9327339" lon="8.539175"><ele>246.33333333333334</ele><time>2026-04-25T10:24:53.178Z</time></trkpt><trkpt lat="45.9326856" lon="8.5393822"><ele>247.66666666666669</ele><time>2026-04-25T10:24:54.18Z</time></trkpt><trkpt lat="45.9326368" lon="8.5395913"><ele>249.0</ele><time>2026-04-25T10:24:55.176Z</time></trkpt><trkpt lat="45.9325883" lon="8.5397895"><ele>243.75</ele><time>2026-04-25T10:24:56.178Z</time></trkpt><trkpt lat="45.9325503" lon="8.5399873"><ele>238.5</ele><time>2026-04-25T10:24:57.176Z</time></trkpt><trkpt lat="45.9325174" lon="8.5401793"><ele>233.25</ele><time>2026-04-25T10:24:58.178Z</time></trkpt><trkpt lat="45.9324747" lon="8.5403634"><ele>228.0</ele><time>2026-04-25T10:24:59.179Z</time></trkpt><trkpt lat="45.9324302" lon="8.540551"><ele>228.0</ele><time>2026-04-25T10:25:00.182Z</time></trkpt><trkpt lat="45.9323934" lon="8.540756"><ele>228.0</ele><time>2026-04-25T10:25:01.179Z</time></trkpt><trkpt lat="45.9323457" lon="8.5409467"><ele>228.0</ele><time>2026-04-25T10:25:02.177Z</time></trkpt><trkpt lat="45.9323147" lon="8.5411392"><ele>228.0</ele><time>2026-04-25T10:25:03.175Z</time></trkpt><trkpt lat="45.9322798" lon="8.5413237"><ele>228.75</ele><time>2026-04-25T10:25:04.178Z</time></trkpt><trkpt lat="45.932227" lon="8.5415016"><ele>229.5</ele><time>2026-04-25T10:25:05.178Z</time></trkpt><trkpt lat="45.9321862" lon="8.5416725"><ele>230.25</ele><time>2026-04-25T10:25:06.178Z</time></trkpt><trkpt lat="45.9321711" lon="8.5418617"><ele>231.0</ele><time>2026-04-25T10:25:07.174Z</time></trkpt><trkpt lat="45.932131" lon="8.542049"><ele>231.20000000000002</ele><time>2026-04-25T10:25:08.178Z</time></trkpt><trkpt lat="45.9320798" lon="8.5422018"><ele>231.40000000000003</ele><time>2026-04-25T10:25:09.177Z</time></trkpt><trkpt lat="45.9320281" lon="8.5423495"><ele>231.6</ele><time>2026-04-25T10:25:10.179Z</time></trkpt><trkpt lat="45.9319881" lon="8.542499"><ele>231.8</ele><time>2026-04-25T10:25:11.183Z</time></trkpt><trkpt lat="45.9319343" lon="8.5426284"><ele>232.0</ele><time>2026-04-25T10:25:12.185Z</time></trkpt><trkpt lat="45.9318884" lon="8.5427622"><ele>232.0</ele><time>2026-04-25T10:25:13.186Z</time></trkpt><trkpt lat="45.9318416" lon="8.5428946"><ele>232.0</ele><time>2026-04-25T10:25:14.187Z</time></trkpt><trkpt lat="45.9317914" lon="8.5430213"><ele>232.0</ele><time>2026-04-25T10:25:15.195Z</time></trkpt><trkpt lat="45.9317379" lon="8.5431398"><ele>232.0</ele><time>2026-04-25T10:25:16.187Z</time></trkpt><trkpt lat="45.9316956" lon="8.5432436"><ele>232.0</ele><time>2026-04-25T10:25:17.186Z</time></trkpt><trkpt lat="45.9316496" lon="8.5433544"><ele>227.5</ele><time>2026-04-25T10:25:18.185Z</time></trkpt><trkpt lat="45.9315922" lon="8.5434893"><ele>223.0</ele><time>2026-04-25T10:25:19.191Z</time></trkpt><trkpt lat="45.9315275" lon="8.543635"><ele>218.5</ele><time>2026-04-25T10:25:20.186Z</time></trkpt><trkpt lat="45.931456" lon="8.5437867"><ele>214.0</ele><time>2026-04-25T10:25:21.186Z</time></trkpt><trkpt lat="45.9313859" lon="8.5439422"><ele>213.5</ele><time>2026-04-25T10:25:22.187Z</time></trkpt><trkpt lat="45.93131" lon="8.5441054"><ele>213.0</ele><time>2026-04-25T10:25:23.183Z</time></trkpt><trkpt lat="45.9312309" lon="8.5442808"><ele>212.5</ele><time>2026-04-25T10:25:24.184Z</time></trkpt><trkpt lat="45.9311345" lon="8.5444501"><ele>212.0</ele><time>2026-04-25T10:25:25.186Z</time></trkpt><trkpt lat="45.9310442" lon="8.5446359"><ele>212.0</ele><time>2026-04-25T10:25:26.182Z</time></trkpt><trkpt lat="45.9309678" lon="8.5448077"><ele>212.0</ele><time>2026-04-25T10:25:27.181Z</time></trkpt><trkpt lat="45.9309084" lon="8.5449682"><ele>212.0</ele><time>2026-04-25T10:25:28.183Z</time></trkpt><trkpt lat="45.9308431" lon="8.5451197"><ele>212.0</ele><time>2026-04-25T10:25:29.185Z</time></trkpt><trkpt lat="45.9307812" lon="8.5452431"><ele>211.33333333333334</ele><time>2026-04-25T10:25:30.182Z</time></trkpt><trkpt lat="45.9307154" lon="8.5453555"><ele>210.66666666666669</ele><time>2026-04-25T10:25:31.183Z</time></trkpt><trkpt lat="45.9306487" lon="8.5454535"><ele>210.0</ele><time>2026-04-25T10:25:32.181Z</time></trkpt><trkpt lat="45.9306194" lon="8.5455468"><ele>209.33333333333331</ele><time>2026-04-25T10:25:33.18Z</time></trkpt><trkpt lat="45.9305955" lon="8.5456336"><ele>208.66666666666666</ele><time>2026-04-25T10:25:34.181Z</time></trkpt><trkpt lat="45.9305656" lon="8.5457346"><ele>208.0</ele><time>2026-04-25T10:25:35.181Z</time></trkpt><trkpt lat="45.9305161" lon="8.5458426"><ele>207.8</ele><time>2026-04-25T10:25:36.18Z</time></trkpt><trkpt lat="45.9304588" lon="8.5459554"><ele>207.60000000000002</ele><time>2026-04-25T10:25:37.187Z</time></trkpt><trkpt lat="45.9303905" lon="8.5460727"><ele>207.39999999999998</ele><time>2026-04-25T10:25:38.181Z</time></trkpt><trkpt lat="45.9303173" lon="8.5461629"><ele>207.2</ele><time>2026-04-25T10:25:39.185Z</time></trkpt><trkpt lat="45.9302571" lon="8.5462575"><ele>207.0</ele><time>2026-04-25T10:25:40.189Z</time></trkpt><trkpt lat="45.9301984" lon="8.546375"><ele>206.8</ele><time>2026-04-25T10:25:41.177Z</time></trkpt><trkpt lat="45.9301381" lon="8.5465096"><ele>206.6</ele><time>2026-04-25T10:25:42.182Z</time></trkpt><trkpt lat="45.9300959" lon="8.5466301"><ele>206.4</ele><time>2026-04-25T10:25:43.181Z</time></trkpt><trkpt lat="45.9300639" lon="8.5467282"><ele>206.20000000000002</ele><time>2026-04-25T10:25:44.177Z</time></trkpt><trkpt lat="45.9300268" lon="8.5468293"><ele>206.0</ele><time>2026-04-25T10:25:45.181Z</time></trkpt><trkpt lat="45.9299832" lon="8.5469587"><ele>206.50000000000003</ele><time>2026-04-25T10:25:46.189Z</time></trkpt><trkpt lat="45.929928" lon="8.5470676"><ele>207.0</ele><time>2026-04-25T10:25:47.191Z</time></trkpt><trkpt lat="45.9298798" lon="8.5471598"><ele>207.5</ele><time>2026-04-25T10:25:48.19Z</time></trkpt><trkpt lat="45.9298343" lon="8.5472423"><ele>208.0</ele><time>2026-04-25T10:25:49.19Z</time></trkpt><trkpt lat="45.9297941" lon="8.5473263"><ele>208.50000000000003</ele><time>2026-04-25T10:25:50.189Z</time></trkpt><trkpt lat="45.929731" lon="8.5474435"><ele>209.0</ele><time>2026-04-25T10:25:52.205Z</time></trkpt><trkpt lat="45.9296636" lon="8.5475338"><ele>209.0</ele><time>2026-04-25T10:25:54.205Z</time></trkpt><trkpt lat="45.9295833" lon="8.5476244"><ele>209.0</ele><time>2026-04-25T10:25:56.202Z</time></trkpt><trkpt lat="45.9295568" lon="8.5477529"><ele>209.0</ele><time>2026-04-25T10:25:58.195Z</time></trkpt><trkpt lat="45.9295618" lon="8.5478647"><ele>209.0</ele><time>2026-04-25T10:25:59.194Z</time></trkpt><trkpt lat="45.9295583" lon="8.5480037"><ele>209.0</ele><time>2026-04-25T10:26:00.198Z</time></trkpt><trkpt lat="45.929525" lon="8.5481439"><ele>209.0</ele><time>2026-04-25T10:26:01.272Z</time></trkpt><trkpt lat="45.9294839" lon="8.5482994"><ele>209.0</ele><time>2026-04-25T10:26:02.272Z</time></trkpt><trkpt lat="45.929452" lon="8.5484772"><ele>209.0</ele><time>2026-04-25T10:26:03.267Z</time></trkpt><trkpt lat="45.9294371" lon="8.5486604"><ele>209.0</ele><time>2026-04-25T10:26:04.256Z</time></trkpt><trkpt lat="45.9294371" lon="8.5488028"><ele>210.0</ele><time>2026-04-25T10:26:05.247Z</time></trkpt><trkpt lat="45.9294313" lon="8.5488999"><ele>210.0</ele><time>2026-04-25T10:26:06.254Z</time></trkpt></trkseg></trk></gpx>